GFSWCAN_850_dewp_000.txt.gz
Dewpoint
-3 -3 -3 -3 -3 -3 -3 -3 -3 -4 -3 -3 -2 -1 -1 0 1 2 4 5 5 4 4 4 4 4 4 4 5 5 6 6 6 7 7 8 6 6 6 5 6 6 7 7 6 7 6 1 -1 -1 -1 -0 1 0
-3 -3 -3 -3 -3 -3 -4 -4 -3 -4 -3 -3 -2 -1 -1 -1 1 2 5 5 5 5 5 4 4 4 4 3 4 5 5 5 5 7 6 7 5 6 5 7 3 7 6 7 6 5 2 0 0 1 -1 0 0 0
-3 -2 -2 -3 -4 -3 -3 -3 -3 -3 -4 -4 -4 -2 -2 -1 1 2 3 5 5 5 5 5 4 4 4 4 4 5 5 5 6 5 4 4 4 3 7 6 5 4 3 5 4 2 1 0 1 1 -0 0 0 -0
-2 -3 -4 -2 -2 -3 -4 -4 -4 -3 -4 -4 -4 -3 -3 -3 1 2 2 4 5 4 5 5 4 5 4 4 4 5 5 5 5 7 5 4 5 2 4 2 4 4 3 3 2 0 -0 0 1 1 -0 0 -0 -0
-3 -3 -3 -5 -5 -2 -4 -4 -5 -6 -4 -5 -4 -5 -4 -4 0 2 4 4 5 4 5 5 5 4 4 4 4 5 5 6 6 7 7 6 4 4 3 3 3 -0 3 4 4 0 0 -0 0 0 -0 -0 -0 -0
-4 -5 -5 -4 -4 -3 -4 -5 -5 -7 -5 -10 -4 -3 -2 -4 0 2 4 4 5 5 4 6 5 5 4 4 5 5 5 5 6 6 6 6 5 5 5 5 2 0 -1 2 1 0 -1 -1 0 0 -0 -1 -1 -2
-4 -5 -5 -4 -6 -6 -5 -6 -6 -5 -13 -5 -5 -3 -3 -5 -0 1 4 5 5 4 4 4 5 5 5 5 5 5 4 6 6 6 6 5 4 4 4 5 2 2 0 -0 -0 -0 -0 0 -0 -0 -1 -1 -2 -4
-5 -9 -6 -5 -7 -5 -5 -5 -6 -15 -5 -4 -4 -5 -5 -3 0 2 4 5 5 5 4 3 4 5 5 6 6 5 4 5 5 5 4 4 3 3 5 3 2 0 0 0 -0 -1 -1 -0 -0 -1 -1 -2 -3 -4
-11 -12 -9 -6 -6 -9 -5 -8 -8 -5 -4 -5 -5 -2 -0 1 2 3 3 5 4 4 4 4 4 5 5 5 5 6 6 6 5 5 4 4 4 4 3 2 1 0 -0 -0 -0 -0 -0 -0 -1 -1 -2 -4 -6 -8
-13 -14 -13 -14 -15 -14 -12 -5 -5 -3 -6 -5 -0 1 2 2 3 4 5 4 4 5 5 5 4 5 5 4 4 4 4 5 5 5 3 4 4 3 3 2 2 0 -0 -0 -1 -1 -1 -1 -2 -3 -4 -6 -8 -9
-13 -14 -15 -16 -16 -16 -10 -5 -4 -3 -6 -2 -3 -1 0 4 4 4 4 4 4 3 4 4 4 4 4 4 4 3 3 2 5 3 5 4 5 3 2 3 3 0 -0 -1 -1 -1 -1 -1 -2 -4 -6 -8 -9 -10
-12 -12 -14 -15 -17 -18 -12 -4 -4 -5 -3 -3 -2 -3 -1 1 2 2 2 3 4 4 4 4 4 3 3 2 2 2 2 1 4 2 4 5 3 1 1 2 3 0 -0 -0 -1 -1 -1 -2 -3 -5 -8 -9 -11 -14
-13 -11 -12 -15 -17 -18 -10 -5 -4 -4 -4 -3 -2 -3 -2 0 2 3 4 4 4 3 4 3 2 2 1 1 0 0 3 4 -1 2 3 2 -0 0 1 2 1 -0 -0 -0 -1 -1 -1 -2 -5 -6 -9 -12 -14 -13
-13 -12 -13 -15 -15 -15 -16 -5 -4 -3 -3 -3 -2 -1 0 2 1 1 2 2 1 3 3 2 1 1 0 0 0 -0 1 -1 1 2 1 -1 -2 0 1 1 0 -0 -0 -1 -1 -1 -2 -4 -7 -9 -12 -14 -13 -12
-13 -13 -14 -15 -15 -17 -18 -15 -4 -3 -3 -3 -1 -0 1 1 0 -0 -1 0 2 3 2 1 0 -0 1 1 -1 0 1 2 0 0 -1 -3 -1 0 0 0 -0 -0 -1 -1 -2 -3 -4 -7 -10 -12 -12 -11 -11 -11
-12 -13 -12 -14 -16 -18 -18 -10 -3 -3 -3 -2 -2 -1 0 1 -0 0 -0 0 2 2 1 -0 -0 0 1 0 -1 -2 -1 0 -0 -2 -2 -2 -1 -0 -0 -0 -1 -1 -2 -2 -4 -5 -8 -11 -12 -11 -10 -10 -11 -11
-12 -12 -13 -15 -18 -19 -16 -3 -3 -3 -2 -1 -0 -1 -1 -0 -1 0 -0 1 2 1 1 -2 -1 -2 -4 -3 -3 -4 -2 -2 -4 -1 -2 -2 -0 -1 -1 -1 -2 -2 -3 -4 -6 -9 -11 -11 -11 -10 -10 -9 -9 -10
-12 -12 -13 -16 -18 -19 -10 -3 -3 -3 -2 -1 -2 -2 -2 -1 -0 0 0 1 2 1 -1 -1 -2 -1 -1 -2 -4 -4 -4 -1 -1 -2 -2 -1 -1 -1 -2 -2 -3 -3 -4 -6 -9 -11 -10 -11 -11 -10 -10 -9 -9 -10
-12 -12 -15 -17 -17 -10 -4 -3 -3 -5 -3 -2 -3 -3 -2 -1 -0 0 0 1 2 1 -1 -1 -2 -3 -3 -5 -6 -3 -1 -2 -3 -2 -1 -1 -2 -3 -3 -3 -4 -5 -7 -10 -10 -10 -10 -11 -10 -9 -9 -9 -10 -10
-13 -15 -17 -17 -17 -5 -4 -4 -4 -3 -8 -3 -3 -3 -3 -2 -1 -0 1 2 2 -1 -0 -2 -2 -3 -3 -2 -2 -2 -2 -3 -4 -2 -2 -3 -3 -4 -4 -5 -6 -8 -10 -9 -9 -10 -9 -9 -8 -8 -9 -9 -9 -10
-14 -16 -16 -17 -12 -7 -5 -5 -5 -4 -4 -4 -4 -4 -3 -2 -1 -1 -0 0 -0 1 1 -0 -1 -3 -4 -5 -5 -5 -3 -3 -3 -3 -3 -4 -5 -4 -5 -7 -9 -9 -9 -9 -9 -8 -8 -7 -8 -8 -8 -9 -9 -9
-12 -14 -14 -14 -10 -8 -6 -5 -7 -6 -5 -4 -4 -4 -3 -4 -2 -3 -2 -1 -3 -4 -3 -3 -2 -4 -4 -4 -4 -3 -3 -3 -3 -3 -3 -3 -5 -6 -7 -8 -8 -9 -9 -9 -9 -8 -7 -8 -8 -8 -8 -9 -8 -9
-12 -13 -13 -12 -12 -11 -10 -10 -6 -5 -8 -8 -5 -6 -5 -5 -4 -4 -4 -6 -6 -6 -5 -4 -4 -4 -4 -3 -4 -4 -4 -4 -3 -3 -4 -5 -6 -7 -8 -8 -9 -10 -9 -8 -8 -8 -8 -8 -8 -8 -8 -8 -9 -12
-11 -12 -14 -13 -11 -14 -11 -10 -9 -6 -6 -8 -8 -6 -5 -5 -5 -5 -6 -7 -7 -7 -6 -5 -4 -4 -3 -4 -4 -4 -3 -3 -2 -3 -5 -6 -7 -7 -8 -9 -8 -8 -8 -8 -8 -8 -8 -8 -8 -8 -9 -10 -12 -14
-11 -14 -12 -18 -11 -13 -14 -13 -14 -12 -10 -10 -8 -8 -6 -5 -4 -5 -6 -9 -10 -9 -7 -7 -6 -5 -5 -5 -5 -5 -4 -3 -3 -5 -6 -5 -7 -7 -6 -7 -8 -8 -8 -8 -8 -8 -8 -8 -8 -9 -11 -13 -14 -16
-15 -13 -14 -17 -15 -13 -13 -11 -13 -13 -11 -10 -8 -6 -6 -5 -6 -7 -10 -12 -12 -11 -10 -8 -8 -7 -7 -6 -6 -6 -6 -5 -5 -5 -6 -4 -4 -5 -5 -7 -8 -8 -8 -8 -8 -8 -8 -9 -10 -12 -14 -15 -17 -20
-14 -16 -9 -9 -9 -9 -11 -10 -10 -12 -12 -10 -9 -9 -7 -6 -7 -11 -13 -13 -12 -11 -11 -9 -8 -8 -7 -7 -7 -6 -7 -6 -4 -4 -4 -3 -2 -3 -8 -9 -8 -7 -6 -6 -7 -8 -9 -10 -13 -14 -15 -18 -22 -23
-10 -10 -12 -10 -9 -10 -14 -14 -14 -13 -13 -10 -10 -10 -9 -9 -10 -14 -13 -13 -13 -12 -11 -10 -8 -8 -8 -8 -7 -7 -6 -5 -5 -5 -6 -7 -7 -6 -5 -5 -5 -6 -8 -9 -9 -11 -12 -13 -14 -16 -20 -23 -23 -23
-8 -8 -9 -15 -12 -12 -14 -14 -14 -10 -11 -12 -13 -11 -13 -14 -14 -14 -13 -13 -12 -12 -11 -10 -10 -8 -8 -7 -7 -6 -6 -5 -5 -5 -6 -7 -7 -7 -7 -7 -9 -10 -10 -12 -14 -14 -14 -16 -19 -22 -22 -23 -22 -21
-9 -9 -11 -16 -15 -14 -12 -11 -11 -11 -12 -12 -12 -13 -13 -14 -14 -13 -13 -13 -12 -11 -11 -10 -9 -8 -8 -8 -8 -8 -7 -6 -5 -4 -5 -6 -7 -8 -9 -10 -11 -13 -13 -14 -14 -16 -19 -21 -22 -22 -22 -21 -21 -22
-9 -9 -11 -13 -16 -12 -11 -11 -11 -11 -11 -12 -12 -12 -13 -13 -13 -13 -13 -12 -12 -11 -10 -9 -9 -8 -8 -7 -7 -7 -7 -8 -7 -7 -8 -10 -10 -11 -12 -13 -14 -14 -15 -16 -18 -20 -21 -21 -21 -20 -20 -21 -24 -26
-9 -9 -14 -14 -15 -12 -12 -12 -11 -11 -11 -11 -11 -12 -12 -12 -12 -12 -12 -12 -11 -11 -10 -9 -8 -8 -8 -8 -9 -11 -13 -13 -13 -13 -13 -13 -13 -14 -14 -14 -15 -17 -19 -20 -20 -20 -20 -19 -19 -21 -23 -27 -28 -27
-10 -11 -12 -13 -14 -14 -12 -12 -13 -14 -13 -13 -13 -13 -12 -12 -12 -11 -11 -11 -11 -10 -10 -9 -9 -8 -9 -10 -13 -13 -13 -13 -13 -13 -14 -14 -14 -14 -15 -16 -18 -19 -19 -19 -18 -18 -19 -20 -22 -26 -28 -26 -26 -27

GFSWCAN_850_dewp_003.txt.gz
Dewpoint
-2 -2 -2 -2 -2 -2 -3 -3 -3 -3 -3 -4 -3 -2 -1 -2 0 1 3 5 5 4 4 4 3 4 4 3 5 4 5 6 6 6 7 6 6 5 5 4 5 5 6 6 5 7 5 1 -1 1 -0 0 -1 -0
-2 -2 -2 -2 -2 -2 -2 -3 -3 -4 -4 -4 -4 -2 -1 -2 -0 1 2 4 5 4 4 4 4 3 3 4 3 4 5 5 6 6 6 6 6 5 5 6 3 6 4 5 4 4 1 0 1 1 -0 0 0 0
-2 -2 -2 -3 -3 -4 -4 -4 -3 -4 -4 -5 -3 -3 -2 -4 -1 0 2 4 5 5 4 4 4 4 4 4 4 4 4 4 6 6 5 5 4 4 6 5 5 4 3 4 4 2 2 0 1 0 0 -0 0 0
-2 -4 -4 -4 -3 -4 -5 -3 -4 -5 -5 -5 -3 -4 -3 -3 -2 -0 1 3 4 4 5 4 4 4 4 4 4 4 5 5 5 6 6 4 4 2 4 3 4 4 3 3 3 1 -0 0 1 -0 -0 -0 0 0
-4 -3 -5 -5 -5 -5 -5 -5 -5 -5 -5 -5 -11 -7 -3 -2 -2 -2 2 4 4 5 5 5 5 5 4 4 4 5 5 5 5 7 7 6 4 4 2 2 3 1 4 4 5 1 1 0 1 0 -0 -0 -0 -0
-5 -4 -11 -13 -11 -6 -4 -6 -6 -5 -5 -14 -14 -5 -3 -2 -3 0 3 4 4 5 5 6 5 5 4 4 5 5 5 5 5 6 6 6 5 5 4 4 3 1 1 2 2 1 -0 0 1 -0 -0 -0 -0 -1
-7 -7 -14 -15 -13 -11 -9 -5 -8 -11 -13 -5 -5 -9 -7 -5 -3 -1 2 4 5 5 5 4 5 5 5 4 5 5 5 5 6 6 6 6 6 5 5 4 2 2 1 -0 1 0 0 0 0 -0 -0 -1 -1 -3
-9 -13 -15 -15 -16 -17 -15 -7 -5 -5 -5 -6 -11 -10 -7 -5 -5 -3 3 4 4 5 4 4 4 5 5 5 5 5 5 5 5 6 5 5 4 4 6 3 2 1 1 0 0 -0 -0 -0 -0 -0 -1 -1 -4 -6
-10 -13 -14 -15 -15 -16 -16 -6 -5 -5 -4 -6 -5 -1 -1 -2 -1 1 3 4 4 5 4 4 4 5 5 5 5 6 6 6 5 6 5 4 4 5 3 2 2 1 1 0 -0 -0 -0 -0 -1 -1 -2 -4 -5 -5
-8 -11 -13 -13 -14 -13 -17 -5 -5 -4 -5 -6 -3 -1 1 1 2 3 4 4 4 5 5 4 3 4 5 5 4 4 4 5 5 5 4 5 5 3 3 2 2 1 0 -0 -1 -1 -1 -1 -1 -2 -3 -4 -6 -7
-5 -11 -13 -12 -13 -13 -17 -10 -5 -4 -5 -5 -3 -3 -3 -0 2 4 2 4 4 3 4 4 3 4 4 4 5 3 3 2 4 2 5 4 5 3 2 3 3 1 0 -0 -0 -1 -1 -1 -1 -2 -3 -5 -8 -10
-8 -13 -14 -12 -13 -15 -15 -10 -5 -5 -4 -3 -3 -3 -3 -0 1 1 2 2 4 4 3 4 3 3 3 3 3 2 3 2 4 1 4 5 3 1 2 2 3 1 0 -0 -1 -1 -1 -1 -2 -3 -5 -8 -10 -11
-14 -14 -14 -13 -14 -15 -15 -16 -5 -5 -4 -4 -3 -3 -3 -1 1 3 3 4 3 2 3 3 2 2 2 2 0 1 4 4 -1 2 3 2 -0 -0 1 1 2 1 -0 -0 -1 -1 -1 -1 -3 -5 -8 -9 -10 -12
-16 -16 -14 -14 -14 -16 -17 -19 -18 -4 -3 -4 -3 -2 -2 1 1 1 1 -1 1 3 3 2 1 1 1 0 -0 1 1 -0 2 2 1 -2 -2 -1 1 1 2 0 -0 -1 -1 -1 -2 -3 -5 -8 -9 -10 -14 -13
-15 -15 -15 -14 -14 -17 -19 -20 -11 -3 -3 -3 -2 -1 0 -0 -0 -0 0 -0 1 3 2 1 0 0 1 1 -2 0 1 2 1 1 -2 -3 -2 0 1 1 0 -0 -1 -1 -1 -2 -3 -5 -7 -9 -11 -14 -14 -13
-13 -15 -14 -14 -15 -20 -20 -18 -3 -3 -4 -3 -3 -2 -0 -0 0 0 -1 -0 2 3 2 0 0 1 2 1 -1 -1 -0 1 1 -2 -3 -2 -1 0 0 0 -0 -1 -1 -2 -2 -3 -5 -7 -9 -11 -12 -12 -12 -12
-12 -13 -14 -15 -17 -20 -19 -5 -4 -3 -3 -3 -1 -1 -2 -1 -1 -0 0 -0 2 2 2 0 2 0 -3 -2 -2 -4 -1 -1 -3 -3 -2 -2 -0 -0 -0 -1 -1 -1 -2 -2 -3 -5 -7 -9 -12 -13 -11 -10 -10 -10
-9 -12 -14 -16 -18 -20 -13 -4 -4 -3 -4 -2 -3 -2 -3 -2 -2 -0 0 0 2 2 -1 0 -3 -2 -2 -2 -3 -3 -4 -3 -1 -2 -2 -1 -1 -1 -1 -1 -2 -2 -3 -4 -5 -7 -10 -12 -12 -11 -11 -10 -10 -10
-11 -12 -14 -16 -17 -17 -8 -5 -4 -4 -5 -3 -3 -4 -3 -3 -2 -1 -0 0 1 2 -0 -1 -3 -3 -2 -4 -5 -4 -3 -2 -2 -2 -2 -1 -1 -2 -2 -2 -3 -3 -3 -5 -7 -10 -11 -12 -13 -12 -11 -10 -11 -11
-12 -14 -16 -16 -18 -16 -6 -5 -4 -5 -5 -4 -4 -4 -3 -4 -3 -2 -1 -0 0 2 0 -0 -2 -4 -3 -2 -2 -1 -2 -2 -3 -2 -2 -2 -3 -3 -3 -3 -4 -4 -6 -8 -10 -11 -11 -11 -11 -11 -11 -11 -11 -11
-13 -14 -15 -16 -15 -10 -7 -6 -5 -5 -5 -5 -5 -4 -4 -4 -2 -1 -1 -1 -0 -0 1 -1 -2 -3 -3 -4 -3 -5 -3 -2 -3 -4 -3 -3 -4 -4 -4 -4 -4 -6 -8 -10 -10 -10 -11 -11 -10 -10 -10 -11 -11 -10
-11 -12 -13 -15 -12 -9 -8 -6 -7 -9 -7 -5 -5 -5 -5 -6 -4 -3 -3 -2 -3 -5 -4 -3 -2 -2 -2 -4 -5 -5 -3 -3 -3 -3 -3 -3 -3 -5 -5 -5 -6 -8 -9 -10 -11 -11 -10 -9 -9 -9 -10 -10 -10 -9
-11 -12 -14 -14 -13 -12 -11 -11 -7 -6 -7 -9 -6 -10 -11 -8 -4 -4 -4 -6 -6 -6 -6 -6 -4 -3 -3 -4 -4 -4 -3 -3 -3 -3 -3 -3 -4 -5 -5 -6 -7 -9 -9 -10 -10 -10 -9 -8 -9 -9 -9 -9 -9 -9
-11 -12 -13 -13 -13 -15 -13 -11 -10 -8 -7 -10 -12 -10 -11 -9 -5 -5 -5 -7 -8 -8 -7 -7 -6 -5 -4 -4 -4 -4 -3 -3 -3 -3 -4 -4 -5 -6 -6 -7 -8 -9 -11 -10 -9 -8 -8 -8 -8 -9 -9 -8 -9 -12
-9 -13 -13 -18 -12 -14 -15 -14 -16 -13 -11 -14 -11 -12 -10 -5 -7 -8 -6 -10 -11 -10 -9 -8 -7 -6 -6 -5 -4 -4 -4 -3 -3 -3 -5 -5 -5 -6 -7 -7 -8 -9 -9 -9 -8 -8 -8 -8 -8 -8 -9 -10 -12 -14
-12 -14 -14 -18 -16 -15 -13 -13 -14 -13 -13 -13 -12 -9 -7 -7 -7 -10 -11 -12 -12 -11 -11 -11 -10 -8 -8 -7 -6 -5 -5 -4 -4 -3 -5 -6 -6 -7 -8 -8 -8 -8 -8 -8 -9 -8 -8 -8 -8 -9 -12 -14 -15 -16
-13 -15 -11 -11 -10 -10 -11 -11 -11 -13 -14 -13 -14 -13 -11 -8 -8 -12 -12 -12 -13 -13 -12 -11 -10 -9 -8 -7 -7 -7 -6 -6 -6 -5 -6 -6 -5 -5 -6 -5 -7 -7 -7 -8 -8 -8 -8 -8 -9 -12 -14 -16 -19 -22
-10 -11 -12 -9 -9 -10 -15 -15 -15 -14 -14 -10 -12 -12 -11 -9 -9 -13 -13 -13 -13 -13 -12 -12 -10 -10 -9 -8 -7 -7 -7 -7 -7 -6 -6 -5 -4 -4 -3 -3 -6 -7 -7 -5 -5 -5 -7 -10 -12 -14 -16 -18 -22 -23
-8 -8 -10 -16 -13 -12 -13 -14 -14 -11 -11 -11 -14 -14 -14 -13 -13 -14 -13 -13 -12 -12 -13 -12 -12 -11 -10 -9 -8 -8 -8 -8 -7 -7 -6 -8 -7 -6 -6 -6 -5 -5 -5 -6 -8 -11 -12 -14 -15 -17 -20 -22 -23 -23
-9 -9 -11 -16 -14 -13 -13 -11 -11 -11 -11 -12 -12 -12 -13 -13 -13 -13 -13 -13 -12 -12 -13 -12 -12 -11 -11 -10 -10 -9 -9 -8 -7 -5 -5 -5 -5 -6 -6 -6 -6 -7 -9 -12 -13 -14 -15 -17 -20 -21 -22 -22 -21 -21
-9 -9 -11 -12 -16 -12 -12 -11 -11 -11 -11 -12 -12 -12 -13 -13 -13 -13 -13 -12 -12 -12 -12 -12 -11 -11 -10 -10 -9 -8 -8 -7 -6 -5 -4 -5 -6 -6 -6 -7 -8 -11 -13 -14 -14 -16 -19 -21 -21 -21 -21 -20 -22 -25
-9 -10 -14 -15 -15 -13 -12 -11 -11 -11 -11 -12 -12 -12 -12 -12 -12 -12 -12 -12 -12 -12 -11 -11 -10 -10 -9 -8 -7 -7 -6 -6 -6 -5 -5 -6 -6 -9 -11 -13 -14 -14 -15 -17 -19 -20 -21 -20 -19 -19 -20 -24 -28 -28
-11 -11 -13 -14 -14 -14 -13 -12 -13 -13 -13 -13 -12 -12 -12 -13 -13 -12 -12 -11 -11 -11 -11 -10 -10 -9 -9 -8 -8 -8 -8 -8 -8 -9 -10 -12 -13 -14 -15 -15 -17 -18 -19 -19 -20 -19 -18 -18 -20 -22 -27 -29 -28 -29

GFSWCAN_850_dewp_006.txt.gz
Dewpoint
-5 -4 -3 -3 -3 -3 -4 -4 -3 -3 -4 -4 -5 -4 -3 -2 -0 1 2 3 5 4 4 4 3 3 3 3 4 4 5 5 5 6 7 7 7 5 5 3 5 5 5 6 5 7 4 1 1 4 1 -0 -0 3
-5 -4 -3 -2 -3 -3 -4 -5 -4 -3 -4 -4 -5 -3 -3 -2 -1 0 1 4 5 4 4 4 4 3 3 3 3 4 4 5 5 7 5 6 6 4 4 5 3 6 4 4 4 3 0 1 0 1 -0 0 0 0
-4 -2 -3 -3 -3 -5 -5 -5 -5 -4 -5 -5 -4 -3 -11 -3 -2 -0 0 2 4 3 4 4 4 3 4 3 3 4 4 4 5 6 5 5 6 4 5 4 4 3 2 4 4 2 2 1 1 0 0 0 0 -0
-4 -3 -3 -4 -4 -4 -7 -5 -6 -4 -4 -5 -4 -13 -14 -5 -3 -1 -1 2 3 4 4 3 4 4 3 4 4 4 4 5 5 5 6 5 5 2 4 3 4 3 3 3 3 2 0 0 1 0 0 0 0 0
-4 -3 -4 -11 -14 -9 -7 -5 -5 -6 -7 -14 -13 -7 -7 -6 -4 -4 -2 3 3 4 5 5 5 4 5 4 4 4 4 5 5 6 6 7 3 3 2 2 3 2 4 4 5 2 1 0 1 -0 0 0 0 0
-4 -4 -4 -13 -16 -17 -18 -10 -5 -5 -4 -5 -5 -4 -6 -9 -6 -4 2 2 3 4 5 5 5 5 4 4 4 5 5 5 5 6 6 6 5 4 3 4 2 1 2 2 2 1 -0 0 0 -0 -0 -0 -0 0
-3 -7 -2 -4 -10 -16 -16 -13 -7 -5 -5 -4 -4 -4 -5 -12 -9 -3 1 3 4 4 5 4 3 5 5 5 5 5 5 5 5 4 6 6 6 5 6 6 2 2 2 0 1 0 0 0 0 -0 -0 -0 -0 -0
-3 -3 -2 -3 -3 -9 -13 -11 -6 -5 -5 -4 -4 -6 -7 -9 -9 -7 -3 1 2 4 5 4 4 4 5 5 5 5 5 5 6 6 6 5 4 4 6 3 3 2 2 0 0 0 -0 0 0 -0 -1 -1 -1 -3
-3 -4 -3 -2 -4 -4 -8 -6 -4 -9 -5 -7 -5 -2 -1 -0 -2 -0 1 3 4 4 4 4 4 4 5 5 5 6 6 6 5 5 5 5 5 5 4 3 2 2 1 1 0 -0 -0 -0 -0 -1 -1 -2 -4 -7
-3 -5 -3 -6 -7 -4 -4 -4 -10 -6 -5 -7 -3 -2 -0 -1 -0 1 3 3 4 5 5 4 3 4 4 5 4 4 4 5 5 5 4 5 5 3 3 2 2 2 1 0 -0 -1 -1 -0 -1 -1 -2 -4 -6 -7
-3 -10 -7 -8 -9 -6 -4 -8 -10 -6 -7 -5 -5 -3 -4 -1 0 2 3 4 4 3 4 4 3 3 4 4 4 3 3 2 5 2 5 4 5 3 3 3 3 2 1 0 -0 -0 -1 -1 -1 -1 -3 -5 -6 -6
-4 -15 -15 -14 -13 -11 -13 -15 -15 -9 -5 -4 -4 -3 -2 -1 -0 1 2 2 3 2 3 4 3 2 4 3 3 2 2 2 4 0 4 5 2 1 1 2 3 2 1 -0 -0 -1 -1 -1 -1 -2 -4 -5 -6 -8
-7 -15 -15 -15 -14 -14 -13 -17 -19 -14 -4 -4 -3 -3 -3 -2 1 2 3 3 3 2 3 3 2 2 2 2 1 1 3 3 -1 3 4 2 -0 -0 0 1 3 1 0 -0 -1 -1 -1 -1 -1 -2 -4 -6 -9 -10
-12 -16 -15 -15 -15 -14 -15 -20 -20 -5 -2 -4 -4 -4 -2 -0 1 1 1 1 -0 1 3 2 1 -0 1 -0 0 3 2 0 3 3 1 -2 -3 -3 -0 1 2 1 -0 -0 -1 -1 -1 -1 -2 -4 -6 -9 -10 -12
-13 -16 -16 -16 -15 -16 -19 -20 -12 -3 -3 -3 -3 -3 -2 -0 -0 -0 0 -0 1 2 2 1 1 -0 0 -1 -2 1 2 2 1 1 -2 -3 -3 -1 0 1 1 0 -0 -1 -1 -2 -2 -2 -3 -7 -9 -10 -12 -14
-12 -15 -15 -15 -17 -18 -19 -15 -4 -3 -4 -3 -3 -4 -1 -2 -3 -1 0 -0 1 2 2 1 1 2 2 -1 -0 1 0 1 0 -3 -3 -3 -2 -0 0 1 0 -0 -1 -1 -2 -2 -3 -4 -6 -8 -9 -12 -13 -14
-10 -12 -12 -16 -19 -18 -17 -5 -4 -3 -4 -4 -2 -2 -2 -3 -1 -1 -1 0 1 2 2 1 2 2 -3 -2 -2 -3 -1 -1 -2 -3 -3 -3 -1 -0 0 -0 -1 -1 -1 -2 -2 -3 -4 -7 -8 -10 -12 -11 -11 -11
-8 -11 -12 -15 -18 -19 -14 -4 -4 -4 -5 -4 -3 -3 -3 -4 -3 -2 -1 -0 0 2 1 1 -3 -3 -3 -1 -2 -3 -3 -3 -3 -2 -2 -2 -1 -1 -0 -1 -1 -1 -2 -2 -3 -4 -7 -8 -10 -12 -13 -11 -10 -10
-6 -8 -12 -14 -16 -17 -14 -8 -5 -5 -5 -5 -4 -4 -4 -4 -5 -4 -3 -1 -1 -1 0 -0 -1 -2 -2 -5 -5 -4 -4 -3 -2 -2 -2 -2 -1 -1 -1 -2 -2 -2 -2 -3 -4 -6 -8 -10 -12 -13 -12 -10 -11 -11
-7 -10 -13 -14 -16 -18 -13 -7 -5 -5 -5 -5 -5 -5 -4 -4 -5 -5 -3 -2 -2 -0 -0 0 0 -3 -4 -3 -2 -3 -2 -3 -3 -3 -3 -2 -2 -2 -2 -2 -3 -3 -4 -5 -6 -8 -10 -11 -12 -12 -12 -11 -12 -12
-8 -13 -14 -14 -15 -16 -10 -7 -6 -6 -6 -6 -6 -6 -5 -5 -4 -3 -2 -2 -2 -0 0 -1 -2 -2 -3 -4 -3 -3 -4 -2 -3 -4 -4 -3 -3 -3 -3 -3 -3 -4 -4 -6 -8 -9 -11 -12 -11 -11 -11 -11 -12 -12
-9 -11 -11 -14 -15 -10 -8 -7 -6 -8 -8 -7 -6 -6 -6 -6 -5 -4 -4 -3 -3 -5 -6 -6 -5 -4 -2 -3 -4 -5 -4 -3 -3 -3 -4 -3 -3 -3 -3 -4 -4 -5 -6 -7 -9 -11 -11 -12 -11 -11 -11 -11 -12 -11
-9 -11 -12 -13 -12 -12 -12 -10 -8 -7 -8 -9 -7 -11 -13 -10 -5 -5 -5 -6 -6 -8 -8 -7 -7 -5 -5 -4 -2 -3 -3 -3 -3 -3 -4 -4 -4 -4 -4 -4 -4 -5 -7 -9 -10 -11 -11 -11 -10 -11 -11 -11 -10 -9
-9 -11 -11 -13 -13 -17 -13 -11 -10 -9 -8 -11 -14 -11 -14 -10 -5 -8 -9 -8 -9 -9 -8 -8 -8 -7 -6 -5 -4 -4 -3 -3 -3 -3 -3 -4 -4 -4 -5 -5 -6 -6 -8 -9 -10 -10 -10 -10 -10 -10 -10 -10 -9 -9
-9 -11 -13 -17 -12 -15 -16 -15 -17 -14 -11 -15 -9 -12 -13 -6 -10 -12 -11 -12 -11 -10 -10 -9 -9 -8 -9 -8 -6 -5 -5 -4 -3 -3 -3 -4 -4 -5 -5 -6 -7 -7 -9 -10 -10 -10 -9 -9 -10 -10 -9 -9 -9 -12
-12 -13 -14 -16 -17 -16 -14 -15 -15 -14 -15 -14 -14 -11 -9 -11 -10 -10 -13 -11 -10 -12 -13 -12 -11 -11 -9 -9 -9 -7 -6 -5 -4 -4 -3 -4 -4 -4 -5 -6 -7 -8 -9 -10 -11 -9 -9 -9 -9 -9 -9 -10 -12 -14
-12 -14 -13 -13 -12 -11 -12 -11 -11 -14 -14 -11 -15 -14 -14 -11 -13 -12 -10 -11 -13 -13 -13 -12 -12 -11 -11 -9 -9 -8 -7 -6 -5 -5 -5 -5 -5 -5 -5 -5 -6 -8 -9 -9 -9 -9 -9 -9 -9 -9 -10 -13 -15 -17
-9 -11 -12 -9 -9 -11 -15 -15 -15 -13 -14 -11 -12 -13 -13 -12 -12 -11 -12 -13 -13 -13 -12 -12 -12 -11 -11 -10 -10 -9 -8 -7 -7 -6 -6 -7 -7 -6 -6 -5 -5 -6 -5 -5 -7 -8 -8 -8 -8 -8 -13 -14 -17 -22
-8 -9 -11 -14 -13 -13 -13 -14 -15 -13 -11 -11 -13 -13 -14 -11 -11 -12 -13 -13 -13 -12 -12 -12 -12 -12 -11 -11 -10 -10 -9 -9 -8 -8 -8 -9 -8 -8 -7 -5 -4 -4 -5 -7 -7 -5 -5 -6 -11 -14 -16 -19 -22 -22
-9 -9 -11 -15 -14 -13 -14 -12 -11 -11 -11 -11 -12 -12 -12 -12 -12 -13 -13 -13 -12 -12 -12 -12 -12 -12 -12 -12 -11 -11 -10 -10 -10 -8 -8 -8 -8 -7 -6 -6 -5 -6 -6 -5 -6 -7 -10 -14 -15 -18 -21 -22 -22 -21
-9 -9 -11 -12 -15 -13 -12 -12 -11 -11 -11 -12 -12 -12 -12 -13 -12 -12 -12 -12 -12 -12 -12 -12 -12 -12 -12 -12 -11 -11 -10 -10 -9 -8 -6 -6 -6 -7 -7 -6 -6 -6 -6 -6 -7 -12 -15 -17 -19 -21 -21 -21 -21 -23
-10 -10 -13 -15 -15 -13 -12 -12 -12 -12 -12 -12 -12 -12 -12 -12 -12 -12 -12 -12 -12 -12 -12 -12 -12 -11 -11 -10 -10 -9 -9 -9 -8 -7 -7 -6 -7 -6 -6 -6 -6 -6 -9 -13 -15 -16 -19 -20 -21 -20 -20 -22 -24 -27
-12 -11 -13 -14 -15 -15 -13 -13 -13 -14 -13 -13 -12 -13 -12 -12 -13 -12 -12 -11 -11 -11 -11 -10 -10 -10 -10 -10 -9 -8 -8 -8 -7 -7 -7 -7 -6 -7 -7 -8 -9 -11 -15 -17 -19 -20 -20 -19 -19 -21 -23 -26 -29 -30

GFSWCAN_850_dewp_009.txt.gz
Dewpoint
-5 -3 -1 -3 -3 -9 -10 -5 -3 -4 -5 -5 -4 -4 -3 -14 -5 -0 1 2 2 4 4 2 2 3 3 3 4 3 5 5 5 5 6 6 5 4 4 2 4 4 6 5 5 6 4 1 4 6 2 0 0 3
-16 -3 -1 -3 -8 -24 -15 -13 -3 -7 -5 -5 -4 -3 -5 -12 -4 -2 -0 2 4 4 4 4 3 3 3 3 3 4 4 4 4 5 5 6 6 4 3 5 2 5 3 4 4 3 -0 1 1 0 1 0 0 1
-15 -3 -2 -3 -9 -23 -16 -10 -8 -15 -7 -6 -6 -4 -9 -12 -3 -2 -2 0 3 4 3 4 4 3 3 3 3 4 4 4 4 5 6 5 6 3 5 4 3 3 2 5 4 2 2 2 1 1 0 0 0 0
-11 -2 -2 -6 -7 -20 -15 -13 -13 -13 -5 -7 -5 -4 -4 -10 -16 -5 -7 -4 0 3 4 3 3 4 3 4 4 3 4 4 4 5 5 6 5 2 4 3 3 3 3 4 3 2 1 1 0 0 0 0 0 0
-8 -2 -3 -9 -3 -16 -13 -12 -5 -13 -5 -5 -4 -5 -4 -5 -18 -17 -11 -1 2 2 4 4 4 4 4 4 4 4 4 4 4 5 5 6 4 2 1 2 3 2 3 4 5 2 1 0 1 0 0 0 -0 -0
-6 -2 -3 -3 -2 -6 -4 -8 -3 -4 -4 -4 -5 -3 -3 -4 -7 -9 1 2 2 2 4 5 5 5 4 4 4 4 4 5 4 5 5 4 5 3 3 4 2 1 2 2 2 1 0 0 0 0 -0 0 0 -0
-4 -2 -3 -4 -3 -3 -3 -4 -3 -4 -4 -5 -5 -4 -3 -3 -5 -6 -1 1 2 3 4 4 3 4 5 4 4 4 4 5 5 4 5 6 6 5 6 6 3 2 2 1 2 1 0 0 0 -0 -0 -0 0 -0
-5 -3 -3 -5 -2 -3 -4 -3 -4 -4 -5 -11 -5 -4 -4 -5 -9 -14 -11 -1 1 3 4 4 3 4 5 5 5 5 5 5 5 5 6 5 5 5 6 4 3 3 2 2 1 1 0 0 -0 -0 -1 -0 -0 -1
-6 -3 -3 -7 -3 -3 -3 -4 -4 -4 -12 -11 -8 -3 -2 -1 -2 -2 -2 1 2 3 4 4 3 2 5 5 4 5 5 6 5 5 5 5 5 6 5 3 3 3 2 2 0 0 0 0 -0 -1 -1 -1 -1 -3
-4 -3 -5 -14 -5 -6 -5 -9 -8 -6 -9 -9 -5 -3 -1 -2 -2 -1 1 2 3 4 4 4 2 3 4 4 4 4 4 5 5 5 4 4 6 4 3 4 3 2 2 1 0 -0 -0 -0 -0 -1 -1 -1 -4 -7
-5 -3 -7 -17 -14 -9 -10 -14 -9 -5 -12 -5 -5 -3 -3 -1 0 0 1 3 4 3 4 4 3 3 4 4 5 3 3 2 5 2 5 5 4 2 2 3 3 3 2 1 1 0 -0 -0 -0 -1 -2 -4 -7 -8
-6 -3 -11 -17 -14 -14 -14 -15 -10 -11 -6 -3 -4 -3 -2 -1 -0 -0 2 2 3 3 3 4 3 2 3 4 3 2 2 2 4 -0 4 4 2 1 0 1 2 3 2 0 -0 -0 -0 -0 -0 -1 -3 -6 -7 -7
-9 -3 -14 -16 -14 -15 -14 -17 -18 -17 -4 -4 -3 -3 -3 -1 1 2 3 3 3 2 3 3 2 2 3 2 1 -0 3 3 -1 2 3 1 -0 -1 -0 1 2 2 1 -0 -0 -1 -1 -1 -1 -2 -4 -6 -6 -7
-7 -4 -15 -16 -15 -15 -15 -19 -18 -5 -3 -4 -3 -5 -1 0 -0 1 0 0 0 1 2 2 1 1 1 -1 -0 4 1 1 2 3 -0 -3 -3 -3 -2 0 2 1 0 -0 -1 -1 -1 -1 -1 -3 -5 -6 -7 -10
-6 -5 -15 -15 -15 -17 -17 -19 -6 -3 -4 -4 -4 -5 -1 -1 -1 -1 -1 -0 1 1 2 1 1 0 -2 -0 -1 1 2 2 2 1 -2 -3 -3 -2 -0 1 1 1 -0 -1 -1 -1 -1 -1 -2 -4 -5 -7 -10 -12
-3 -7 -15 -13 -15 -18 -18 -14 -4 -4 -4 -4 -4 -5 -3 -5 -5 -2 -1 -1 0 1 2 2 1 2 2 0 0 2 1 2 0 -2 -2 -3 -2 -1 0 1 1 0 -0 -1 -1 -1 -1 -2 -3 -5 -8 -10 -12 -15
-4 -7 -11 -11 -15 -18 -17 -9 -4 -4 -4 -4 -3 -3 -3 -4 -3 -3 -2 -1 -0 1 2 1 2 2 -3 -2 -0 -2 -1 -1 -2 -3 -3 -3 -2 -1 -0 0 -0 -1 -1 -2 -2 -2 -2 -3 -5 -8 -10 -11 -13 -12
-5 -8 -11 -13 -14 -17 -15 -6 -5 -5 -5 -4 -3 -4 -4 -3 -4 -4 -4 -2 -1 -1 -0 1 -2 -2 -3 -1 -2 -2 -3 -3 -3 -4 -3 -3 -3 -1 -0 -0 -1 -1 -2 -2 -2 -3 -3 -5 -8 -9 -11 -13 -11 -10
-5 -7 -9 -14 -14 -15 -16 -9 -5 -6 -6 -5 -5 -5 -5 -5 -6 -5 -5 -3 -2 -1 -1 -0 -0 -2 -3 -5 -5 -4 -3 -4 -3 -3 -3 -3 -2 -1 -1 -1 -2 -2 -2 -3 -3 -4 -5 -7 -9 -11 -12 -12 -11 -10
-5 -6 -9 -14 -15 -17 -15 -9 -8 -6 -6 -6 -6 -6 -6 -6 -6 -6 -5 -3 -2 -2 -1 -0 -0 -2 -3 -3 -3 -3 -3 -3 -3 -3 -3 -3 -2 -2 -1 -1 -2 -2 -3 -4 -4 -5 -7 -8 -10 -11 -13 -12 -12 -11
-5 -8 -12 -14 -14 -15 -12 -8 -6 -6 -6 -7 -7 -7 -7 -6 -6 -4 -5 -4 -3 -2 -0 -3 -4 -4 -4 -3 -2 -4 -4 -3 -3 -3 -4 -3 -3 -2 -2 -2 -2 -3 -3 -4 -5 -6 -8 -9 -10 -11 -11 -11 -12 -12
-7 -10 -11 -13 -14 -12 -8 -7 -6 -7 -9 -8 -7 -8 -8 -7 -7 -4 -5 -5 -4 -6 -6 -7 -7 -6 -5 -4 -4 -3 -2 -4 -3 -3 -3 -3 -3 -3 -3 -3 -3 -3 -4 -4 -6 -7 -9 -10 -11 -11 -11 -11 -12 -12
-8 -10 -11 -13 -12 -12 -12 -9 -10 -8 -9 -11 -9 -11 -12 -11 -6 -6 -5 -5 -6 -7 -8 -8 -7 -6 -5 -5 -5 -4 -3 -3 -3 -3 -3 -3 -4 -4 -3 -3 -3 -3 -4 -6 -7 -8 -10 -10 -10 -11 -11 -12 -12 -12
-7 -10 -11 -12 -13 -16 -13 -12 -10 -9 -9 -12 -9 -13 -15 -10 -6 -8 -7 -8 -7 -10 -10 -11 -11 -9 -8 -6 -6 -6 -5 -4 -4 -3 -3 -4 -4 -4 -4 -4 -4 -4 -5 -6 -8 -9 -11 -11 -10 -11 -12 -12 -12 -10
-8 -10 -12 -16 -12 -15 -16 -16 -17 -14 -13 -16 -9 -11 -14 -9 -9 -14 -10 -10 -9 -10 -12 -12 -12 -12 -11 -9 -8 -7 -6 -6 -5 -5 -4 -4 -4 -4 -5 -5 -5 -5 -6 -7 -9 -10 -11 -11 -11 -11 -12 -11 -10 -10
-11 -12 -14 -14 -16 -16 -15 -16 -16 -15 -15 -13 -12 -12 -10 -12 -10 -9 -13 -10 -9 -11 -12 -13 -13 -12 -12 -11 -10 -9 -8 -7 -7 -6 -5 -5 -4 -4 -5 -5 -6 -7 -7 -8 -9 -11 -11 -11 -11 -11 -11 -10 -10 -12
-10 -12 -14 -14 -14 -14 -13 -12 -11 -14 -14 -13 -16 -15 -15 -12 -13 -13 -10 -9 -10 -12 -13 -13 -12 -12 -12 -11 -10 -9 -9 -8 -8 -7 -6 -5 -5 -5 -5 -5 -5 -6 -8 -8 -9 -9 -10 -11 -11 -10 -9 -10 -12 -14
-8 -12 -12 -10 -9 -11 -16 -15 -15 -14 -14 -12 -12 -13 -13 -12 -12 -11 -13 -13 -12 -13 -13 -12 -12 -12 -12 -12 -11 -10 -10 -9 -9 -8 -7 -7 -7 -7 -6 -6 -5 -4 -4 -4 -8 -7 -8 -10 -9 -9 -10 -10 -14 -18
-8 -10 -11 -13 -12 -12 -13 -14 -15 -15 -13 -11 -13 -14 -14 -11 -13 -14 -13 -13 -13 -13 -12 -12 -12 -12 -12 -12 -11 -11 -11 -10 -10 -9 -9 -8 -9 -8 -8 -7 -6 -5 -4 -6 -5 -4 -8 -8 -9 -7 -6 -12 -18 -21
-8 -10 -12 -14 -14 -13 -14 -13 -12 -12 -11 -11 -11 -12 -12 -13 -14 -13 -13 -12 -12 -12 -12 -12 -12 -12 -13 -12 -12 -12 -11 -10 -10 -10 -9 -9 -9 -8 -8 -7 -7 -6 -5 -5 -6 -7 -7 -6 -6 -9 -16 -20 -21 -21
-9 -9 -11 -12 -15 -13 -13 -13 -12 -12 -11 -11 -11 -12 -12 -12 -12 -13 -12 -12 -12 -12 -12 -12 -12 -12 -12 -12 -12 -12 -11 -11 -10 -10 -10 -9 -9 -9 -8 -7 -6 -6 -6 -5 -6 -6 -7 -7 -9 -18 -21 -21 -20 -21
-9 -10 -13 -14 -15 -13 -13 -12 -12 -12 -12 -12 -12 -12 -12 -12 -12 -12 -12 -12 -11 -12 -12 -12 -12 -12 -11 -11 -11 -11 -10 -10 -10 -10 -10 -10 -10 -9 -8 -7 -6 -6 -6 -6 -6 -7 -8 -14 -20 -21 -20 -20 -23 -27
-12 -12 -13 -14 -15 -15 -13 -13 -13 -14 -13 -13 -13 -13 -13 -12 -13 -12 -12 -11 -11 -11 -11 -12 -12 -12 -12 -12 -11 -11 -11 -10 -11 -11 -10 -9 -9 -8 -8 -7 -7 -7 -6 -7 -9 -14 -19 -20 -20 -20 -21 -25 -28 -30

GFSWCAN_850_dewp_012.txt.gz
Dewpoint
-9 -7 -3 -1 -9 -10 -16 -14 -5 -10 -10 -9 -3 -6 -10 -13 -16 -5 -4 1 0 1 4 2 1 3 3 3 3 3 4 5 5 5 6 5 6 4 5 3 4 4 6 6 6 5 7 1 3 4 2 1 0 2
-9 -13 -4 -2 -8 -4 -16 -15 -7 -19 -17 -12 -6 -5 -11 -10 -11 -7 -2 -2 0 0 4 3 3 2 2 2 2 3 4 4 4 5 5 6 5 4 4 5 2 5 4 4 4 4 1 1 2 1 1 1 1 2
-16 -16 -3 -2 -3 -4 -7 -6 -4 -7 -12 -10 -4 -4 -4 -6 -14 -12 -10 -5 0 2 4 4 4 3 3 3 3 4 4 4 5 4 5 5 6 5 5 5 4 3 2 5 4 2 2 2 1 1 0 1 0 1
-19 -16 -6 -2 -3 -5 -2 -3 -3 -4 -4 -4 -4 -4 -5 -4 -4 -6 -14 -11 -2 0 3 3 3 3 3 3 3 3 3 4 4 5 4 4 5 3 5 4 4 3 3 4 4 3 2 1 1 0 0 0 0 2
-17 -13 -9 -2 -3 -6 -3 -2 -2 -2 -3 -4 -4 -3 -5 -3 -3 -7 -15 -8 -1 0 3 4 4 3 3 3 4 4 4 4 5 5 5 5 4 3 3 3 4 2 4 4 3 2 2 1 1 0 0 -0 -0 -0
-18 -13 -5 -3 -3 -6 -2 -2 -3 -3 -3 -3 -4 -4 -4 -4 -3 -4 -1 -0 0 0 1 5 5 5 5 5 4 4 4 4 5 5 4 4 3 4 6 5 2 2 2 2 2 1 1 0 0 -0 -0 -0 -1 -1
-17 -17 -4 -3 -3 -7 -3 -3 -3 -3 -3 -4 -4 -4 -4 -3 -3 -3 -2 -0 -0 1 1 4 3 5 5 4 4 4 4 4 4 4 4 4 4 5 6 6 2 3 2 2 2 2 1 0 0 -0 -0 -0 -1 -0
-17 -18 -7 -3 -3 -7 -4 -3 -2 -3 -5 -4 -5 -6 -3 -2 -3 -5 -13 -7 0 1 3 4 4 3 4 4 5 4 5 5 5 5 5 5 5 5 7 5 4 3 3 2 2 1 0 0 -0 -0 -0 -0 -1 -1
-17 -17 -12 -3 -3 -13 -12 -3 -3 -7 -5 -5 -6 -3 -3 -3 -3 -2 -2 -1 0 1 3 4 4 5 5 5 4 5 5 6 4 6 5 5 5 6 5 4 4 4 3 2 1 1 0 0 -0 -1 -0 -1 -0 -1
-16 -17 -14 -3 -5 -15 -14 -4 -6 -5 -10 -5 -4 -3 -2 -3 -2 -2 -0 0 1 2 3 4 2 4 4 5 5 5 4 5 5 5 4 4 5 4 4 4 4 3 2 2 0 -0 0 -0 -0 -1 -0 -0 -1 -1
-15 -18 -13 -3 -11 -15 -14 -4 -13 -14 -11 -4 -4 -3 -1 -1 -0 -0 -0 1 3 4 4 3 3 3 3 4 5 3 4 3 5 4 5 6 5 3 2 1 2 3 3 2 1 1 1 0 -0 -1 -1 -1 -2 -6
-15 -16 -12 -3 -12 -15 -15 -14 -15 -17 -9 -4 -3 -3 -2 -1 -0 1 1 2 3 4 4 4 3 2 3 4 4 3 4 3 5 0 4 5 3 1 -1 -0 1 2 3 2 1 -0 -0 -0 -0 -1 -1 -2 -6 -8
-14 -14 -11 -3 -12 -16 -16 -16 -19 -14 -3 -4 -3 -3 -2 -1 1 1 1 3 3 1 2 3 3 3 3 2 2 2 4 4 0 3 4 3 1 -1 -3 -1 2 2 2 1 0 -0 -0 -0 -0 -1 -1 -5 -7 -8
-15 -14 -8 -5 -13 -17 -15 -18 -19 -4 -4 -4 -3 -3 -1 0 0 -0 0 1 0 0 1 2 2 2 1 2 1 4 2 1 3 4 4 2 -2 -3 -2 -0 1 1 1 0 -0 -1 -1 -1 -1 -2 -3 -7 -7 -7
-14 -11 -3 -10 -14 -16 -16 -18 -13 -4 -4 -4 -4 -2 -1 -2 -1 -1 -1 -1 0 0 1 2 1 1 1 2 0 2 3 3 2 3 2 -2 -3 -2 -0 0 1 1 -0 -1 -1 -1 -1 -1 -1 -3 -6 -7 -6 -8
-11 -5 -7 -14 -14 -15 -16 -17 -8 -4 -4 -4 -4 -3 -3 -3 -3 -3 -3 -1 -0 0 2 2 2 3 3 2 2 3 3 3 3 2 -1 -3 -3 -2 -0 0 1 1 -0 -1 -1 -1 -1 -1 -2 -4 -6 -6 -8 -11
-4 -3 -8 -11 -13 -14 -16 -11 -5 -4 -4 -4 -3 -3 -3 -3 -4 -3 -4 -2 -2 -0 1 1 3 4 -1 1 1 1 2 2 -1 -3 -3 -3 -2 -2 -1 0 0 0 -1 -1 -1 -2 -2 -2 -4 -5 -6 -8 -10 -12
-3 -3 -5 -9 -12 -16 -15 -8 -5 -5 -5 -4 -4 -4 -4 -4 -4 -5 -4 -3 -4 -2 -1 1 -1 1 1 2 2 -2 -3 -3 -3 -3 -3 -3 -3 -2 -1 -0 -0 -0 -1 -2 -2 -2 -2 -3 -5 -6 -9 -10 -12 -12
-2 -2 -5 -7 -10 -15 -16 -9 -7 -6 -6 -5 -5 -5 -5 -5 -6 -6 -6 -5 -3 -2 -2 -1 1 1 0 -3 -3 -3 -4 -4 -4 -3 -3 -3 -3 -2 -2 -1 -1 -1 -1 -2 -2 -3 -3 -5 -6 -9 -10 -12 -13 -11
-2 -3 -4 -6 -12 -15 -15 -9 -9 -6 -7 -6 -6 -6 -6 -6 -8 -8 -7 -4 -4 -3 -2 -0 -1 -2 -3 -5 -5 -5 -4 -3 -4 -4 -3 -3 -3 -3 -2 -2 -1 -2 -2 -3 -3 -3 -4 -6 -8 -10 -11 -12 -13 -11
-3 -4 -5 -9 -13 -14 -13 -10 -8 -7 -7 -7 -7 -7 -8 -7 -7 -6 -4 -4 -5 -4 -2 -4 -4 -5 -5 -4 -4 -4 -4 -3 -2 -3 -4 -3 -3 -3 -3 -3 -3 -3 -3 -3 -3 -4 -5 -7 -9 -10 -9 -10 -11 -11
-4 -6 -10 -12 -13 -14 -9 -8 -7 -7 -9 -8 -8 -9 -8 -7 -7 -6 -6 -5 -5 -4 -5 -6 -6 -7 -8 -8 -6 -4 -4 -4 -3 -2 -3 -3 -3 -3 -3 -3 -3 -3 -3 -3 -4 -4 -6 -8 -10 -8 -6 -10 -10 -11
-6 -8 -10 -12 -13 -13 -12 -8 -8 -9 -8 -9 -9 -9 -9 -8 -7 -6 -6 -6 -6 -6 -7 -10 -12 -12 -12 -11 -9 -7 -6 -5 -4 -3 -2 -3 -3 -3 -4 -4 -3 -4 -4 -4 -4 -5 -7 -8 -7 -3 -10 -10 -11 -12
-8 -10 -10 -12 -13 -14 -13 -11 -10 -10 -10 -9 -8 -9 -12 -10 -9 -8 -6 -7 -6 -7 -10 -12 -12 -14 -16 -14 -12 -11 -8 -7 -6 -5 -4 -3 -1 -3 -4 -4 -4 -4 -4 -4 -5 -6 -8 -8 -6 -9 -10 -11 -12 -13
-8 -10 -12 -14 -13 -13 -14 -13 -13 -11 -12 -13 -8 -11 -11 -9 -7 -8 -7 -9 -8 -8 -10 -11 -12 -13 -13 -13 -13 -12 -10 -9 -8 -7 -6 -5 -4 -2 -4 -5 -5 -5 -5 -5 -6 -7 -8 -9 -9 -10 -11 -12 -12 -12
-7 -12 -13 -12 -13 -13 -13 -13 -13 -12 -13 -11 -11 -13 -11 -10 -9 -8 -10 -9 -8 -9 -9 -10 -13 -13 -13 -13 -12 -12 -12 -10 -9 -8 -7 -6 -6 -5 -4 -5 -5 -6 -6 -6 -6 -8 -9 -9 -10 -11 -12 -12 -12 -10
-8 -11 -13 -15 -15 -15 -13 -13 -13 -13 -12 -13 -13 -12 -12 -11 -10 -11 -10 -10 -10 -12 -15 -14 -13 -13 -13 -12 -12 -12 -12 -11 -10 -9 -8 -7 -7 -6 -5 -5 -5 -5 -6 -7 -7 -8 -9 -9 -11 -11 -12 -11 -10 -12
-8 -12 -10 -12 -11 -13 -13 -13 -13 -12 -13 -14 -12 -12 -11 -11 -11 -12 -13 -16 -16 -15 -15 -13 -13 -12 -12 -12 -12 -12 -12 -11 -10 -9 -9 -8 -7 -7 -7 -6 -6 -6 -6 -7 -6 -6 -6 -8 -5 -12 -11 -10 -12 -15
-9 -10 -12 -13 -12 -12 -13 -13 -14 -15 -15 -13 -12 -12 -13 -13 -16 -17 -16 -15 -15 -14 -13 -12 -12 -12 -12 -12 -12 -12 -12 -11 -11 -11 -10 -9 -8 -8 -8 -7 -7 -8 -7 -7 -6 -5 -5 -4 -10 -10 -9 -12 -14 -12
-8 -11 -12 -13 -13 -12 -14 -14 -14 -14 -13 -12 -12 -12 -13 -14 -15 -16 -15 -14 -14 -13 -12 -12 -12 -12 -12 -12 -13 -13 -12 -12 -11 -11 -11 -10 -9 -8 -8 -8 -8 -9 -8 -7 -7 -6 -6 -8 -6 -7 -12 -8 -8 -20
-9 -11 -12 -12 -14 -13 -14 -14 -13 -12 -12 -12 -12 -12 -12 -13 -14 -15 -15 -15 -13 -12 -11 -12 -12 -12 -12 -12 -12 -12 -12 -12 -11 -11 -11 -11 -10 -10 -9 -9 -9 -9 -9 -8 -7 -7 -7 -7 -8 -8 -7 -11 -21 -21
-10 -10 -13 -13 -14 -13 -13 -13 -12 -12 -12 -12 -12 -13 -13 -12 -12 -13 -13 -12 -12 -11 -11 -11 -11 -11 -12 -12 -12 -11 -11 -11 -11 -10 -10 -11 -10 -10 -10 -10 -10 -10 -9 -7 -6 -6 -7 -7 -7 -8 -14 -21 -21 -23
-13 -12 -13 -14 -15 -15 -14 -13 -13 -14 -13 -13 -13 -13 -13 -13 -13 -13 -12 -12 -11 -11 -11 -11 -12 -13 -13 -12 -12 -12 -12 -11 -11 -11 -11 -11 -10 -10 -11 -10 -10 -9 -7 -6 -7 -7 -7 -7 -9 -18 -20 -21 -25 -28

GFSWCAN_850_dewp_015.txt.gz
Dewpoint
-7 -4 -4 -3 -2 -2 -3 -3 -4 -4 -17 -21 -14 -20 -4 -4 -9 -14 -5 -0 -0 0 2 4 1 2 2 2 2 3 4 4 4 5 5 5 5 3 4 1 3 4 5 5 5 7 7 1 1 4 3 1 1 1
-5 -5 -4 -3 -2 -2 -5 -2 -3 -3 -4 -17 -10 -4 -4 -4 -4 -4 -5 -8 -3 -1 2 4 4 2 3 2 3 3 4 3 4 4 5 5 6 3 3 5 1 5 2 4 3 4 1 1 1 2 2 1 1 1
-8 -6 -10 -3 -3 -2 -3 -2 -2 -3 -3 -4 -5 -4 -4 -4 -4 -3 -3 -5 -6 -0 3 5 4 3 2 2 2 3 4 4 4 4 5 5 6 5 7 4 3 2 1 3 4 2 2 2 1 1 1 1 1 2
-10 -13 -8 -3 -3 -2 -3 -3 -3 -3 -3 -3 -3 -3 -3 -4 -4 -3 -3 -4 -6 -1 1 4 4 4 3 3 3 3 4 3 4 4 5 5 5 4 4 4 4 3 3 4 3 2 2 1 1 1 1 0 1 2
-13 -12 -12 -4 -3 -2 -3 -4 -3 -3 -3 -4 -3 -3 -3 -4 -5 -4 -4 -4 -9 -1 1 4 4 3 3 4 3 3 4 5 5 5 5 5 4 4 2 3 4 2 3 4 3 2 2 1 1 0 0 -0 -0 -1
-11 -14 -15 -11 -3 -2 -3 -4 -3 -4 -4 -3 -4 -4 -3 -4 -5 -3 -2 -1 -1 -1 -0 5 4 5 4 4 4 4 4 5 5 5 5 4 3 4 6 4 1 0 1 1 1 1 1 1 0 0 -0 -1 -1 -1
-2 -9 -16 -10 -3 -2 -3 -4 -4 -4 -5 -3 -5 -4 -4 -4 -4 -3 -3 -1 -1 -0 0 4 4 4 5 4 4 4 4 5 5 5 4 4 4 5 5 5 1 1 2 2 2 2 1 1 1 -0 -0 -1 -1 -1
-3 -2 -13 -11 -3 -2 -3 -6 -3 -4 -5 -6 -4 -5 -4 -2 -3 -3 -4 -3 -2 0 1 4 5 4 4 5 4 4 5 5 5 5 5 5 5 5 6 3 3 3 2 3 2 2 1 1 0 -0 -0 -1 -1 -2
-2 -1 -5 -12 -6 -2 -5 -4 -5 -10 -19 -9 -4 -3 -2 -3 -2 -2 -3 -2 -0 -0 1 4 5 5 4 4 5 5 5 6 4 5 5 5 5 6 4 4 4 4 3 3 2 1 1 0 -0 -0 -1 -2 -2 -2
-2 -2 -2 -14 -8 -3 -9 -8 -11 -17 -20 -6 -4 -2 -2 -4 -2 -2 -2 -0 -0 1 2 4 2 4 4 4 5 5 5 5 6 5 4 5 5 3 3 3 3 4 3 2 1 1 0 0 -0 -1 -1 -1 -2 -1
-3 -3 -1 -13 -9 -3 -7 -7 -16 -20 -15 -4 -3 -2 -2 -1 -1 -0 -0 0 1 3 3 3 2 2 3 4 4 4 4 4 6 4 4 5 5 3 2 0 -0 1 2 3 2 1 1 0 0 -1 -1 -2 -1 -1
-2 -2 -3 -13 -7 -3 -6 -13 -16 -19 -14 -4 -3 -3 -1 -1 -0 1 2 1 3 4 4 3 3 3 4 4 4 3 5 4 6 1 4 4 4 1 -0 -3 -1 1 2 2 2 1 0 1 0 -1 -1 -1 -1 -3
-2 -2 -5 -11 -4 -4 -12 -14 -17 -14 -4 -4 -3 -3 -2 -0 2 2 2 2 3 1 1 2 3 3 3 3 3 3 4 5 1 4 4 3 2 -1 -3 -2 -0 2 2 1 1 1 -0 -0 -0 -1 -1 -1 -2 -7
-2 -2 -7 -10 -3 -4 -12 -13 -17 -5 -4 -3 -3 -1 -1 1 -1 -0 -0 1 -0 0 0 1 2 3 2 3 3 4 3 2 3 4 4 5 -0 -3 -2 -0 1 1 1 0 -0 -0 -0 -0 -1 -1 -1 -1 -6 -8
-2 -2 -8 -9 -2 -7 -11 -13 -14 -4 -3 -3 -3 -1 -1 -2 -1 -1 -1 -1 -0 0 1 2 2 1 2 3 2 3 3 3 3 4 4 1 -3 -2 -2 -0 0 1 0 -0 -1 -1 -1 -1 -1 -1 -2 -5 -7 -8
-2 -3 -6 -7 -9 -11 -11 -14 -9 -4 -4 -4 -3 -2 -2 -2 -1 -2 -2 -1 -1 -0 1 1 2 3 4 4 2 3 3 4 4 1 -1 -2 -3 -3 -2 -1 -0 0 -0 -1 -1 -1 -1 -1 -1 -2 -4 -7 -7 -7
-2 -4 -4 -7 -9 -10 -11 -14 -6 -4 -4 -4 -3 -2 -2 -3 -3 -3 -4 -3 -2 -0 1 1 3 4 1 3 3 3 3 2 -1 -1 -2 -3 -3 -3 -3 -2 -1 -0 -1 -1 -1 -2 -2 -2 -2 -4 -6 -6 -6 -7
-3 -3 -4 -3 -6 -9 -13 -11 -5 -4 -5 -4 -4 -3 -3 -3 -3 -4 -3 -3 -3 -2 -1 1 -1 2 3 3 3 0 -1 -2 -2 -3 -3 -3 -3 -3 -3 -2 -1 -1 -1 -2 -2 -2 -2 -2 -3 -5 -6 -6 -7 -9
-3 -4 -3 -4 -6 -10 -15 -10 -7 -5 -5 -4 -4 -4 -4 -4 -5 -5 -4 -4 -3 -3 -2 -1 1 1 1 -1 -2 -3 -3 -4 -4 -3 -2 -3 -4 -3 -3 -3 -2 -1 -2 -2 -2 -2 -3 -3 -4 -5 -6 -7 -9 -11
-3 -3 -2 -3 -5 -13 -14 -10 -10 -5 -6 -5 -5 -5 -5 -5 -6 -8 -9 -6 -3 -4 -2 -2 -0 -3 -3 -4 -4 -4 -4 -4 -4 -4 -3 -3 -3 -3 -3 -3 -3 -2 -2 -3 -3 -3 -3 -4 -5 -5 -7 -9 -11 -12
-4 -3 -3 -4 -6 -12 -13 -11 -8 -6 -6 -6 -6 -6 -7 -7 -6 -6 -5 -4 -4 -5 -4 -3 -3 -4 -5 -6 -8 -8 -7 -5 -5 -5 -4 -4 -2 -2 -3 -3 -3 -3 -3 -3 -3 -4 -4 -4 -5 -7 -9 -11 -12 -8
-3 -3 -4 -6 -11 -13 -11 -9 -6 -7 -8 -7 -7 -8 -7 -7 -6 -6 -6 -5 -4 -4 -4 -5 -6 -7 -10 -13 -14 -13 -11 -9 -7 -5 -5 -4 -3 -3 -3 -3 -3 -3 -3 -4 -4 -4 -4 -4 -6 -8 -10 -11 -10 -6
-3 -4 -6 -11 -11 -11 -10 -9 -7 -8 -7 -8 -9 -8 -7 -7 -7 -7 -7 -6 -5 -6 -6 -6 -9 -14 -16 -18 -19 -18 -15 -12 -11 -8 -6 -6 -5 -4 -3 -3 -3 -4 -3 -4 -4 -4 -4 -5 -7 -9 -10 -9 -5 -10
-4 -6 -9 -11 -11 -10 -12 -10 -10 -9 -9 -8 -8 -9 -8 -8 -8 -7 -6 -6 -6 -8 -7 -8 -12 -13 -14 -17 -18 -17 -15 -14 -13 -11 -9 -7 -6 -5 -5 -4 -3 -4 -4 -4 -4 -5 -5 -6 -8 -9 -9 -4 -8 -10
-5 -7 -10 -10 -13 -12 -10 -10 -10 -9 -8 -9 -8 -9 -9 -9 -7 -6 -7 -7 -8 -8 -8 -9 -10 -11 -14 -18 -17 -14 -13 -13 -13 -12 -12 -10 -8 -7 -6 -5 -5 -5 -4 -4 -4 -5 -6 -7 -8 -9 -6 -5 -10 -11
-5 -8 -10 -9 -11 -10 -10 -10 -10 -9 -9 -9 -9 -11 -10 -8 -8 -8 -9 -9 -11 -10 -10 -10 -10 -14 -16 -16 -15 -13 -13 -12 -12 -12 -12 -11 -9 -8 -7 -7 -6 -5 -5 -5 -4 -5 -6 -8 -8 -8 -4 -8 -11 -12
-5 -7 -12 -14 -14 -15 -14 -13 -13 -11 -10 -10 -11 -10 -9 -8 -8 -9 -13 -12 -11 -11 -11 -13 -16 -16 -16 -15 -13 -12 -12 -12 -12 -12 -12 -12 -10 -9 -8 -8 -7 -6 -6 -6 -5 -6 -6 -8 -7 -5 -6 -9 -12 -13
-7 -11 -10 -13 -12 -14 -11 -11 -10 -10 -11 -13 -11 -10 -9 -9 -10 -15 -14 -14 -14 -16 -17 -16 -16 -15 -14 -13 -12 -12 -12 -12 -12 -12 -12 -11 -10 -9 -8 -7 -7 -7 -7 -7 -6 -6 -7 -8 -7 -5 -5 -10 -12 -12
-8 -11 -12 -10 -11 -12 -12 -11 -11 -15 -16 -14 -9 -10 -10 -14 -17 -18 -18 -18 -17 -16 -16 -15 -14 -14 -12 -12 -12 -12 -12 -12 -12 -12 -12 -12 -11 -10 -9 -8 -8 -8 -8 -8 -8 -7 -7 -7 -6 -5 -6 -8 -11 -13
-8 -11 -11 -12 -11 -11 -12 -14 -14 -16 -15 -14 -14 -13 -14 -16 -17 -18 -17 -17 -16 -15 -15 -15 -13 -12 -12 -12 -12 -12 -12 -12 -12 -12 -12 -12 -11 -10 -9 -9 -9 -8 -8 -9 -9 -8 -9 -8 -7 -6 -7 -9 -13 -16
-9 -11 -11 -11 -10 -13 -14 -14 -14 -13 -13 -13 -13 -13 -13 -14 -16 -16 -16 -17 -16 -15 -14 -12 -11 -11 -11 -11 -12 -12 -12 -12 -12 -12 -11 -11 -11 -11 -10 -10 -10 -9 -9 -10 -10 -10 -10 -9 -7 -7 -8 -10 -15 -8
-10 -10 -11 -10 -12 -13 -13 -14 -13 -13 -13 -13 -13 -14 -13 -13 -13 -15 -15 -14 -14 -13 -12 -11 -11 -12 -13 -13 -13 -13 -12 -12 -11 -11 -11 -11 -11 -11 -11 -10 -10 -10 -10 -10 -10 -9 -8 -8 -8 -7 -8 -8 -8 -10
-12 -12 -13 -14 -14 -14 -14 -14 -13 -14 -14 -14 -13 -14 -13 -13 -13 -14 -14 -14 -13 -11 -11 -11 -12 -13 -13 -13 -13 -13 -12 -12 -12 -11 -10 -10 -11 -11 -11 -11 -11 -10 -10 -10 -10 -8 -8 -7 -8 -8 -8 -8 -13 -22

GFSWCAN_850_dewp_018.txt.gz
Dewpoint
-12 -14 -3 -3 -4 -2 -2 -2 -2 -2 -3 -3 -4 -3 -3 -4 -9 -8 -6 -3 -2 -1 1 2 3 2 1 1 2 3 4 4 4 6 5 5 5 4 4 3 4 4 6 6 6 7 6 1 2 5 3 2 2 1
-7 -14 -3 -3 -7 -3 -1 -2 -2 -2 -2 -2 -3 -4 -3 -3 -5 -5 -4 -4 -5 -2 -0 2 3 4 3 2 3 3 4 3 4 5 4 5 5 5 4 5 2 4 3 5 4 4 1 1 2 2 2 1 1 1
-8 -12 -10 -4 -5 -3 -2 -2 -3 -2 -2 -3 -3 -3 -3 -3 -3 -5 -4 -4 -4 -2 -0 2 4 2 2 3 3 3 4 4 4 4 4 5 5 5 7 5 4 2 1 4 3 2 2 2 2 1 1 1 1 2
-6 -6 -10 -14 -7 -3 -4 -2 -2 -3 -3 -3 -3 -3 -3 -3 -3 -4 -6 -4 -2 -4 -1 3 4 4 2 1 2 2 4 3 3 4 5 4 5 4 5 4 4 3 3 3 4 3 2 1 1 1 0 1 2 1
-1 -7 -9 -10 -5 -3 -3 -2 -2 -5 -3 -4 -4 -4 -3 -3 -3 -5 -7 -5 -4 -3 -0 1 4 4 3 3 3 3 3 3 4 5 5 5 4 4 3 3 4 1 3 4 5 2 2 1 1 0 0 0 -0 -0
-2 -3 -1 -2 -10 -5 -4 -2 -2 -4 -3 -4 -4 -3 -5 -4 -5 -5 -4 -2 -1 -4 -1 2 4 4 4 4 4 4 4 5 4 5 5 4 3 4 5 4 1 1 0 1 1 2 2 1 1 0 -0 -1 -1 -1
-3 -2 -1 -1 -4 -9 -4 -2 -2 -3 -3 -3 -4 -3 -3 -4 -4 -4 -4 -2 -2 -2 -1 1 5 4 5 5 5 5 5 5 4 5 5 4 4 4 5 6 2 1 1 1 2 2 2 1 1 0 -1 -1 -1 -2
-3 -2 -2 -1 -2 -9 -3 -2 -3 -4 -4 -9 -5 -3 -3 -3 -3 -4 -6 -4 -2 -2 -1 2 4 4 4 5 5 4 5 5 5 5 5 5 4 5 6 3 3 2 2 2 3 2 2 1 1 0 -1 -1 -1 -2
-4 -3 -2 -2 -1 -8 -4 -3 -6 -2 -15 -16 -5 -3 -4 -3 -3 -3 -2 -3 -2 -1 -0 3 4 5 4 5 5 4 5 5 4 5 5 5 5 6 4 3 3 3 4 3 3 2 2 1 0 -0 -1 -2 -1 -2
-3 -3 -2 -2 -2 -6 -4 -3 -4 -12 -18 -6 -4 -2 -3 -1 -3 -2 -2 -1 -1 -1 0 3 3 5 3 4 4 5 5 5 5 5 4 5 5 3 3 3 3 3 4 3 2 2 1 0 0 -0 -1 -1 -1 -0
-2 -2 -2 -2 -2 -7 -4 -3 -10 -15 -15 -4 -2 -2 -2 -2 -1 -1 -1 -0 0 2 3 3 3 4 3 4 5 4 4 3 5 4 4 5 5 3 1 -1 -3 -2 0 2 3 2 2 1 1 -0 -1 -2 -1 -0
-2 -2 -2 -2 -2 -7 -3 -4 -9 -13 -8 -5 -3 -3 -2 -1 -1 0 1 1 2 3 3 4 3 3 3 3 3 3 4 3 5 1 3 5 3 -1 -3 -2 -1 0 1 2 2 2 1 1 0 -0 -1 -2 -1 -1
-1 -2 -2 -2 -2 -7 -2 -4 -12 -13 -4 -3 -3 -3 -2 -0 1 2 2 3 3 1 1 2 3 3 3 3 3 3 4 4 1 3 3 1 -0 -2 -2 -1 -0 0 0 1 1 1 0 1 1 -0 -1 -1 -1 -2
-1 -2 -2 -2 -2 -5 -2 -5 -12 -10 -3 -3 -4 -2 -1 -1 -1 -0 0 1 -0 0 1 2 2 3 2 2 2 3 3 1 3 4 2 1 -1 -2 -2 -2 -0 -0 -0 -0 -0 -0 -0 1 1 -0 -1 1 -0 -2
-2 -2 -2 -2 -2 -3 -3 -10 -13 -6 -3 -3 -4 -2 -1 -2 -1 -1 -1 -1 -0 -0 1 2 2 1 2 2 2 2 2 2 2 2 2 -1 -2 -3 -3 -3 -1 -0 -1 -1 -1 -1 -1 -0 1 1 0 -1 -2 -5
-2 -2 -2 -2 -3 -5 -9 -10 -13 -5 -4 -4 -4 -2 -3 -2 -2 -2 -2 -1 -1 -0 1 1 2 3 3 3 2 2 2 3 2 -2 -1 -2 -3 -3 -3 -3 -2 -1 -1 -1 -2 -2 -1 -1 -1 -1 -2 -2 -4 -8
-2 -2 -2 -3 -6 -6 -7 -10 -8 -4 -5 -4 -4 -3 -2 -2 -2 -2 -3 -3 -3 -0 1 0 2 4 1 3 2 1 2 0 -2 -2 -2 -2 -3 -4 -3 -3 -3 -2 -1 -1 -2 -2 -2 -2 -2 -2 -3 -4 -7 -8
-2 -2 -2 -3 -3 -4 -9 -12 -6 -5 -4 -5 -4 -4 -4 -3 -3 -4 -3 -3 -3 -2 -1 -0 -1 1 3 3 2 -1 -2 -3 -3 -3 -3 -3 -3 -3 -3 -3 -3 -2 -2 -2 -2 -2 -2 -2 -3 -3 -4 -6 -7 -8
-2 -2 -2 -3 -3 -6 -13 -10 -8 -5 -5 -5 -5 -5 -4 -4 -4 -4 -5 -4 -3 -3 -2 -1 -0 1 1 -2 -2 -3 -3 -4 -4 -4 -4 -3 -3 -3 -2 -2 -3 -3 -2 -2 -2 -2 -3 -3 -3 -4 -5 -6 -7 -7
-2 -2 -3 -3 -3 -8 -14 -11 -10 -5 -5 -5 -5 -5 -5 -5 -5 -7 -8 -7 -4 -3 -4 -3 -1 -2 -3 -3 -3 -5 -7 -7 -7 -5 -6 -5 -6 -5 -4 -2 -3 -3 -3 -2 -3 -3 -3 -3 -4 -4 -5 -6 -7 -7
-3 -3 -3 -3 -3 -6 -12 -11 -8 -6 -6 -6 -6 -6 -6 -7 -7 -6 -5 -5 -4 -4 -7 -5 -3 -3 -3 -3 -8 -10 -12 -12 -11 -9 -7 -7 -7 -5 -5 -4 -3 -3 -4 -3 -3 -3 -3 -4 -4 -4 -6 -6 -7 -9
-3 -3 -3 -4 -4 -9 -12 -9 -6 -7 -7 -7 -7 -7 -7 -6 -6 -6 -6 -6 -5 -5 -5 -4 -4 -5 -6 -12 -18 -20 -20 -20 -19 -17 -15 -11 -9 -9 -6 -5 -4 -3 -3 -4 -4 -3 -3 -4 -5 -5 -6 -7 -8 -10
-3 -4 -4 -5 -6 -10 -9 -10 -7 -7 -6 -7 -8 -8 -8 -7 -7 -8 -7 -6 -6 -6 -5 -6 -6 -6 -12 -16 -16 -20 -21 -19 -18 -17 -17 -15 -14 -12 -8 -7 -5 -4 -3 -3 -4 -4 -4 -4 -5 -6 -7 -8 -9 -11
-4 -4 -5 -6 -6 -8 -12 -8 -9 -8 -8 -8 -8 -10 -10 -8 -8 -8 -8 -6 -7 -9 -9 -8 -7 -8 -12 -13 -17 -22 -20 -19 -17 -15 -14 -13 -13 -13 -12 -10 -8 -6 -5 -4 -4 -4 -4 -4 -4 -7 -8 -9 -10 -11
-4 -6 -6 -7 -10 -11 -9 -9 -9 -8 -8 -9 -10 -11 -11 -9 -10 -10 -9 -8 -7 -10 -11 -10 -9 -9 -10 -11 -21 -21 -19 -17 -15 -15 -14 -13 -13 -13 -12 -12 -10 -7 -6 -5 -5 -5 -5 -5 -5 -6 -8 -9 -10 -6
-5 -6 -8 -8 -10 -10 -9 -9 -10 -10 -9 -11 -11 -11 -10 -11 -10 -11 -10 -11 -13 -16 -16 -16 -17 -13 -13 -15 -17 -18 -17 -15 -13 -13 -13 -12 -12 -12 -10 -9 -9 -9 -7 -6 -6 -6 -6 -6 -6 -6 -8 -9 -10 -4
-5 -7 -8 -11 -13 -13 -12 -13 -12 -10 -11 -11 -11 -12 -12 -11 -12 -11 -15 -18 -17 -17 -14 -14 -13 -14 -15 -16 -16 -15 -14 -13 -12 -12 -12 -12 -12 -12 -12 -12 -12 -11 -9 -7 -7 -7 -7 -7 -7 -7 -7 -9 -8 -4
-6 -9 -10 -13 -13 -14 -11 -11 -12 -12 -12 -12 -11 -12 -12 -12 -12 -17 -18 -19 -19 -16 -13 -12 -15 -17 -16 -15 -15 -14 -13 -12 -12 -12 -12 -12 -12 -12 -12 -11 -10 -10 -8 -8 -7 -7 -7 -7 -7 -7 -7 -7 -6 -5
-8 -10 -12 -10 -11 -13 -12 -12 -12 -14 -15 -14 -12 -11 -11 -14 -17 -19 -19 -19 -18 -18 -17 -17 -16 -15 -15 -15 -13 -12 -12 -12 -12 -12 -12 -12 -12 -12 -12 -11 -10 -8 -8 -8 -8 -8 -8 -8 -8 -8 -8 -6 -5 -5
-7 -11 -11 -11 -11 -11 -12 -14 -13 -15 -15 -15 -13 -14 -15 -17 -19 -19 -19 -18 -18 -17 -16 -15 -16 -15 -12 -11 -11 -11 -11 -12 -12 -12 -12 -12 -12 -12 -12 -11 -10 -9 -9 -8 -8 -9 -9 -9 -10 -9 -8 -7 -6 -8
-9 -10 -11 -11 -11 -12 -13 -14 -14 -14 -15 -15 -15 -14 -15 -16 -18 -18 -17 -17 -16 -16 -16 -15 -13 -11 -11 -11 -12 -12 -13 -12 -12 -12 -12 -12 -12 -12 -12 -11 -10 -9 -9 -9 -9 -9 -10 -10 -10 -10 -9 -8 -8 -9
-10 -9 -10 -11 -13 -13 -13 -14 -13 -13 -13 -14 -13 -14 -14 -14 -15 -16 -16 -16 -16 -15 -15 -12 -11 -11 -12 -12 -13 -13 -13 -13 -12 -12 -12 -12 -12 -11 -11 -11 -10 -10 -10 -10 -10 -10 -10 -10 -11 -10 -9 -8 -8 -13
-11 -11 -12 -13 -13 -14 -13 -14 -13 -13 -13 -14 -13 -13 -14 -14 -13 -15 -15 -16 -16 -14 -11 -11 -11 -11 -12 -12 -13 -14 -13 -13 -13 -12 -11 -11 -11 -11 -11 -11 -11 -11 -10 -10 -10 -10 -10 -10 -10 -9 -8 -9 -10 -9

GFSWCAN_850_dewp_021.txt.gz
Dewpoint
-2 -1 -3 -6 -10 -13 -4 -2 -1 -2 -5 -3 -2 -3 -3 -3 -4 -8 -10 -3 -4 -1 -0 0 1 2 4 1 3 4 3 4 4 5 5 5 5 4 4 3 5 5 6 6 6 7 5 -1 2 5 2 2 1 2
-1 -2 -2 -9 -5 -3 -3 -4 -1 -2 -4 -3 -3 -3 -3 -4 -3 -4 -6 -6 -4 -3 -5 -1 1 1 3 4 4 3 4 3 3 4 3 4 4 4 4 5 2 5 3 4 4 3 -1 1 1 2 2 1 1 1
-2 -1 -3 -4 -3 -7 -5 -3 -3 -2 -2 -4 -3 -2 -3 -4 -4 -4 -4 -6 -3 -3 -4 -3 -2 0 2 3 4 3 4 4 4 3 3 4 5 4 5 5 4 3 1 3 3 2 1 2 1 1 1 0 1 2
-1 -1 -2 -2 -3 -5 -7 -3 -5 -2 -3 -4 -3 -3 -4 -4 -4 -4 -3 -5 -5 -3 -3 -1 2 4 2 2 2 2 3 3 3 3 4 4 5 3 3 4 4 3 3 4 3 2 2 1 1 1 0 1 2 1
-1 -1 -1 -2 -1 -1 -4 -4 -5 -2 -3 -3 -3 -4 -4 -4 -4 -6 -5 -6 -7 -4 -2 -2 1 4 4 2 2 1 2 3 4 4 5 4 3 4 3 3 4 2 2 4 4 2 2 2 1 1 0 0 0 0
-1 -1 -2 -1 -1 -1 -2 -9 -4 -2 -2 -5 -3 -3 -4 -3 -3 -3 -5 -3 -4 -4 -4 -0 2 4 4 3 2 3 4 4 4 4 5 4 4 4 4 5 2 1 1 1 1 1 2 2 1 1 -0 -1 -1 -1
-2 -1 -2 -2 -2 -2 -1 -5 -5 -2 -3 -3 -3 -3 -3 -3 -3 -3 -5 -3 -2 -2 -2 -1 3 4 5 5 5 5 5 5 4 4 5 4 4 4 5 5 1 1 2 2 2 2 2 1 1 1 -0 -1 -1 -1
-1 -1 -2 -2 -2 -2 -2 -10 -4 -2 -4 -8 -4 -5 -4 -3 -4 -4 -5 -5 -3 -3 -2 -0 4 4 4 5 5 5 5 5 5 4 5 5 4 4 5 3 3 4 4 3 3 3 2 2 1 1 -0 -1 -2 -2
-1 -1 -2 -3 -2 -2 -2 -10 -3 -3 -14 -15 -6 -4 -3 -3 -4 -3 -3 -4 -3 -2 -2 0 3 5 4 5 5 4 4 5 4 4 4 4 4 5 4 4 3 1 1 3 3 3 2 1 1 0 -1 -2 -1 -1
-1 -1 -2 -2 -2 -2 -3 -9 -3 -8 -17 -7 -4 -2 -3 -3 -3 -2 -2 -2 -2 -2 -2 1 3 4 4 4 4 4 5 5 5 5 4 4 5 3 -1 -3 -3 -2 -3 -1 2 3 2 1 1 0 -1 -1 -1 -0
-1 -1 -2 -2 -2 -2 -3 -6 -2 -10 -19 -6 -3 -3 -3 -3 -2 -1 -1 -1 -0 1 1 3 3 3 3 4 4 4 3 3 5 4 4 4 5 -1 -3 -2 -1 -0 0 0 1 2 2 2 2 1 -1 -2 -2 -1
-1 -1 -1 -2 -2 -2 -4 -5 -2 -11 -14 -8 -3 -3 -2 -1 -1 -0 0 1 1 3 3 3 3 3 3 3 3 3 3 3 4 1 3 3 2 -2 -3 -2 -1 0 -0 1 1 2 2 2 1 0 -1 -1 -2 -1
-1 -1 -1 -2 -2 -2 -3 -4 -2 -10 -11 -3 -3 -3 -2 -1 0 1 2 3 2 0 1 2 2 3 3 3 3 2 3 4 0 3 3 2 -1 -2 -3 -3 -2 -1 -0 0 1 1 1 1 0 -0 -1 -1 -2 -2
-1 -1 -1 -2 -2 -2 -2 -4 -8 -11 -6 -3 -4 -3 -2 -0 -1 -0 0 0 -0 0 0 1 2 2 2 1 2 2 2 1 2 3 2 -0 -2 -3 -3 -3 -2 -1 -1 -0 -1 -0 -0 0 2 1 0 -1 -2 -0
-1 -1 -2 -2 -2 -2 -2 -6 -11 -11 -4 -4 -4 -3 -2 -2 -1 -1 -1 -0 -0 0 1 2 2 2 1 2 2 2 2 2 1 1 -0 -1 -2 -3 -4 -3 -3 -2 -1 -2 -1 -1 -1 0 2 2 1 0 -0 2
-1 -1 -2 -2 -2 -2 -4 -9 -11 -9 -4 -4 -4 -3 -3 -2 -2 -2 -2 -1 -1 0 1 1 1 2 3 1 2 2 2 2 2 -3 -2 -3 -3 -3 -3 -4 -3 -3 -2 -2 -2 -2 -1 -1 -1 0 0 -0 0 -1
-1 -2 -2 -2 -2 -4 -4 -6 -11 -5 -4 -5 -4 -4 -3 -2 -2 -3 -3 -3 -3 -1 1 0 2 3 1 2 2 1 2 -1 -2 -2 -3 -3 -3 -3 -3 -2 -3 -3 -2 -2 -2 -2 -2 -2 -2 -2 -2 -2 -3 -3
-1 -2 -3 -2 -3 -3 -5 -10 -9 -5 -4 -5 -4 -4 -3 -3 -3 -3 -3 -3 -4 -1 -1 0 -1 1 2 3 1 -2 -2 -3 -3 -3 -5 -4 -3 -4 -4 -3 -2 -3 -3 -2 -2 -2 -2 -3 -3 -2 -3 -3 -4 -6
-1 -2 -3 -2 -3 -5 -10 -10 -9 -5 -5 -5 -5 -5 -4 -4 -4 -4 -4 -5 -4 -3 -2 -2 -1 -0 -0 -1 -2 -3 -3 -5 -5 -7 -8 -8 -4 -7 -8 -7 -3 -2 -3 -3 -2 -2 -3 -3 -3 -3 -3 -4 -5 -7
-2 -2 -2 -2 -3 -6 -12 -10 -10 -7 -5 -6 -5 -5 -5 -5 -5 -5 -6 -6 -5 -5 -4 -4 -2 -2 -2 -2 -3 -4 -7 -8 -9 -10 -13 -13 -12 -13 -11 -8 -6 -4 -2 -3 -3 -3 -3 -3 -3 -4 -5 -5 -6 -7
-2 -2 -2 -3 -3 -6 -9 -12 -10 -7 -5 -7 -6 -6 -6 -6 -7 -7 -7 -6 -5 -4 -10 -6 -4 -3 -2 -3 -4 -7 -12 -16 -18 -18 -17 -18 -16 -15 -15 -14 -11 -8 -5 -3 -3 -4 -3 -3 -4 -4 -5 -6 -6 -7
-2 -2 -3 -3 -4 -7 -7 -8 -9 -7 -8 -7 -7 -7 -7 -7 -7 -7 -6 -6 -6 -6 -6 -5 -6 -4 -4 -4 -7 -16 -19 -19 -19 -19 -18 -17 -17 -18 -18 -17 -15 -12 -8 -5 -3 -3 -4 -4 -4 -4 -5 -5 -7 -7
-3 -3 -4 -4 -5 -5 -7 -9 -9 -8 -7 -8 -8 -9 -9 -8 -7 -8 -8 -8 -8 -10 -10 -6 -6 -7 -6 -9 -16 -17 -20 -22 -23 -22 -21 -19 -17 -15 -15 -15 -13 -13 -13 -11 -6 -4 -4 -4 -5 -5 -5 -6 -7 -8
-3 -4 -4 -4 -5 -7 -9 -8 -8 -7 -7 -8 -8 -9 -10 -8 -8 -8 -8 -8 -10 -11 -9 -8 -7 -7 -8 -10 -13 -13 -19 -22 -21 -20 -18 -17 -17 -16 -13 -14 -14 -14 -14 -12 -8 -5 -4 -4 -5 -6 -7 -7 -7 -8
-4 -5 -5 -8 -7 -11 -11 -9 -9 -8 -8 -9 -8 -9 -11 -9 -11 -10 -9 -10 -11 -9 -11 -12 -12 -11 -10 -10 -11 -11 -15 -19 -18 -19 -19 -17 -15 -13 -13 -12 -13 -13 -13 -11 -8 -6 -5 -5 -6 -6 -6 -7 -8 -8
-4 -6 -7 -10 -12 -11 -11 -9 -9 -8 -8 -8 -9 -11 -11 -12 -10 -11 -11 -14 -16 -18 -19 -22 -22 -20 -18 -18 -18 -18 -15 -15 -16 -16 -18 -15 -13 -12 -12 -12 -12 -13 -12 -12 -11 -7 -6 -6 -6 -7 -7 -7 -8 -8
-6 -9 -7 -8 -12 -12 -11 -12 -11 -10 -9 -10 -10 -11 -12 -11 -13 -13 -17 -20 -22 -23 -21 -19 -18 -17 -17 -15 -14 -13 -13 -15 -15 -15 -15 -13 -12 -12 -12 -12 -12 -12 -12 -12 -11 -10 -8 -7 -7 -7 -7 -7 -8 -8
-6 -9 -10 -11 -13 -14 -11 -11 -11 -11 -11 -12 -12 -10 -11 -14 -14 -19 -21 -23 -22 -21 -20 -20 -18 -14 -11 -13 -16 -16 -16 -15 -14 -12 -12 -12 -12 -12 -12 -12 -12 -12 -11 -10 -10 -10 -8 -8 -8 -8 -8 -8 -8 -8
-9 -10 -12 -10 -12 -12 -13 -12 -12 -16 -15 -13 -12 -13 -13 -16 -18 -21 -22 -21 -21 -20 -19 -19 -18 -17 -17 -16 -16 -15 -13 -12 -11 -11 -11 -11 -11 -11 -11 -12 -12 -12 -11 -10 -9 -9 -9 -8 -8 -8 -8 -9 -8 -8
-8 -11 -12 -11 -9 -9 -13 -15 -13 -14 -15 -14 -14 -14 -15 -17 -19 -19 -19 -19 -19 -19 -18 -17 -16 -16 -16 -16 -13 -11 -11 -12 -12 -12 -12 -12 -12 -12 -12 -12 -12 -11 -11 -10 -9 -9 -9 -9 -9 -9 -9 -9 -9 -9
-10 -11 -12 -12 -11 -12 -13 -14 -15 -15 -15 -16 -15 -15 -16 -17 -19 -18 -16 -16 -17 -17 -16 -16 -16 -16 -13 -11 -11 -11 -12 -12 -13 -13 -13 -13 -12 -12 -12 -12 -12 -11 -11 -10 -9 -9 -9 -9 -9 -10 -10 -10 -10 -9
-10 -10 -10 -10 -12 -13 -13 -14 -14 -14 -13 -14 -14 -14 -14 -15 -15 -15 -15 -16 -17 -17 -16 -17 -15 -11 -11 -11 -12 -12 -13 -13 -13 -13 -13 -13 -12 -12 -12 -12 -11 -11 -11 -10 -10 -10 -9 -10 -10 -10 -11 -11 -10 -9
-11 -11 -12 -13 -14 -14 -13 -14 -13 -14 -13 -14 -13 -13 -14 -14 -14 -15 -15 -16 -16 -16 -17 -14 -11 -11 -12 -12 -12 -12 -13 -13 -13 -13 -12 -12 -12 -11 -11 -11 -11 -11 -11 -10 -10 -10 -10 -10 -10 -11 -11 -11 -10 -9

GFSWCAN_850_dewp_024.txt.gz
Dewpoint
-1 -1 -1 -1 -1 -3 -3 -3 -3 -1 -2 -3 -5 -2 -3 -3 -3 -3 -6 -6 -5 -3 -5 -4 -1 2 3 2 3 3 3 3 3 4 4 4 4 3 4 3 5 5 6 7 6 7 5 -0 3 5 2 2 2 1
-1 -1 -1 -1 -2 -3 -2 -4 -4 -2 -1 -2 -5 -4 -3 -3 -4 -4 -3 -4 -5 -4 -8 -9 -6 -0 1 2 4 4 2 3 2 3 3 3 3 3 3 4 2 6 3 4 4 3 -1 -1 1 2 2 1 1 1
-1 -1 -1 -1 -1 -2 -1 -3 -2 -4 -2 -2 -2 -4 -2 -4 -4 -4 -4 -3 -3 -4 -5 -5 -19 -6 -4 -0 3 4 4 3 3 3 2 3 4 3 4 3 4 3 1 3 3 2 1 1 2 1 1 0 0 1
-0 -1 -1 -1 -1 -1 -1 -1 -6 -5 -2 -1 -2 -5 -3 -5 -5 -3 -3 -4 -3 -6 -4 -6 -3 1 -0 3 3 4 4 3 3 3 3 3 4 3 3 3 4 3 2 3 3 2 2 1 1 1 1 0 1 1
-1 -1 -1 -1 -1 -1 -1 -1 -6 -7 -3 -1 -3 -5 -4 -3 -5 -4 -3 -3 -5 -4 -4 -4 -10 -8 1 3 4 4 3 3 3 4 4 4 3 3 3 3 4 2 2 3 3 1 2 2 1 1 1 0 -0 1
-1 -1 -1 -1 -1 -1 -1 -1 -1 -7 -4 -2 -4 -4 -3 -4 -3 -3 -3 -4 -5 -4 -4 -3 -2 -1 4 4 3 3 3 3 3 4 4 4 4 3 5 5 2 1 1 1 1 1 2 2 1 1 1 -0 -1 -0
-1 -1 -1 -2 -2 -2 -2 -2 -3 -6 -3 -3 -5 -5 -4 -3 -3 -3 -5 -4 -3 -3 -4 -2 -1 1 4 4 4 3 2 4 4 4 4 4 4 4 5 5 1 3 4 4 3 3 2 2 2 1 1 -0 -1 -1
-1 -1 -1 -2 -2 -2 -2 -2 -4 -4 -2 -9 -13 -7 -4 -5 -6 -5 -5 -5 -5 -3 -3 -2 -0 4 4 4 4 5 5 5 4 4 4 4 4 4 5 2 3 1 -0 2 2 3 3 3 2 1 1 -0 -1 -1
-1 -1 -1 -2 -2 -2 -2 -2 -7 -2 -5 -15 -5 -4 -3 -4 -3 -3 -3 -3 -4 -3 -2 -1 2 4 4 4 4 5 4 5 4 4 4 4 4 5 1 -2 -2 -2 -1 -1 -2 1 2 2 1 1 1 -1 -1 -2
-1 -1 -1 -1 -2 -2 -2 -2 -5 -2 -11 -10 -3 -3 -2 -4 -5 -3 -2 -3 -2 -2 -3 -1 1 4 4 4 4 4 4 5 5 5 4 5 5 0 -2 -2 -2 -1 -0 0 0 -1 2 2 1 1 1 -0 -1 -1
-1 -1 -1 -2 -2 -2 -2 -2 -4 -4 -15 -11 -3 -3 -3 -3 -2 -2 -2 -2 -1 0 -1 0 3 4 4 4 5 4 3 3 5 4 4 4 5 -2 -3 -3 -2 -1 -1 -0 -0 0 1 1 2 2 1 -0 -2 -2
-0 -1 -1 -1 -2 -2 -3 -2 -3 -5 -11 -11 -4 -3 -2 -2 -2 -1 0 0 1 3 2 3 3 3 3 3 3 3 2 2 4 2 3 4 1 -2 -3 -3 -3 -1 -1 -0 -0 0 1 2 2 2 1 -0 -1 -2
-0 -1 -2 -1 -2 -2 -2 -2 -3 -7 -12 -4 -3 -3 -3 -1 -1 0 1 2 2 0 1 1 2 3 3 3 2 2 3 4 1 3 3 2 -2 -3 -3 -3 -3 -1 -1 1 0 1 0 1 1 0 0 -0 -2 -2
-0 -1 -2 -1 -2 -2 -2 -2 -3 -11 -9 -4 -4 -3 -2 -1 -1 -1 -0 0 -0 -0 0 1 2 2 2 2 2 2 2 1 3 3 2 -0 -2 -3 -4 -4 -3 -2 -1 -1 1 -0 -0 2 2 2 1 -0 -2 -2
0 -0 -1 -1 -2 -2 -2 -2 -6 -10 -9 -4 -4 -3 -2 -2 -2 -1 -2 -1 -0 -0 0 1 2 2 1 2 2 2 3 3 2 1 0 -2 -3 -3 -3 -3 -3 -3 -2 -1 -1 -0 -1 0 1 2 2 2 -0 -1
0 -0 -1 -2 -2 -2 -2 -4 -8 -10 -5 -4 -4 -4 -3 -3 -2 -2 -2 -2 -1 -1 0 1 1 2 3 2 2 2 1 1 0 -1 -2 -3 -3 -3 -3 -3 -3 -3 -3 -2 -2 -2 -2 -1 -1 1 1 2 2 0
0 -1 -1 -2 -2 -2 -3 -4 -8 -8 -5 -4 -4 -4 -4 -3 -2 -3 -3 -2 -2 -1 1 0 2 1 1 2 2 1 2 -0 -2 -2 -3 -4 -3 -4 -6 -6 -4 -3 -3 -3 -2 -2 -2 -2 -2 -2 -1 -0 0 1
0 0 -1 -2 -2 -3 -3 -4 -11 -5 -4 -5 -4 -5 -4 -3 -3 -3 -3 -3 -3 -1 -1 0 -1 1 2 3 1 -1 -2 -2 -2 -3 -5 -6 -5 -4 -7 -9 -7 -4 -3 -3 -3 -2 -2 -2 -2 -3 -3 -3 -3 -2
-1 -0 -1 -2 -2 -4 -8 -11 -10 -5 -6 -5 -4 -4 -5 -4 -4 -4 -4 -4 -4 -3 -2 -2 -1 -0 -1 -1 -2 -2 -2 -2 -4 -5 -7 -11 -9 -10 -13 -13 -11 -7 -4 -3 -3 -3 -2 -2 -3 -3 -3 -4 -4 -5
-1 -1 -2 -3 -3 -4 -8 -10 -11 -8 -6 -6 -5 -5 -5 -5 -5 -5 -4 -4 -5 -5 -5 -3 -2 -2 -2 -1 -1 -2 -3 -5 -6 -10 -15 -17 -16 -16 -17 -17 -18 -17 -13 -7 -3 -3 -3 -3 -3 -3 -4 -4 -5 -5
-2 -2 -2 -2 -3 -4 -9 -12 -11 -9 -6 -7 -6 -6 -6 -6 -6 -6 -6 -7 -5 -6 -9 -9 -8 -5 -2 -2 -3 -4 -6 -9 -15 -18 -18 -18 -17 -18 -19 -18 -18 -19 -17 -14 -8 -4 -3 -4 -4 -4 -4 -4 -5 -5
-2 -2 -3 -3 -3 -4 -5 -7 -9 -8 -8 -7 -7 -7 -7 -7 -7 -8 -7 -6 -7 -9 -12 -16 -20 -13 -4 -3 -4 -5 -11 -17 -17 -18 -20 -22 -22 -21 -20 -17 -16 -17 -17 -17 -15 -9 -6 -3 -4 -4 -4 -5 -5 -6
-2 -3 -3 -4 -4 -5 -6 -7 -10 -9 -9 -9 -8 -9 -9 -8 -7 -8 -9 -8 -9 -13 -15 -12 -11 -9 -5 -4 -6 -10 -16 -16 -19 -22 -22 -20 -20 -20 -19 -17 -15 -14 -15 -15 -14 -15 -13 -6 -4 -4 -4 -5 -6 -7
-3 -3 -3 -4 -4 -7 -7 -10 -9 -7 -7 -8 -9 -10 -10 -9 -8 -8 -9 -10 -12 -14 -12 -11 -9 -6 -7 -7 -8 -12 -15 -15 -19 -22 -22 -21 -20 -20 -19 -19 -17 -14 -13 -13 -13 -14 -15 -9 -5 -4 -5 -5 -5 -6
-3 -4 -4 -7 -7 -10 -14 -11 -10 -9 -9 -8 -7 -8 -10 -9 -11 -11 -9 -10 -13 -11 -12 -10 -8 -8 -9 -12 -12 -11 -12 -12 -12 -17 -17 -17 -17 -17 -19 -18 -15 -13 -12 -12 -12 -12 -11 -9 -6 -5 -6 -6 -6 -6
-4 -5 -6 -9 -12 -12 -12 -11 -10 -9 -8 -7 -8 -11 -10 -10 -10 -11 -10 -15 -17 -17 -14 -17 -21 -18 -17 -19 -20 -18 -16 -13 -13 -15 -17 -16 -16 -16 -16 -14 -13 -13 -12 -12 -12 -12 -12 -12 -7 -6 -6 -7 -7 -7
-5 -7 -7 -8 -9 -12 -11 -11 -11 -9 -8 -7 -10 -11 -9 -10 -12 -12 -20 -20 -20 -21 -22 -22 -22 -21 -20 -20 -19 -18 -17 -14 -12 -14 -16 -17 -17 -15 -13 -12 -12 -12 -12 -12 -12 -12 -12 -12 -11 -7 -8 -7 -7 -8
-5 -7 -9 -9 -12 -12 -12 -11 -10 -10 -9 -10 -11 -10 -10 -12 -12 -20 -22 -23 -24 -23 -22 -21 -21 -20 -20 -18 -15 -12 -12 -14 -16 -16 -17 -15 -13 -12 -12 -12 -12 -11 -11 -12 -12 -12 -11 -11 -11 -9 -8 -8 -8 -8
-8 -9 -10 -12 -13 -14 -13 -12 -11 -13 -15 -13 -10 -11 -13 -17 -19 -21 -23 -23 -23 -22 -22 -21 -20 -19 -18 -18 -17 -17 -16 -16 -16 -13 -12 -12 -12 -12 -13 -13 -12 -12 -12 -12 -12 -11 -11 -10 -9 -9 -9 -8 -9 -9
-10 -10 -12 -11 -9 -9 -10 -15 -16 -17 -15 -14 -15 -15 -16 -18 -19 -20 -21 -21 -21 -21 -20 -20 -19 -18 -17 -16 -16 -16 -14 -12 -12 -12 -12 -13 -13 -13 -13 -13 -12 -12 -12 -12 -11 -11 -10 -9 -9 -9 -9 -9 -9 -9
-10 -11 -12 -10 -9 -10 -11 -13 -15 -15 -15 -15 -15 -15 -16 -17 -19 -19 -18 -17 -17 -17 -16 -17 -17 -17 -17 -17 -15 -12 -12 -12 -12 -12 -13 -13 -13 -13 -13 -13 -12 -12 -12 -12 -12 -11 -10 -9 -9 -9 -9 -10 -10 -10
-10 -11 -10 -11 -13 -13 -13 -13 -14 -14 -14 -14 -14 -14 -14 -15 -15 -14 -14 -14 -14 -15 -16 -17 -18 -17 -16 -12 -11 -12 -12 -12 -12 -13 -13 -13 -13 -12 -12 -12 -11 -11 -12 -12 -11 -10 -10 -10 -9 -9 -9 -10 -10 -10
-11 -11 -12 -13 -13 -13 -12 -12 -13 -14 -13 -13 -14 -13 -14 -14 -14 -14 -14 -15 -16 -16 -17 -18 -16 -13 -11 -11 -12 -12 -12 -13 -13 -14 -14 -13 -12 -11 -12 -11 -11 -11 -11 -11 -11 -10 -10 -10 -10 -9 -10 -10 -11 -11

GFSWCAN_850_dewp_027.txt.gz
Dewpoint
-1 -1 -1 -1 -2 -1 -1 -1 -3 -3 -2 -0 -1 -4 -4 -3 -3 -3 -4 -6 -7 -6 -10 -7 -3 -0 1 3 2 2 3 3 3 3 3 3 3 3 3 3 4 5 6 6 5 7 5 1 3 5 2 2 2 1
-1 -1 -0 -1 -1 -1 -2 -1 -1 -2 -3 -3 -1 -1 -3 -4 -3 -3 -2 -4 -4 -3 -8 -11 -10 -9 -5 -3 1 3 2 2 2 2 2 2 4 3 3 4 2 6 4 4 3 3 -1 0 1 1 1 2 1 0
-1 -1 -0 -1 -1 -2 -1 -2 -1 -2 -3 -4 -2 -1 -2 -6 -3 -4 -2 -2 -3 -3 -4 -5 -9 -16 -12 -17 -6 1 4 3 2 2 1 2 3 2 4 3 3 2 1 3 3 2 1 1 2 2 1 1 1 1
-1 -1 -0 -1 -1 -1 -2 -1 -1 -1 -2 -5 -2 -1 -2 -6 -5 -4 -2 -2 -2 -3 -4 -7 -8 -5 -3 -1 -2 -1 1 4 4 2 2 2 2 2 3 2 3 2 2 3 3 1 1 2 1 1 1 1 0 0
-0 -1 -1 -1 -1 -1 -1 -1 -1 -1 -1 -4 -4 -2 -3 -4 -4 -4 -3 -3 -3 -3 -4 -5 -6 -15 -17 -11 -2 3 2 2 4 4 3 4 3 2 2 2 3 1 1 3 3 0 1 1 2 1 1 1 1 -0
0 -0 -1 -1 -1 -2 -1 -1 -1 -1 -2 -7 -3 -2 -5 -5 -4 -3 -4 -4 -4 -3 -3 -5 -9 -10 -8 -4 -2 3 3 4 3 3 3 4 3 2 4 5 2 1 1 3 2 4 4 3 3 2 1 1 0 -0
0 -0 -1 -1 -1 -1 -2 -1 -2 -1 -4 -4 -3 -6 -6 -4 -3 -3 -5 -5 -4 -3 -4 -3 -2 -1 -2 1 2 4 4 4 3 3 4 4 4 3 4 4 1 3 3 3 1 3 3 3 2 1 1 1 0 -0
0 -1 -1 -1 -1 -2 -1 -2 -1 -2 -6 -3 -9 -7 -4 -5 -6 -5 -4 -4 -4 -3 -3 -3 -2 0 2 3 4 5 4 3 3 4 4 4 4 4 5 2 -1 -2 -1 -0 0 -1 -1 2 2 3 1 1 0 -0
-0 -1 -1 -1 -1 -1 -2 -2 -2 -2 -4 -6 -8 -4 -3 -3 -4 -4 -4 -3 -3 -3 -3 -2 -0 4 4 4 4 4 3 4 4 4 4 3 4 5 0 -2 -2 -2 -2 -1 -1 -1 -1 0 1 1 1 1 0 -1
-0 -1 -1 -1 -1 -2 -2 -2 -2 -3 -4 -14 -4 -2 -2 -4 -4 -3 -2 -3 -3 -3 -3 -2 -1 3 4 4 4 4 3 4 3 4 4 4 5 -1 -2 -3 -3 -3 -1 -1 -1 -0 -0 0 1 1 1 1 0 -1
0 -1 -1 -1 -2 -2 -2 -2 -2 -3 -7 -12 -5 -3 -3 -3 -3 -2 -2 -2 -2 -1 -2 -2 1 4 3 4 4 4 3 3 4 4 5 4 5 -1 -2 -3 -3 -2 -1 -1 -1 -0 -0 0 0 1 2 2 1 -1
0 -0 -1 -1 -2 -2 -2 -2 -2 -2 -4 -10 -6 -3 -3 -2 -2 -1 -0 -0 1 2 1 1 2 3 4 3 3 3 3 2 4 2 3 4 1 -2 -3 -3 -3 -2 -1 -0 0 -0 0 0 1 1 2 2 1 -1
1 0 -1 -1 -2 -2 -2 -2 -2 -2 -6 -6 -4 -4 -3 -2 -2 -1 -0 2 2 0 0 1 2 3 3 2 2 1 3 3 1 3 3 2 -2 -3 -3 -4 -3 -3 -2 -1 0 0 0 0 0 1 1 1 0 -1
-1 -0 -1 -1 -2 -2 -2 -2 -2 -3 -10 -4 -4 -4 -2 -2 -2 -3 -2 -2 -0 -0 -0 0 1 2 2 2 2 2 2 1 3 3 2 -1 -2 -3 -3 -3 -3 -3 -2 -2 -1 0 1 1 2 2 2 1 -1 -2
-2 -1 -0 -1 -1 -1 -2 -2 -3 -5 -11 -5 -4 -4 -5 -3 -2 -2 -2 -2 -1 -0 0 1 2 2 1 1 1 2 3 3 2 1 -1 -2 -3 -3 -3 -3 -3 -3 -3 -2 -2 -2 -2 -1 0 1 2 2 1 -0
-2 -1 -0 -1 -2 -2 -2 -2 -3 -8 -8 -5 -4 -4 -4 -3 -4 -2 -2 -2 -2 -1 0 0 1 2 3 2 3 3 1 1 -1 -4 -2 -3 -3 -4 -5 -6 -5 -3 -3 -3 -2 -2 -2 -2 -2 -1 1 1 1 0
-0 0 -0 -1 -1 -2 -2 -3 -6 -9 -6 -4 -5 -5 -4 -4 -4 -3 -3 -2 -2 -1 0 0 2 2 0 2 2 1 2 -1 -2 -2 -3 -3 -3 -4 -5 -8 -10 -7 -5 -4 -3 -3 -2 -2 -2 -2 -2 -1 1 1
-1 -0 -0 -1 -1 -2 -3 -4 -6 -9 -5 -5 -5 -5 -4 -4 -3 -3 -3 -3 -2 -2 -1 0 -1 1 2 3 0 -3 -1 -2 -2 -4 -5 -6 -7 -6 -7 -13 -13 -12 -10 -6 -4 -3 -3 -3 -2 -3 -3 -3 -3 -1
-5 -1 -1 -1 -1 -3 -5 -8 -8 -6 -7 -6 -5 -5 -5 -4 -4 -3 -4 -4 -4 -4 -3 -2 -1 -0 -0 -3 -2 -1 -1 -2 -2 -3 -4 -7 -12 -12 -16 -17 -18 -18 -17 -15 -10 -6 -3 -3 -3 -3 -4 -4 -4 -4
-1 -1 -1 -1 -2 -3 -5 -10 -11 -9 -7 -7 -6 -5 -5 -5 -5 -5 -4 -4 -4 -5 -5 -4 -2 -2 -2 -1 -1 -1 -1 -2 -3 -5 -7 -14 -17 -17 -17 -19 -20 -21 -21 -20 -16 -9 -6 -4 -4 -4 -4 -4 -4 -5
-1 -1 -2 -2 -3 -3 -4 -10 -12 -11 -8 -7 -7 -6 -6 -6 -6 -6 -6 -6 -5 -5 -7 -9 -9 -6 -3 -3 -2 -2 -2 -3 -5 -9 -16 -18 -18 -19 -22 -22 -21 -19 -18 -17 -18 -19 -16 -10 -5 -3 -4 -4 -4 -5
-3 -2 -2 -3 -3 -3 -4 -5 -9 -9 -8 -8 -8 -6 -7 -8 -7 -7 -8 -6 -6 -7 -8 -10 -12 -17 -15 -10 -4 -3 -5 -8 -12 -16 -17 -18 -23 -24 -24 -23 -23 -22 -20 -18 -16 -16 -17 -18 -16 -8 -4 -4 -4 -4
-3 -3 -3 -3 -3 -4 -5 -6 -7 -9 -10 -9 -8 -9 -9 -9 -8 -8 -8 -8 -9 -15 -17 -15 -16 -18 -16 -9 -4 -4 -6 -11 -15 -16 -18 -23 -23 -22 -21 -20 -20 -20 -21 -18 -15 -14 -14 -15 -16 -14 -7 -4 -4 -5
-3 -3 -3 -4 -4 -6 -7 -8 -9 -7 -7 -9 -11 -10 -11 -10 -8 -9 -10 -11 -15 -17 -17 -16 -15 -10 -9 -6 -4 -6 -9 -13 -15 -16 -18 -21 -20 -19 -19 -18 -19 -19 -18 -16 -13 -13 -13 -13 -14 -13 -10 -5 -4 -5
-3 -4 -4 -6 -6 -9 -14 -13 -13 -10 -11 -10 -8 -9 -10 -9 -12 -12 -11 -11 -15 -16 -15 -14 -12 -8 -8 -9 -9 -9 -10 -13 -14 -13 -13 -15 -16 -18 -18 -18 -19 -18 -15 -13 -13 -13 -13 -13 -13 -13 -10 -7 -6 -6
-5 -4 -6 -8 -11 -11 -13 -13 -13 -11 -10 -9 -8 -9 -11 -12 -12 -13 -11 -17 -19 -19 -17 -16 -16 -11 -12 -15 -13 -14 -13 -12 -12 -13 -16 -14 -15 -15 -15 -17 -17 -14 -13 -12 -12 -12 -12 -12 -13 -12 -12 -9 -7 -7
-7 -6 -6 -7 -8 -10 -12 -11 -11 -10 -9 -8 -8 -10 -10 -11 -13 -12 -21 -21 -21 -20 -19 -17 -19 -23 -23 -21 -20 -19 -19 -18 -18 -17 -15 -13 -13 -15 -16 -15 -12 -12 -12 -12 -12 -11 -11 -12 -12 -12 -12 -12 -8 -7
-6 -6 -9 -8 -11 -12 -14 -12 -12 -10 -9 -7 -10 -11 -10 -11 -12 -21 -21 -21 -21 -22 -23 -22 -21 -21 -20 -19 -19 -19 -17 -15 -13 -13 -15 -17 -17 -16 -12 -12 -12 -13 -13 -13 -13 -12 -12 -12 -12 -12 -11 -11 -10 -8
-6 -6 -8 -12 -13 -12 -14 -13 -12 -13 -10 -9 -10 -10 -11 -18 -20 -20 -21 -22 -23 -23 -22 -22 -21 -21 -20 -20 -19 -18 -17 -16 -16 -16 -17 -17 -13 -12 -12 -13 -13 -13 -13 -13 -12 -12 -11 -12 -12 -11 -10 -10 -10 -9
-8 -8 -10 -13 -13 -14 -14 -15 -12 -11 -12 -13 -15 -16 -17 -19 -21 -21 -21 -21 -23 -23 -22 -20 -21 -20 -20 -19 -18 -17 -16 -17 -16 -13 -12 -12 -12 -13 -12 -13 -13 -13 -13 -13 -12 -12 -12 -11 -11 -11 -10 -10 -9 -9
-8 -10 -11 -11 -11 -10 -10 -13 -15 -15 -15 -15 -15 -15 -15 -15 -15 -15 -15 -16 -18 -20 -20 -20 -20 -19 -18 -17 -17 -18 -16 -13 -12 -12 -12 -12 -12 -13 -13 -13 -13 -12 -12 -12 -12 -12 -12 -12 -12 -11 -10 -10 -9 -9
-10 -11 -12 -12 -13 -12 -11 -12 -14 -15 -14 -14 -14 -14 -15 -15 -15 -12 -12 -12 -13 -13 -14 -15 -15 -16 -16 -18 -17 -12 -12 -12 -12 -12 -12 -13 -14 -14 -13 -12 -11 -12 -12 -12 -12 -12 -12 -11 -11 -10 -10 -9 -9 -9
-10 -11 -12 -13 -13 -13 -12 -12 -12 -12 -13 -13 -14 -13 -13 -14 -14 -12 -13 -13 -14 -16 -16 -17 -18 -18 -17 -13 -12 -12 -12 -12 -12 -12 -13 -14 -14 -14 -12 -11 -11 -11 -11 -11 -11 -11 -11 -11 -10 -10 -10 -9 -9 -10

GFSWCAN_850_dewp_030.txt.gz
Dewpoint
-2 -3 -2 -1 -1 -1 -1 -1 -2 -1 -3 -3 -3 -1 -1 -2 -4 -3 -3 -4 -6 -7 -13 -12 -6 -1 -1 1 2 2 3 2 2 3 3 3 3 2 3 3 4 4 5 4 4 5 5 0 3 4 2 1 2 1
-2 -3 -0 -0 -0 -1 -1 -1 -2 -2 -1 -1 -3 -2 -0 -1 -3 -4 -2 -2 -3 -3 -5 -6 -7 -8 -8 -12 -4 0 3 1 2 1 1 2 3 2 2 4 1 4 2 4 2 2 -1 -0 1 0 0 1 1 1
-3 0 -0 -0 -2 -0 -1 -1 -2 -1 -1 -1 -4 -3 -1 -1 -2 -5 -2 -3 -4 -3 -3 -4 -5 -9 -9 -10 -12 -3 2 3 3 2 1 2 2 1 3 3 2 2 1 3 3 2 1 1 1 1 2 1 1 1
-1 -0 -0 -1 -2 -2 -2 -2 -1 -1 -1 -1 -2 -3 -2 -2 -4 -4 -3 -2 -3 -3 -3 -6 -7 -8 -10 -6 -5 -9 -5 3 2 3 2 2 2 1 2 1 2 2 2 3 2 1 1 1 1 1 1 1 1 1
-1 -0 -0 -0 -1 -1 -1 -1 -1 -2 -1 -1 -2 -6 -2 -1 -5 -5 -4 -4 -3 -3 -3 -4 -4 -7 -6 -6 -7 -5 -9 -5 -0 4 3 3 2 2 1 1 2 1 1 2 2 1 2 2 2 2 2 2 1 1
-0 0 0 -0 -1 -1 -1 -1 -1 -1 -1 -1 -5 -3 -3 -5 -7 -4 -5 -5 -5 -4 -3 -3 -7 -8 -8 -10 -9 -8 -5 -1 1 4 3 3 2 1 3 3 1 1 1 2 3 4 3 3 3 3 3 2 2 1
0 1 0 0 -1 -1 -1 -1 -1 -1 -1 -2 -3 -3 -8 -6 -4 -4 -5 -5 -5 -5 -4 -5 -4 -3 -1 -7 -2 -8 -3 2 2 4 4 3 4 3 3 4 1 3 2 1 -1 -0 2 3 1 1 2 2 1 0
0 0 -0 -0 -1 -1 -1 -1 -1 -2 -2 -2 -4 -11 -6 -5 -5 -3 -5 -3 -3 -4 -3 -3 -3 -1 -1 -0 0 1 1 2 4 4 4 3 4 3 4 1 -0 0 0 -0 -0 -1 -1 -1 -2 -1 1 2 1 0
1 0 -0 -1 -1 -1 -1 -2 -2 -1 -2 -4 -9 -4 -4 -3 -4 -4 -3 -3 -3 -3 -3 -3 -2 1 1 0 2 4 4 4 4 4 4 3 3 4 2 0 -2 -2 -2 -2 -2 -2 -1 -0 -0 -1 1 1 0 0
0 -0 -1 -1 -1 -2 -2 -2 -2 -2 -2 -7 -8 -2 -3 -3 -3 -3 -2 -3 -3 -3 -3 -3 -2 -1 3 3 4 4 3 3 3 3 4 4 3 -0 -2 -2 -3 -3 -3 -2 -1 -1 -0 -0 -0 -0 1 1 1 1
0 0 -1 -1 -1 -1 -2 -2 -2 -2 -3 -10 -11 -4 -3 -3 -3 -2 -2 -2 -2 -1 -2 -2 -1 2 4 4 4 3 3 2 4 4 5 4 3 -1 -2 -3 -3 -3 -2 -1 -1 -0 -0 -0 -0 0 1 1 2 1
1 1 0 -0 -1 -1 -2 -2 -2 -2 -3 -3 -8 -5 -4 -3 -2 -2 -1 -0 0 1 1 1 1 2 3 3 2 3 3 2 4 3 4 3 0 -2 -3 -3 -3 -3 -1 -1 -0 1 0 0 0 0 1 1 1 2
0 1 0 -1 -1 -1 -2 -2 -2 -3 -3 -6 -4 -4 -3 -2 -2 -1 -2 0 2 -0 -0 -0 0 2 3 3 2 2 3 4 1 3 4 -0 -2 -3 -3 -3 -3 -3 -2 -1 -0 0 0 1 1 0 0 0 1 1
0 0 -0 -0 -1 -2 -1 -2 -2 -3 -5 -5 -4 -4 -3 -2 -2 -3 -2 -4 -1 -1 -0 -0 1 2 2 2 2 3 2 1 3 3 1 -4 -3 -3 -3 -3 -3 -3 -3 -2 -2 -0 0 1 2 2 2 2 2 -0
-1 -2 -1 -0 -2 -2 -2 -2 -2 -3 -6 -7 -5 -5 -4 -4 -2 -2 -2 -2 -2 -2 -1 -0 1 1 1 2 1 1 3 3 2 1 -3 -2 -3 -3 -4 -4 -3 -3 -3 -3 -3 -2 -2 -2 -1 -1 1 2 2 1
-2 -2 -1 -1 -1 -2 -2 -2 -3 -4 -9 -5 -4 -5 -5 -4 -4 -3 -2 -2 -1 -2 -1 -0 0 2 2 1 2 2 1 1 -1 -4 -2 -3 -3 -4 -6 -8 -9 -7 -5 -4 -4 -3 -3 -2 -2 -2 -2 0 0 0
-3 -1 -1 -0 -1 -1 -2 -3 -4 -8 -9 -5 -5 -5 -4 -4 -4 -4 -3 -3 -2 -2 -0 -0 1 2 0 2 2 1 1 -2 -2 -2 -3 -3 -3 -4 -4 -9 -13 -12 -12 -11 -8 -5 -4 -3 -3 -3 -3 -3 -1 -0
-7 -4 -2 -1 -1 -1 -2 -3 -5 -7 -6 -6 -6 -6 -5 -4 -4 -3 -3 -3 -3 -2 -2 -1 -2 0 2 1 0 -2 -1 -1 -2 -3 -4 -4 -6 -7 -7 -15 -17 -18 -18 -18 -15 -11 -7 -5 -4 -3 -3 -3 -3 -3
-6 -1 -1 -1 -1 -1 -3 -5 -5 -8 -9 -8 -7 -7 -5 -5 -4 -4 -3 -4 -4 -3 -3 -3 -2 -0 -1 -3 -3 -1 -1 -2 -2 -3 -4 -5 -7 -10 -15 -18 -18 -19 -21 -22 -20 -17 -10 -6 -5 -4 -4 -3 -4 -4
-2 -2 -2 -2 -2 -2 -3 -7 -10 -10 -9 -9 -7 -6 -5 -5 -5 -5 -4 -5 -4 -4 -4 -5 -4 -2 -2 -2 -1 -1 -1 -1 -2 -2 -3 -6 -9 -15 -18 -18 -21 -24 -24 -21 -20 -20 -20 -17 -14 -9 -5 -4 -4 -4
-2 -2 -2 -2 -2 -3 -3 -5 -8 -11 -11 -9 -8 -7 -7 -6 -6 -6 -6 -5 -5 -4 -6 -6 -7 -4 -3 -2 -4 -4 -2 -1 -2 -3 -5 -8 -15 -18 -20 -25 -25 -24 -23 -22 -22 -21 -19 -18 -19 -19 -17 -7 -4 -4
-2 -3 -3 -3 -3 -3 -4 -4 -8 -9 -9 -9 -9 -7 -7 -7 -8 -7 -7 -7 -6 -6 -7 -7 -7 -7 -10 -11 -11 -9 -4 -2 -3 -5 -12 -17 -18 -22 -24 -24 -23 -21 -21 -21 -22 -20 -18 -16 -16 -16 -18 -16 -8 -4
-3 -3 -4 -3 -3 -4 -5 -5 -6 -8 -11 -10 -9 -11 -12 -9 -9 -9 -8 -8 -9 -11 -12 -12 -9 -7 -7 -10 -15 -11 -5 -4 -6 -11 -16 -17 -21 -24 -23 -22 -20 -20 -20 -20 -20 -17 -14 -14 -13 -14 -15 -15 -13 -7
-4 -5 -3 -4 -4 -6 -6 -7 -7 -8 -8 -10 -14 -13 -14 -11 -9 -9 -9 -10 -13 -13 -14 -15 -16 -15 -13 -13 -14 -12 -6 -5 -8 -14 -15 -16 -19 -21 -19 -18 -18 -18 -18 -19 -17 -14 -13 -13 -13 -13 -13 -13 -14 -10
-5 -4 -4 -6 -6 -8 -12 -13 -14 -10 -13 -15 -13 -12 -13 -9 -13 -13 -10 -11 -12 -13 -14 -14 -15 -15 -13 -13 -12 -9 -5 -6 -9 -13 -15 -15 -14 -14 -14 -15 -16 -16 -17 -17 -14 -13 -12 -12 -12 -12 -12 -13 -13 -13
-5 -5 -5 -7 -10 -10 -10 -13 -13 -13 -13 -13 -13 -10 -11 -15 -13 -12 -11 -17 -19 -20 -19 -18 -16 -14 -13 -13 -9 -8 -9 -10 -10 -12 -15 -14 -14 -13 -15 -16 -17 -18 -17 -14 -12 -12 -12 -12 -12 -12 -12 -12 -12 -12
-6 -9 -5 -5 -8 -9 -12 -12 -11 -12 -13 -12 -13 -13 -13 -12 -14 -14 -18 -21 -20 -20 -18 -16 -15 -15 -16 -15 -16 -16 -17 -17 -16 -17 -18 -18 -18 -16 -13 -12 -16 -17 -13 -12 -12 -13 -13 -13 -13 -12 -12 -12 -12 -12
-6 -7 -8 -8 -9 -10 -14 -13 -13 -12 -12 -10 -10 -12 -10 -11 -10 -19 -22 -21 -22 -21 -19 -19 -22 -21 -20 -21 -21 -20 -20 -19 -18 -17 -16 -15 -14 -13 -15 -16 -13 -12 -12 -13 -13 -13 -13 -13 -13 -12 -12 -12 -12 -11
-6 -6 -7 -13 -12 -11 -12 -13 -13 -13 -12 -8 -11 -11 -12 -14 -14 -16 -13 -15 -22 -23 -23 -22 -21 -20 -20 -20 -20 -20 -20 -19 -18 -17 -17 -17 -18 -17 -13 -12 -13 -13 -12 -13 -13 -13 -13 -13 -12 -11 -11 -11 -11 -10
-7 -7 -8 -11 -13 -12 -9 -10 -14 -14 -14 -9 -9 -11 -12 -12 -10 -12 -14 -14 -18 -20 -20 -21 -22 -20 -19 -19 -19 -19 -19 -17 -17 -17 -18 -16 -13 -12 -12 -12 -12 -13 -13 -13 -13 -13 -12 -12 -12 -12 -11 -11 -11 -11
-9 -8 -9 -11 -13 -9 -9 -11 -12 -13 -12 -12 -12 -11 -12 -12 -11 -10 -9 -8 -8 -9 -11 -13 -17 -20 -18 -19 -19 -18 -17 -17 -17 -14 -12 -12 -12 -12 -12 -13 -13 -13 -12 -12 -12 -12 -12 -12 -12 -12 -12 -12 -11 -11
-8 -9 -11 -12 -13 -10 -10 -10 -12 -14 -14 -14 -15 -15 -15 -14 -13 -10 -9 -9 -10 -11 -11 -13 -14 -16 -18 -18 -17 -16 -17 -14 -12 -12 -12 -12 -12 -12 -13 -14 -14 -12 -11 -11 -12 -12 -12 -11 -12 -11 -11 -11 -10 -10
-9 -10 -10 -11 -13 -13 -12 -13 -13 -12 -12 -13 -13 -13 -13 -12 -13 -10 -11 -10 -11 -12 -14 -15 -15 -15 -15 -17 -16 -13 -12 -12 -12 -12 -11 -11 -12 -12 -12 -11 -12 -11 -11 -11 -11 -11 -11 -11 -11 -11 -11 -10 -10 -10

GFSWCAN_850_dewp_033.txt.gz
Dewpoint
1 1 -3 -3 0 0 -0 -1 -2 -2 -1 -1 -1 -2 -1 -1 -1 -3 -4 -4 -4 -5 -7 -7 -8 -3 -3 -1 3 1 3 2 1 3 4 4 2 2 2 2 2 3 4 4 3 4 4 -0 2 5 3 1 1 1
1 1 -2 0 -0 -1 -3 -0 -3 -2 -1 -1 -1 -1 -1 -1 -1 -2 -4 -5 -3 -3 -5 -7 -5 -5 -5 -7 -9 -5 1 1 1 1 1 1 3 1 1 4 1 4 1 3 2 1 -2 0 2 1 0 1 1 1
-3 -4 -1 -0 -1 -1 -2 -2 -2 -2 -1 -1 -1 -1 -2 -1 -1 -2 -4 -4 -3 -3 -3 -3 -6 -7 -7 -7 -8 -7 -2 3 3 2 0 1 3 1 3 2 2 1 1 3 2 1 1 0 1 1 2 1 1 1
-5 -4 -1 -1 -1 -1 -1 -1 -1 -1 -1 -1 -1 -1 -2 -2 -1 -1 -4 -3 -3 -4 -3 -5 -6 -7 -9 -9 -8 -9 -8 0 -2 0 2 2 2 1 1 1 2 1 2 2 2 1 1 1 1 1 2 2 2 2
-1 -2 -1 -0 0 1 -0 -1 -1 -2 -1 -2 -1 -2 -2 -2 -2 -3 -5 -4 -3 -3 -3 -4 -5 -7 -8 -5 -6 -6 -7 -7 -5 -1 4 3 1 1 0 1 1 1 2 3 3 1 1 1 2 3 3 3 2 2
-1 -1 0 1 0 0 -1 -1 -1 -1 -1 -1 -2 -2 -2 -3 -7 -4 -4 -5 -5 -4 -3 -4 -6 -7 -7 -7 -7 -5 -4 -3 -4 0 3 3 2 1 1 2 0 1 1 0 2 3 3 2 2 3 2 1 2 1
-0 -0 -0 0 0 -0 -1 -1 -1 -1 -1 -1 -2 -2 -7 -8 -4 -4 -5 -5 -4 -4 -4 -6 -7 -6 -2 -4 -4 -5 -6 -3 -2 -1 3 3 3 1 2 2 0 1 1 3 2 1 0 2 2 1 -0 -1 2 2
1 1 1 0 -0 -0 -1 -1 -1 -2 -1 -2 -2 -6 -6 -3 -4 -5 -4 -5 -4 -4 -3 -5 -6 -3 -4 -2 -3 -5 -5 -6 -1 2 3 3 4 2 3 1 1 1 1 0 -0 -0 -1 -2 -2 -2 -2 -2 1 1
1 1 1 -0 -1 -1 -1 -1 -2 -2 -2 -2 -5 -8 -3 -3 -4 -4 -3 -3 -3 -3 -4 -3 -4 -2 0 0 -1 -1 -3 1 1 2 4 3 4 4 1 1 -0 -0 -1 -1 -1 -2 -2 -1 -0 -0 -0 -0 0 0
1 1 -0 -1 -1 -1 -1 -2 -2 -2 -3 -3 -10 -3 -3 -3 -3 -3 -2 -3 -3 -3 -4 -3 -3 -1 0 0 1 1 2 2 3 4 3 4 4 1 0 -0 -1 -2 -3 -3 -2 -1 -0 1 1 0 0 -0 0 1
0 0 -0 -0 -1 -1 -1 -2 -2 -2 -3 -3 -5 -7 -4 -5 -3 -3 -2 -2 -3 -2 -3 -3 -2 -1 2 4 3 3 3 2 4 3 3 3 4 -0 -2 -2 -3 -3 -3 -2 -1 -0 0 -0 0 1 1 1 1 1
0 0 0 -0 -0 -1 -1 -2 -2 -2 -3 -3 -3 -5 -4 -4 -2 -2 -2 -1 -1 -0 0 0 0 0 1 3 2 2 2 2 4 3 4 4 0 -2 -3 -3 -3 -3 -2 -1 -1 -0 0 0 1 1 0 0 1 1
-1 -1 0 0 -2 -2 -2 -2 -2 -2 -2 -4 -4 -3 -3 -3 -2 -1 -1 -0 1 -1 -1 -1 -0 1 1 3 2 2 2 3 2 3 3 -1 -2 -3 -3 -3 -3 -3 -2 -2 -1 1 1 1 1 1 1 1 1 1
-2 -2 -1 -0 -2 -2 -2 -2 -2 -2 -4 -6 -5 -5 -3 -3 -1 -2 -1 -2 -2 -2 -2 -1 -0 1 1 2 2 3 2 1 3 3 1 -3 -3 -3 -3 -3 -3 -3 -3 -2 -2 -2 -1 0 1 1 2 2 2 2
-3 -3 -2 -2 -3 -3 -2 -2 -3 -3 -5 -8 -5 -6 -5 -4 -3 -3 -3 -2 -2 -2 -2 -1 -0 0 1 1 2 1 3 3 2 -0 -4 -2 -3 -3 -4 -5 -4 -4 -4 -4 -4 -3 -3 -2 -2 -2 -2 0 1 1
-4 -2 -2 -2 -3 -3 -3 -3 -3 -3 -7 -7 -5 -6 -5 -4 -5 -4 -5 -3 -2 -2 -2 -1 -0 1 2 1 2 2 1 1 -1 -3 -2 -3 -3 -4 -7 -9 -10 -9 -10 -9 -8 -6 -5 -4 -3 -3 -2 -2 -0 -0
-5 -2 -2 -1 -1 -1 -3 -2 -3 -5 -9 -7 -7 -6 -5 -5 -5 -5 -3 -3 -3 -3 -1 -1 1 2 0 2 1 -1 0 -1 -2 -2 -2 -3 -4 -5 -4 -10 -13 -16 -18 -18 -16 -13 -11 -8 -5 -4 -3 -3 -3 -2
-12 -7 -1 -2 -1 -1 -2 -2 -3 -5 -7 -8 -7 -7 -6 -6 -5 -5 -4 -3 -3 -2 -2 -2 -3 -1 2 1 1 -1 -1 -1 -2 -2 -3 -3 -3 -4 -5 -12 -16 -18 -19 -21 -21 -18 -13 -11 -9 -7 -5 -4 -3 -4
-6 -5 -2 -2 -1 -2 -2 -4 -4 -6 -8 -8 -9 -9 -8 -8 -8 -6 -4 -4 -4 -4 -3 -3 -4 -2 -2 -3 -3 -1 -1 -2 -2 -3 -4 -4 -5 -7 -9 -16 -18 -19 -23 -25 -24 -22 -21 -19 -17 -16 -11 -6 -4 -4
-2 -2 -2 -2 -3 -2 -3 -5 -8 -9 -10 -10 -9 -7 -7 -7 -7 -6 -6 -4 -4 -4 -5 -5 -5 -3 -2 -2 -1 -1 -1 -1 -2 -3 -3 -4 -4 -7 -14 -18 -20 -24 -25 -23 -22 -22 -22 -20 -19 -19 -20 -17 -9 -4
-4 -2 -3 -4 -4 -3 -3 -4 -6 -10 -11 -10 -9 -8 -9 -7 -7 -7 -6 -6 -5 -5 -6 -6 -6 -6 -4 -3 -2 -2 -3 -2 -1 -2 -2 -2 -4 -7 -15 -20 -25 -26 -25 -25 -25 -24 -22 -20 -18 -18 -17 -18 -17 -10
-8 -4 -3 -4 -3 -3 -4 -4 -6 -9 -9 -9 -9 -9 -9 -8 -7 -7 -7 -7 -6 -7 -7 -7 -7 -8 -9 -8 -7 -8 -7 -7 -3 -2 -3 -4 -8 -15 -19 -24 -25 -23 -21 -21 -22 -22 -21 -18 -15 -15 -15 -15 -15 -14
-6 -4 -3 -5 -3 -4 -5 -6 -6 -6 -11 -10 -9 -11 -12 -9 -9 -9 -9 -9 -9 -10 -10 -10 -10 -9 -8 -8 -8 -9 -11 -11 -5 -3 -4 -10 -16 -19 -24 -24 -22 -20 -19 -19 -20 -19 -18 -15 -14 -14 -13 -13 -14 -14
-5 -4 -4 -4 -4 -6 -6 -7 -7 -8 -10 -11 -13 -13 -15 -12 -10 -10 -11 -11 -12 -12 -15 -13 -12 -12 -12 -13 -13 -11 -9 -9 -4 -5 -8 -15 -16 -19 -22 -21 -19 -18 -17 -18 -18 -18 -15 -13 -13 -13 -12 -12 -12 -13
-5 -5 -4 -5 -5 -8 -12 -13 -14 -10 -11 -15 -14 -13 -14 -10 -14 -15 -13 -11 -12 -19 -20 -18 -16 -13 -13 -14 -14 -14 -11 -8 -5 -5 -8 -14 -15 -15 -15 -14 -14 -14 -15 -15 -17 -18 -15 -13 -12 -12 -12 -12 -12 -12
-5 -7 -5 -6 -9 -9 -11 -13 -11 -11 -13 -13 -12 -11 -10 -16 -14 -13 -13 -16 -19 -21 -21 -18 -16 -14 -14 -13 -13 -9 -10 -7 -5 -6 -10 -13 -15 -15 -14 -14 -14 -16 -14 -15 -17 -17 -13 -12 -13 -13 -13 -13 -13 -12
-7 -9 -6 -6 -7 -8 -11 -12 -12 -13 -14 -12 -13 -14 -15 -13 -13 -14 -13 -18 -19 -21 -22 -19 -16 -15 -12 -12 -12 -11 -11 -12 -14 -16 -16 -16 -16 -16 -16 -16 -15 -13 -15 -17 -16 -13 -13 -13 -13 -13 -13 -13 -13 -12
-7 -7 -8 -7 -8 -8 -14 -14 -14 -13 -13 -12 -11 -12 -12 -11 -10 -11 -19 -16 -12 -11 -17 -23 -21 -20 -21 -21 -21 -21 -20 -20 -20 -19 -19 -18 -18 -17 -16 -14 -15 -16 -17 -14 -13 -13 -13 -13 -13 -13 -13 -13 -13 -12
-6 -7 -7 -10 -10 -10 -10 -12 -13 -12 -12 -10 -11 -11 -12 -10 -10 -10 -10 -11 -12 -12 -8 -17 -22 -21 -20 -20 -20 -20 -19 -19 -19 -19 -19 -18 -17 -17 -17 -17 -15 -13 -12 -12 -12 -12 -13 -13 -13 -13 -12 -12 -12 -11
-7 -7 -8 -11 -12 -12 -10 -11 -11 -11 -11 -12 -11 -10 -10 -11 -11 -11 -11 -11 -10 -10 -9 -8 -8 -12 -16 -18 -20 -20 -19 -19 -19 -19 -17 -17 -17 -18 -14 -12 -12 -12 -12 -12 -13 -13 -13 -13 -12 -12 -12 -12 -12 -12
-9 -8 -7 -9 -11 -10 -10 -10 -11 -11 -11 -12 -12 -12 -12 -12 -12 -13 -12 -11 -11 -11 -9 -9 -9 -9 -10 -12 -14 -18 -17 -18 -19 -17 -17 -16 -14 -12 -12 -12 -12 -12 -13 -13 -13 -12 -12 -12 -12 -12 -12 -12 -12 -12
-8 -8 -10 -14 -12 -11 -10 -10 -10 -11 -11 -12 -12 -12 -12 -13 -13 -13 -12 -11 -11 -9 -9 -10 -10 -11 -13 -14 -16 -17 -18 -18 -17 -16 -13 -12 -12 -12 -11 -11 -12 -12 -12 -12 -12 -11 -11 -12 -12 -12 -12 -12 -12 -11
-9 -10 -10 -10 -10 -10 -11 -11 -12 -13 -13 -13 -12 -12 -13 -13 -13 -12 -11 -11 -10 -9 -10 -11 -12 -14 -14 -14 -15 -15 -16 -15 -13 -12 -12 -11 -11 -11 -11 -12 -12 -11 -11 -12 -12 -11 -11 -11 -12 -12 -11 -11 -11 -11

GFSWCAN_850_dewp_036.txt.gz
Dewpoint
1 1 -0 -2 -1 -1 -1 -2 -1 -3 -2 -2 -1 -1 -1 -1 -1 -2 -2 -3 -6 -4 -6 -6 -8 -5 -5 -8 2 1 3 3 3 4 3 3 1 1 2 1 2 2 3 5 3 4 3 -1 2 3 2 1 1 2
0 0 -0 -1 -0 -1 -1 -2 -3 -2 -2 -2 -2 -1 -1 -1 -1 -1 -2 -4 -4 -3 -5 -6 -4 -4 -5 -7 -7 -7 -1 1 2 4 3 2 3 2 2 4 1 3 0 1 1 0 -2 0 2 2 0 1 1 1
0 -2 -3 -2 -1 -1 -1 -1 -2 -1 -1 -1 -2 -1 -1 -1 -1 -1 -1 -2 -2 -2 -4 -3 -3 -5 -6 -5 -4 -6 -6 -0 1 0 2 2 4 2 3 3 3 1 0 2 2 -0 -1 -0 1 1 1 1 1 1
-2 -4 -4 -3 -1 -1 0 0 -1 -1 -1 -1 -2 -1 -2 -2 -1 -1 -1 -2 -4 -3 -3 -5 -7 -8 -8 -8 -8 -6 -6 -4 -3 -2 2 3 3 1 2 1 2 1 1 1 2 1 1 1 1 1 2 2 2 2
-0 -1 -1 -2 -1 1 1 0 -0 -1 -1 -1 -1 -1 -2 -1 -2 -2 -5 -3 -3 -3 -4 -5 -4 -6 -7 -6 -6 -7 -7 -5 -5 -4 -0 4 2 2 1 1 2 1 2 3 3 1 0 1 2 2 2 2 2 2
0 -0 -1 0 0 1 1 -0 -1 -1 -2 -1 -1 -1 -1 -2 -7 -4 -4 -5 -5 -4 -3 -4 -6 -7 -7 -4 -7 -5 -5 -4 -4 -4 -2 0 2 2 4 3 0 0 1 1 1 1 2 2 1 1 2 2 1 0
0 0 -1 -1 -1 -1 -1 -2 -2 -2 -2 -1 -2 -2 -2 -10 -4 -3 -4 -5 -4 -4 -4 -5 -5 -7 -3 -4 -5 -3 -3 -3 -4 -4 -3 0 3 2 2 2 -0 0 1 1 2 3 1 1 2 2 1 -1 -1 -2
-0 0 0 1 -0 -1 -0 -2 -2 -3 -2 -2 -2 -2 -9 -3 -3 -3 -4 -4 -4 -3 -4 -4 -4 -4 -3 -3 -3 -4 -4 -4 -3 -1 -1 -0 3 3 4 1 1 1 1 1 1 1 0 -0 -1 -2 -2 -1 -1 -1
-0 -1 0 1 0 -2 -2 -2 -3 -2 -3 -3 -3 -7 -3 -3 -3 -4 -4 -3 -2 -3 -4 -3 -3 -1 -2 -1 -1 -3 -4 -4 -3 1 2 3 4 5 2 1 1 -0 -0 -0 -0 -0 -1 -2 -1 0 0 -0 -0 -0
-0 1 0 -1 -1 -1 -2 -2 -3 -3 -3 -4 -5 -5 -3 -4 -4 -4 -2 -3 -3 -3 -3 -3 -3 -2 -1 0 0 -0 -1 -1 2 2 3 3 4 1 0 1 0 -0 -0 -2 -2 -2 -1 0 1 1 1 1 0 -0
0 -0 -1 -1 -1 -1 -1 -2 -2 -2 -3 -3 -3 -7 -6 -5 -5 -3 -2 -2 -2 -2 -3 -3 -3 -1 -0 1 2 1 2 2 4 3 4 4 3 -0 -2 -2 -2 -2 -2 -3 -2 -0 0 0 1 1 1 0 0 1
0 -0 -1 -1 -1 -1 -1 -2 -2 -2 -3 -3 -3 -4 -4 -4 -2 -2 -2 -1 -1 0 -0 -1 -0 -1 -0 2 3 2 3 3 4 3 4 4 1 -2 -2 -2 -3 -3 -3 -2 -0 -0 0 0 0 0 1 1 -0 0
-1 -0 -0 -0 -2 -2 -2 -2 -2 -3 -3 -6 -5 -4 -3 -3 -1 -1 -0 0 -0 -1 -1 -2 -1 -0 1 2 2 2 3 4 2 4 4 2 -2 -3 -3 -3 -3 -3 -2 -1 -1 0 1 1 1 1 1 1 2 2
-1 -1 -0 -0 -1 -2 -3 -2 -2 -3 -4 -8 -7 -7 -3 -2 -2 -1 -1 -2 -2 -2 -2 -2 -2 -0 1 1 2 3 3 2 4 4 2 -0 -3 -3 -3 -3 -3 -3 -3 -2 -2 -2 -1 -0 -1 -1 -0 1 1 1
-4 -2 -1 -1 -1 -2 -3 -2 -3 -3 -4 -8 -8 -7 -5 -4 -4 -4 -4 -3 -3 -2 -2 -2 -2 -1 1 1 2 2 3 3 2 1 0 -2 -3 -3 -3 -3 -4 -4 -4 -4 -4 -4 -4 -3 -3 -3 -2 -2 0 1
-4 -2 -3 -2 -2 -3 -3 -3 -3 -3 -6 -8 -7 -6 -7 -5 -5 -6 -6 -4 -3 -3 -3 -2 -0 1 2 2 3 3 2 2 1 -0 -2 -2 -3 -4 -6 -8 -8 -9 -12 -13 -11 -11 -10 -9 -7 -5 -4 -3 -3 -1
-4 -1 -2 -2 -2 -3 -3 -2 -2 -4 -7 -8 -8 -8 -7 -7 -7 -7 -6 -5 -4 -4 -2 -2 0 1 0 2 2 1 2 1 -2 -2 -2 -2 -3 -5 -6 -10 -12 -16 -18 -19 -19 -18 -16 -13 -10 -8 -7 -5 -4 -3
-12 -10 -3 -2 -2 -3 -2 -1 -2 -4 -6 -7 -7 -7 -7 -8 -7 -7 -7 -6 -4 -3 -3 -2 -3 -2 1 2 1 2 -1 -1 -2 -2 -2 -3 -4 -5 -4 -9 -14 -17 -20 -22 -24 -23 -20 -18 -18 -19 -17 -10 -6 -4
-18 -10 -6 -3 -2 -3 -3 -3 -4 -4 -6 -7 -8 -8 -8 -8 -9 -8 -7 -5 -4 -4 -4 -4 -2 -2 -2 -2 -1 -1 -1 -1 -2 -2 -3 -3 -3 -4 -5 -9 -15 -19 -22 -25 -24 -22 -21 -21 -21 -20 -20 -20 -14 -8
-10 -7 -3 -3 -3 -4 -4 -4 -6 -8 -9 -11 -10 -9 -9 -9 -9 -8 -7 -6 -4 -4 -4 -4 -4 -4 -3 -3 -1 -1 -1 -1 -2 -3 -3 -3 -4 -5 -6 -11 -16 -20 -25 -26 -26 -25 -25 -23 -21 -20 -19 -18 -19 -15
-7 -5 -3 -4 -5 -4 -4 -3 -5 -8 -9 -10 -10 -9 -10 -9 -8 -8 -7 -6 -6 -5 -5 -6 -7 -9 -8 -6 -4 -3 -2 -2 -2 -2 -2 -2 -3 -4 -6 -12 -18 -24 -26 -25 -24 -23 -23 -23 -20 -18 -17 -15 -15 -16
-6 -3 -3 -4 -5 -3 -3 -4 -4 -7 -9 -9 -9 -9 -9 -9 -9 -8 -8 -8 -6 -7 -7 -9 -10 -9 -8 -8 -7 -8 -7 -6 -5 -5 -3 -2 -3 -4 -5 -11 -20 -25 -24 -22 -22 -22 -22 -21 -19 -16 -14 -14 -14 -14
-6 -5 -4 -4 -5 -4 -5 -6 -6 -6 -9 -9 -9 -10 -10 -10 -10 -10 -9 -9 -9 -11 -11 -13 -17 -15 -12 -11 -10 -9 -8 -8 -8 -8 -6 -3 -4 -9 -15 -19 -24 -24 -22 -20 -19 -19 -21 -20 -16 -14 -13 -13 -13 -13
-5 -4 -5 -5 -5 -5 -6 -7 -7 -8 -10 -10 -10 -10 -11 -13 -11 -10 -9 -11 -12 -11 -15 -20 -19 -19 -17 -13 -12 -13 -13 -9 -9 -8 -4 -4 -6 -12 -17 -22 -23 -21 -19 -17 -17 -17 -18 -19 -17 -14 -13 -13 -13 -13
-7 -7 -6 -5 -5 -7 -9 -10 -12 -10 -8 -13 -12 -10 -11 -10 -10 -11 -10 -11 -11 -17 -21 -19 -17 -16 -16 -16 -14 -13 -13 -13 -11 -9 -5 -5 -9 -15 -17 -19 -19 -17 -15 -15 -15 -15 -16 -18 -16 -13 -13 -13 -13 -13
-5 -8 -6 -7 -7 -8 -9 -9 -11 -10 -12 -14 -12 -12 -11 -12 -12 -9 -11 -12 -15 -15 -14 -13 -18 -17 -14 -14 -14 -11 -9 -11 -9 -6 -6 -6 -8 -13 -15 -15 -15 -15 -15 -15 -15 -14 -16 -17 -15 -13 -13 -13 -13 -13
-7 -8 -6 -6 -7 -8 -10 -11 -12 -12 -14 -12 -12 -12 -12 -11 -10 -11 -11 -12 -15 -13 -11 -8 -8 -16 -18 -15 -16 -13 -11 -11 -12 -11 -11 -12 -14 -14 -14 -15 -16 -16 -16 -15 -14 -14 -16 -15 -13 -13 -13 -13 -13 -13
-7 -8 -8 -8 -7 -8 -10 -12 -12 -12 -12 -12 -11 -11 -10 -10 -9 -10 -12 -13 -12 -12 -11 -11 -8 -7 -11 -19 -18 -19 -18 -18 -19 -19 -19 -19 -18 -18 -17 -16 -16 -15 -15 -16 -17 -16 -13 -13 -13 -13 -13 -13 -13 -13
-7 -7 -8 -9 -9 -8 -9 -9 -12 -11 -11 -12 -10 -10 -10 -11 -12 -12 -13 -13 -12 -12 -12 -12 -12 -12 -9 -7 -12 -17 -18 -19 -18 -18 -19 -20 -20 -19 -17 -16 -16 -17 -16 -14 -13 -12 -12 -12 -13 -13 -13 -13 -13 -13
-7 -8 -8 -9 -9 -9 -10 -11 -11 -11 -11 -12 -11 -11 -11 -12 -13 -13 -13 -13 -14 -15 -14 -13 -14 -13 -11 -11 -9 -8 -10 -16 -17 -16 -17 -19 -19 -18 -17 -17 -16 -13 -12 -12 -12 -12 -12 -13 -13 -12 -12 -12 -12 -12
-8 -8 -8 -9 -11 -11 -11 -11 -11 -12 -12 -12 -12 -12 -12 -12 -12 -12 -12 -12 -12 -14 -14 -15 -15 -12 -11 -11 -11 -11 -11 -11 -13 -14 -15 -17 -17 -17 -16 -13 -12 -12 -12 -12 -12 -12 -13 -12 -12 -12 -12 -12 -12 -12
-8 -8 -9 -13 -11 -11 -10 -10 -10 -11 -11 -11 -11 -11 -11 -11 -12 -11 -12 -13 -14 -13 -13 -12 -12 -10 -10 -10 -11 -12 -13 -14 -14 -15 -17 -17 -16 -13 -12 -12 -12 -11 -11 -11 -12 -12 -12 -12 -12 -12 -12 -12 -12 -12
-9 -10 -9 -9 -10 -10 -11 -11 -11 -11 -11 -12 -11 -11 -11 -12 -12 -11 -12 -12 -12 -12 -11 -11 -10 -10 -10 -11 -13 -14 -14 -15 -16 -16 -14 -13 -12 -12 -11 -11 -12 -12 -12 -11 -11 -12 -12 -12 -12 -12 -12 -12 -12 -11

GFSWCAN_850_dewp_039.txt.gz
Dewpoint
-1 0 -0 -1 -2 -1 -2 -2 -2 -3 -2 -2 -2 -1 -1 -2 -1 -1 -2 -4 -4 -4 -5 -5 -6 -7 -7 -8 -1 -0 2 4 4 4 4 2 0 0 0 -0 1 2 3 3 2 3 3 -1 3 4 2 2 2 2
1 -0 -0 -1 -1 -1 -1 -1 -1 -2 -1 -1 -2 -1 -1 -1 -1 -1 -1 -1 -2 -3 -4 -4 -4 -5 -5 -7 -6 -6 -2 -1 2 4 3 1 -0 -1 0 2 -1 2 -1 -0 -0 0 -2 -1 -0 2 1 1 2 2
-0 -0 -3 -3 -2 -1 -1 -1 0 -1 -1 -2 -2 -2 -2 -2 -2 -1 -1 -2 -2 -2 -4 -3 -3 -3 -5 -5 -4 -5 -6 -3 0 -1 1 3 3 -0 1 0 1 -0 -2 0 -0 -2 -2 -1 0 1 1 2 2 1
-1 -2 -4 -4 -3 -1 -0 0 1 -0 -1 -1 -2 -1 -1 -2 -2 -1 -1 -2 -2 -3 -3 -5 -5 -5 -7 -8 -6 -4 -5 -5 -4 -3 -2 3 4 -0 0 -1 0 -0 0 0 1 -0 1 0 -0 1 1 2 1 1
-0 -0 -1 -2 -1 0 0 1 0 -1 -1 -2 -1 -2 -2 -2 -1 -3 -5 -4 -3 -3 -3 -4 -4 -6 -5 -5 -5 -5 -4 -5 -4 -5 -2 2 2 2 1 1 1 1 1 2 1 -1 -1 -1 1 2 2 2 1 1
1 -0 -1 -1 0 -1 -1 -2 -2 -2 -2 -2 -2 -2 -2 -2 -2 -4 -3 -6 -6 -5 -4 -4 -4 -5 -8 -4 -5 -4 -4 -5 -5 -5 -6 -4 -1 3 3 1 -3 -1 -0 0 -0 1 1 2 2 2 1 1 2 1
0 -1 -1 -1 -0 -0 -1 -1 -2 -2 -3 -2 -2 -2 -2 -7 -4 -3 -3 -4 -5 -4 -4 -4 -4 -5 -3 -3 -3 -3 -4 -3 -4 -4 -6 -5 -1 -1 4 1 -2 -1 -0 1 2 2 2 1 1 1 2 1 -1 -1
-1 -1 -1 1 1 0 -1 -2 -3 -3 -3 -2 -2 -3 -5 -4 -3 -3 -4 -4 -4 -3 -4 -4 -3 -3 -2 -3 -4 -4 -5 -4 -3 -4 -6 -6 -5 0 4 -0 0 0 1 1 1 1 1 1 0 -1 -1 -1 -1 -1
-1 -1 0 1 0 -1 -3 -3 -3 -3 -3 -2 -4 -4 -3 -3 -3 -3 -4 -3 -3 -3 -3 -3 -2 -0 -1 -1 -2 -4 -5 -5 -7 -3 -4 -2 -2 2 4 1 1 1 1 1 0 1 0 -0 -1 -1 1 1 0 0
-1 -1 0 0 -1 -2 -4 -3 -2 -3 -3 -4 -4 -5 -2 -4 -6 -6 -2 -3 -3 -3 -4 -3 -2 -1 -1 -1 -1 -2 -3 -1 0 -2 -0 2 3 0 1 0 1 -0 -0 -0 -1 -1 -2 -1 0 0 0 1 1 0
-1 -1 0 -1 -2 -3 -2 -2 -2 -2 -3 -3 -3 -3 -6 -4 -4 -3 -2 -2 -2 -2 -2 -2 -2 -1 -1 0 2 -1 2 1 2 3 2 3 3 1 -1 -1 -1 -1 -1 -1 -2 -1 1 1 1 1 1 1 1 -0
0 -0 -0 -1 -1 -2 -3 -3 -2 -2 -3 -3 -3 -4 -4 -3 -2 -1 -0 -0 -0 1 -0 -1 -2 -1 -1 -0 1 1 2 2 5 2 3 4 1 -2 -2 -2 -2 -2 -2 -2 -0 2 2 2 1 1 1 1 1 1
-0 -1 -1 -1 -2 -2 -3 -3 -3 -3 -3 -6 -5 -4 -2 -2 -1 -1 -1 -0 -1 -1 -1 -2 -3 -2 -0 0 1 2 3 4 2 4 3 2 -1 -2 -3 -3 -3 -3 -3 -2 -0 1 1 1 1 1 1 1 1 1
-3 -1 -1 -1 -1 -2 -3 -2 -2 -2 -3 -6 -6 -6 -2 -1 -2 -2 -2 -2 -2 -2 -2 -2 -3 -1 0 0 2 3 3 3 4 4 3 1 -1 -3 -3 -3 -3 -3 -2 -2 -1 -1 -1 -1 -2 -3 -2 -2 -1 1
-9 -1 -1 -1 -1 -1 -3 -3 -3 -3 -3 -6 -6 -5 -3 -3 -4 -5 -4 -4 -3 -3 -2 -2 -2 -2 0 1 2 2 3 3 2 3 2 0 -2 -3 -3 -3 -3 -3 -3 -3 -4 -4 -5 -5 -5 -5 -5 -4 -3 -2
-9 -3 -2 -2 -2 -2 -3 -3 -3 -4 -4 -7 -6 -4 -5 -4 -3 -4 -5 -3 -4 -4 -3 -2 -1 -0 1 2 3 4 4 2 2 2 -1 -2 -2 -3 -4 -4 -6 -7 -9 -11 -11 -12 -12 -12 -12 -10 -9 -7 -5 -4
-13 -7 -6 -3 -3 -2 -3 -3 -2 -3 -5 -7 -5 -7 -5 -5 -5 -5 -6 -5 -4 -3 -2 -2 -0 1 -1 2 3 2 4 2 0 -0 -2 -2 -3 -4 -7 -9 -10 -14 -17 -18 -18 -19 -18 -16 -16 -17 -17 -13 -8 -6
-16 -16 -9 -3 -3 -2 -3 -2 -3 -3 -5 -5 -5 -4 -6 -6 -5 -6 -5 -4 -4 -3 -3 -2 -3 -2 -0 2 1 2 1 1 1 -2 -2 -2 -3 -5 -5 -7 -12 -15 -17 -21 -24 -24 -23 -23 -23 -23 -22 -22 -19 -13
-17 -16 -9 -4 -3 -4 -4 -3 -4 -3 -4 -6 -7 -7 -7 -6 -6 -7 -7 -6 -5 -4 -4 -3 -3 -2 -2 -2 0 -1 -1 -1 -0 -0 -2 -2 -3 -4 -4 -5 -10 -14 -18 -22 -24 -24 -24 -24 -24 -23 -22 -21 -20 -19
-14 -8 -4 -2 -2 -5 -4 -4 -5 -6 -6 -8 -10 -8 -8 -8 -8 -8 -8 -7 -5 -4 -5 -4 -4 -4 -4 -4 -3 -0 0 -1 -2 -2 -1 -3 -3 -3 -3 -2 -5 -13 -18 -24 -26 -26 -25 -25 -24 -22 -20 -18 -16 -16
-10 -6 -2 -2 -3 -4 -5 -4 -4 -6 -7 -8 -9 -10 -8 -9 -9 -6 -6 -7 -6 -6 -5 -5 -6 -10 -10 -9 -9 -9 -8 -7 -4 -2 -2 -2 -3 -3 -4 -5 -6 -11 -18 -25 -25 -24 -23 -23 -22 -21 -19 -16 -15 -15
-9 -5 -2 -3 -4 -4 -4 -4 -4 -6 -7 -8 -8 -9 -7 -7 -7 -7 -8 -8 -6 -6 -6 -8 -10 -10 -14 -18 -17 -11 -9 -8 -7 -8 -7 -4 -3 -3 -3 -3 -5 -9 -19 -25 -23 -22 -21 -21 -21 -19 -17 -15 -14 -14
-6 -5 -3 -4 -4 -5 -5 -6 -5 -6 -5 -6 -8 -8 -8 -8 -9 -10 -8 -8 -9 -11 -11 -12 -16 -19 -19 -19 -16 -15 -11 -10 -9 -9 -8 -7 -6 -4 -4 -5 -8 -13 -22 -24 -21 -20 -19 -19 -20 -19 -17 -14 -13 -13
-4 -6 -4 -4 -4 -5 -6 -6 -7 -7 -8 -8 -7 -7 -7 -8 -11 -9 -8 -8 -11 -12 -15 -17 -17 -16 -17 -14 -13 -14 -11 -11 -12 -11 -9 -7 -6 -5 -5 -9 -15 -20 -24 -22 -21 -19 -18 -17 -17 -18 -18 -14 -13 -13
-5 -6 -4 -5 -5 -5 -6 -7 -9 -8 -7 -8 -8 -8 -8 -10 -7 -8 -8 -9 -11 -13 -13 -11 -10 -12 -16 -16 -14 -14 -13 -10 -11 -13 -11 -7 -5 -5 -7 -12 -17 -20 -22 -21 -18 -16 -15 -16 -16 -16 -17 -15 -14 -13
-6 -7 -5 -6 -6 -6 -7 -7 -8 -9 -8 -8 -9 -10 -11 -9 -8 -6 -7 -11 -11 -13 -12 -11 -10 -10 -10 -13 -16 -13 -12 -10 -11 -12 -10 -6 -5 -5 -7 -11 -15 -16 -16 -16 -16 -15 -15 -15 -14 -15 -17 -15 -13 -13
-6 -6 -7 -7 -7 -8 -8 -10 -10 -10 -9 -8 -9 -10 -9 -8 -7 -8 -11 -11 -14 -14 -14 -13 -12 -12 -12 -12 -10 -13 -15 -14 -16 -14 -10 -9 -9 -9 -10 -12 -14 -15 -16 -16 -15 -15 -15 -14 -14 -16 -15 -13 -13 -13
-7 -8 -7 -7 -7 -8 -7 -8 -8 -8 -8 -10 -10 -9 -9 -8 -7 -10 -11 -12 -12 -12 -13 -14 -15 -15 -15 -15 -14 -13 -10 -13 -13 -12 -17 -17 -18 -18 -18 -18 -17 -17 -16 -16 -15 -15 -15 -17 -16 -13 -13 -13 -13 -13
-6 -7 -8 -8 -8 -8 -7 -7 -8 -10 -11 -12 -8 -8 -9 -12 -13 -14 -14 -15 -15 -16 -16 -16 -16 -16 -16 -16 -16 -16 -14 -12 -10 -13 -17 -18 -19 -19 -19 -19 -19 -18 -17 -16 -16 -17 -15 -13 -13 -12 -12 -12 -12 -12
-7 -8 -8 -9 -8 -7 -10 -11 -11 -11 -11 -12 -12 -12 -12 -13 -14 -14 -14 -14 -14 -14 -14 -13 -13 -13 -13 -14 -16 -18 -16 -12 -11 -12 -11 -13 -14 -14 -15 -17 -18 -17 -17 -16 -14 -13 -12 -12 -12 -12 -13 -13 -12 -12
-8 -8 -8 -8 -9 -10 -10 -10 -11 -11 -11 -12 -12 -12 -12 -12 -12 -14 -14 -15 -15 -15 -14 -13 -13 -13 -14 -15 -16 -14 -12 -11 -10 -11 -12 -12 -12 -12 -12 -15 -16 -16 -14 -13 -12 -12 -11 -11 -12 -12 -12 -12 -12 -12
-8 -8 -8 -9 -10 -11 -11 -11 -11 -11 -11 -11 -11 -11 -11 -12 -12 -12 -14 -14 -13 -13 -13 -13 -13 -14 -14 -12 -12 -12 -11 -10 -12 -13 -13 -13 -14 -15 -16 -15 -13 -13 -12 -12 -11 -11 -11 -11 -12 -12 -12 -12 -12 -12
-9 -9 -9 -9 -9 -10 -11 -11 -11 -11 -11 -12 -12 -12 -11 -11 -11 -12 -13 -12 -12 -12 -12 -12 -13 -12 -12 -12 -11 -11 -11 -12 -14 -14 -15 -15 -15 -14 -13 -12 -12 -11 -11 -12 -12 -12 -12 -12 -12 -12 -12 -12 -12 -12

GFSWCAN_850_dewp_042.txt.gz
Dewpoint
-1 -1 -0 -1 -2 -2 -2 -2 -1 -2 -2 -1 -2 -2 -1 -2 -2 -2 -1 -1 -2 -2 -3 -4 -5 -6 -7 -7 -5 -5 1 3 4 4 5 5 2 0 -0 -1 1 2 3 3 3 4 3 2 3 5 3 2 2 2
-1 -1 -1 -1 -2 -2 -1 -2 -1 0 -0 -1 -2 -2 -2 -2 -2 -1 -1 -1 -2 -2 -3 -4 -4 -4 -6 -5 -6 -6 -4 -4 1 3 3 3 2 -2 -0 2 -2 2 0 1 0 2 -1 -0 1 2 1 2 3 1
-1 -1 -2 -3 -3 -2 -2 -1 -1 1 -1 -1 -2 -2 -2 -2 -2 -2 -1 -1 -2 -2 -4 -5 -4 -4 -6 -5 -5 -5 -5 -4 -0 -2 -1 3 5 2 2 1 0 -1 -2 0 -0 -1 -1 -2 1 1 1 1 2 2
-1 -1 -4 -4 -4 -3 -1 -1 0 1 -0 -1 -2 -2 -2 -2 -2 -1 -1 -3 -2 -3 -3 -5 -5 -4 -4 -4 -6 -4 -3 -2 -4 -3 -1 1 4 2 2 0 0 0 -1 0 0 -1 1 -0 -1 1 1 1 1 1
-1 -1 -1 -1 -2 -1 -1 -1 -1 -1 -2 -2 -2 -2 -2 -2 -2 -2 -4 -5 -3 -3 -2 -4 -4 -6 -5 -4 -5 -5 -4 -4 -4 -4 -2 -1 1 2 2 1 2 1 1 2 1 -1 -1 -1 -1 1 1 2 1 1
-0 -0 -0 -2 -1 -2 -2 -1 -1 -2 -2 -2 -2 -2 -2 -3 -3 -6 -3 -5 -4 -4 -4 -3 -5 -4 -6 -4 -5 -4 -4 -4 -5 -4 -5 -5 -5 -1 1 4 -0 -1 -1 -0 -0 1 1 1 1 2 2 2 1 1
-1 -1 -1 -2 -2 -2 -0 -1 -1 -2 -3 -2 -2 -2 -3 -5 -4 -3 -3 -4 -3 -4 -4 -3 -4 -4 -4 -4 -4 -4 -4 -4 -4 -3 -4 -6 -6 -1 2 1 -1 -2 -2 -0 1 1 2 2 2 1 1 1 1 -1
-1 -1 -1 -2 -2 -1 -0 -2 -3 -3 -2 -3 -4 -4 -5 -4 -4 -2 -4 -4 -3 -3 -4 -3 -3 -3 -3 -2 -3 -4 -5 -4 -3 -4 -5 -5 -6 -5 -1 -1 2 1 0 1 2 2 1 1 1 0 -0 -1 -1 -0
-1 -2 -1 -2 -3 -2 -2 -3 -2 -2 -4 -4 -4 -5 -4 -4 -3 -4 -5 -4 -3 -3 -3 -2 -2 -0 -1 -2 -1 -4 -5 -4 -6 -3 -4 -5 -3 -1 -3 -6 -2 2 1 1 1 1 1 0 -0 -1 -0 0 1 1
-3 -2 -2 -2 -3 -3 -3 -2 -2 -3 -5 -4 -4 -3 -3 -5 -5 -5 -2 -2 -3 -3 -3 -3 -2 -1 -1 -1 -0 -2 -3 -1 -2 -3 -4 -2 0 -5 -3 1 -2 -0 0 1 0 -1 -2 -2 -0 0 1 1 1 1
-4 -2 -2 -3 -3 -4 -3 -2 -3 -3 -4 -3 -3 -3 -5 -4 -3 -2 -2 -2 -2 -1 -2 -3 -2 -1 -3 -0 1 -1 1 -0 1 1 0 3 2 0 -0 -0 -0 0 -0 -1 -1 -1 1 1 1 1 1 1 1 1
-3 -2 -2 -2 -4 -4 -3 -3 -3 -3 -3 -6 -9 -7 -4 -2 -2 -2 -0 -0 -0 1 -0 -1 -2 -2 -2 -1 -1 1 1 1 3 1 3 4 2 -0 -2 -1 1 -1 -1 -2 0 1 2 2 2 1 1 1 1 1
-3 -1 -1 -3 -3 -3 -2 -3 -3 -3 -4 -7 -9 -5 -3 -3 -4 -3 -2 -1 -1 -1 -2 -2 -2 -3 -2 -0 -0 1 2 3 2 3 4 2 -1 -2 -2 -2 -2 -2 -2 -2 -0 1 0 0 0 -1 -1 -1 0 1
-2 -2 -2 -2 -2 -2 -3 -3 -3 -4 -4 -6 -8 -8 -3 -3 -3 -2 -2 -1 -2 -3 -3 -2 -2 -3 -1 0 1 2 3 2 3 4 4 0 -1 -2 -3 -3 -3 -3 -2 -2 -1 -1 -1 -2 -3 -4 -4 -4 -3 -2
-1 -1 -2 -2 -1 -1 -2 -3 -3 -4 -4 -5 -7 -6 -5 -3 -4 -6 -7 -6 -7 -5 -3 -3 -3 -2 -1 0 2 2 3 3 3 3 1 -0 -2 -3 -3 -3 -3 -3 -3 -3 -3 -4 -6 -9 -11 -10 -9 -7 -6 -5
-4 -2 -2 -1 -1 -2 -2 -3 -3 -4 -5 -6 -6 -5 -5 -5 -3 -4 -5 -6 -4 -5 -5 -2 -2 -0 0 1 2 3 3 3 2 0 -0 -1 -1 -3 -3 -3 -4 -6 -8 -9 -11 -13 -15 -16 -16 -16 -16 -14 -12 -9
-9 -7 -5 -3 -2 -2 -3 -3 -3 -3 -5 -7 -5 -7 -5 -5 -5 -5 -5 -5 -5 -5 -3 -3 -3 -0 -2 1 2 2 2 1 0 0 -1 -2 -2 -3 -6 -8 -9 -14 -16 -16 -8 -7 -3 -21 -22 -22 -23 -22 -22 -18
-14 -12 -7 -3 -4 -3 -2 -4 -3 -3 -4 -5 -5 -3 -5 -7 -6 -6 -5 -5 -6 -4 -4 -4 -3 -3 -2 -0 1 1 0 -0 -0 0 0 -1 -2 -3 -6 -8 -11 -1 -1 -1 -8 -21 -26 -24 -23 -23 -23 -23 -22 -21
-13 -14 -7 -3 -4 -3 -4 -4 -4 -3 -3 -4 -6 -6 -7 -7 -6 -6 -6 -6 -5 -4 -4 -4 -4 -3 -3 -3 -1 -1 -1 -0 -1 -2 -3 -1 -2 -2 -1 -3 -6 -8 -2 -7 -21 -25 -26 -26 -25 -24 -23 -21 -19 -17
-10 -7 -5 -3 -4 -4 -4 -4 -5 -5 -6 -6 -9 -8 -8 -8 -7 -7 -7 -6 -5 -5 -5 -5 -5 -4 -4 -5 -5 -6 -7 -7 -6 -7 -7 -3 -1 -3 -3 -2 -1 -1 -9 -16 -22 -25 -26 -25 -24 -24 -23 -21 -18 -16
-7 -3 -2 -2 -2 -4 -5 -4 -4 -5 -6 -7 -7 -9 -9 -8 -8 -6 -6 -6 -6 -6 -6 -6 -7 -11 -10 -9 -9 -11 -18 -16 -9 -6 -6 -6 -5 -3 -1 -3 -4 -5 -7 -11 -19 -25 -24 -23 -23 -22 -21 -19 -17 -15
-4 -3 -3 -3 -4 -5 -4 -4 -4 -5 -7 -7 -7 -8 -9 -7 -6 -7 -8 -8 -7 -6 -7 -9 -11 -9 -12 -16 -17 -16 -16 -14 -15 -11 -8 -7 -6 -7 -5 -4 -3 -4 -4 -7 -18 -25 -23 -21 -20 -21 -21 -19 -17 -15
-6 -3 -3 -4 -4 -4 -5 -6 -5 -5 -6 -6 -7 -9 -8 -8 -9 -10 -9 -9 -9 -11 -11 -12 -14 -13 -14 -16 -15 -13 -14 -13 -11 -11 -10 -9 -8 -7 -6 -6 -5 -4 -5 -7 -19 -24 -21 -19 -19 -19 -18 -19 -19 -16
-5 -5 -6 -7 -4 -5 -6 -6 -6 -7 -7 -7 -9 -10 -10 -8 -10 -9 -11 -8 -11 -12 -12 -13 -10 -10 -10 -11 -13 -14 -13 -12 -10 -8 -9 -11 -10 -8 -6 -5 -6 -6 -11 -16 -22 -23 -21 -19 -17 -17 -17 -16 -18 -18
-5 -5 -5 -4 -5 -5 -8 -8 -8 -8 -8 -10 -10 -11 -10 -10 -11 -11 -11 -10 -12 -13 -13 -10 -11 -11 -11 -12 -13 -12 -12 -12 -11 -11 -9 -8 -10 -8 -6 -5 -6 -9 -15 -20 -22 -22 -20 -17 -15 -15 -16 -16 -16 -17
-5 -6 -5 -6 -6 -6 -8 -10 -10 -11 -10 -11 -11 -9 -11 -10 -9 -10 -9 -10 -11 -12 -12 -14 -14 -14 -15 -16 -17 -17 -17 -14 -13 -12 -12 -12 -8 -6 -5 -5 -6 -9 -14 -16 -17 -16 -16 -16 -16 -16 -16 -15 -15 -17
-7 -7 -6 -6 -7 -7 -8 -9 -9 -10 -11 -10 -10 -10 -10 -7 -9 -10 -11 -11 -11 -14 -13 -13 -13 -14 -14 -16 -17 -16 -17 -17 -17 -13 -10 -11 -12 -15 -13 -11 -13 -13 -14 -15 -16 -16 -16 -16 -16 -15 -14 -15 -17 -15
-7 -8 -8 -7 -7 -8 -9 -9 -9 -10 -9 -9 -8 -8 -8 -9 -10 -11 -11 -13 -13 -13 -14 -14 -14 -14 -15 -16 -16 -15 -15 -14 -15 -16 -17 -12 -10 -11 -13 -17 -18 -18 -18 -18 -17 -17 -16 -15 -14 -14 -16 -16 -13 -13
-6 -7 -8 -8 -7 -8 -8 -8 -8 -9 -10 -8 -9 -10 -10 -11 -12 -13 -13 -13 -14 -15 -15 -15 -16 -17 -18 -18 -18 -17 -15 -13 -13 -14 -15 -15 -14 -10 -10 -12 -16 -17 -18 -19 -19 -19 -17 -16 -16 -16 -13 -13 -13 -12
-7 -7 -8 -9 -9 -9 -9 -10 -10 -10 -10 -10 -11 -11 -11 -12 -13 -13 -13 -13 -13 -14 -16 -18 -18 -17 -18 -17 -17 -16 -15 -14 -13 -13 -14 -15 -14 -12 -11 -11 -11 -12 -14 -16 -17 -17 -17 -16 -14 -13 -12 -12 -12 -12
-8 -8 -7 -8 -9 -10 -10 -9 -9 -9 -9 -10 -10 -11 -11 -11 -12 -12 -13 -13 -14 -16 -16 -16 -16 -15 -15 -14 -13 -13 -12 -14 -14 -13 -12 -11 -11 -11 -11 -12 -12 -11 -11 -13 -16 -16 -14 -12 -12 -12 -11 -11 -12 -12
-8 -8 -8 -12 -10 -10 -10 -10 -11 -11 -11 -11 -11 -11 -11 -11 -11 -12 -14 -14 -13 -13 -15 -14 -13 -12 -11 -12 -12 -12 -12 -12 -12 -12 -11 -12 -12 -13 -12 -12 -12 -13 -15 -15 -13 -12 -12 -11 -11 -11 -12 -12 -12 -12
-8 -8 -8 -9 -9 -9 -10 -11 -11 -11 -11 -11 -11 -11 -11 -11 -11 -12 -12 -13 -13 -14 -13 -11 -11 -11 -11 -11 -12 -12 -12 -12 -12 -12 -13 -14 -14 -14 -15 -15 -14 -13 -12 -12 -11 -12 -12 -12 -12 -12 -12 -12 -12 -12

GFSWCAN_850_dewp_045.txt.gz
Dewpoint
-0 -1 -2 -3 -3 -2 -2 -2 -1 -1 -1 -1 -2 -2 -2 -2 -3 -2 -1 -2 -2 -2 -3 -3 -4 -4 -6 -7 -5 -5 -1 1 3 4 4 3 2 0 0 -0 2 2 2 3 3 3 3 1 2 4 2 2 2 1
-1 -2 -2 -2 -3 -2 -1 -2 -1 -1 -1 -2 -2 -2 -3 -3 -2 -2 -2 -1 -2 -2 -4 -5 -4 -3 -3 -5 -5 -6 -4 -4 0 3 3 3 3 -0 -0 2 -1 2 0 2 1 1 -3 2 1 2 2 2 2 1
-2 -2 -3 -3 -3 -3 -2 -1 -1 0 1 -1 -2 -2 -3 -3 -2 -2 -1 -2 -4 -3 -4 -5 -5 -5 -5 -5 -5 -6 -3 -1 -1 -3 -1 2 5 3 2 1 -0 -1 -2 -0 -0 -2 -2 -2 0 1 1 2 2 1
-2 -2 -3 -4 -4 -3 -1 -1 -0 -1 -1 -2 -3 -3 -2 -2 -2 -2 -2 -4 -2 -3 -3 -5 -4 -5 -6 -4 -4 -4 -3 -2 -2 -3 -3 -1 2 2 3 2 0 -0 -1 -0 -0 -1 -0 -0 0 1 1 1 1 2
-1 -2 -2 -2 -3 -2 -1 -1 -1 -2 -3 -3 -3 -2 -1 -2 -3 -5 -5 -7 -4 -3 -3 -5 -4 -5 -5 -5 -6 -5 -3 -3 -4 -4 -3 -2 -1 0 0 2 1 -0 0 1 1 -1 -1 -2 -1 -0 1 1 2 2
-1 -1 -2 -3 -2 -2 -2 -1 -2 -3 -3 -3 -2 -2 -3 -4 -5 -5 -3 -5 -4 -4 -4 -3 -5 -4 -6 -5 -5 -5 -4 -4 -5 -4 -4 -5 -5 -3 -1 0 -1 -1 -1 0 -1 0 -0 -1 -0 1 1 2 2 1
-1 -2 -2 -3 -3 -2 -1 -3 -4 -4 -3 -3 -2 -3 -4 -5 -5 -4 -4 -4 -4 -3 -4 -4 -4 -4 -4 -4 -4 -4 -4 -4 -4 -4 -4 -6 -6 -3 -1 -2 -5 -4 -1 -1 1 1 2 2 2 2 2 2 1 1
-1 -2 -2 -3 -3 -3 -3 -4 -5 -4 -3 -3 -4 -4 -5 -5 -5 -4 -6 -5 -3 -3 -5 -6 -5 -3 -2 -2 -3 -5 -5 -4 -4 -4 -4 -5 -6 -6 -3 -7 -7 -6 0 1 2 1 1 2 1 1 0 0 -0 -0
-2 -2 -3 -4 -4 -4 -4 -5 -5 -4 -4 -5 -5 -4 -5 -5 -4 -5 -4 -4 -4 -3 -3 -3 -2 -2 -1 -2 -1 -3 -4 -3 -5 -3 -4 -5 -4 -3 -5 -5 -7 -8 0 1 0 1 1 1 0 0 -0 -0 -0 0
-2 -2 -3 -4 -4 -4 -5 -7 -6 -6 -5 -4 -3 -4 -3 -5 -4 -4 -2 -2 -3 -4 -4 -4 -3 -2 -2 -2 -1 -2 -3 -3 -4 -4 -5 -3 -3 -6 -6 -6 -2 -2 -2 0 0 0 -0 -0 -1 -0 0 1 1 1
-2 -2 -3 -5 -5 -6 -7 -7 -8 -8 -6 -5 -4 -6 -5 -4 -3 -2 -2 -3 -2 -2 -2 -3 -2 -2 -3 -1 -1 -1 -1 -1 -3 -1 -2 0 3 0 0 -2 1 1 1 1 -1 -1 -0 0 1 1 1 1 1 1
-2 -2 -3 -5 -6 -6 -7 -7 -7 -8 -7 -9 -9 -5 -4 -2 -2 -5 -7 -2 -2 -1 -1 -1 -2 -3 -2 -2 -1 -1 1 1 0 -1 1 3 2 -0 -1 -1 -2 -2 1 0 -0 1 2 1 1 1 1 1 1 1
-2 -2 -3 -4 -4 -4 -6 -6 -7 -7 -7 -7 -10 -6 -3 -4 -8 -8 -7 -6 -6 -2 -2 -2 -3 -3 -3 -2 -1 0 2 2 1 3 3 2 -0 -1 -2 -1 -1 -1 -0 0 0 0 -0 0 -1 -1 -2 -2 -2 -1
-3 -2 -2 -3 -3 -3 -5 -5 -6 -6 -6 -6 -9 -12 -8 -8 -8 -7 -6 -7 -3 -3 -6 -3 -2 -2 -3 -1 1 2 2 2 2 3 3 0 -1 -2 -2 -2 -2 -2 -1 -1 -1 -1 -2 -2 -4 -6 -7 -8 -7 -6
-4 -3 -3 -5 -3 -2 -3 -4 -6 -6 -6 -6 -7 -10 -9 -4 -2 -4 -5 -7 -7 -7 -4 -4 -3 -2 -2 -1 0 1 2 2 2 1 1 -0 -1 -2 -3 -3 -2 -2 -2 -2 -2 -1 -3 -10 -11 -12 -13 -13 -11 -9
-10 -4 -4 -3 -3 -2 -2 -4 -4 -6 -5 -6 -6 -8 -5 -6 -5 -4 -5 -6 -5 -6 -5 -3 -3 -1 -1 -0 0 2 3 0 1 0 -0 -1 -2 -2 -2 -3 -4 -6 -7 -8 -8 -8 -11 -15 -17 -20 -22 -22 -21 -16
-11 -8 -4 -3 -2 -2 -3 -5 -5 -4 -4 -6 -6 -6 -4 -4 -6 -6 -5 -6 -6 -7 -7 -5 -4 -4 -4 -2 -0 0 -0 -0 0 -0 -1 -1 -1 -2 -3 -5 -7 -13 -15 -8 -4 -7 -5 -5 -12 -22 -24 -24 -23 -21
-12 -12 -8 -6 -4 -5 -5 -5 -5 -4 -4 -5 -6 -4 -5 -7 -7 -6 -6 -5 -6 -4 -5 -8 -4 -4 -4 -3 -2 -0 -0 -1 -4 -6 -5 -5 -4 -1 -2 -2 -9 -9 -2 -2 -2 -4 -10 -23 -24 -26 -25 -24 -22 -20
-15 -16 -10 -5 -4 -6 -5 -4 -5 -4 -4 -4 -5 -6 -7 -7 -7 -7 -6 -5 -5 -5 -5 -5 -5 -5 -5 -5 -4 -3 -4 -5 -5 -9 -16 -16 -9 -2 -1 -2 -2 -2 -1 -2 -11 -20 -23 -25 -26 -25 -25 -23 -21 -19
-11 -9 -5 -3 -4 -4 -5 -5 -6 -5 -6 -6 -8 -9 -9 -9 -8 -8 -7 -5 -5 -6 -6 -6 -6 -6 -6 -9 -6 -7 -8 -9 -12 -14 -17 -15 -9 -4 -3 -1 -2 -2 -2 -2 -7 -17 -23 -25 -25 -24 -23 -22 -20 -18
-6 -2 -2 -3 -4 -5 -5 -4 -5 -5 -6 -7 -7 -8 -9 -9 -8 -8 -7 -7 -6 -7 -7 -6 -7 -12 -9 -9 -9 -13 -16 -15 -14 -13 -12 -11 -11 -7 -5 -4 -1 -2 -3 -4 -7 -12 -20 -24 -23 -22 -22 -22 -20 -18
-5 -3 -2 -3 -3 -5 -4 -5 -5 -5 -7 -7 -7 -8 -8 -9 -7 -7 -7 -8 -7 -7 -8 -10 -11 -10 -12 -14 -16 -14 -13 -12 -11 -11 -11 -10 -10 -9 -8 -7 -5 -4 -3 -3 -4 -7 -18 -23 -22 -20 -20 -20 -20 -20
-4 -3 -4 -4 -5 -5 -6 -5 -5 -5 -7 -6 -7 -9 -9 -8 -9 -9 -9 -9 -10 -13 -13 -11 -11 -12 -11 -12 -12 -13 -12 -12 -12 -11 -9 -8 -8 -10 -10 -9 -7 -5 -5 -5 -4 -6 -18 -23 -21 -19 -19 -19 -18 -18
-8 -5 -6 -6 -4 -6 -6 -6 -6 -6 -7 -8 -12 -12 -13 -8 -9 -10 -12 -10 -12 -12 -13 -12 -12 -10 -12 -15 -16 -16 -16 -14 -13 -12 -11 -11 -9 -9 -11 -9 -7 -6 -6 -6 -8 -11 -20 -23 -21 -19 -17 -16 -17 -17
-8 -7 -7 -5 -4 -6 -10 -10 -9 -8 -11 -13 -12 -12 -12 -9 -13 -15 -11 -11 -12 -12 -13 -12 -11 -13 -15 -16 -17 -18 -18 -17 -18 -18 -16 -12 -10 -11 -10 -7 -6 -5 -6 -9 -14 -19 -22 -23 -21 -18 -16 -16 -16 -16
-6 -6 -5 -6 -6 -6 -9 -11 -12 -12 -13 -12 -13 -10 -10 -12 -11 -10 -12 -12 -12 -11 -11 -12 -13 -14 -14 -14 -14 -15 -17 -16 -15 -14 -15 -16 -16 -11 -9 -12 -12 -10 -7 -9 -13 -16 -17 -18 -17 -17 -16 -16 -15 -15
-6 -7 -6 -6 -7 -6 -8 -9 -9 -11 -14 -12 -14 -13 -13 -10 -11 -11 -12 -11 -12 -11 -12 -13 -13 -13 -13 -14 -14 -16 -18 -17 -16 -15 -14 -14 -14 -15 -14 -10 -10 -13 -16 -15 -14 -15 -16 -16 -16 -16 -15 -15 -14 -14
-7 -8 -8 -6 -7 -7 -11 -11 -13 -12 -12 -10 -9 -11 -11 -11 -11 -11 -11 -11 -12 -12 -12 -13 -13 -13 -13 -14 -16 -18 -19 -18 -17 -17 -16 -15 -14 -14 -16 -17 -12 -8 -10 -16 -17 -17 -17 -17 -18 -17 -16 -15 -15 -16
-6 -7 -8 -8 -7 -7 -8 -10 -10 -10 -11 -9 -9 -9 -9 -10 -10 -10 -11 -12 -12 -12 -12 -13 -13 -14 -14 -16 -18 -19 -19 -17 -15 -15 -15 -15 -15 -16 -16 -17 -17 -13 -10 -9 -14 -16 -17 -17 -17 -17 -16 -16 -16 -13
-7 -7 -8 -8 -11 -10 -10 -11 -12 -12 -11 -10 -10 -10 -10 -10 -11 -11 -11 -11 -11 -12 -13 -14 -14 -14 -15 -16 -18 -18 -17 -14 -13 -13 -12 -13 -13 -13 -14 -13 -12 -11 -11 -11 -12 -13 -15 -16 -16 -16 -15 -14 -13 -12
-7 -7 -8 -9 -10 -10 -10 -10 -10 -10 -10 -10 -10 -9 -10 -11 -13 -13 -13 -14 -13 -13 -13 -13 -14 -14 -14 -15 -15 -15 -13 -11 -11 -12 -13 -12 -12 -12 -11 -11 -11 -11 -11 -11 -11 -12 -13 -14 -15 -14 -12 -12 -12 -11
-8 -8 -8 -13 -9 -10 -10 -10 -10 -10 -10 -10 -11 -11 -11 -11 -11 -12 -14 -13 -13 -12 -13 -13 -13 -13 -13 -13 -13 -13 -12 -11 -11 -12 -12 -12 -12 -12 -12 -12 -13 -12 -12 -11 -11 -12 -14 -13 -12 -12 -11 -11 -12 -12
-9 -9 -8 -8 -9 -9 -10 -10 -11 -11 -11 -11 -12 -12 -12 -11 -11 -12 -12 -14 -14 -14 -13 -13 -13 -13 -13 -12 -12 -11 -11 -11 -11 -12 -12 -12 -12 -13 -13 -14 -14 -15 -15 -14 -13 -12 -11 -11 -12 -12 -12 -12 -12 -12

GFSWCAN_850_dewp_048.txt.gz
Dewpoint
2 -1 -1 -3 -4 -3 -3 -2 -2 -1 -1 -2 -2 -2 -3 -2 -2 -2 -3 -3 -3 -3 -4 -3 -4 -4 -4 -5 -5 -6 -1 0 2 4 4 2 2 -0 0 -0 1 2 2 3 3 4 2 -2 1 3 1 2 2 0
0 -1 -3 -3 -3 -3 -3 -2 -2 -1 -1 -1 -2 -2 -3 -2 -2 -2 -2 -2 -3 -4 -4 -4 -4 -5 -4 -3 -4 -6 -4 -2 -0 2 3 3 4 0 -0 1 -1 2 0 1 1 1 -4 -2 1 1 2 2 2 1
-0 -2 -3 -3 -3 -3 -3 -2 -2 -1 0 -1 -3 -3 -3 -2 -2 -2 -2 -3 -3 -2 -5 -5 -4 -4 -4 -5 -5 -5 -3 -2 -3 -3 -1 1 4 3 3 1 -1 -1 -2 -0 -0 -2 -2 -2 0 1 2 2 1 1
-2 -3 -3 -3 -3 -4 -3 -2 -2 -2 -3 -4 -4 -3 -2 -1 -2 -3 -5 -5 -2 -3 -4 -4 -4 -5 -5 -4 -3 -4 -4 -3 -2 -3 -3 -2 1 1 3 2 2 -0 -1 -1 -1 -2 -1 -0 -1 -1 1 1 2 2
-3 -3 -3 -3 -4 -3 -2 -3 -3 -4 -4 -4 -4 -3 -2 -2 -3 -6 -6 -4 -5 -4 -4 -5 -4 -5 -6 -5 -5 -4 -3 -3 -3 -4 -2 -2 -2 -1 -1 -0 0 -1 0 1 1 -2 -2 -2 -3 -2 1 1 1 1
-3 -3 -3 -3 -3 -3 -3 -3 -4 -5 -5 -5 -4 -4 -3 -4 -5 -4 -3 -4 -4 -4 -5 -5 -6 -4 -4 -4 -5 -5 -5 -4 -4 -4 -4 -5 -5 -2 -3 -2 -3 -5 -3 1 1 -1 0 -0 -2 -1 0 1 1 2
-2 -2 -2 -3 -3 -4 -4 -6 -6 -6 -7 -6 -6 -5 -5 -6 -4 -4 -4 -5 -4 -5 -5 -5 -5 -4 -3 -3 -4 -4 -4 -4 -4 -4 -3 -5 -6 -3 -2 -2 -7 -6 -8 -8 -3 1 2 1 0 0 1 2 2 1
-1 -2 -2 -2 -3 -4 -6 -7 -7 -8 -9 -9 -7 -6 -7 -5 -4 -5 -5 -3 -3 -4 -5 -7 -5 -4 -2 -2 -2 -5 -5 -4 -4 -4 -4 -4 -5 -6 -4 -7 -8 -10 -9 -8 -6 -1 1 2 2 2 2 2 1 0
-1 -2 -2 -3 -3 -5 -7 -8 -8 -10 -11 -9 -7 -7 -6 -5 -5 -5 -3 -3 -3 -3 -4 -5 -4 -3 -2 -2 -2 -3 -4 -3 -5 -4 -4 -5 -4 -3 -6 -7 -6 -7 -4 -4 -5 0 1 2 1 1 0 0 0 -0
-1 -2 -2 -2 -4 -7 -7 -9 -10 -12 -12 -9 -6 -6 -5 -5 -4 -3 -3 -2 -3 -4 -4 -4 -3 -4 -2 -2 -1 -2 -3 -4 -6 -4 -5 -4 -4 -7 -3 -1 -3 -2 -1 -1 -1 -1 1 0 0 0 -0 0 0 1
-1 -2 -2 -3 -5 -7 -8 -10 -12 -13 -11 -10 -9 -7 -5 -3 -3 -2 -3 -3 -2 -3 -2 -2 -2 -3 -4 -1 -1 -1 -3 -3 -4 -4 -3 -3 1 1 -1 -1 -1 0 0 -0 -0 -0 0 -0 -0 0 1 1 1 1
-2 -2 -2 -3 -5 -6 -8 -10 -12 -15 -14 -12 -10 -5 -4 -3 -2 -7 -7 -4 -4 -4 -2 -2 -2 -3 -3 -2 -1 -1 0 0 -1 -2 -1 2 1 -1 -1 -2 -1 -1 -1 -0 -0 0 1 1 1 1 1 1 1 1
-1 -1 -2 -3 -4 -6 -8 -10 -13 -16 -14 -11 -11 -7 -5 -6 -12 -13 -11 -9 -8 -3 -3 -3 -4 -5 -3 -2 -1 0 1 1 -0 1 3 1 -0 -2 -2 -2 -2 -2 -1 -1 -0 -0 -1 -0 -1 -1 -1 -2 -2 -3
-1 -1 -2 -3 -4 -5 -7 -10 -14 -16 -11 -8 -10 -13 -9 -10 -11 -8 -9 -9 -5 -3 -6 -4 -4 -3 -3 -2 -0 1 -0 2 2 0 0 0 -1 -2 -2 -2 -2 -2 -2 -2 -2 -1 -1 -3 -5 -6 -8 -9 -10 -9
-1 -1 -1 -2 -4 -4 -6 -9 -13 -14 -10 -7 -8 -12 -10 -6 -2 -3 -4 -6 -7 -7 -6 -5 -4 -3 -3 -3 -1 0 2 1 1 -0 -1 -1 -1 -1 -2 -2 -3 -3 -3 -3 -3 -3 -2 -5 -9 -11 -13 -18 -17 -14
-0 -1 -2 -4 -4 -5 -6 -10 -12 -13 -7 -7 -7 -8 -6 -7 -8 -5 -5 -6 -6 -6 -7 -4 -5 -3 -3 -2 -1 -0 -0 -1 -2 -1 -1 -1 -2 -4 -1 -2 -3 -5 -8 -5 -4 -4 -4 -10 -18 -21 -22 -22 -21 -18
-1 -2 -3 -4 -4 -4 -5 -11 -11 -8 -6 -7 -6 -6 -5 -5 -6 -7 -6 -6 -6 -7 -8 -5 -7 -7 -5 -3 -3 -3 -3 -3 -1 -3 -6 -8 -10 -11 -8 -2 -2 -6 -12 -8 -3 -3 -3 -3 -3 -13 -20 -21 -20 -19
-4 -6 -4 -4 -5 -5 -9 -10 -10 -7 -5 -6 -6 -6 -6 -8 -8 -7 -6 -6 -5 -5 -5 -9 -5 -5 -5 -4 -5 -1 -1 -1 -4 -6 -8 -13 -17 -17 -10 -3 -1 -2 -3 -3 -3 -4 -5 -6 -16 -23 -23 -23 -21 -18
-8 -5 -2 -3 -4 -9 -8 -8 -8 -6 -5 -4 -5 -6 -7 -8 -10 -9 -7 -5 -5 -5 -6 -5 -6 -6 -7 -6 -5 -4 -4 -6 -7 -11 -14 -14 -14 -12 -6 -2 -2 -2 -2 -2 -2 -6 -18 -21 -23 -24 -23 -23 -21 -20
-6 -2 -2 -2 -6 -10 -9 -6 -6 -6 -6 -6 -8 -9 -10 -10 -11 -10 -8 -6 -5 -6 -6 -6 -7 -7 -8 -11 -8 -6 -8 -10 -14 -13 -11 -11 -11 -12 -11 -5 -4 -3 -3 -3 -2 -2 -4 -13 -23 -23 -23 -22 -22 -20
-2 -2 -2 -5 -6 -7 -7 -6 -6 -6 -6 -8 -8 -8 -9 -10 -10 -9 -8 -8 -6 -7 -7 -7 -10 -12 -11 -10 -9 -9 -14 -14 -12 -11 -10 -10 -9 -10 -11 -12 -9 -5 -5 -3 -2 -2 -3 -5 -19 -22 -22 -21 -21 -21
-2 -2 -3 -4 -4 -5 -6 -6 -5 -6 -8 -7 -7 -8 -8 -9 -9 -7 -7 -7 -7 -8 -9 -12 -13 -12 -10 -11 -13 -14 -13 -12 -12 -11 -11 -10 -10 -7 -8 -11 -10 -8 -7 -6 -4 -4 -4 -6 -17 -22 -21 -20 -20 -19
-4 -3 -4 -4 -5 -6 -6 -6 -6 -6 -7 -7 -7 -9 -9 -9 -8 -9 -9 -9 -10 -14 -14 -14 -13 -12 -11 -11 -12 -13 -14 -15 -16 -15 -15 -13 -11 -11 -10 -10 -11 -11 -9 -8 -6 -5 -4 -5 -14 -22 -20 -19 -18 -18
-7 -6 -5 -4 -6 -6 -6 -6 -7 -7 -7 -8 -13 -11 -13 -9 -9 -10 -12 -11 -14 -14 -13 -13 -13 -12 -11 -11 -15 -18 -18 -17 -17 -18 -17 -16 -17 -16 -12 -10 -9 -8 -7 -6 -6 -6 -7 -6 -13 -21 -21 -19 -16 -16
-10 -7 -7 -6 -5 -7 -9 -9 -9 -8 -12 -15 -13 -12 -12 -9 -14 -16 -12 -12 -13 -14 -13 -12 -11 -11 -11 -13 -16 -15 -15 -15 -15 -15 -20 -16 -15 -15 -16 -16 -12 -9 -9 -7 -6 -8 -13 -17 -20 -22 -22 -20 -17 -16
-8 -6 -7 -6 -6 -8 -9 -10 -10 -12 -14 -14 -12 -10 -10 -13 -11 -11 -12 -13 -12 -12 -12 -11 -10 -10 -11 -13 -14 -13 -13 -14 -14 -15 -19 -16 -15 -15 -15 -15 -15 -16 -10 -11 -13 -11 -12 -16 -18 -19 -19 -17 -17 -16
-7 -7 -6 -6 -6 -6 -8 -9 -10 -11 -15 -12 -14 -14 -15 -12 -12 -12 -12 -12 -13 -12 -11 -12 -13 -13 -13 -12 -12 -13 -13 -14 -14 -15 -16 -16 -16 -16 -16 -15 -16 -15 -15 -13 -10 -11 -16 -15 -15 -16 -16 -16 -16 -15
-7 -7 -7 -6 -6 -7 -11 -11 -14 -12 -12 -10 -11 -13 -12 -12 -11 -12 -13 -13 -12 -12 -12 -12 -12 -12 -12 -12 -12 -13 -14 -14 -14 -14 -16 -17 -18 -17 -16 -16 -15 -14 -15 -16 -14 -10 -10 -14 -16 -16 -16 -17 -17 -16
-6 -7 -8 -7 -7 -7 -8 -10 -11 -10 -11 -11 -11 -11 -10 -12 -12 -12 -12 -12 -11 -11 -11 -12 -15 -15 -14 -14 -14 -15 -15 -14 -13 -14 -15 -16 -15 -13 -12 -14 -14 -14 -14 -15 -14 -12 -11 -11 -12 -14 -15 -16 -16 -16
-7 -7 -8 -8 -11 -10 -9 -10 -11 -12 -11 -11 -11 -11 -11 -11 -12 -12 -12 -13 -13 -13 -14 -14 -13 -12 -12 -13 -13 -14 -14 -14 -14 -14 -14 -13 -11 -10 -12 -13 -13 -12 -12 -12 -11 -10 -11 -11 -13 -12 -13 -15 -15 -15
-7 -7 -8 -9 -10 -10 -10 -10 -10 -10 -10 -10 -10 -10 -10 -10 -14 -16 -16 -15 -13 -13 -12 -13 -13 -13 -13 -13 -12 -12 -12 -13 -13 -13 -12 -11 -10 -11 -12 -12 -12 -11 -11 -11 -11 -11 -12 -13 -13 -14 -14 -14 -14 -13
-7 -7 -8 -11 -9 -9 -9 -9 -9 -10 -10 -10 -12 -12 -12 -11 -11 -12 -14 -14 -14 -13 -14 -13 -13 -13 -12 -11 -11 -11 -11 -11 -12 -12 -12 -12 -11 -11 -12 -12 -12 -12 -12 -13 -12 -11 -11 -11 -12 -14 -13 -12 -12 -11
-9 -9 -9 -8 -9 -9 -9 -10 -11 -11 -11 -11 -12 -13 -13 -12 -12 -13 -14 -15 -14 -13 -13 -13 -12 -11 -9 -7 -8 -9 -11 -12 -12 -12 -11 -11 -11 -12 -12 -12 -13 -13 -14 -14 -13 -13 -13 -12 -12 -11 -12 -12 -12 -12

GFSWCAN_850_dewp_051.txt.gz
Dewpoint
5 3 0 -1 -5 -5 -5 -3 -2 -1 -1 -2 -3 -3 -3 -3 -2 -2 -2 -3 -4 -4 -3 -3 -4 -5 -5 -5 -5 -6 -0 -1 2 3 3 3 2 -0 0 -0 1 2 2 3 3 4 3 -3 1 2 -0 2 2 1
4 2 -0 -2 -5 -4 -4 -2 -1 -1 -1 -1 -2 -4 -4 -3 -3 -2 -3 -2 -2 -4 -4 -4 -4 -4 -4 -3 -5 -5 -3 -1 -1 2 2 3 3 1 -1 1 -1 2 -0 1 1 1 -3 -4 0 -0 1 2 2 2
4 1 -1 -3 -4 -4 -2 -2 -2 -1 -1 -3 -4 -4 -3 -2 -3 -3 -4 -4 -3 -4 -5 -5 -4 -4 -4 -5 -4 -5 -3 -2 -2 -3 -2 0 2 3 3 1 -0 -2 -2 -0 -0 -2 -2 -3 -3 -3 1 2 2 1
4 0 -3 -4 -4 -3 -2 -2 -2 -2 -4 -5 -5 -4 -3 -3 -3 -4 -6 -4 -3 -4 -5 -4 -5 -6 -4 -3 -3 -4 -4 -4 -3 -4 -3 -2 -0 -1 2 1 2 1 -0 -0 -1 -2 -2 -2 -1 -1 -2 1 2 2
2 -1 -4 -4 -3 -3 -2 -2 -4 -4 -5 -6 -5 -5 -5 -5 -5 -7 -5 -5 -4 -4 -4 -6 -4 -5 -5 -5 -5 -4 -2 -3 -4 -4 -3 -2 -3 -2 -2 -1 0 -2 -1 1 1 1 0 -1 -1 0 -1 -1 1 2
0 -3 -3 -3 -3 -2 -2 -4 -5 -6 -6 -6 -7 -6 -6 -8 -7 -5 -3 -4 -4 -4 -6 -6 -5 -4 -4 -4 -4 -5 -4 -3 -4 -5 -4 -5 -5 -2 -3 -2 -5 -6 -4 -3 -2 -7 -6 -6 -2 -0 0 -0 1 1
-2 -3 -3 -3 -3 -3 -4 -5 -6 -7 -8 -8 -7 -8 -10 -8 -7 -6 -4 -4 -3 -4 -5 -7 -6 -4 -3 -3 -4 -4 -4 -4 -4 -4 -4 -5 -6 -4 -3 -2 -8 -9 -9 -8 -9 -8 -7 -9 -0 0 1 1 1 1
-3 -3 -3 -3 -3 -3 -6 -7 -8 -9 -10 -8 -10 -9 -7 -7 -6 -5 -4 -4 -5 -4 -4 -9 -7 -4 -2 -2 -2 -4 -4 -4 -4 -4 -4 -4 -5 -6 -4 -6 -8 -6 -4 -4 -5 -4 -3 -4 -6 1 2 1 1 1
-3 -3 -2 -2 -3 -4 -7 -8 -10 -11 -9 -9 -9 -8 -7 -6 -5 -4 -4 -4 -4 -3 -4 -5 -5 -5 -3 -2 -2 -3 -4 -3 -5 -4 -4 -5 -4 -3 -6 -3 -2 -1 -1 -3 -2 -1 -2 0 1 1 1 1 1 0
-2 -2 -2 -2 -2 -5 -8 -10 -12 -11 -10 -9 -8 -8 -6 -5 -4 -4 -3 -3 -3 -3 -4 -4 -3 -5 -3 -3 -2 -2 -3 -3 -5 -4 -5 -4 -4 -5 -0 -1 -2 -2 -1 -1 -1 -1 -0 -0 0 1 1 0 0 0
-1 -2 -2 -1 -2 -6 -8 -12 -15 -12 -10 -11 -9 -6 -4 -4 -3 -3 -3 -3 -3 -4 -3 -3 -3 -4 -4 -2 -2 -1 -2 -3 -2 -3 -4 -3 -0 -0 -1 -2 -2 -2 -2 -1 -1 -1 -1 -1 -0 0 1 1 1 1
-1 -2 -1 -1 -3 -6 -9 -12 -15 -13 -12 -13 -10 -6 -4 -3 -4 -9 -9 -6 -6 -6 -3 -2 -2 -3 -3 -2 -2 -1 -1 -1 -1 -3 -1 1 -1 -1 -2 -2 -2 -2 -2 -2 -1 -1 -1 -1 -0 -0 0 1 1 1
-1 -1 -1 -2 -3 -6 -9 -12 -13 -13 -13 -11 -10 -6 -7 -8 -13 -17 -15 -11 -10 -5 -3 -5 -5 -5 -4 -2 -2 -0 -0 0 -1 -0 1 0 -1 -2 -2 -2 -3 -2 -2 -2 -2 -1 -1 -1 -1 -1 -1 -2 -2 -3
-1 -1 -2 -3 -4 -6 -8 -12 -14 -14 -13 -11 -12 -13 -12 -11 -12 -10 -10 -10 -6 -4 -7 -5 -4 -4 -3 -3 -2 -0 -1 1 0 -1 -1 -3 -2 -2 -4 -3 -2 -3 -3 -3 -3 -3 -2 -2 -2 -5 -8 -9 -10 -10
-1 -1 -2 -3 -4 -6 -9 -13 -16 -17 -14 -9 -10 -15 -10 -6 -3 -5 -5 -6 -7 -8 -6 -5 -5 -5 -4 -3 -3 -1 0 -3 -1 -2 -3 -4 -4 -5 -8 -10 -3 -3 -4 -4 -4 -3 -3 -3 -5 -10 -13 -20 -18 -14
-1 -1 -2 -4 -5 -7 -12 -17 -17 -17 -12 -9 -8 -9 -6 -7 -7 -5 -6 -6 -7 -7 -6 -4 -6 -5 -5 -3 -3 -2 -4 -6 -5 -5 -3 -4 -7 -7 -10 -14 -11 -2 -3 -8 -5 -4 -4 -4 -4 -17 -19 -20 -19 -19
-2 -1 -3 -3 -5 -7 -12 -15 -15 -11 -9 -8 -6 -7 -8 -7 -7 -7 -7 -7 -6 -7 -9 -6 -8 -7 -6 -4 -3 -3 -6 -7 -2 -3 -6 -9 -10 -12 -14 -15 -11 -3 -2 -5 -6 -4 -4 -4 -4 -4 -9 -19 -21 -20
-2 -2 -3 -4 -5 -7 -12 -13 -13 -9 -6 -7 -7 -8 -8 -9 -8 -8 -7 -6 -6 -7 -7 -10 -6 -5 -6 -7 -8 -7 -2 -3 -3 -7 -11 -12 -11 -11 -12 -11 -6 -3 -2 -2 -3 -4 -5 -7 -5 -8 -14 -22 -21 -19
-8 -3 -3 -4 -7 -14 -12 -11 -9 -7 -5 -6 -6 -6 -7 -8 -10 -9 -8 -6 -5 -5 -6 -6 -6 -6 -7 -8 -7 -7 -7 -5 -7 -10 -13 -11 -10 -10 -10 -12 -5 -3 -3 -3 -3 -3 -4 -8 -19 -22 -22 -21 -21 -20
-5 -2 -2 -4 -12 -14 -11 -8 -8 -8 -7 -7 -7 -7 -9 -10 -10 -10 -8 -7 -5 -6 -6 -6 -7 -8 -10 -14 -12 -10 -9 -8 -8 -12 -12 -12 -10 -9 -8 -9 -12 -9 -6 -4 -3 -3 -3 -3 -6 -17 -22 -22 -22 -21
-2 -1 -2 -6 -12 -13 -10 -8 -8 -8 -7 -8 -8 -8 -8 -9 -9 -9 -9 -5 -6 -7 -7 -8 -12 -15 -15 -13 -11 -10 -9 -8 -10 -13 -12 -12 -12 -11 -8 -8 -10 -10 -9 -8 -6 -4 -3 -3 -3 -10 -20 -22 -21 -21
-1 -2 -3 -8 -9 -10 -9 -7 -7 -7 -8 -7 -8 -8 -8 -9 -9 -8 -7 -6 -7 -10 -11 -13 -16 -15 -15 -14 -13 -10 -11 -13 -13 -12 -13 -14 -15 -15 -13 -10 -9 -10 -10 -10 -8 -7 -5 -3 -3 -3 -7 -21 -20 -19
-3 -6 -8 -7 -7 -8 -7 -7 -6 -6 -8 -7 -8 -9 -9 -9 -9 -9 -9 -9 -11 -13 -14 -13 -14 -14 -13 -13 -12 -12 -11 -13 -18 -18 -17 -16 -16 -16 -16 -16 -14 -12 -10 -9 -7 -7 -7 -6 -5 -4 -8 -20 -20 -18
-7 -8 -6 -6 -7 -8 -7 -7 -7 -7 -8 -9 -10 -10 -12 -10 -10 -10 -12 -11 -13 -13 -13 -13 -12 -12 -12 -12 -12 -12 -13 -15 -14 -14 -15 -15 -16 -17 -17 -17 -17 -16 -14 -11 -9 -7 -6 -7 -7 -6 -7 -19 -21 -19
-12 -7 -9 -6 -7 -7 -10 -9 -9 -8 -8 -14 -10 -11 -12 -10 -14 -15 -12 -13 -14 -14 -12 -13 -13 -12 -12 -10 -10 -12 -16 -14 -13 -13 -14 -13 -13 -14 -17 -18 -18 -20 -17 -15 -13 -11 -9 -8 -12 -15 -15 -20 -22 -22
-10 -6 -8 -7 -7 -9 -9 -9 -9 -10 -13 -15 -12 -11 -11 -14 -11 -11 -13 -15 -15 -13 -13 -13 -13 -13 -13 -13 -11 -11 -14 -14 -13 -12 -11 -12 -13 -13 -14 -16 -17 -21 -18 -16 -14 -13 -11 -11 -11 -14 -18 -21 -21 -20
-9 -7 -6 -7 -6 -7 -9 -9 -10 -12 -15 -11 -14 -14 -16 -12 -13 -13 -14 -15 -14 -13 -12 -13 -12 -12 -12 -11 -12 -12 -11 -11 -10 -11 -12 -12 -13 -14 -14 -15 -16 -16 -14 -15 -15 -14 -15 -13 -11 -13 -13 -14 -15 -16
-7 -7 -7 -6 -7 -7 -10 -11 -13 -12 -12 -11 -11 -13 -13 -12 -12 -13 -14 -14 -14 -13 -13 -12 -12 -12 -12 -12 -13 -14 -14 -14 -13 -13 -13 -13 -14 -14 -15 -16 -14 -13 -13 -14 -14 -14 -15 -16 -15 -11 -11 -14 -15 -15
-7 -8 -7 -8 -7 -7 -8 -10 -11 -10 -11 -11 -12 -13 -12 -13 -14 -14 -13 -13 -12 -12 -11 -12 -14 -13 -13 -13 -14 -14 -14 -13 -11 -12 -12 -12 -13 -15 -15 -15 -12 -11 -11 -13 -13 -12 -13 -14 -14 -12 -10 -11 -12 -12
-6 -8 -8 -9 -10 -9 -9 -9 -10 -11 -11 -11 -11 -11 -11 -12 -13 -12 -12 -15 -15 -15 -14 -13 -13 -13 -12 -12 -12 -12 -12 -12 -12 -11 -11 -11 -12 -13 -13 -11 -10 -10 -12 -13 -12 -11 -11 -11 -11 -11 -11 -11 -12 -12
-7 -7 -8 -9 -10 -9 -10 -10 -10 -10 -10 -10 -10 -10 -10 -10 -15 -20 -17 -15 -14 -14 -14 -14 -13 -13 -12 -12 -11 -11 -12 -12 -12 -11 -11 -11 -11 -11 -11 -11 -11 -11 -11 -12 -12 -12 -11 -11 -11 -12 -13 -14 -14 -14
-7 -7 -8 -9 -9 -9 -9 -9 -10 -10 -10 -10 -11 -11 -11 -11 -11 -13 -16 -15 -15 -14 -14 -13 -13 -11 -10 -8 -9 -10 -10 -10 -9 -10 -11 -11 -11 -11 -11 -11 -11 -11 -12 -12 -12 -12 -12 -12 -10 -10 -11 -12 -13 -13
-9 -8 -8 -8 -9 -9 -9 -10 -10 -11 -11 -11 -12 -13 -13 -13 -13 -14 -15 -14 -14 -14 -12 -9 -9 -13 -13 -11 -10 -10 -10 -9 -8 -8 -10 -12 -12 -11 -11 -11 -11 -12 -13 -13 -13 -13 -12 -11 -12 -12 -12 -12 -12 -12

GFSWCAN_850_dewp_054.txt.gz
Dewpoint
8 6 5 2 -1 -5 -5 -6 -4 -4 -3 -3 -4 -4 -3 -3 -4 -6 -5 -5 -6 -4 -3 -4 -4 -5 -4 -5 -5 -6 -1 -1 2 3 3 3 2 -0 -0 -1 1 2 2 2 2 4 2 -3 -0 2 -1 1 1 2
6 6 4 2 -2 -5 -5 -5 -4 -3 -2 -3 -4 -4 -3 -3 -4 -6 -6 -5 -6 -5 -4 -4 -4 -4 -5 -4 -4 -6 -2 -0 -1 2 1 2 2 2 -1 1 -2 1 -1 0 0 0 -3 -4 -1 -2 -1 -0 1 2
5 5 4 0 -3 -5 -5 -5 -3 -2 -2 -3 -4 -4 -2 -3 -4 -6 -6 -6 -7 -6 -5 -5 -4 -5 -4 -4 -4 -5 -3 -1 -3 -3 -2 0 2 3 3 2 1 -2 -2 -0 -1 -2 -2 -2 -2 -1 -1 -0 1 2
5 5 3 1 -4 -5 -5 -4 -2 -2 -3 -5 -5 -4 -3 -4 -5 -6 -7 -6 -6 -6 -5 -5 -5 -6 -5 -4 -4 -4 -4 -4 -4 -5 -3 -3 -1 -2 1 0 1 1 0 0 -1 -2 -1 -2 -1 -2 -3 -1 0 2
0 2 3 -1 -4 -4 -5 -3 -2 -0 -4 -6 -5 -5 -5 -5 -8 -6 -7 -6 -6 -5 -5 -6 -5 -4 -4 -5 -5 -4 -3 -3 -4 -4 -5 -2 -3 -2 -3 -2 -1 -2 -2 -1 -0 0 -3 -5 -7 -8 -6 -2 1 0
4 4 1 -2 -5 -4 -4 -2 1 -5 -6 -6 -5 -5 -8 -8 -7 -6 -5 -6 -6 -6 -7 -6 -5 -4 -3 -3 -4 -4 -3 -3 -4 -4 -4 -5 -5 -3 -3 -3 -6 -8 -8 -8 -7 -6 -5 -6 -6 -8 -5 -5 -2 1
1 3 -1 -4 -4 -4 -3 -0 -4 -6 -7 -6 -7 -8 -7 -7 -7 -6 -6 -5 -6 -6 -6 -6 -6 -5 -3 -3 -3 -4 -4 -4 -4 -4 -4 -5 -6 -4 -3 -3 -8 -7 -4 -2 -2 -3 -5 -4 -4 -4 -8 -10 -2 1
3 2 -2 -4 -4 -4 -2 -2 -6 -7 -7 -8 -8 -7 -5 -5 -5 -6 -5 -5 -5 -5 -5 -10 -8 -4 -3 -2 -2 -4 -4 -4 -4 -4 -4 -4 -5 -6 -5 -7 -5 -2 -2 -1 -2 -2 -1 -1 -2 -3 -1 -3 1 2
3 -0 -4 -4 -4 -2 -2 -4 -8 -7 -9 -7 -6 -6 -6 -6 -5 -4 -5 -4 -6 -5 -4 -5 -5 -6 -5 -2 -2 -3 -3 -4 -4 -4 -4 -5 -4 -3 -3 -3 -1 -2 -2 -2 -2 -1 -0 -1 -1 -1 -1 1 1 1
1 -3 -3 -3 -4 -2 -3 -7 -8 -7 -8 -7 -6 -7 -6 -5 -5 -5 -4 -4 -4 -4 -4 -4 -4 -5 -4 -4 -3 -2 -3 -3 -5 -4 -5 -4 -4 -5 -3 -1 -2 -2 -3 -3 -2 -2 -1 -2 -2 -2 -1 1 0 0
-1 -3 -3 -5 -2 -2 -6 -9 -7 -7 -6 -6 -7 -6 -5 -4 -5 -5 -3 -5 -5 -6 -3 -4 -4 -5 -4 -4 -3 -2 -1 -3 -4 -3 -2 -2 -1 -2 -2 -2 -2 -2 -2 -2 -2 -2 -2 -2 -2 -2 -1 -1 -0 -0
-2 -2 -3 -2 -2 -5 -9 -9 -7 -8 -7 -10 -9 -6 -5 -5 -7 -11 -11 -8 -7 -8 -3 -3 -4 -4 -4 -3 -2 -1 -2 -2 -1 -3 -2 -0 -2 -2 -4 -5 -5 -2 -2 -3 -2 -3 -2 -2 -2 -1 -1 -1 -1 -1
-2 -2 -2 -1 -3 -6 -8 -8 -8 -9 -10 -9 -9 -7 -9 -10 -14 -19 -19 -12 -11 -5 -4 -6 -8 -6 -4 -2 -2 -1 -0 0 -2 -0 -1 -2 -1 -4 -6 -9 -11 -10 -3 -3 -3 -3 -3 -3 -2 -2 -2 -4 -5 -5
-1 -1 -1 -1 -4 -7 -8 -9 -9 -7 -11 -12 -13 -13 -12 -11 -13 -10 -11 -10 -8 -5 -6 -5 -5 -5 -3 -4 -3 -3 -2 0 -2 -3 -4 -6 -6 -4 -7 -9 -10 -13 -11 -3 -4 -4 -4 -3 -3 -3 -7 -13 -13 -11
-1 -0 -1 -2 -4 -7 -9 -9 -8 -9 -10 -11 -14 -15 -11 -7 -6 -7 -6 -7 -7 -8 -6 -6 -5 -5 -5 -4 -3 -3 -4 -3 -5 -6 -7 -5 -4 -9 -12 -12 -13 -15 -14 -5 -4 -4 -4 -4 -4 -5 -8 -7 -10 -17
-0 -0 -1 -2 -5 -9 -12 -10 -9 -12 -12 -10 -10 -9 -5 -7 -6 -6 -7 -7 -8 -7 -6 -5 -7 -9 -7 -5 -4 -4 -2 -5 -7 -8 -3 -6 -11 -12 -11 -10 -11 -13 -11 -7 -2 -4 -4 -4 -4 -4 -13 -18 -19 -19
-1 -1 -2 -3 -7 -8 -7 -10 -13 -11 -11 -9 -7 -8 -10 -11 -10 -7 -8 -8 -7 -7 -9 -7 -12 -11 -7 -4 -4 -4 -3 -7 -3 -3 -6 -9 -12 -11 -10 -10 -11 -11 -8 -5 -2 -3 -4 -4 -4 -4 -4 -6 -12 -18
-2 -2 -3 -4 -8 -7 -11 -13 -14 -11 -8 -7 -7 -8 -10 -11 -10 -9 -9 -8 -7 -7 -8 -11 -7 -8 -7 -8 -8 -8 -4 -3 -6 -6 -7 -11 -12 -11 -10 -8 -9 -11 -9 -3 -3 -3 -4 -5 -5 -5 -5 -7 -12 -8
-4 -4 -3 -4 -11 -17 -16 -13 -11 -8 -6 -6 -7 -8 -8 -9 -10 -10 -10 -8 -7 -6 -7 -6 -7 -9 -8 -8 -9 -13 -13 -10 -10 -8 -9 -11 -12 -11 -10 -7 -8 -9 -12 -9 -6 -4 -4 -4 -4 -5 -10 -9 -9 -19
-3 -3 -3 -8 -15 -15 -12 -9 -10 -11 -6 -7 -6 -6 -8 -9 -9 -8 -7 -6 -5 -6 -5 -8 -8 -9 -11 -15 -15 -13 -13 -12 -10 -8 -9 -10 -12 -12 -12 -12 -10 -9 -10 -10 -10 -8 -6 -4 -4 -4 -6 -18 -21 -21
-2 -2 -4 -10 -15 -14 -11 -8 -9 -7 -8 -7 -8 -8 -9 -8 -9 -8 -7 -6 -5 -6 -7 -10 -13 -15 -14 -14 -14 -13 -12 -11 -10 -9 -11 -13 -12 -13 -17 -17 -15 -14 -12 -9 -8 -10 -9 -6 -4 -4 -4 -4 -9 -20
-2 -3 -7 -14 -14 -12 -9 -7 -8 -8 -8 -8 -7 -8 -8 -9 -9 -9 -7 -6 -6 -10 -11 -13 -14 -13 -13 -13 -13 -13 -13 -12 -12 -11 -12 -12 -16 -17 -17 -16 -15 -16 -17 -16 -13 -8 -7 -7 -6 -5 -4 -4 -8 -19
-3 -8 -12 -12 -12 -10 -7 -7 -7 -7 -11 -8 -8 -10 -9 -9 -9 -9 -9 -8 -10 -13 -13 -13 -13 -13 -12 -13 -13 -12 -11 -12 -12 -11 -16 -16 -15 -15 -15 -16 -16 -16 -17 -19 -18 -16 -11 -8 -5 -5 -5 -4 -5 -14
-12 -11 -8 -8 -10 -8 -7 -7 -7 -8 -8 -10 -10 -11 -13 -10 -11 -11 -12 -11 -13 -13 -15 -15 -13 -13 -14 -14 -14 -14 -13 -11 -11 -15 -13 -13 -10 -11 -12 -13 -13 -14 -15 -17 -18 -18 -16 -11 -8 -7 -6 -6 -5 -13
-12 -8 -10 -7 -8 -8 -9 -9 -9 -9 -9 -12 -10 -12 -13 -11 -14 -14 -11 -13 -15 -17 -16 -13 -13 -13 -13 -13 -13 -13 -13 -12 -11 -13 -12 -11 -11 -10 -11 -10 -10 -11 -15 -16 -17 -17 -17 -13 -11 -10 -9 -13 -13 -11
-9 -7 -10 -7 -8 -9 -10 -10 -9 -10 -12 -15 -13 -12 -12 -14 -11 -12 -13 -16 -17 -16 -16 -14 -13 -13 -13 -13 -12 -12 -12 -13 -13 -11 -14 -14 -13 -11 -11 -11 -11 -12 -15 -16 -16 -14 -15 -16 -15 -13 -11 -12 -14 -18
-8 -7 -6 -7 -7 -8 -10 -10 -10 -12 -14 -12 -15 -15 -15 -12 -13 -13 -14 -16 -16 -14 -14 -14 -13 -13 -12 -12 -12 -12 -12 -12 -13 -13 -12 -12 -12 -12 -11 -12 -12 -14 -14 -15 -15 -13 -13 -13 -14 -14 -14 -11 -12 -13
-7 -6 -7 -7 -7 -8 -12 -12 -13 -12 -13 -11 -11 -14 -13 -13 -12 -15 -16 -15 -15 -14 -13 -12 -12 -12 -13 -14 -14 -13 -13 -12 -13 -13 -13 -14 -14 -14 -13 -13 -14 -14 -14 -14 -14 -11 -11 -12 -13 -13 -13 -14 -14 -11
-8 -7 -7 -9 -8 -8 -8 -11 -11 -10 -11 -11 -12 -13 -12 -14 -14 -14 -14 -13 -12 -12 -13 -14 -15 -14 -14 -13 -13 -13 -13 -12 -11 -11 -11 -11 -11 -13 -13 -13 -14 -14 -14 -13 -11 -11 -12 -12 -13 -12 -13 -12 -12 -11
-7 -7 -8 -9 -10 -10 -9 -9 -9 -10 -11 -11 -11 -11 -12 -12 -13 -13 -14 -15 -14 -15 -14 -14 -14 -14 -13 -13 -12 -10 -10 -10 -11 -11 -10 -10 -10 -10 -11 -11 -11 -11 -11 -11 -11 -11 -11 -12 -12 -11 -11 -10 -10 -11
-8 -8 -9 -9 -10 -9 -10 -10 -10 -10 -10 -10 -10 -10 -11 -11 -19 -19 -17 -16 -16 -14 -14 -14 -13 -10 -9 -8 -7 -9 -11 -10 -10 -9 -10 -10 -9 -10 -10 -11 -11 -11 -11 -11 -11 -11 -12 -12 -12 -11 -11 -11 -12 -12
-7 -8 -9 -10 -9 -9 -9 -9 -9 -10 -10 -10 -11 -12 -12 -12 -12 -15 -16 -16 -15 -14 -14 -10 -8 -8 -8 -10 -13 -11 -11 -11 -10 -11 -10 -9 -9 -9 -9 -11 -11 -11 -11 -11 -11 -11 -12 -12 -12 -11 -10 -10 -11 -11
-9 -8 -8 -8 -9 -9 -9 -10 -10 -11 -11 -11 -11 -13 -13 -13 -13 -15 -16 -14 -13 -10 -9 -9 -9 -10 -13 -13 -13 -13 -12 -12 -12 -12 -12 -12 -11 -11 -10 -11 -11 -11 -11 -12 -13 -13 -13 -12 -11 -11 -11 -12 -12 -12

GFSWCAN_850_dewp_057.txt.gz
Dewpoint
8 9 9 8 5 2 -1 -6 -6 -5 -6 -7 -6 -4 -4 -6 -7 -7 -6 -7 -9 -4 -3 -4 -5 -5 -5 -5 -6 -6 -1 -1 2 3 3 3 2 -0 -0 -1 1 1 2 2 2 3 2 -3 -1 1 -1 -0 -0 1
8 9 8 5 3 -0 -5 -6 -6 -5 -6 -7 -5 -4 -4 -6 -7 -7 -7 -6 -7 -6 -4 -4 -4 -4 -5 -4 -4 -5 -2 -0 -1 2 1 2 1 2 -1 0 -3 1 -1 0 0 0 -3 -3 -2 -1 -2 -6 -4 0
8 8 6 4 2 -1 -5 -6 -6 -5 -7 -6 -5 -3 -3 -5 -7 -7 -9 -7 -5 -5 -5 -5 -5 -4 -4 -4 -4 -5 -3 -2 -3 -3 -2 1 2 2 2 2 1 -1 -2 -0 -1 -2 -2 -1 -1 -4 -6 -7 -6 -4
8 7 5 3 2 -2 -5 -6 -6 -7 -8 -6 -5 -3 -4 -6 -7 -7 -9 -8 -6 -6 -5 -5 -5 -5 -5 -5 -4 -4 -4 -4 -4 -5 -4 -3 -1 -2 0 -1 -0 -1 -1 -1 -1 -1 -5 -2 -6 -6 -7 -8 -8 -6
7 6 5 3 1 -4 -6 -6 -6 -8 -8 -7 -4 -3 -5 -7 -6 -7 -7 -6 -6 -6 -5 -5 -4 -4 -4 -4 -4 -4 -3 -4 -4 -4 -5 -3 -3 -2 -3 -4 -2 -3 -2 -1 -1 -5 -3 -5 -4 -3 -5 -6 -5 -5
6 6 5 3 -1 -4 -6 -5 -7 -9 -7 -5 -5 -5 -6 -7 -6 -6 -6 -6 -6 -6 -5 -5 -5 -4 -3 -3 -4 -4 -4 -4 -5 -5 -4 -5 -5 -3 -3 -3 -6 -7 -5 -2 -4 -3 -2 -2 -4 -3 -4 -2 -3 -3
6 6 3 1 -1 -5 -6 -6 -8 -7 -6 -5 -6 -7 -7 -6 -6 -6 -6 -7 -7 -6 -6 -6 -6 -4 -3 -3 -4 -4 -4 -4 -5 -4 -4 -5 -6 -5 -3 -4 -8 -5 -2 -2 -2 -2 -2 -2 -1 -1 -1 -1 -1 -2
6 5 3 1 -4 -5 -6 -6 -9 -5 -6 -6 -7 -6 -5 -5 -5 -6 -6 -6 -6 -8 -9 -11 -10 -4 -5 -2 -4 -4 -4 -4 -4 -4 -4 -4 -5 -6 -5 -7 -3 -2 -2 -2 -2 -3 -2 -2 -1 -2 -1 -1 -1 -1
6 4 3 -2 -4 -5 -5 -8 -6 -5 -7 -6 -5 -4 -5 -5 -5 -5 -7 -8 -8 -8 -8 -8 -7 -11 -6 -4 -2 -3 -4 -4 -4 -4 -5 -5 -5 -3 -4 -3 -2 -2 -2 -2 -3 -3 -2 -2 -2 -2 -2 -2 -1 -1
4 3 -1 -3 -4 -5 -6 -8 -5 -7 -7 -5 -5 -5 -4 -4 -5 -6 -6 -6 -5 -10 -6 -6 -5 -8 -5 -5 -4 -3 -3 -4 -7 -4 -5 -3 -3 -5 -4 -4 -6 -5 -2 -2 -3 -3 -3 -2 -3 -3 -2 -1 -1 -1
3 2 0 -3 -4 -5 -6 -5 -4 -7 -5 -5 -6 -5 -5 -5 -6 -7 -7 -7 -7 -8 -5 -5 -5 -6 -4 -5 -4 -3 -3 -6 -8 -5 -3 -4 -2 -3 -4 -9 -11 -13 -13 -5 -3 -3 -3 -3 -3 -3 -3 -2 -2 -2
3 1 -3 -3 -4 -4 -8 -2 -5 -6 -6 -7 -6 -5 -5 -5 -9 -11 -11 -9 -8 -10 -3 -3 -4 -5 -5 -3 -3 -2 -3 -3 -4 -4 -5 -4 -4 -3 -6 -8 -10 -11 -12 -14 -5 -3 -4 -3 -3 -3 -3 -3 -3 -3
2 -2 -3 -3 -3 -7 -4 -2 -7 -7 -8 -5 -7 -9 -10 -12 -15 -17 -14 -11 -10 -6 -4 -6 -8 -6 -4 -3 -3 -3 -2 -2 -3 -2 -3 -5 -3 -5 -6 -8 -11 -12 -12 -12 -12 -3 -4 -4 -4 -4 -4 -5 -9 -7
-1 -2 -3 -2 -5 -8 -2 -7 -7 -8 -9 -11 -11 -12 -12 -12 -13 -12 -11 -10 -8 -5 -7 -6 -6 -5 -4 -4 -4 -3 -4 -1 -1 -4 -5 -8 -5 -6 -10 -11 -10 -10 -10 -13 -13 -5 -3 -4 -4 -4 -4 -4 -10 -12
-1 -2 -1 -3 -8 -2 -4 -7 -8 -8 -10 -12 -17 -13 -10 -8 -7 -7 -6 -7 -7 -7 -7 -6 -5 -5 -7 -5 -4 -5 -5 -3 -5 -6 -8 -4 -6 -11 -13 -11 -10 -10 -10 -11 -9 -7 -3 -4 -4 -4 -4 -5 -6 -9
-1 -1 -2 -6 -2 -2 -8 -7 -8 -10 -11 -11 -11 -7 -6 -7 -7 -6 -8 -8 -8 -7 -7 -6 -8 -9 -7 -6 -5 -5 -6 -7 -7 -9 -4 -4 -9 -10 -12 -11 -10 -9 -9 -10 -10 -5 -3 -3 -4 -4 -4 -5 -8 -13
-1 -1 -2 -2 -3 -9 -4 -6 -8 -10 -11 -9 -8 -8 -10 -11 -10 -9 -9 -9 -7 -7 -9 -8 -11 -12 -7 -5 -5 -5 -5 -7 -5 -7 -11 -10 -8 -9 -10 -11 -9 -8 -8 -10 -11 -5 -4 -4 -4 -4 -4 -5 -5 -5
-1 -2 -3 -6 -10 -4 -6 -9 -11 -10 -8 -9 -8 -9 -10 -11 -10 -10 -10 -10 -8 -8 -9 -11 -9 -9 -9 -9 -9 -8 -7 -11 -13 -13 -12 -13 -10 -10 -10 -11 -11 -9 -10 -9 -10 -10 -7 -5 -4 -4 -4 -5 -6 -6
-4 -5 -8 -10 -11 -13 -15 -12 -12 -7 -6 -6 -7 -9 -9 -9 -11 -12 -11 -8 -7 -8 -8 -7 -9 -10 -8 -9 -11 -14 -14 -14 -13 -12 -13 -14 -13 -11 -11 -11 -12 -13 -12 -11 -9 -9 -9 -8 -5 -4 -4 -5 -5 -6
-5 -5 -10 -10 -13 -15 -13 -10 -10 -10 -6 -6 -7 -8 -8 -9 -9 -9 -8 -7 -6 -7 -6 -8 -9 -10 -12 -15 -14 -13 -12 -13 -12 -12 -13 -14 -13 -11 -12 -13 -16 -17 -17 -16 -15 -13 -8 -8 -8 -6 -4 -4 -5 -6
-3 -4 -6 -11 -15 -15 -10 -9 -9 -8 -7 -8 -7 -9 -9 -8 -8 -7 -6 -5 -5 -6 -7 -11 -13 -14 -14 -13 -13 -13 -13 -13 -12 -12 -12 -12 -12 -11 -12 -16 -16 -16 -16 -17 -16 -17 -16 -13 -7 -6 -5 -4 -5 -5
-3 -5 -10 -13 -14 -11 -9 -8 -8 -8 -8 -8 -8 -9 -8 -9 -9 -8 -7 -6 -6 -10 -11 -13 -13 -13 -13 -14 -13 -15 -15 -15 -14 -12 -11 -11 -11 -11 -15 -15 -13 -14 -14 -14 -15 -16 -18 -16 -14 -8 -5 -4 -4 -5
-8 -13 -15 -14 -14 -10 -7 -7 -8 -8 -10 -10 -9 -11 -10 -10 -10 -10 -9 -8 -9 -13 -13 -13 -13 -14 -14 -13 -14 -13 -13 -13 -14 -14 -13 -11 -11 -14 -14 -12 -10 -8 -10 -10 -11 -14 -16 -16 -16 -12 -8 -6 -4 -5
-14 -14 -11 -10 -11 -7 -8 -8 -8 -8 -8 -10 -12 -12 -13 -11 -11 -11 -12 -11 -13 -14 -16 -16 -15 -15 -14 -14 -14 -13 -13 -13 -13 -13 -12 -13 -13 -14 -10 -9 -10 -11 -10 -8 -10 -11 -15 -15 -15 -14 -10 -8 -9 -8
-13 -9 -11 -8 -9 -9 -9 -10 -10 -11 -10 -12 -10 -13 -13 -11 -15 -12 -13 -12 -17 -18 -17 -16 -16 -15 -14 -14 -13 -13 -13 -12 -12 -12 -14 -13 -12 -12 -13 -13 -13 -12 -11 -11 -11 -11 -13 -15 -14 -13 -14 -13 -11 -11
-8 -8 -9 -8 -8 -9 -9 -9 -11 -11 -13 -13 -12 -14 -12 -14 -12 -13 -14 -16 -18 -17 -16 -15 -15 -14 -13 -13 -12 -12 -12 -11 -11 -11 -14 -12 -11 -11 -11 -11 -13 -13 -13 -12 -12 -12 -14 -15 -15 -13 -12 -13 -13 -12
-8 -8 -7 -8 -9 -10 -10 -10 -11 -12 -13 -10 -15 -15 -16 -13 -14 -13 -15 -16 -16 -15 -14 -13 -12 -12 -11 -11 -13 -12 -12 -12 -12 -11 -12 -12 -11 -11 -10 -11 -11 -12 -12 -13 -13 -13 -13 -14 -14 -12 -12 -13 -13 -12
-7 -7 -8 -8 -8 -9 -12 -12 -13 -13 -13 -11 -11 -13 -13 -13 -13 -16 -17 -15 -14 -13 -13 -12 -12 -13 -13 -14 -14 -14 -13 -13 -12 -11 -12 -12 -12 -12 -12 -12 -12 -12 -13 -13 -12 -13 -13 -13 -12 -11 -12 -12 -13 -12
-7 -7 -8 -9 -8 -8 -9 -11 -11 -11 -11 -11 -12 -13 -13 -14 -16 -15 -15 -13 -14 -14 -15 -15 -15 -14 -14 -12 -11 -9 -9 -8 -8 -9 -9 -9 -9 -10 -10 -11 -10 -10 -11 -11 -12 -11 -11 -11 -11 -11 -12 -12 -11 -11
-7 -8 -9 -9 -10 -10 -9 -9 -9 -10 -11 -11 -12 -12 -12 -13 -14 -14 -15 -17 -17 -16 -15 -14 -13 -11 -11 -10 -9 -8 -9 -12 -12 -11 -11 -11 -11 -10 -10 -10 -9 -9 -9 -10 -11 -10 -10 -11 -11 -11 -12 -12 -11 -10
-8 -9 -9 -9 -10 -9 -9 -9 -9 -10 -10 -10 -10 -10 -11 -11 -15 -20 -20 -18 -17 -16 -14 -13 -13 -11 -10 -10 -11 -12 -14 -13 -13 -12 -12 -12 -11 -11 -11 -10 -9 -9 -10 -10 -10 -10 -11 -11 -11 -11 -12 -12 -11 -11
-8 -8 -10 -11 -9 -9 -9 -9 -10 -10 -10 -10 -10 -11 -12 -12 -13 -19 -16 -16 -15 -14 -11 -10 -9 -9 -10 -12 -13 -13 -13 -12 -12 -12 -12 -13 -12 -12 -11 -10 -9 -9 -9 -11 -11 -11 -11 -11 -11 -12 -12 -12 -10 -11
-9 -8 -8 -9 -9 -9 -9 -10 -10 -11 -11 -11 -11 -12 -13 -14 -15 -17 -17 -16 -14 -11 -10 -9 -9 -10 -10 -13 -13 -13 -13 -13 -13 -12 -12 -13 -12 -12 -12 -11 -10 -10 -10 -10 -11 -11 -12 -13 -12 -12 -11 -11 -12 -12

GFSWCAN_850_dewp_060.txt.gz
Dewpoint
-0 1 3 8 8 7 6 1 -5 -7 -8 -7 -8 -7 -8 -8 -7 -7 -8 -8 -8 -3 -3 -5 -5 -4 -5 -6 -4 -6 -1 -0 2 3 3 3 2 0 0 -1 1 1 2 2 1 2 2 -2 -1 1 -1 -4 -4 -4
-0 1 4 7 8 7 4 -4 -6 -7 -7 -8 -8 -6 -11 -8 -7 -8 -8 -8 -8 -5 -3 -5 -5 -5 -5 -5 -5 -3 -1 -0 -1 2 2 1 1 2 1 1 -2 2 -0 0 1 0 -2 -3 -2 -2 -5 -6 -6 -6
-0 1 3 7 7 6 2 -3 -6 -7 -8 -9 -6 -6 -12 -7 -8 -8 -8 -8 -6 -4 -5 -4 -4 -4 -4 -5 -5 -6 -3 -2 -2 -2 -1 1 1 1 1 1 1 -1 -0 1 0 -1 -3 -5 -1 -5 -4 -4 -4 -6
-0 2 3 5 6 3 1 -4 -6 -7 -8 -8 -5 -10 -9 -7 -9 -8 -6 -6 -6 -6 -4 -4 -5 -5 -5 -4 -4 -5 -4 -4 -5 -5 -3 -1 0 -2 -0 -1 0 -2 -2 -3 -3 -4 -5 -3 -4 -4 -3 -3 -5 -4
-0 2 3 6 4 3 -1 -4 -6 -6 -8 -6 -5 -7 -8 -7 -9 -6 -7 -7 -6 -6 -4 -4 -4 -4 -3 -4 -5 -4 -4 -5 -4 -3 -2 -2 -3 -2 -3 -4 -3 -4 -4 -3 -3 -4 -4 -4 -3 -2 -2 -2 -3 -1
1 2 3 5 4 0 -1 -4 -5 -6 -7 -6 -6 -7 -7 -7 -7 -7 -6 -7 -6 -6 -5 -2 -4 -3 -3 -4 -4 -4 -3 -4 -4 -4 -4 -4 -5 -3 -4 -6 -6 -5 -5 -3 -3 -2 -2 -2 -2 -2 -2 -1 -1 -1
0 1 3 4 2 1 -3 -5 -5 -7 -7 -8 -6 -7 -6 -7 -6 -7 -6 -6 -6 -6 -6 -4 -3 -3 -2 -3 -4 -4 -4 -5 -4 -4 -4 -5 -5 -4 -4 -5 -8 -5 -3 -1 -1 -2 -2 -2 -2 -2 -2 -2 -2 -2
1 3 4 3 2 -2 -3 -3 -6 -7 -8 -7 -7 -8 -7 -6 -6 -6 -7 -7 -7 -10 -14 -4 -5 -3 -4 -3 -3 -4 -3 -4 -4 -4 -4 -5 -5 -5 -5 -7 -6 -3 -2 -2 -2 -2 -3 -3 -2 -2 -2 -3 -2 -2
1 2 3 3 -2 -3 -2 -4 -7 -7 -7 -8 -7 -6 -5 -6 -6 -6 -6 -8 -10 -12 -11 -7 -5 -5 -5 -4 -2 -3 -4 -4 -5 -5 -5 -4 -5 -2 -5 -7 -6 -4 -3 -3 -2 -2 -3 -3 -3 -3 -2 -3 -2 -2
1 3 3 1 -0 -1 -3 -6 -7 -7 -8 -6 -5 -6 -6 -5 -7 -7 -7 -7 -9 -13 -12 -5 -6 -5 -5 -4 -3 -3 -3 -3 -2 -4 -4 -4 -3 -4 -6 -7 -6 -5 -6 -5 -3 -3 -3 -3 -3 -3 -3 -3 -3 -3
2 3 2 1 -1 -2 -2 -6 -7 -7 -4 -5 -7 -5 -4 -5 -6 -7 -9 -7 -9 -7 -6 -5 -5 -5 -4 -3 -3 -3 -3 -4 -2 -3 -3 -2 -2 -4 -6 -7 -9 -9 -8 -7 -7 -5 -3 -3 -4 -3 -3 -4 -4 -3
2 3 2 1 -2 -2 -2 -7 -8 -5 -6 -8 -7 -5 -5 -6 -10 -9 -9 -7 -8 -6 -4 -4 -4 -5 -4 -3 -4 -2 -3 -3 -1 -3 -3 -1 -3 -4 -7 -8 -10 -11 -10 -10 -8 -7 -8 -4 -4 -4 -4 -4 -4 -6
2 3 2 -1 -1 -2 -5 -8 -6 -7 -9 -8 -10 -8 -10 -12 -11 -11 -12 -7 -5 -5 -5 -5 -5 -5 -4 -4 -4 -3 -3 -2 -3 -1 -2 -2 -3 -6 -8 -11 -12 -11 -10 -10 -10 -11 -10 -7 -4 -4 -4 -4 -4 -12
3 2 0 -1 -1 -3 -7 -7 -6 -7 -12 -10 -11 -10 -7 -9 -10 -9 -7 -5 -8 -6 -8 -8 -5 -4 -4 -4 -5 -3 -4 -2 -1 -1 -1 -3 -5 -9 -11 -12 -12 -13 -11 -9 -9 -9 -9 -7 -4 -4 -4 -4 -5 -5
2 1 -1 -1 -2 -3 -7 -7 -8 -6 -12 -15 -15 -9 -8 -8 -8 -8 -7 -7 -7 -8 -8 -6 -5 -5 -4 -4 -5 -4 -3 -2 -3 -2 -4 -5 -7 -8 -9 -10 -11 -11 -11 -9 -8 -10 -11 -5 -4 -4 -4 -4 -5 -6
1 -0 -0 -1 -1 -6 -7 -8 -6 -10 -12 -12 -9 -6 -7 -6 -6 -6 -7 -7 -9 -8 -8 -8 -6 -5 -4 -4 -4 -4 -4 -3 -3 -5 -6 -12 -14 -14 -12 -11 -10 -10 -10 -8 -9 -9 -10 -8 -5 -5 -4 -4 -5 -5
0 0 -0 -1 -3 -6 -8 -7 -9 -10 -10 -9 -7 -10 -10 -11 -9 -9 -9 -9 -10 -9 -6 -7 -9 -10 -6 -4 -4 -5 -4 -4 -7 -14 -14 -15 -14 -13 -13 -12 -11 -10 -11 -11 -10 -10 -9 -9 -9 -6 -4 -4 -5 -5
-0 -0 -1 -2 -5 -7 -7 -8 -10 -11 -8 -8 -7 -10 -12 -13 -11 -10 -10 -10 -10 -11 -11 -8 -10 -6 -7 -7 -7 -7 -7 -10 -14 -13 -13 -15 -15 -14 -13 -12 -11 -11 -12 -15 -16 -16 -13 -9 -9 -9 -6 -4 -5 -5
-1 -1 -3 -4 -8 -10 -12 -12 -11 -7 -6 -7 -8 -9 -9 -10 -10 -10 -10 -9 -10 -10 -11 -9 -7 -6 -8 -9 -10 -13 -13 -13 -12 -13 -14 -14 -13 -13 -13 -12 -11 -12 -15 -16 -16 -17 -17 -16 -10 -8 -6 -5 -5 -6
-2 -3 -2 -8 -11 -13 -12 -11 -9 -9 -6 -7 -8 -8 -9 -9 -8 -7 -7 -8 -8 -9 -8 -7 -8 -11 -13 -15 -14 -13 -13 -14 -13 -13 -15 -15 -13 -12 -11 -12 -11 -13 -16 -15 -15 -14 -15 -16 -16 -14 -8 -5 -5 -6
-2 -3 -8 -10 -14 -13 -10 -8 -9 -8 -7 -8 -9 -10 -9 -8 -7 -6 -6 -6 -6 -7 -7 -12 -14 -15 -14 -13 -13 -13 -14 -14 -15 -14 -13 -14 -14 -14 -13 -12 -12 -15 -14 -12 -9 -9 -12 -15 -16 -16 -15 -9 -5 -5
-4 -9 -13 -13 -13 -11 -9 -9 -9 -9 -8 -8 -9 -10 -9 -10 -9 -8 -7 -6 -6 -10 -11 -13 -13 -13 -13 -14 -14 -14 -14 -14 -13 -13 -12 -12 -13 -14 -14 -12 -12 -15 -12 -9 -8 -7 -7 -11 -13 -15 -15 -12 -8 -5
-12 -14 -14 -12 -14 -10 -7 -8 -9 -10 -8 -9 -10 -10 -11 -11 -10 -10 -9 -8 -9 -12 -13 -13 -14 -13 -13 -14 -15 -14 -15 -14 -13 -13 -12 -12 -12 -13 -15 -13 -13 -13 -11 -8 -8 -9 -8 -9 -11 -12 -15 -14 -11 -8
-16 -14 -12 -12 -11 -7 -9 -9 -9 -9 -9 -9 -10 -10 -11 -11 -11 -11 -10 -11 -13 -15 -18 -18 -17 -17 -16 -15 -15 -14 -14 -14 -13 -13 -12 -12 -11 -13 -13 -13 -12 -13 -11 -10 -12 -12 -12 -12 -12 -12 -13 -14 -13 -13
-13 -10 -11 -8 -9 -9 -9 -10 -10 -10 -10 -11 -10 -10 -12 -12 -10 -9 -10 -12 -16 -19 -18 -18 -16 -15 -14 -14 -13 -13 -12 -12 -12 -12 -13 -12 -11 -12 -13 -12 -13 -13 -12 -12 -12 -13 -12 -12 -12 -12 -13 -13 -12 -12
-7 -8 -9 -9 -8 -8 -9 -9 -10 -10 -11 -10 -12 -14 -12 -12 -10 -10 -12 -16 -17 -18 -16 -15 -14 -13 -12 -12 -11 -12 -14 -13 -12 -11 -14 -13 -13 -12 -12 -12 -12 -14 -13 -11 -10 -10 -11 -12 -12 -13 -13 -13 -12 -12
-8 -7 -7 -9 -10 -11 -11 -11 -11 -11 -11 -10 -13 -13 -13 -11 -12 -12 -15 -16 -17 -15 -14 -13 -12 -12 -12 -13 -14 -14 -14 -13 -11 -11 -11 -10 -11 -10 -9 -8 -9 -10 -10 -10 -10 -10 -12 -13 -13 -13 -12 -13 -11 -12
-7 -7 -8 -9 -10 -10 -11 -12 -11 -11 -11 -12 -12 -11 -11 -11 -12 -17 -17 -16 -14 -13 -14 -17 -16 -15 -14 -14 -13 -12 -11 -10 -9 -9 -8 -10 -12 -12 -11 -9 -8 -9 -10 -10 -10 -11 -12 -12 -11 -12 -12 -11 -11 -12
-7 -9 -10 -9 -9 -9 -10 -11 -11 -11 -12 -12 -12 -12 -13 -14 -16 -16 -14 -14 -14 -17 -17 -16 -15 -14 -13 -12 -11 -10 -10 -11 -12 -13 -13 -13 -13 -13 -12 -12 -11 -10 -10 -9 -9 -10 -10 -10 -10 -10 -10 -10 -11 -12
-8 -9 -9 -9 -11 -10 -9 -10 -10 -11 -12 -12 -12 -13 -13 -14 -14 -14 -15 -18 -19 -18 -17 -15 -13 -11 -10 -10 -10 -10 -12 -13 -13 -13 -12 -13 -12 -12 -12 -12 -12 -11 -10 -9 -9 -9 -10 -10 -10 -10 -10 -11 -11 -12
-9 -10 -10 -10 -11 -10 -9 -9 -10 -10 -11 -11 -11 -11 -11 -12 -14 -20 -21 -20 -19 -17 -16 -13 -12 -10 -10 -10 -10 -12 -13 -13 -13 -13 -13 -13 -12 -13 -12 -12 -12 -12 -10 -10 -9 -9 -10 -10 -10 -10 -10 -11 -12 -12
-9 -10 -11 -10 -10 -10 -9 -10 -10 -10 -10 -10 -10 -11 -12 -13 -15 -18 -21 -19 -17 -15 -12 -10 -10 -11 -11 -11 -13 -14 -14 -14 -14 -14 -14 -13 -13 -13 -12 -13 -12 -11 -10 -10 -10 -10 -10 -10 -10 -11 -12 -12 -12 -11
-9 -9 -9 -10 -10 -9 -10 -10 -10 -11 -11 -11 -11 -12 -13 -14 -16 -18 -19 -18 -16 -12 -10 -10 -11 -12 -12 -14 -14 -14 -14 -14 -14 -13 -13 -13 -13 -13 -13 -13 -13 -12 -11 -11 -11 -11 -12 -12 -12 -12 -12 -12 -12 -12

GFSWCAN_850_dewp_063.txt.gz
Dewpoint
-2 -3 -5 -1 0 0 3 6 6 1 -6 -6 -6 -8 -8 -9 -9 -8 -7 -7 -4 -4 -3 -3 -4 -5 -6 -5 -3 -4 -0 1 2 3 2 1 0 -1 -0 -1 -0 0 1 0 0 2 2 -2 -1 0 -1 -4 -4 -5
-3 -3 -8 -0 2 2 3 6 5 -2 -5 -5 -6 -7 -9 -8 -7 -7 -8 -7 -5 -4 -2 -4 -5 -5 -4 -4 -4 -2 -0 -0 0 3 1 0 0 0 -0 1 -2 1 -0 0 -0 0 -2 -4 -3 -2 -4 -4 -3 -4
-3 -3 -3 -0 3 3 4 5 2 -4 -5 -5 -6 -7 -9 -7 -8 -8 -9 -7 -8 -4 -4 -3 -3 -4 -5 -5 -5 -3 -1 -1 -2 -0 0 1 1 0 1 0 0 -1 -1 0 1 -1 -1 -5 -3 -4 -4 -3 -3 -3
-3 -3 -3 -0 0 1 3 2 -2 -5 -5 -7 -6 -10 -8 -8 -8 -9 -9 -7 -5 -4 -5 -4 -5 -4 -5 -4 -5 -4 -2 -3 -4 -1 -1 -0 0 -2 -1 -1 -1 -1 -2 -3 -3 -5 -6 -5 -4 -4 -3 -2 -2 -2
-3 -3 -3 -0 1 2 4 -0 -3 -4 -6 -6 -6 -10 -8 -8 -9 -7 -7 -6 -6 -1 -4 -4 -3 -3 -3 -4 -4 -4 -3 -3 -4 -2 -1 -1 -2 -2 -4 -4 -3 -4 -4 -4 -5 -4 -4 -4 -3 -2 -2 -2 -2 -1
-3 -6 0 1 2 2 2 0 -1 -4 -5 -6 -7 -8 -8 -8 -6 -7 -7 -7 -6 -9 -3 -2 -4 -2 -3 -3 -3 -3 -3 -3 -3 -4 -4 -4 -4 -2 -3 -5 -7 -5 -6 -4 -3 -2 -2 -2 -2 -2 -2 -2 -2 -1
-3 -7 -0 2 2 2 1 -0 -3 -4 -5 -4 -7 -7 -8 -7 -7 -6 -4 -6 -6 -6 -4 -2 -3 -3 -3 -3 -3 -3 -3 -3 -3 -3 -4 -5 -5 -4 -4 -4 -8 -7 -5 -3 -2 -2 -2 -2 -2 -2 -2 -2 -2 -2
-3 -4 -0 -0 2 1 0 -0 -2 -4 -2 -4 -7 -7 -8 -6 -7 -6 -6 -6 -6 -11 -13 -1 -3 -3 -3 -3 -3 -3 -3 -3 -3 -3 -4 -5 -5 -5 -4 -7 -7 -6 -5 -5 -3 -3 -2 -2 -2 -2 -3 -3 -3 -3
-5 -2 -1 0 1 0 -0 -1 -2 -2 -3 -5 -7 -6 -6 -6 -6 -6 -7 -6 -11 -15 -4 -3 -1 -2 -4 -3 -2 -3 -3 -4 -4 -4 -5 -4 -5 -3 -5 -6 -8 -7 -6 -6 -6 -6 -5 -4 -3 -3 -3 -3 -3 -4
-6 -1 2 2 1 0 -0 -1 -1 -3 -4 -7 -6 -7 -7 -7 -7 -8 -11 -8 -12 -12 -11 -4 -4 -4 -3 -3 -3 -3 -3 -3 -1 -4 -4 -4 -2 -5 -5 -6 -6 -6 -5 -5 -5 -4 -5 -6 -5 -5 -4 -4 -4 -4
-1 -1 2 2 1 0 -0 -1 -2 -4 -7 -6 -7 -4 -5 -7 -8 -10 -7 -3 -7 -3 -4 -4 -4 -5 -3 -3 -3 -3 -3 -3 -0 -1 -2 -1 -1 -4 -5 -6 -6 -6 -6 -6 -6 -5 -5 -5 -5 -6 -5 -4 -4 -4
-0 1 1 1 0 -0 -1 -1 -4 -7 -6 -9 -9 -6 -6 -8 -11 -5 -5 -6 -5 -4 -4 -5 -5 -4 -3 -4 -4 -2 -3 -3 -0 -3 -2 -1 -2 -3 -7 -10 -11 -12 -11 -10 -7 -7 -8 -7 -6 -6 -5 -4 -4 -4
-1 1 1 0 0 -0 -1 -3 -6 -7 -9 -11 -14 -10 -9 -10 -6 -4 -6 -5 -3 -4 -4 -5 -4 -4 -3 -4 -4 -4 -2 -2 -3 -3 -2 -2 -3 -6 -8 -11 -12 -12 -11 -11 -12 -10 -9 -9 -10 -9 -5 -4 -4 -4
1 1 0 -0 -0 -1 -2 -5 -6 -9 -13 -15 -15 -8 -4 -6 -4 -4 -2 -1 -4 -3 -4 -4 -5 -4 -4 -4 -5 -3 -4 -3 -3 -2 -2 -3 -4 -9 -7 -9 -10 -14 -14 -12 -11 -9 -9 -9 -10 -9 -6 -5 -5 -4
1 1 -0 -0 -0 -1 -3 -5 -8 -12 -16 -16 -13 -6 -6 -6 -6 -6 -5 -5 -5 -5 -7 -4 -4 -4 -4 -3 -5 -4 -3 -2 -3 -2 -2 -4 -12 -14 -15 -15 -15 -14 -12 -10 -10 -10 -10 -10 -9 -9 -8 -5 -5 -4
1 0 -0 0 -0 -2 -5 -7 -11 -15 -14 -13 -9 -6 -6 -5 -5 -5 -4 -5 -7 -6 -7 -5 -5 -4 -4 -4 -4 -3 -3 -3 -3 -2 -5 -11 -16 -15 -12 -12 -13 -12 -11 -10 -11 -13 -15 -15 -13 -9 -9 -9 -7 -5
0 0 -0 -0 -1 -4 -6 -9 -13 -12 -10 -8 -5 -8 -7 -8 -4 -7 -7 -7 -9 -6 -3 -5 -6 -6 -5 -4 -4 -5 -3 -4 -4 -8 -11 -14 -14 -10 -11 -13 -13 -12 -11 -11 -12 -16 -17 -17 -17 -16 -10 -8 -6 -5
0 -0 -0 -1 -2 -5 -7 -11 -12 -11 -6 -8 -4 -8 -9 -9 -8 -10 -10 -10 -10 -11 -7 -5 -7 -5 -6 -6 -6 -5 -5 -7 -10 -13 -14 -15 -15 -15 -14 -12 -12 -11 -11 -11 -13 -16 -16 -15 -15 -15 -16 -11 -6 -5
-0 -1 -1 -1 -5 -8 -12 -12 -11 -6 -6 -7 -8 -8 -8 -9 -9 -10 -10 -11 -12 -13 -14 -8 -6 -5 -6 -8 -6 -8 -13 -13 -12 -13 -14 -16 -16 -16 -16 -16 -15 -12 -11 -12 -16 -14 -11 -12 -13 -15 -15 -15 -12 -6
-1 -0 -1 -4 -8 -16 -12 -9 -8 -7 -4 -7 -8 -9 -8 -8 -7 -7 -8 -10 -12 -12 -9 -5 -7 -10 -11 -12 -15 -14 -13 -13 -13 -12 -13 -13 -13 -13 -13 -14 -15 -15 -12 -12 -15 -10 -8 -9 -10 -10 -13 -15 -13 -9
-0 -1 -5 -8 -13 -13 -9 -8 -8 -7 -7 -8 -9 -9 -8 -6 -6 -6 -6 -7 -8 -8 -5 -11 -13 -14 -14 -14 -14 -13 -13 -14 -14 -14 -14 -13 -13 -13 -13 -12 -12 -12 -14 -12 -14 -13 -9 -7 -8 -6 -9 -12 -14 -12
-2 -5 -10 -15 -13 -10 -8 -8 -9 -8 -8 -9 -10 -9 -8 -7 -7 -8 -8 -6 -6 -9 -11 -12 -13 -13 -13 -13 -13 -14 -15 -14 -14 -14 -14 -14 -13 -13 -12 -12 -11 -12 -14 -13 -12 -13 -11 -8 -8 -9 -11 -12 -12 -14
-5 -13 -16 -14 -12 -9 -7 -8 -9 -9 -5 -8 -10 -8 -9 -9 -10 -10 -8 -7 -9 -12 -12 -13 -15 -16 -16 -17 -17 -16 -15 -15 -14 -14 -13 -13 -12 -12 -12 -13 -12 -12 -13 -14 -12 -12 -11 -9 -11 -12 -12 -12 -12 -13
-16 -11 -10 -11 -10 -7 -8 -8 -9 -9 -9 -8 -7 -8 -9 -10 -11 -9 -8 -9 -12 -14 -18 -18 -18 -17 -16 -15 -15 -15 -14 -13 -13 -12 -12 -13 -13 -14 -13 -12 -12 -12 -12 -12 -12 -11 -12 -11 -11 -12 -12 -12 -12 -12
-11 -9 -10 -7 -9 -8 -7 -8 -8 -8 -8 -9 -9 -9 -11 -12 -8 -8 -8 -10 -13 -18 -18 -17 -15 -14 -13 -14 -15 -15 -15 -14 -13 -13 -14 -14 -13 -12 -12 -11 -11 -11 -10 -9 -11 -10 -11 -10 -11 -11 -11 -11 -12 -13
-6 -8 -8 -8 -8 -7 -7 -7 -8 -8 -9 -9 -11 -13 -12 -9 -9 -8 -9 -15 -17 -18 -16 -14 -14 -14 -16 -17 -16 -15 -14 -13 -13 -12 -12 -11 -10 -9 -9 -9 -9 -9 -8 -8 -8 -9 -10 -10 -10 -10 -11 -12 -12 -12
-6 -6 -8 -9 -10 -10 -10 -11 -11 -9 -8 -9 -11 -11 -10 -9 -9 -10 -16 -17 -17 -16 -15 -14 -15 -17 -16 -15 -14 -13 -12 -11 -10 -10 -10 -10 -10 -10 -10 -10 -10 -10 -9 -9 -9 -9 -10 -10 -10 -11 -11 -12 -12 -12
-7 -8 -7 -9 -10 -11 -9 -9 -9 -9 -9 -11 -11 -10 -9 -10 -10 -16 -16 -16 -16 -14 -14 -17 -17 -16 -15 -13 -12 -11 -11 -11 -10 -10 -12 -13 -13 -13 -13 -12 -12 -12 -12 -12 -11 -10 -9 -10 -10 -10 -11 -11 -11 -10
-8 -9 -9 -8 -9 -10 -10 -9 -9 -12 -12 -12 -9 -10 -12 -15 -16 -16 -15 -14 -14 -15 -19 -17 -16 -14 -13 -12 -11 -12 -11 -10 -11 -12 -13 -13 -14 -14 -13 -12 -12 -13 -13 -12 -11 -10 -10 -9 -9 -9 -9 -10 -10 -10
-9 -10 -10 -10 -9 -8 -10 -11 -11 -12 -12 -12 -13 -14 -14 -14 -14 -14 -15 -17 -20 -19 -18 -16 -14 -13 -11 -11 -12 -12 -11 -13 -14 -14 -13 -14 -14 -13 -13 -13 -13 -13 -12 -12 -11 -11 -10 -9 -9 -9 -9 -10 -10 -10
-10 -10 -10 -10 -10 -10 -10 -11 -11 -12 -12 -12 -12 -12 -12 -13 -15 -20 -20 -21 -21 -19 -17 -15 -14 -11 -11 -12 -12 -12 -14 -14 -14 -14 -14 -13 -13 -13 -13 -13 -13 -13 -12 -11 -11 -10 -10 -10 -10 -10 -10 -10 -10 -11
-11 -11 -10 -9 -10 -10 -10 -10 -10 -11 -11 -11 -11 -12 -13 -14 -18 -21 -21 -21 -20 -18 -16 -13 -11 -11 -11 -12 -12 -14 -14 -14 -14 -14 -13 -13 -13 -13 -13 -13 -13 -13 -12 -12 -11 -11 -10 -10 -10 -11 -11 -12 -12 -12
-10 -10 -10 -10 -10 -10 -11 -11 -11 -11 -12 -12 -13 -14 -14 -16 -18 -21 -22 -21 -18 -17 -14 -12 -10 -10 -12 -12 -14 -14 -14 -14 -13 -13 -13 -13 -13 -13 -13 -13 -14 -13 -13 -12 -12 -12 -12 -12 -12 -12 -12 -12 -12 -12

GFSWCAN_850_dewp_066.txt.gz
Dewpoint
-2 -2 -2 -2 -4 -2 -0 0 2 4 2 -1 -2 -5 -8 -8 -8 -7 -7 -6 -5 -3 -3 -3 -4 -5 -5 -5 -1 -3 0 1 3 4 3 3 2 -1 0 -0 0 2 2 2 1 3 1 -3 -1 1 -2 -4 -3 -3
-2 -2 -2 -2 -2 -2 1 1 2 2 -0 -1 -0 -4 -8 -9 -8 -7 -7 -5 -6 -4 -3 -4 -5 -4 -4 -3 -3 -1 -0 -0 1 2 1 0 1 0 0 1 -2 1 1 1 1 1 -3 -5 -2 -3 -4 -4 -3 -2
-2 -2 -3 -2 -2 -1 1 1 2 2 0 -1 -3 -4 -7 -9 -8 -8 -7 -6 -7 -4 -3 -4 -4 -5 -5 -5 -3 -2 -1 -1 -1 0 1 1 1 1 1 1 -0 -1 -1 1 0 -1 -2 -3 -3 -4 -3 -2 -2 -2
-2 -2 -4 -2 -3 -1 -1 2 2 1 -0 -1 -2 -3 -7 -7 -7 -8 -7 -7 -6 -5 -4 -4 -4 -4 -4 -5 -6 -3 -2 -2 -2 -0 -0 0 1 -1 0 -1 -0 -1 -2 -3 -3 -5 -5 -4 -4 -3 -2 -2 -2 -2
-2 -2 -3 -3 -6 -1 -0 2 1 0 -0 -1 -3 -4 -7 -7 -8 -8 -8 -5 -5 -4 -3 -3 -3 -3 -3 -4 -5 -3 -3 -3 -3 -1 -0 -0 -2 -1 -3 -4 -2 -3 -4 -3 -2 -3 -3 -3 -2 -2 -2 -2 -2 -2
-2 -2 -3 -4 -7 -0 1 2 1 0 -0 -2 -3 -5 -7 -7 -6 -6 -7 -7 -6 -9 -4 -2 -3 -3 -3 -3 -3 -4 -3 -4 -3 -3 -3 -4 -4 -2 -2 -3 -5 -5 -5 -5 -4 -4 -2 -2 -2 -2 -3 -2 -2 -2
-2 -3 -3 -6 -2 0 1 1 1 0 -1 -2 -4 -6 -7 -6 -7 -6 -4 -8 -7 -10 -8 -3 -3 -3 -4 -3 -3 -3 -3 -4 -3 -3 -4 -4 -4 -3 -2 -3 -6 -6 -6 -3 -3 -3 -3 -3 -4 -5 -4 -3 -3 -3
-3 -3 -4 -3 1 1 1 1 0 -0 -1 -3 -4 -7 -7 -7 -7 -6 -7 -6 -13 -15 -9 -3 -3 -3 -3 -4 -3 -3 -3 -3 -3 -3 -4 -4 -5 -5 -3 -5 -7 -6 -6 -6 -5 -5 -5 -8 -9 -8 -7 -7 -5 -3
-3 -3 -5 -1 2 1 0 -0 -0 -1 -2 -4 -7 -7 -6 -7 -6 -6 -6 -7 -17 -18 -5 -2 -3 -3 -3 -4 -3 -3 -3 -3 -4 -3 -4 -4 -4 -3 -4 -6 -7 -7 -6 -6 -8 -8 -9 -8 -7 -8 -8 -8 -7 -4
-3 -3 -8 -0 0 0 -0 -0 -0 -1 -2 -6 -6 -7 -7 -7 -6 -7 -9 -15 -17 -14 -10 -4 -4 -4 -3 -3 -3 -3 -4 -3 -2 -3 -4 -3 -2 -4 -6 -6 -7 -8 -9 -8 -6 -7 -6 -6 -6 -7 -7 -7 -7 -6
-3 -6 -3 -1 -1 -0 -0 -0 -0 -1 -5 -6 -6 -6 -6 -7 -10 -10 -9 -4 -6 -3 -4 -4 -4 -4 -3 -3 -3 -3 -4 -3 -2 -1 -2 -2 -1 -4 -6 -7 -9 -11 -11 -11 -10 -9 -10 -9 -8 -8 -9 -9 -7 -7
-6 -7 -1 1 -0 0 -0 -0 -1 -4 -6 -6 -8 -6 -8 -11 -12 -7 -5 -5 -3 -3 -4 -4 -4 -4 -4 -4 -4 -3 -3 -3 -1 -3 -3 -2 -1 -8 -13 -13 -14 -15 -16 -14 -13 -12 -12 -11 -9 -10 -10 -10 -10 -6
-6 -1 -0 1 0 0 -0 -1 -2 -6 -7 -7 -11 -10 -8 -11 -4 -9 -8 -4 -4 -3 -4 -5 -4 -4 -4 -4 -5 -4 -3 -2 -3 -2 -3 -2 -5 -8 -9 -13 -16 -16 -16 -16 -16 -13 -11 -10 -10 -11 -11 -10 -9 -7
-1 0 1 1 0 -0 -0 -2 -5 -6 -9 -15 -14 -12 -7 -7 -5 -1 -1 -3 -3 -4 -4 -5 -4 -4 -4 -4 -5 -5 -4 -3 -3 -4 -4 -2 -7 -12 -14 -15 -15 -16 -15 -14 -14 -12 -11 -12 -14 -17 -16 -13 -9 -7
-1 1 1 0 -0 -0 -1 -3 -4 -8 -14 -15 -10 -9 -5 -5 -6 -3 -4 -4 -4 -4 -8 -4 -4 -4 -4 -5 -4 -4 -4 -5 -4 -4 -3 -5 -12 -14 -15 -16 -15 -14 -14 -13 -12 -12 -12 -13 -17 -18 -18 -17 -13 -8
-1 0 0 -0 -0 -1 -2 -4 -6 -11 -15 -12 -8 -6 -6 -5 -4 -4 -4 -4 -6 -6 -7 -7 -5 -5 -4 -5 -5 -6 -6 -6 -5 -4 -5 -14 -15 -15 -15 -13 -12 -12 -12 -12 -12 -11 -11 -14 -16 -16 -16 -17 -17 -13
1 0 -0 -1 -1 -3 -3 -4 -10 -13 -10 -6 -5 -7 -5 -6 -4 -5 -7 -8 -9 -6 -4 -4 -8 -6 -5 -5 -5 -6 -6 -6 -3 -12 -14 -14 -14 -14 -15 -16 -16 -16 -15 -14 -12 -12 -12 -16 -13 -14 -15 -16 -17 -16
0 -0 -0 -1 -2 -3 -5 -10 -13 -10 -6 -6 -4 -7 -6 -7 -7 -8 -9 -9 -9 -11 -7 -5 -9 -6 -7 -8 -6 -5 -6 -6 -7 -12 -13 -15 -16 -16 -15 -14 -14 -15 -15 -15 -13 -11 -13 -14 -11 -10 -8 -8 -10 -14
-0 -1 -0 -1 -4 -6 -12 -12 -11 -6 -5 -6 -7 -8 -7 -6 -7 -10 -10 -11 -14 -15 -14 -9 -8 -7 -6 -8 -7 -10 -12 -12 -13 -13 -14 -15 -16 -15 -14 -14 -13 -13 -13 -13 -13 -14 -13 -13 -9 -8 -7 -7 -8 -12
-0 -0 -1 -5 -8 -14 -11 -8 -9 -8 -5 -7 -8 -8 -7 -7 -7 -8 -10 -13 -14 -14 -13 -8 -7 -9 -11 -12 -15 -13 -12 -13 -13 -13 -15 -16 -15 -14 -14 -13 -12 -12 -12 -13 -14 -15 -14 -14 -12 -8 -6 -6 -9 -12
-1 -2 -4 -7 -11 -12 -9 -8 -8 -7 -8 -8 -8 -8 -6 -5 -6 -7 -9 -11 -12 -11 -8 -12 -12 -13 -14 -14 -13 -13 -14 -15 -15 -14 -15 -13 -14 -14 -14 -13 -12 -11 -11 -12 -12 -13 -13 -11 -12 -13 -10 -7 -11 -12
-2 -3 -6 -11 -13 -10 -9 -9 -8 -9 -9 -8 -9 -7 -7 -7 -7 -8 -9 -8 -9 -8 -12 -14 -14 -13 -14 -14 -14 -15 -16 -16 -15 -15 -14 -13 -13 -13 -13 -12 -12 -13 -13 -12 -12 -12 -13 -12 -11 -11 -10 -8 -11 -12
-3 -6 -12 -13 -10 -9 -8 -8 -9 -7 -6 -8 -7 -8 -8 -9 -10 -10 -8 -8 -9 -11 -12 -13 -15 -18 -18 -17 -17 -16 -15 -15 -14 -15 -13 -14 -13 -13 -13 -13 -13 -12 -11 -11 -10 -11 -11 -11 -11 -11 -10 -11 -11 -11
-8 -12 -11 -9 -9 -7 -8 -8 -9 -8 -8 -6 -7 -8 -9 -10 -11 -9 -9 -9 -12 -13 -14 -18 -19 -17 -17 -16 -16 -17 -18 -17 -16 -16 -15 -14 -13 -13 -12 -11 -10 -9 -9 -9 -9 -9 -8 -9 -10 -11 -11 -10 -10 -11
-9 -8 -9 -7 -8 -8 -7 -7 -7 -7 -7 -7 -9 -10 -12 -12 -10 -11 -10 -10 -13 -14 -18 -18 -17 -15 -15 -15 -18 -19 -16 -14 -14 -13 -12 -11 -10 -10 -10 -10 -10 -9 -9 -9 -9 -9 -9 -9 -9 -10 -10 -10 -10 -10
-6 -8 -7 -7 -8 -7 -6 -7 -6 -7 -8 -9 -12 -12 -11 -11 -12 -12 -10 -14 -15 -18 -19 -18 -16 -15 -15 -17 -16 -15 -13 -12 -11 -11 -11 -11 -11 -12 -12 -11 -11 -11 -11 -11 -11 -11 -11 -10 -10 -10 -10 -10 -10 -10
-7 -7 -9 -10 -10 -10 -9 -10 -9 -8 -9 -11 -12 -12 -12 -13 -13 -11 -16 -17 -17 -18 -17 -15 -15 -15 -18 -16 -14 -13 -11 -12 -12 -11 -11 -12 -12 -12 -13 -12 -12 -12 -12 -12 -12 -12 -12 -12 -11 -10 -10 -10 -10 -10
-7 -7 -7 -8 -8 -9 -8 -9 -9 -10 -10 -11 -11 -12 -13 -12 -12 -16 -16 -17 -17 -17 -15 -15 -17 -17 -15 -14 -12 -11 -12 -13 -12 -13 -14 -14 -14 -14 -14 -14 -13 -13 -13 -13 -13 -12 -12 -12 -11 -10 -10 -10 -10 -9
-7 -7 -8 -7 -8 -10 -10 -10 -10 -11 -12 -12 -11 -11 -12 -15 -16 -17 -17 -17 -16 -15 -16 -18 -18 -16 -14 -13 -12 -12 -12 -13 -14 -14 -14 -14 -14 -14 -14 -13 -13 -14 -13 -13 -13 -12 -12 -12 -12 -11 -11 -10 -9 -9
-8 -9 -9 -9 -8 -9 -11 -11 -11 -12 -12 -13 -14 -15 -15 -15 -16 -15 -15 -16 -19 -21 -21 -18 -16 -15 -13 -11 -11 -12 -12 -14 -14 -14 -14 -14 -13 -13 -13 -13 -14 -14 -14 -13 -12 -12 -11 -11 -11 -10 -10 -10 -9 -9
-9 -10 -10 -10 -11 -11 -11 -11 -12 -12 -13 -13 -13 -14 -14 -15 -15 -17 -22 -23 -24 -21 -19 -17 -15 -14 -11 -10 -11 -12 -13 -14 -14 -14 -14 -13 -13 -13 -13 -13 -13 -14 -14 -13 -12 -12 -11 -11 -11 -10 -10 -10 -10 -10
-10 -10 -9 -10 -10 -11 -10 -10 -11 -11 -12 -12 -12 -13 -14 -17 -22 -23 -24 -23 -21 -19 -18 -17 -14 -12 -10 -10 -12 -13 -14 -14 -14 -14 -13 -13 -13 -14 -14 -14 -13 -13 -13 -13 -13 -12 -12 -12 -11 -11 -11 -12 -12 -12
-10 -10 -10 -10 -10 -11 -11 -12 -11 -12 -12 -12 -14 -15 -16 -19 -21 -23 -23 -22 -20 -17 -16 -14 -12 -10 -10 -11 -13 -14 -14 -14 -14 -13 -13 -13 -13 -13 -14 -14 -14 -14 -13 -13 -13 -13 -13 -12 -12 -12 -12 -12 -12 -12

GFSWCAN_850_dewp_069.txt.gz
Dewpoint
-2 -2 -2 -2 -2 -2 -2 -1 0 1 2 2 1 -0 -4 -6 -6 -5 -7 -4 -5 -3 -3 -4 -4 -5 -4 -3 0 -2 -0 1 2 3 2 2 1 -1 0 -0 1 1 1 2 1 3 2 -3 -1 1 -2 -3 -3 -3
-2 -2 -2 -2 -2 -2 -3 -0 1 2 2 2 1 -2 -5 -6 -6 -5 -6 -4 -6 -5 -3 -3 -3 -4 -3 -3 -2 -1 -0 0 1 1 1 0 0 -0 -0 1 -2 2 -0 1 -0 0 -4 -3 -3 -3 -3 -2 -2 -2
-2 -3 -2 -2 -2 -2 -4 -0 1 2 2 1 -0 -2 -2 -6 -6 -6 -4 -5 -7 -4 -4 -5 -5 -5 -5 -4 -1 -1 -1 -1 -0 0 0 0 1 0 1 1 -0 -1 -1 0 -0 -1 -3 -2 -2 -3 -3 -3 -2 -2
-2 -2 -2 -2 -2 -3 -3 -0 1 1 1 0 0 -2 -6 -6 -6 -6 -5 -6 -6 -6 -4 -3 -4 -4 -5 -5 -3 -3 -2 -2 -1 -0 -0 -1 0 -2 -0 -1 -0 -1 -2 -2 -2 -4 -3 -3 -3 -3 -3 -3 -3 -3
-2 -2 -2 -2 -2 -4 -2 -0 1 1 0 0 0 -0 -3 -7 -7 -6 -6 -7 -7 -5 -3 -3 -3 -3 -3 -5 -4 -3 -3 -2 -2 -1 -2 -2 -2 -2 -3 -4 -2 -3 -2 -2 -2 -3 -3 -3 -2 -3 -4 -5 -4 -3
-2 -2 -2 -2 -3 -4 -1 0 1 1 0 0 -0 -1 -3 -6 -6 -6 -5 -5 -4 -7 -5 -3 -3 -3 -3 -4 -4 -3 -3 -3 -3 -3 -3 -4 -4 -2 -3 -3 -5 -5 -5 -5 -3 -4 -3 -3 -3 -3 -7 -6 -6 -6
-2 -2 -2 -2 -3 -5 -0 1 1 0 0 -0 -1 -2 -3 -5 -5 -5 -6 -6 -7 -11 -9 -3 -3 -4 -3 -4 -4 -4 -5 -4 -4 -4 -4 -4 -4 -3 -3 -3 -6 -6 -4 -3 -4 -4 -3 -3 -6 -9 -9 -10 -9 -9
-2 -2 -2 -2 -4 -5 0 1 0 0 0 -0 -1 -3 -4 -5 -6 -6 -7 -8 -9 -11 -8 -6 -4 -3 -3 -4 -3 -3 -4 -3 -3 -3 -4 -4 -5 -5 -4 -5 -5 -5 -6 -5 -7 -9 -9 -9 -10 -10 -9 -9 -9 -9
-2 -2 -2 -2 -4 -4 1 1 0 -0 -0 -1 -3 -4 -6 -6 -6 -6 -11 -17 -16 -15 -3 -5 -6 -6 -4 -4 -3 -4 -3 -3 -4 -3 -4 -4 -4 -4 -5 -5 -6 -7 -7 -8 -11 -12 -12 -12 -12 -12 -11 -10 -8 -9
-2 -2 -3 -5 0 0 1 0 -0 -0 -1 -2 -5 -5 -6 -6 -6 -7 -9 -16 -16 -14 -11 -5 -4 -4 -4 -4 -4 -4 -4 -2 -5 -3 -5 -4 -3 -5 -6 -7 -10 -11 -12 -13 -15 -15 -15 -16 -14 -13 -13 -11 -10 -10
-3 -3 -4 -3 1 1 1 0 -0 -1 -3 -5 -6 -5 -6 -6 -9 -12 -10 -10 -6 -5 -5 -4 -4 -4 -3 -3 -3 -4 -3 -3 -2 -3 -3 -3 -1 -5 -8 -12 -14 -15 -16 -15 -14 -13 -12 -12 -12 -10 -10 -11 -11 -11
-3 -4 -5 -1 1 1 -0 -0 -1 -4 -6 -6 -7 -6 -7 -10 -12 -10 -8 -6 -4 -4 -4 -5 -3 -3 -4 -4 -4 -4 -4 -4 -2 -3 -3 -3 -2 -8 -13 -15 -16 -17 -17 -17 -16 -15 -14 -12 -11 -10 -11 -14 -16 -15
-4 -4 -4 -1 -0 -0 -1 -0 -3 -6 -6 -6 -7 -10 -8 -11 -11 -14 -11 -5 -6 -3 -4 -4 -6 -4 -4 -5 -5 -5 -4 -3 -4 -4 -3 -3 -3 -9 -13 -16 -17 -16 -15 -15 -15 -14 -13 -12 -11 -12 -15 -18 -18 -18
-5 -5 -4 -2 -0 -0 -0 -1 -5 -5 -6 -12 -12 -11 -10 -11 -8 -5 -5 -5 -3 -5 -5 -5 -4 -4 -5 -5 -5 -8 -4 -4 -6 -6 -6 -5 -7 -12 -16 -16 -15 -15 -14 -14 -14 -13 -13 -13 -12 -13 -17 -18 -16 -17
-5 -5 -1 0 0 -0 -0 -2 -3 -5 -12 -12 -10 -13 -9 -6 -4 -3 -3 -4 -4 -6 -8 -5 -5 -5 -5 -6 -5 -5 -5 -7 -6 -6 -5 -5 -10 -16 -16 -15 -14 -15 -15 -15 -14 -13 -12 -12 -12 -14 -17 -16 -16 -16
-4 -2 -0 0 0 -0 -1 -2 -3 -8 -14 -10 -9 -7 -5 -6 -5 -4 -4 -4 -6 -8 -9 -9 -6 -7 -5 -6 -6 -8 -8 -7 -7 -7 -4 -9 -15 -15 -15 -16 -17 -17 -17 -17 -17 -17 -14 -12 -11 -15 -15 -12 -9 -9
-1 0 -0 -0 -1 -1 -1 -3 -9 -11 -9 -8 -6 -6 -5 -6 -4 -5 -5 -7 -7 -9 -6 -7 -10 -8 -6 -7 -5 -8 -8 -8 -3 -6 -14 -14 -14 -15 -16 -17 -15 -14 -14 -13 -13 -13 -14 -15 -13 -14 -12 -9 -7 -7
-1 0 -0 -1 -1 -1 -4 -7 -11 -10 -6 -5 -6 -6 -5 -6 -6 -7 -8 -8 -10 -12 -7 -9 -7 -8 -8 -10 -8 -7 -6 -5 -5 -7 -13 -14 -14 -15 -15 -16 -14 -14 -13 -13 -12 -13 -14 -15 -15 -14 -13 -10 -6 -8
0 -0 -1 -1 -2 -5 -8 -10 -10 -6 -5 -6 -6 -6 -6 -6 -8 -9 -10 -10 -12 -13 -13 -11 -10 -9 -8 -8 -7 -8 -10 -11 -12 -13 -14 -16 -17 -16 -16 -15 -14 -13 -12 -12 -12 -13 -14 -14 -14 -13 -12 -11 -7 -7
-0 -1 -1 -2 -6 -12 -11 -8 -9 -8 -7 -8 -7 -7 -6 -6 -8 -10 -12 -13 -14 -15 -14 -11 -10 -10 -11 -13 -14 -14 -13 -13 -14 -15 -17 -18 -16 -15 -14 -12 -12 -12 -12 -12 -13 -14 -13 -12 -13 -13 -12 -10 -10 -10
-1 -1 -3 -7 -11 -12 -9 -9 -8 -8 -8 -7 -7 -7 -6 -7 -8 -11 -12 -13 -14 -12 -11 -11 -12 -13 -14 -14 -13 -13 -14 -16 -16 -15 -14 -14 -15 -14 -14 -13 -13 -13 -13 -13 -13 -12 -11 -11 -11 -11 -11 -10 -9 -9
-2 -2 -5 -7 -13 -10 -9 -9 -9 -9 -8 -8 -7 -7 -6 -7 -8 -10 -11 -12 -10 -10 -11 -13 -14 -14 -14 -15 -16 -16 -16 -18 -18 -18 -17 -16 -16 -15 -14 -14 -13 -13 -11 -11 -10 -9 -9 -9 -9 -9 -9 -10 -10 -9
-3 -4 -6 -12 -10 -10 -8 -7 -8 -8 -7 -8 -8 -8 -8 -10 -10 -11 -10 -9 -9 -11 -12 -13 -14 -17 -18 -16 -15 -16 -19 -22 -20 -16 -15 -14 -13 -12 -11 -11 -10 -10 -9 -9 -9 -9 -9 -9 -9 -9 -9 -9 -10 -10
-4 -7 -11 -10 -10 -7 -8 -8 -8 -8 -7 -6 -8 -8 -9 -11 -12 -10 -12 -9 -12 -12 -12 -14 -19 -18 -17 -16 -16 -18 -19 -17 -15 -14 -12 -12 -12 -11 -11 -10 -11 -11 -10 -10 -10 -10 -10 -10 -10 -10 -10 -9 -9 -10
-9 -8 -10 -8 -8 -8 -8 -8 -7 -8 -7 -7 -8 -10 -11 -12 -11 -13 -12 -11 -12 -12 -14 -19 -18 -16 -16 -15 -17 -17 -15 -14 -13 -12 -12 -12 -11 -11 -12 -12 -12 -12 -12 -11 -12 -12 -12 -13 -13 -12 -11 -10 -10 -10
-6 -8 -8 -10 -9 -8 -7 -7 -7 -7 -7 -9 -11 -12 -11 -11 -13 -13 -11 -13 -13 -16 -20 -19 -17 -15 -15 -17 -18 -17 -15 -14 -12 -12 -13 -13 -13 -13 -12 -12 -12 -13 -13 -13 -13 -13 -13 -13 -13 -13 -12 -11 -10 -10
-8 -9 -9 -10 -10 -10 -9 -8 -7 -8 -9 -10 -11 -11 -11 -12 -13 -13 -15 -15 -16 -19 -19 -17 -15 -15 -18 -17 -16 -14 -12 -12 -12 -13 -13 -14 -14 -13 -14 -13 -14 -13 -13 -13 -13 -13 -13 -13 -13 -13 -12 -11 -11 -11
-7 -8 -9 -9 -9 -9 -8 -8 -8 -9 -10 -11 -12 -11 -12 -12 -12 -15 -16 -18 -18 -18 -16 -15 -17 -19 -18 -17 -15 -12 -12 -12 -12 -13 -14 -14 -14 -14 -14 -13 -13 -13 -13 -14 -13 -13 -13 -13 -13 -13 -12 -11 -11 -11
-7 -8 -9 -7 -8 -9 -10 -9 -10 -11 -12 -13 -12 -11 -13 -15 -16 -16 -17 -17 -17 -16 -15 -20 -21 -18 -17 -14 -12 -11 -12 -12 -14 -14 -14 -14 -14 -14 -14 -13 -13 -14 -14 -14 -13 -13 -12 -12 -12 -11 -11 -11 -11 -10
-8 -8 -8 -9 -8 -9 -11 -11 -11 -11 -11 -13 -14 -15 -15 -15 -16 -18 -17 -16 -16 -19 -22 -20 -19 -18 -16 -13 -11 -11 -12 -14 -14 -14 -14 -13 -13 -13 -14 -14 -14 -14 -14 -14 -13 -13 -12 -11 -11 -11 -11 -10 -10 -10
-8 -9 -10 -11 -11 -11 -11 -12 -12 -12 -12 -13 -14 -15 -14 -15 -15 -15 -16 -22 -24 -20 -19 -18 -18 -16 -13 -10 -10 -11 -14 -14 -14 -14 -13 -13 -13 -13 -14 -14 -14 -14 -14 -13 -13 -13 -12 -12 -12 -11 -11 -11 -11 -11
-10 -10 -10 -10 -11 -11 -11 -11 -11 -12 -12 -13 -14 -15 -16 -18 -20 -22 -25 -24 -21 -19 -17 -17 -16 -13 -11 -10 -11 -13 -14 -14 -14 -14 -14 -14 -14 -13 -14 -14 -14 -14 -13 -13 -13 -13 -13 -13 -12 -12 -12 -12 -12 -12
-10 -10 -11 -11 -10 -11 -12 -12 -12 -12 -13 -13 -14 -16 -19 -22 -24 -24 -25 -23 -21 -17 -16 -15 -13 -12 -10 -10 -13 -14 -14 -14 -14 -14 -14 -14 -13 -14 -13 -13 -13 -13 -13 -13 -13 -13 -13 -13 -13 -13 -13 -13 -13 -13

GFSWCAN_850_dewp_072.txt.gz
Dewpoint
-2 -2 -2 -2 -2 -2 -2 -3 -0 1 2 2 2 1 0 -0 1 -1 -4 -4 -5 -3 -3 -3 -3 -3 -1 -0 0 -1 0 1 1 2 1 1 1 -1 0 -1 0 1 1 1 1 3 3 -3 -1 -0 -3 -3 -3 -3
-2 -2 -2 -2 -2 -2 -2 -2 0 1 2 1 1 1 -0 -1 -1 -2 -5 -4 -5 -4 -3 -3 -3 -3 -2 -2 -1 -1 -1 1 1 1 0 -0 1 -1 -1 1 -2 1 -0 1 -0 1 -3 -3 -3 -3 -3 -3 -3 -3
-2 -2 -2 -2 -2 -2 -2 -3 1 2 2 1 1 0 -2 -1 -2 -2 -5 -5 -6 -4 -5 -5 -4 -4 -3 -2 -1 -1 -0 -0 0 0 -1 -0 0 -0 1 1 -1 -1 -1 0 -0 -2 -2 -2 -3 -3 -3 -3 -3 -3
-2 -2 -1 -2 -2 -2 -2 -2 1 2 1 1 0 -0 -1 -2 -3 -4 -4 -6 -7 -6 -4 -3 -4 -4 -5 -4 -3 -2 -1 -1 -0 -0 -1 -1 -0 -2 -0 -1 -1 -1 -2 -2 -3 -3 -2 -2 -2 -3 -3 -4 -4 -4
-2 -2 -2 -2 -2 -2 -2 -2 0 1 1 0 -0 -1 -2 -3 -5 -3 -5 -6 -7 -7 -3 -3 -3 -3 -4 -4 -4 -2 -2 -1 -1 -1 -3 -2 -2 -2 -4 -4 -2 -3 -2 -2 -1 -4 -4 -3 -2 -3 -5 -9 -7 -7
-2 -3 -2 -2 -2 -2 -5 -1 1 1 0 0 -0 -2 -4 -5 -5 -4 -5 -5 -6 -7 -5 -3 -4 -3 -4 -4 -3 -3 -3 -2 -3 -3 -3 -3 -4 -3 -3 -3 -5 -5 -5 -5 -3 -4 -3 -3 -3 -5 -10 -10 -10 -10
-2 -2 -2 -2 -2 -2 -2 1 1 0 0 0 -0 -2 -5 -5 -4 -5 -5 -5 -5 -8 -6 -3 -3 -4 -3 -4 -5 -5 -4 -4 -5 -4 -4 -4 -5 -4 -4 -3 -6 -5 -4 -4 -5 -5 -4 -5 -9 -10 -10 -11 -10 -9
-2 -2 -2 -2 -2 -3 -1 1 1 0 -0 -0 -1 -4 -3 -3 -4 -5 -5 -5 -7 -8 -9 -5 -3 -4 -3 -4 -4 -4 -4 -4 -4 -4 -4 -5 -5 -5 -4 -5 -5 -5 -5 -6 -9 -12 -12 -11 -11 -12 -13 -12 -11 -11
-2 -2 -3 -3 -1 -3 -1 1 1 0 -0 -1 -2 -3 -5 -6 -6 -5 -5 -7 -13 -12 -5 -7 -5 -4 -4 -3 -3 -4 -3 -3 -4 -4 -4 -4 -4 -4 -5 -5 -6 -6 -7 -11 -11 -12 -13 -13 -14 -14 -13 -12 -10 -11
-1 -3 -3 -3 -1 -4 -1 0 1 -0 -0 -2 -5 -5 -6 -6 -8 -13 -14 -11 -13 -12 -6 -6 -4 -4 -4 -4 -4 -4 -4 -3 -6 -3 -5 -4 -3 -5 -6 -6 -9 -12 -12 -13 -17 -17 -17 -17 -14 -13 -12 -11 -11 -13
-0 -3 -3 -2 -2 -6 -2 1 0 -0 -2 -4 -6 -5 -5 -6 -7 -9 -9 -11 -7 -7 -4 -4 -4 -4 -3 -4 -3 -4 -3 -3 -2 -3 -4 -4 -1 -5 -8 -11 -14 -15 -16 -17 -17 -15 -14 -13 -12 -12 -13 -12 -13 -17
-2 -3 -3 -3 -4 -3 -0 1 0 -1 -4 -6 -6 -6 -5 -7 -12 -9 -7 -7 -6 -6 -5 -4 -4 -3 -3 -4 -4 -4 -5 -4 -4 -3 -4 -3 -4 -6 -11 -14 -16 -17 -17 -17 -16 -15 -14 -13 -13 -12 -11 -12 -16 -18
-2 -3 -4 -3 1 1 1 0 -0 -4 -7 -6 -7 -7 -9 -11 -13 -14 -14 -9 -3 -4 -4 -4 -5 -5 -5 -5 -5 -4 -6 -5 -4 -3 -3 -5 -4 -10 -12 -16 -16 -15 -15 -15 -15 -14 -13 -13 -13 -12 -12 -12 -15 -18
-2 -3 -4 -0 1 1 1 0 -2 -5 -5 -9 -12 -10 -8 -9 -9 -8 -6 -7 -6 -5 -5 -5 -4 -5 -5 -6 -5 -8 -4 -4 -6 -7 -6 -7 -4 -8 -12 -15 -15 -15 -15 -16 -16 -17 -18 -18 -17 -14 -12 -12 -15 -16
-4 -4 -0 0 1 0 -0 -1 -4 -4 -11 -12 -13 -9 -9 -7 -4 -3 -3 -4 -5 -5 -8 -6 -5 -5 -6 -6 -5 -5 -5 -7 -6 -6 -7 -4 -5 -9 -13 -14 -15 -16 -17 -18 -16 -15 -15 -16 -15 -16 -14 -12 -15 -13
-4 -3 -1 -1 -1 -0 -1 -2 -3 -9 -15 -11 -10 -7 -5 -5 -4 -4 -4 -5 -6 -9 -8 -9 -7 -8 -6 -6 -6 -7 -8 -7 -8 -8 -4 -5 -7 -11 -15 -15 -16 -17 -17 -15 -14 -14 -13 -13 -13 -15 -16 -16 -14 -11
-3 -2 -2 -1 -1 -1 -1 -2 -4 -11 -10 -8 -6 -6 -6 -6 -5 -4 -5 -7 -7 -10 -8 -9 -12 -9 -6 -7 -5 -8 -7 -8 -6 -4 -6 -12 -14 -14 -14 -15 -16 -17 -15 -14 -13 -13 -12 -12 -13 -14 -15 -16 -15 -13
-2 -3 -4 -2 -1 -2 -2 -2 -9 -10 -6 -6 -7 -5 -5 -5 -5 -6 -8 -7 -9 -11 -9 -11 -7 -9 -9 -10 -8 -7 -7 -5 -5 -8 -11 -11 -14 -15 -15 -15 -15 -15 -15 -13 -13 -11 -12 -12 -13 -13 -12 -12 -14 -13
-3 -3 -1 -0 -1 -2 -2 -4 -9 -6 -6 -6 -5 -6 -6 -6 -6 -7 -8 -10 -12 -13 -14 -14 -12 -10 -8 -9 -10 -8 -8 -8 -10 -12 -14 -17 -17 -16 -15 -14 -14 -13 -12 -11 -11 -11 -12 -12 -12 -11 -11 -10 -11 -12
-3 -0 -1 -0 -2 -6 -9 -8 -9 -8 -7 -7 -6 -6 -6 -7 -7 -8 -11 -13 -14 -16 -15 -12 -11 -12 -12 -13 -14 -14 -14 -14 -15 -18 -19 -18 -17 -18 -18 -17 -16 -15 -15 -14 -14 -13 -12 -11 -11 -10 -9 -9 -9 -10
-0 -1 -1 -1 -6 -11 -9 -9 -8 -7 -7 -7 -6 -7 -7 -8 -10 -11 -12 -14 -17 -13 -11 -11 -12 -13 -14 -14 -14 -14 -16 -17 -17 -16 -17 -22 -19 -16 -15 -13 -13 -12 -11 -11 -11 -10 -10 -9 -9 -9 -9 -9 -9 -9
-2 -2 -2 -4 -9 -11 -9 -9 -9 -8 -8 -8 -7 -7 -8 -8 -10 -11 -12 -14 -11 -10 -11 -12 -13 -14 -14 -14 -16 -17 -18 -20 -21 -20 -16 -14 -13 -12 -13 -12 -11 -11 -10 -10 -10 -9 -9 -10 -10 -10 -10 -9 -10 -10
-2 -2 -4 -9 -10 -9 -8 -7 -8 -8 -8 -9 -9 -9 -9 -8 -10 -12 -9 -11 -10 -12 -12 -12 -13 -15 -16 -16 -17 -17 -18 -19 -18 -16 -13 -12 -13 -13 -12 -12 -12 -12 -12 -12 -11 -11 -11 -11 -12 -12 -12 -12 -11 -11
-3 -2 -9 -10 -8 -7 -7 -7 -7 -7 -8 -8 -9 -9 -9 -10 -12 -12 -12 -11 -11 -10 -12 -13 -16 -17 -16 -16 -16 -17 -19 -19 -17 -14 -13 -13 -13 -13 -13 -14 -13 -13 -13 -13 -12 -13 -13 -13 -13 -13 -13 -13 -13 -11
-3 -6 -8 -8 -8 -9 -9 -9 -9 -9 -8 -8 -9 -9 -10 -11 -11 -12 -12 -13 -11 -11 -11 -15 -17 -16 -16 -16 -17 -18 -18 -16 -15 -14 -13 -13 -13 -14 -14 -14 -14 -14 -14 -14 -14 -14 -14 -14 -13 -13 -13 -13 -12 -12
-4 -6 -8 -9 -9 -9 -8 -8 -9 -8 -8 -9 -10 -12 -11 -10 -11 -12 -11 -12 -13 -13 -14 -19 -18 -16 -16 -16 -19 -18 -16 -15 -13 -13 -13 -13 -14 -14 -14 -14 -14 -14 -14 -14 -14 -14 -14 -13 -14 -14 -13 -13 -12 -12
-7 -9 -9 -10 -10 -9 -8 -8 -8 -7 -7 -8 -11 -10 -10 -11 -12 -13 -14 -13 -13 -16 -18 -18 -17 -16 -18 -20 -18 -16 -14 -12 -12 -13 -13 -14 -14 -14 -14 -13 -14 -14 -14 -13 -13 -13 -13 -13 -13 -13 -13 -12 -12 -12
-9 -9 -8 -9 -9 -10 -7 -7 -6 -7 -9 -12 -11 -10 -11 -11 -11 -15 -16 -15 -17 -19 -19 -17 -16 -20 -20 -18 -16 -13 -12 -12 -12 -14 -14 -14 -14 -14 -13 -13 -13 -13 -13 -14 -14 -13 -13 -13 -12 -12 -12 -12 -11 -11
-8 -9 -9 -8 -9 -10 -10 -8 -8 -10 -12 -13 -11 -11 -13 -14 -15 -16 -17 -18 -19 -18 -16 -18 -21 -19 -17 -16 -14 -12 -12 -12 -14 -15 -15 -14 -14 -14 -14 -14 -14 -14 -14 -14 -13 -13 -13 -12 -12 -12 -11 -11 -11 -11
-8 -8 -9 -10 -9 -10 -12 -11 -10 -11 -12 -14 -14 -15 -14 -14 -15 -18 -18 -18 -17 -16 -22 -21 -19 -18 -17 -14 -12 -11 -12 -14 -15 -14 -14 -14 -13 -13 -13 -14 -14 -14 -14 -14 -13 -13 -13 -12 -12 -11 -11 -11 -11 -11
-8 -9 -11 -11 -11 -12 -10 -11 -12 -13 -13 -14 -15 -15 -14 -15 -15 -16 -16 -16 -17 -22 -20 -18 -17 -16 -14 -13 -12 -11 -14 -15 -14 -14 -14 -14 -14 -14 -14 -14 -13 -14 -14 -13 -13 -13 -13 -13 -12 -12 -12 -12 -12 -12
-9 -9 -9 -9 -11 -11 -11 -12 -12 -12 -13 -15 -14 -15 -15 -15 -14 -16 -15 -20 -21 -19 -17 -16 -15 -14 -14 -12 -11 -13 -15 -14 -14 -14 -14 -14 -14 -14 -14 -14 -13 -13 -13 -13 -13 -13 -13 -13 -13 -13 -13 -13 -13 -13
-9 -10 -10 -10 -10 -11 -12 -13 -13 -13 -14 -14 -15 -17 -21 -23 -24 -21 -25 -22 -20 -18 -16 -16 -15 -14 -13 -11 -13 -14 -14 -14 -14 -14 -14 -14 -14 -14 -14 -14 -14 -14 -14 -14 -13 -13 -13 -13 -13 -13 -13 -13 -13 -13

GFSWCAN_850_dewp_075.txt.gz
Dewpoint
-2 -2 -2 -2 -2 -1 -2 -2 -1 2 2 2 2 2 2 2 1 -1 -3 -4 -4 -3 -2 -3 -3 -2 -0 -0 0 -0 0 0 1 1 1 1 0 -1 -0 -1 0 1 1 1 1 3 2 -3 -1 -1 -3 -3 -3 -3
-3 -2 -2 -2 -2 -1 -2 -2 -0 1 2 1 1 1 1 1 1 1 -3 -4 -4 -3 -2 -2 -2 -2 -1 -1 -1 -0 -1 0 0 0 0 -0 1 -1 -1 1 -2 1 -1 0 -0 0 -3 -3 -2 -3 -3 -3 -3 -3
-5 -3 -3 -2 -2 -1 -2 -3 1 2 1 1 1 1 0 0 1 0 -4 -5 -5 -4 -4 -4 -4 -3 -2 -1 -1 -1 -0 0 0 -0 -1 -1 0 -1 0 -0 -1 -1 -1 -0 -1 -2 -2 -2 -3 -3 -3 -3 -3 -4
-4 -3 -3 -2 -2 -2 -2 -3 1 1 1 1 0 0 -1 -0 0 -2 -4 -6 -6 -5 -4 -3 -4 -4 -3 -2 -2 -1 -1 -1 -0 -1 -2 -1 -0 -2 -1 -1 -1 -2 -2 -2 -2 -3 -2 -2 -3 -3 -3 -6 -8 -7
-3 -3 -2 -2 -3 -3 -2 -4 -0 0 1 1 0 1 -1 -2 -2 -2 -4 -6 -7 -7 -3 -3 -4 -4 -4 -3 -3 -2 -1 -0 -1 -1 -3 -2 -2 -3 -4 -4 -2 -3 -2 -1 -1 -4 -3 -3 -3 -3 -4 -10 -11 -10
-3 -3 -2 -2 -3 -3 -3 -5 -0 1 1 1 0 0 -2 -4 -3 -3 -4 -5 -6 -7 -6 -3 -4 -3 -4 -3 -3 -3 -2 -2 -3 -2 -3 -3 -3 -3 -3 -2 -5 -5 -4 -4 -4 -3 -3 -3 -3 -3 -8 -11 -10 -10
-4 -3 -2 -2 -3 -3 -4 -2 1 1 1 0 -2 -2 -4 -4 -3 -4 -5 -5 -6 -7 -6 -3 -4 -4 -4 -4 -4 -4 -4 -4 -4 -4 -4 -5 -5 -4 -4 -3 -6 -4 -4 -4 -5 -5 -4 -4 -8 -8 -10 -11 -11 -11
-4 -2 -2 -2 -3 -3 -3 1 1 1 1 0 -0 -5 -5 -4 -3 -4 -5 -4 -5 -10 -8 -5 -3 -4 -4 -4 -4 -5 -5 -5 -4 -4 -5 -5 -5 -5 -4 -5 -5 -4 -5 -7 -10 -12 -12 -11 -11 -11 -13 -14 -14 -14
-3 -2 -2 -2 -3 -3 -3 0 1 1 0 -0 -1 -3 -4 -4 -5 -4 -4 -4 -7 -12 -8 -6 -5 -4 -4 -4 -4 -4 -4 -4 -4 -4 -4 -5 -4 -5 -6 -6 -5 -5 -6 -8 -13 -13 -12 -13 -14 -14 -16 -15 -13 -13
-3 -3 -2 -2 -3 -3 -2 0 1 0 -0 -2 -4 -5 -6 -6 -6 -7 -9 -12 -12 -11 -5 -5 -4 -4 -4 -4 -4 -4 -4 -3 -6 -3 -5 -4 -4 -4 -6 -5 -6 -6 -10 -12 -13 -16 -14 -15 -15 -15 -14 -13 -11 -11
-3 -2 -2 -1 -3 -2 -3 0 0 0 -2 -4 -5 -5 -5 -6 -11 -8 -8 -10 -7 -7 -4 -4 -4 -4 -4 -5 -4 -4 -4 -4 -5 -4 -4 -5 -3 -5 -7 -8 -11 -13 -14 -16 -16 -16 -15 -14 -14 -13 -14 -14 -13 -12
-2 -2 -2 -1 -3 -2 -3 -0 0 -1 -4 -5 -5 -5 -6 -7 -10 -11 -10 -8 -6 -7 -5 -4 -4 -3 -4 -4 -4 -4 -4 -4 -5 -4 -5 -5 -5 -5 -8 -12 -14 -16 -16 -16 -15 -15 -15 -14 -13 -13 -13 -12 -12 -12
-2 -1 -1 -1 -3 -2 -3 -0 0 -1 -5 -5 -6 -6 -8 -9 -14 -15 -14 -9 -6 -5 -4 -4 -5 -5 -5 -5 -5 -6 -6 -5 -4 -3 -5 -5 -5 -5 -8 -13 -14 -15 -15 -15 -16 -15 -15 -17 -18 -17 -16 -16 -15 -12
-2 -1 -1 -2 -4 -3 -3 -1 0 -1 -5 -6 -8 -8 -7 -9 -10 -10 -7 -6 -5 -5 -4 -6 -4 -5 -5 -6 -6 -7 -4 -5 -5 -6 -6 -7 -6 -5 -11 -12 -13 -14 -14 -16 -18 -18 -17 -15 -15 -15 -14 -14 -15 -15
-1 -2 -2 -3 -4 -4 -3 -1 0 -1 -4 -9 -12 -9 -9 -8 -4 -4 -4 -4 -5 -5 -7 -6 -6 -6 -6 -5 -5 -5 -4 -7 -6 -6 -7 -6 -6 -5 -7 -10 -13 -14 -15 -17 -18 -16 -15 -14 -14 -14 -13 -13 -14 -15
-1 -1 -1 -5 -4 0 -0 -0 -1 -2 -11 -10 -9 -8 -5 -5 -4 -4 -4 -5 -5 -7 -8 -9 -7 -7 -5 -6 -6 -7 -8 -7 -8 -8 -4 -5 -5 -6 -8 -13 -15 -15 -16 -16 -17 -15 -14 -13 -13 -12 -12 -13 -13 -12
-1 -2 -3 1 0 -0 -1 -1 -2 -3 -9 -7 -6 -7 -7 -6 -5 -4 -5 -5 -7 -8 -8 -9 -11 -8 -7 -7 -6 -8 -9 -9 -8 -5 -5 -5 -7 -13 -13 -14 -16 -16 -15 -15 -15 -14 -13 -12 -12 -11 -11 -12 -11 -12
-1 -4 -0 -1 -1 -1 -2 -2 -2 -3 -6 -6 -6 -5 -5 -5 -5 -5 -6 -7 -8 -10 -12 -10 -7 -9 -9 -10 -8 -8 -7 -5 -6 -6 -10 -11 -11 -15 -16 -16 -16 -15 -15 -15 -13 -12 -12 -11 -11 -12 -12 -11 -10 -10
-2 -3 -1 -1 -1 -2 -2 -2 -4 -7 -6 -5 -5 -5 -5 -5 -6 -6 -7 -8 -10 -10 -13 -14 -12 -10 -9 -11 -11 -7 -6 -7 -7 -8 -11 -15 -17 -16 -16 -18 -18 -17 -16 -15 -14 -13 -12 -11 -11 -9 -9 -9 -9 -9
-3 -2 -1 -2 -1 -2 -2 -4 -5 -7 -6 -6 -6 -6 -6 -6 -6 -7 -9 -11 -12 -13 -15 -12 -12 -13 -13 -12 -13 -14 -13 -14 -14 -17 -19 -18 -20 -21 -16 -14 -13 -13 -13 -12 -11 -11 -10 -10 -9 -9 -10 -10 -9 -10
-2 -2 -2 -2 -2 -2 -3 -5 -7 -7 -7 -6 -6 -7 -7 -7 -9 -10 -11 -12 -14 -14 -10 -11 -12 -13 -14 -14 -14 -15 -15 -20 -20 -22 -22 -23 -19 -15 -13 -13 -13 -13 -12 -12 -12 -12 -11 -11 -11 -11 -11 -11 -11 -11
-2 -2 -3 -2 -3 -4 -7 -8 -8 -7 -7 -6 -7 -8 -9 -10 -11 -12 -13 -13 -11 -10 -11 -13 -14 -15 -14 -14 -15 -18 -19 -20 -21 -22 -20 -18 -15 -15 -13 -13 -13 -14 -13 -13 -12 -12 -12 -13 -13 -13 -13 -13 -13 -13
-2 -3 -3 -3 -4 -6 -7 -8 -7 -7 -6 -7 -8 -9 -9 -9 -11 -13 -10 -11 -9 -11 -13 -15 -15 -14 -15 -17 -18 -18 -18 -19 -20 -19 -16 -15 -13 -13 -13 -13 -14 -13 -13 -13 -13 -14 -14 -14 -14 -13 -13 -13 -13 -13
-2 -2 -3 -5 -6 -7 -7 -6 -6 -7 -7 -8 -9 -9 -10 -10 -11 -12 -10 -10 -9 -11 -13 -15 -14 -15 -16 -16 -17 -17 -18 -19 -19 -16 -14 -13 -14 -13 -14 -14 -14 -14 -14 -14 -14 -14 -14 -14 -14 -13 -14 -14 -13 -12
-2 -4 -4 -7 -7 -7 -7 -7 -7 -7 -7 -9 -9 -10 -11 -11 -9 -10 -11 -11 -9 -11 -13 -14 -15 -18 -18 -17 -17 -17 -19 -19 -17 -15 -13 -13 -13 -14 -14 -14 -14 -14 -14 -14 -14 -14 -14 -14 -13 -13 -13 -13 -13 -13
-4 -6 -6 -7 -9 -9 -8 -8 -8 -8 -8 -9 -10 -11 -10 -9 -9 -10 -10 -13 -11 -13 -13 -14 -18 -17 -16 -17 -17 -20 -20 -17 -14 -13 -13 -14 -14 -14 -14 -14 -14 -14 -14 -14 -14 -14 -14 -13 -13 -13 -13 -13 -12 -12
-6 -8 -8 -9 -10 -9 -8 -8 -9 -7 -8 -9 -10 -10 -9 -10 -11 -12 -13 -13 -13 -14 -14 -17 -19 -18 -17 -19 -21 -19 -17 -13 -13 -13 -14 -15 -14 -14 -14 -14 -14 -14 -14 -14 -14 -14 -13 -13 -13 -12 -12 -12 -12 -12
-9 -9 -8 -9 -9 -9 -7 -7 -6 -6 -8 -9 -10 -8 -10 -10 -10 -13 -13 -14 -14 -13 -16 -17 -16 -17 -21 -21 -18 -16 -13 -13 -12 -14 -15 -15 -14 -14 -14 -14 -14 -14 -14 -14 -14 -13 -13 -13 -12 -12 -12 -12 -11 -11
-8 -9 -10 -9 -9 -10 -9 -8 -8 -9 -10 -11 -9 -10 -12 -12 -14 -15 -14 -14 -16 -20 -19 -18 -18 -22 -20 -18 -16 -14 -13 -12 -15 -15 -15 -14 -14 -14 -14 -14 -14 -14 -14 -14 -13 -13 -13 -13 -12 -12 -12 -12 -11 -11
-8 -8 -9 -10 -9 -10 -11 -10 -10 -11 -12 -13 -14 -15 -13 -13 -14 -15 -16 -18 -19 -18 -18 -22 -23 -19 -17 -15 -14 -13 -12 -14 -15 -15 -15 -15 -14 -14 -14 -14 -14 -14 -14 -14 -13 -13 -13 -13 -13 -12 -12 -12 -12 -12
-8 -9 -11 -11 -11 -11 -10 -10 -10 -13 -15 -15 -15 -15 -14 -14 -14 -15 -16 -16 -16 -17 -24 -22 -18 -16 -16 -14 -13 -12 -14 -15 -15 -15 -15 -15 -14 -14 -14 -14 -14 -14 -14 -14 -13 -13 -13 -13 -13 -13 -13 -13 -13 -13
-9 -9 -9 -10 -10 -10 -10 -10 -13 -14 -15 -16 -15 -15 -14 -14 -14 -14 -15 -16 -17 -23 -21 -18 -17 -16 -15 -14 -12 -13 -15 -15 -15 -15 -14 -14 -14 -14 -14 -14 -14 -14 -14 -14 -14 -14 -14 -14 -13 -13 -13 -13 -13 -13
-9 -9 -9 -9 -9 -9 -11 -13 -14 -15 -15 -15 -16 -18 -20 -19 -15 -16 -16 -16 -20 -22 -18 -17 -17 -16 -14 -12 -13 -15 -15 -15 -15 -14 -14 -14 -14 -14 -14 -14 -14 -14 -14 -14 -14 -14 -14 -14 -14 -14 -13 -13 -13 -13

GFSWCAN_850_dewp_078.txt.gz
Dewpoint
-30 -14 -3 -1 -1 -2 -1 -2 1 2 2 2 3 2 2 1 -1 -1 -4 -5 -3 -2 -2 -2 -2 -1 -0 -0 0 0 0 0 0 1 1 1 -0 -1 -0 -1 0 1 0 1 1 2 1 -3 -2 -2 -3 -3 -3 -3
-26 -13 -2 -1 -2 -2 -1 -1 1 2 2 1 1 2 3 2 1 -2 -5 -3 -2 -1 -2 -2 -2 -1 -1 -1 -0 -0 -1 -0 -0 0 -0 -0 0 -2 -2 0 -2 0 -1 -0 -0 -1 -3 -3 -2 -3 -3 -3 -3 -3
-21 -9 -3 -1 -1 -1 -1 -2 2 2 1 1 1 2 2 2 1 -1 -5 -4 -3 -3 -3 -3 -3 -2 -2 -1 -0 -1 -0 0 0 -1 -2 -1 0 -2 -0 -1 -1 -2 -2 -1 -1 -3 -3 -2 -3 -3 -3 -3 -3 -4
-19 -8 -4 -2 -1 -2 -2 -2 1 1 1 1 1 1 1 1 1 0 -4 -6 -5 -5 -4 -3 -4 -3 -3 -2 -1 -1 -1 -0 -0 -1 -2 -1 -1 -2 -1 -2 -1 -2 -2 -2 -2 -3 -3 -3 -3 -3 -3 -5 -8 -8
-17 -8 -4 -3 -1 -2 -3 -3 0 1 1 1 1 0 -1 -1 -1 -3 -5 -6 -6 -7 -3 -4 -4 -4 -3 -3 -2 -1 -1 -0 -1 -2 -3 -2 -2 -3 -4 -4 -2 -3 -2 -1 -1 -4 -3 -4 -3 -3 -3 -7 -11 -11
-15 -7 -4 -3 -3 -2 -3 -4 -4 0 0 0 1 1 -1 -4 -4 -4 -5 -6 -6 -6 -6 -4 -4 -4 -4 -3 -3 -2 -1 -2 -3 -2 -3 -3 -3 -3 -3 -2 -5 -5 -4 -4 -4 -4 -4 -3 -3 -3 -4 -9 -10 -10
-13 -6 -5 -3 -2 -3 -3 -4 -3 -0 -0 0 0 0 -2 -3 -4 -5 -5 -4 -6 -7 -7 -5 -5 -4 -4 -4 -4 -4 -3 -4 -4 -4 -4 -5 -4 -4 -4 -3 -6 -5 -4 -4 -4 -4 -4 -4 -6 -6 -8 -10 -12 -14
-12 -5 -3 -3 -2 -3 -4 -0 1 0 0 0 -1 -2 -4 -3 -4 -4 -5 -4 -6 -9 -7 -5 -5 -4 -4 -5 -4 -5 -5 -5 -5 -5 -5 -5 -6 -5 -4 -5 -6 -4 -4 -6 -8 -10 -12 -10 -9 -11 -13 -14 -15 -15
-10 -5 -3 -3 -2 -3 -4 -0 1 1 0 -0 -1 -4 -4 -4 -4 -5 -4 -5 -6 -11 -7 -6 -5 -5 -4 -4 -4 -4 -4 -4 -4 -4 -4 -5 -5 -4 -6 -7 -6 -4 -6 -7 -9 -11 -11 -11 -14 -15 -16 -15 -14 -14
-8 -4 -3 -3 -3 -3 -4 -1 1 0 0 -0 -3 -5 -5 -5 -6 -5 -5 -5 -10 -10 -6 -7 -4 -5 -4 -4 -4 -4 -4 -3 -5 -4 -5 -4 -4 -5 -6 -6 -6 -5 -6 -9 -12 -15 -16 -16 -17 -16 -15 -14 -13 -14
-6 -3 -3 -2 -3 -2 -3 -1 0 0 -1 -3 -4 -4 -5 -5 -6 -10 -8 -9 -8 -7 -5 -4 -4 -4 -4 -5 -4 -4 -6 -5 -5 -4 -4 -6 -4 -5 -6 -6 -5 -6 -9 -13 -15 -17 -16 -16 -16 -14 -15 -16 -17 -17
-6 -3 -2 -2 -2 -2 -4 -2 0 0 -2 -4 -4 -5 -6 -8 -8 -11 -9 -8 -6 -8 -5 -4 -4 -4 -4 -4 -4 -4 -5 -6 -4 -4 -6 -5 -6 -5 -6 -8 -10 -13 -15 -16 -16 -15 -15 -16 -15 -15 -18 -17 -15 -15
-6 -2 -1 -2 -2 -2 -3 -3 0 0 -2 -4 -5 -5 -7 -8 -12 -12 -13 -10 -5 -5 -4 -4 -5 -4 -5 -5 -5 -7 -7 -5 -4 -4 -6 -6 -6 -5 -6 -9 -12 -14 -15 -15 -15 -15 -16 -17 -18 -16 -15 -14 -13 -13
-4 -2 -2 -2 -1 -2 -3 -3 -0 -0 -2 -4 -6 -7 -8 -9 -8 -8 -8 -6 -7 -6 -4 -5 -5 -5 -5 -6 -7 -7 -4 -5 -5 -6 -7 -8 -7 -5 -6 -8 -12 -13 -13 -13 -15 -16 -17 -18 -16 -15 -14 -13 -13 -12
-3 -2 -2 -1 -1 -2 -3 -3 -0 -1 -2 -2 -8 -8 -7 -8 -6 -7 -7 -5 -5 -6 -5 -6 -6 -6 -7 -6 -5 -4 -4 -5 -6 -7 -8 -7 -8 -5 -6 -10 -10 -11 -13 -15 -16 -16 -16 -16 -14 -13 -13 -12 -12 -11
-2 -1 -1 -1 -2 -3 -2 -2 -0 -1 -2 -7 -9 -10 -7 -6 -5 -5 -4 -5 -5 -5 -8 -8 -8 -8 -6 -6 -6 -6 -8 -8 -8 -8 -7 -5 -6 -5 -6 -8 -11 -14 -15 -16 -16 -15 -14 -14 -13 -12 -12 -12 -11 -11
-1 -0 -1 -2 -2 -2 -1 -1 -1 -1 -1 -5 -7 -7 -7 -7 -6 -4 -5 -6 -5 -8 -8 -9 -13 -11 -7 -8 -6 -8 -8 -9 -10 -5 -4 -6 -6 -7 -12 -13 -15 -17 -16 -17 -17 -17 -16 -14 -14 -13 -13 -12 -11 -10
-1 -0 -2 -2 -2 -2 -1 -2 -1 -1 -4 -4 -7 -6 -6 -6 -5 -5 -6 -6 -6 -8 -12 -11 -7 -9 -9 -10 -8 -8 -8 -6 -5 -6 -8 -11 -12 -13 -16 -17 -17 -19 -18 -16 -14 -13 -13 -12 -11 -10 -9 -9 -9 -10
-1 -1 -2 -3 -3 -1 -2 -3 -2 -4 -5 -6 -6 -5 -6 -5 -5 -6 -6 -6 -9 -11 -11 -11 -13 -11 -9 -10 -10 -8 -5 -7 -7 -7 -9 -11 -16 -17 -19 -21 -16 -14 -13 -14 -13 -13 -12 -11 -11 -11 -11 -11 -11 -11
-1 -1 -2 -1 -1 -1 -2 -4 -3 -6 -6 -6 -5 -5 -5 -5 -5 -5 -6 -7 -10 -13 -15 -13 -12 -13 -13 -13 -12 -13 -11 -11 -12 -12 -16 -18 -19 -21 -18 -15 -14 -14 -14 -13 -14 -13 -13 -13 -14 -14 -14 -12 -12 -12
-1 -2 -1 -2 -1 -2 -3 -4 -5 -5 -7 -6 -5 -5 -6 -6 -6 -8 -8 -10 -13 -16 -10 -13 -13 -13 -14 -15 -14 -14 -15 -16 -21 -23 -23 -23 -20 -17 -16 -15 -14 -13 -14 -14 -14 -14 -14 -14 -14 -14 -14 -13 -13 -13
-2 -2 -2 -2 -2 -4 -4 -6 -7 -7 -6 -6 -6 -7 -8 -10 -11 -11 -12 -13 -14 -13 -13 -13 -13 -14 -14 -14 -15 -17 -22 -22 -21 -22 -22 -20 -18 -16 -14 -14 -14 -14 -14 -14 -14 -14 -14 -14 -14 -13 -13 -13 -14 -13
-2 -2 -3 -2 -4 -5 -7 -7 -7 -7 -6 -6 -7 -7 -7 -9 -11 -13 -12 -14 -11 -11 -13 -12 -14 -14 -15 -16 -20 -21 -20 -19 -20 -21 -20 -18 -15 -14 -14 -14 -15 -14 -14 -14 -14 -14 -14 -14 -13 -13 -13 -14 -13 -13
-2 -2 -2 -4 -5 -7 -6 -6 -6 -7 -7 -7 -7 -7 -9 -9 -11 -11 -10 -12 -10 -12 -13 -13 -14 -14 -17 -19 -19 -18 -18 -19 -21 -20 -18 -15 -14 -14 -14 -15 -14 -14 -14 -14 -14 -14 -14 -14 -13 -13 -13 -13 -13 -13
-3 -3 -4 -7 -7 -7 -9 -8 -7 -6 -6 -7 -8 -8 -9 -10 -10 -12 -11 -12 -9 -12 -13 -13 -14 -16 -21 -19 -18 -18 -18 -20 -20 -16 -15 -14 -14 -15 -15 -14 -14 -14 -14 -14 -14 -14 -14 -13 -13 -13 -12 -12 -12 -12
-4 -6 -5 -6 -7 -9 -9 -7 -8 -8 -8 -8 -8 -10 -10 -9 -9 -10 -10 -14 -13 -13 -14 -14 -15 -18 -19 -19 -18 -18 -20 -20 -16 -15 -14 -14 -15 -15 -14 -14 -14 -14 -14 -14 -14 -14 -14 -13 -13 -12 -12 -12 -12 -12
-6 -7 -6 -6 -8 -9 -8 -9 -9 -8 -8 -8 -9 -10 -8 -8 -9 -9 -15 -15 -15 -16 -16 -16 -16 -22 -21 -19 -18 -20 -19 -15 -15 -14 -14 -15 -15 -15 -14 -14 -14 -14 -14 -14 -14 -14 -13 -13 -13 -12 -12 -12 -12 -12
-6 -8 -10 -9 -9 -9 -8 -8 -7 -7 -7 -9 -10 -8 -7 -10 -10 -14 -13 -14 -15 -16 -15 -15 -18 -17 -17 -19 -21 -19 -16 -15 -14 -14 -15 -15 -15 -14 -14 -14 -14 -14 -14 -14 -14 -13 -13 -13 -13 -12 -12 -12 -12 -12
-8 -9 -10 -12 -10 -9 -9 -7 -7 -7 -10 -11 -8 -10 -12 -13 -13 -13 -13 -14 -14 -15 -15 -17 -16 -16 -20 -22 -18 -16 -15 -13 -14 -15 -15 -15 -15 -15 -14 -14 -14 -14 -14 -14 -13 -13 -13 -13 -13 -13 -13 -12 -12 -12
-8 -9 -10 -11 -10 -9 -11 -10 -10 -10 -11 -12 -14 -13 -12 -12 -12 -13 -13 -13 -13 -14 -19 -20 -19 -20 -23 -18 -17 -15 -13 -14 -15 -15 -15 -15 -15 -14 -14 -14 -14 -14 -14 -14 -14 -14 -13 -13 -13 -13 -13 -13 -13 -13
-9 -9 -11 -11 -11 -12 -11 -10 -10 -11 -13 -13 -12 -11 -11 -11 -12 -12 -12 -13 -16 -19 -19 -19 -22 -20 -18 -17 -15 -14 -14 -15 -15 -15 -15 -15 -15 -15 -15 -15 -15 -15 -15 -15 -14 -14 -14 -14 -14 -13 -13 -13 -13 -13
-9 -9 -10 -10 -11 -10 -10 -9 -10 -13 -15 -14 -14 -13 -13 -14 -13 -13 -14 -15 -16 -17 -22 -25 -21 -19 -18 -16 -14 -14 -16 -15 -15 -15 -15 -15 -15 -15 -15 -15 -15 -15 -15 -14 -14 -14 -14 -14 -14 -14 -14 -14 -13 -13
-9 -9 -10 -10 -10 -10 -10 -10 -11 -12 -14 -14 -16 -18 -17 -16 -13 -14 -14 -15 -16 -22 -23 -19 -17 -17 -17 -15 -13 -15 -15 -15 -15 -15 -14 -15 -15 -15 -14 -14 -14 -14 -14 -14 -14 -14 -14 -14 -14 -14 -14 -14 -13 -13

GFSWCAN_850_dewp_081.txt.gz
Dewpoint
-1 -31 -14 -6 -2 -2 -3 -1 1 1 1 2 2 2 2 1 -2 -5 -3 -4 -3 -1 -2 -2 -2 -1 -0 -0 -0 0 -0 0 -0 0 0 0 -0 -1 -1 -1 0 0 0 1 0 1 1 -3 -2 -1 -3 -3 -3 -3
-2 -33 -15 -7 -2 -2 -4 -2 1 2 1 1 2 2 2 1 -0 -3 -5 -2 -1 -1 -2 -2 -2 -2 -1 -1 -0 -0 -1 -0 -0 -0 -1 -1 -0 -2 -2 -0 -2 0 -1 -0 -1 -1 -4 -3 -2 -3 -3 -3 -3 -3
-4 -34 -15 -7 -2 -2 -3 -5 1 2 1 0 1 1 2 2 2 -5 -4 -3 -2 -2 -3 -3 -2 -2 -2 -1 -0 -1 -0 0 -0 -1 -2 -2 -0 -2 -0 -1 -2 -2 -2 -1 -1 -3 -3 -3 -3 -3 -3 -3 -3 -3
-9 -33 -16 -8 -3 -2 -4 -5 -0 1 1 -0 0 1 2 1 1 -0 -6 -5 -3 -4 -3 -3 -3 -3 -2 -1 -1 -1 -1 -0 -1 -2 -2 -2 -1 -2 -2 -2 -2 -2 -2 -2 -2 -3 -3 -3 -3 -3 -3 -3 -5 -8
-16 -32 -15 -8 -4 -2 -3 -4 -4 1 0 -1 -0 0 -1 0 0 -0 -5 -7 -7 -7 -4 -4 -4 -3 -3 -2 -2 -1 -1 -1 -1 -2 -3 -2 -2 -3 -4 -4 -2 -2 -2 -1 -1 -3 -3 -3 -3 -3 -3 -4 -7 -10
-23 -28 -14 -7 -4 -3 -3 -4 -6 -2 -0 -0 -0 1 -1 -2 -1 -3 -6 -6 -7 -6 -5 -5 -4 -4 -3 -3 -2 -1 -1 -2 -2 -2 -3 -3 -3 -3 -3 -2 -4 -3 -3 -3 -4 -4 -4 -3 -3 -3 -3 -5 -9 -10
-29 -25 -13 -7 -4 -3 -3 -4 -5 -6 -1 -0 -1 1 -1 -3 -3 -5 -5 -5 -7 -7 -7 -5 -5 -4 -4 -4 -3 -3 -3 -3 -4 -4 -4 -4 -3 -3 -4 -2 -6 -5 -4 -4 -4 -4 -4 -4 -5 -4 -5 -9 -12 -14
-32 -23 -13 -6 -3 -2 -3 -3 1 -1 0 -0 -0 -0 -2 -3 -4 -4 -5 -5 -6 -9 -7 -6 -6 -4 -4 -5 -4 -4 -5 -5 -5 -5 -5 -5 -5 -5 -4 -5 -6 -4 -4 -5 -6 -7 -11 -11 -8 -10 -12 -15 -16 -16
-32 -20 -10 -5 -3 -3 -4 -1 1 0 1 0 -2 -3 -4 -3 -3 -5 -5 -5 -6 -11 -8 -6 -5 -5 -4 -4 -4 -4 -5 -5 -4 -4 -5 -5 -5 -5 -5 -7 -6 -5 -5 -6 -7 -10 -12 -12 -12 -14 -16 -16 -15 -16
-31 -18 -10 -5 -3 -3 -4 -1 1 1 0 0 -3 -4 -5 -5 -5 -4 -4 -5 -7 -11 -8 -6 -5 -4 -4 -4 -4 -4 -4 -4 -6 -4 -4 -4 -4 -6 -7 -7 -7 -5 -6 -7 -10 -12 -14 -16 -16 -16 -16 -15 -15 -17
-28 -15 -8 -4 -3 -2 -3 -2 1 0 -0 -1 -4 -5 -5 -5 -4 -9 -8 -8 -10 -8 -6 -5 -4 -4 -4 -5 -4 -4 -5 -6 -6 -5 -4 -5 -4 -5 -5 -6 -6 -5 -5 -7 -12 -16 -17 -16 -15 -16 -17 -17 -18 -17
-23 -13 -7 -4 -3 -3 -2 -3 0 0 -1 -3 -4 -5 -5 -5 -7 -10 -10 -8 -7 -9 -5 -4 -4 -4 -4 -4 -4 -4 -5 -6 -4 -5 -6 -5 -6 -6 -6 -6 -6 -6 -9 -13 -16 -16 -15 -14 -16 -16 -17 -18 -16 -15
-19 -12 -7 -3 -2 -2 -2 -3 -0 0 -0 -3 -5 -5 -5 -7 -11 -10 -10 -9 -7 -6 -5 -4 -4 -4 -5 -5 -5 -7 -6 -5 -5 -4 -6 -7 -7 -5 -6 -7 -10 -12 -13 -14 -14 -14 -14 -16 -17 -17 -17 -16 -14 -13
-16 -10 -6 -2 -2 -2 -2 -2 -1 0 -0 -2 -2 -3 -5 -8 -8 -7 -7 -5 -8 -6 -5 -4 -5 -5 -5 -6 -7 -7 -5 -6 -4 -6 -7 -9 -8 -6 -6 -8 -9 -11 -13 -13 -13 -14 -16 -16 -16 -16 -15 -14 -13 -12
-13 -8 -4 -2 -2 -2 -2 -2 -1 -0 -1 -1 -3 -5 -6 -7 -7 -8 -8 -6 -6 -6 -5 -6 -6 -6 -6 -6 -6 -5 -4 -5 -6 -8 -8 -9 -8 -6 -6 -6 -9 -10 -10 -13 -15 -17 -17 -16 -15 -15 -14 -13 -12 -12
-11 -5 -3 -3 -2 -1 -1 -1 -1 -1 -1 -2 -4 -9 -10 -7 -7 -6 -6 -5 -6 -5 -7 -9 -6 -7 -6 -6 -5 -6 -8 -8 -8 -9 -8 -7 -6 -5 -6 -8 -9 -11 -14 -17 -17 -18 -18 -15 -14 -13 -13 -12 -11 -10
-6 -2 -3 -2 -1 -1 -1 -1 -1 -2 -1 -3 -5 -8 -9 -9 -8 -6 -6 -7 -6 -7 -6 -8 -9 -9 -8 -8 -7 -8 -8 -9 -10 -7 -5 -6 -6 -6 -7 -11 -14 -17 -18 -20 -18 -14 -14 -13 -13 -13 -13 -13 -12 -12
-3 -2 -2 -1 -1 -1 -1 -1 -2 -1 -3 -3 -6 -7 -7 -8 -6 -5 -5 -6 -5 -7 -11 -10 -9 -8 -7 -9 -9 -8 -9 -8 -5 -5 -8 -8 -11 -13 -15 -18 -19 -21 -16 -14 -15 -14 -14 -14 -14 -14 -14 -14 -14 -13
-3 -1 -2 -1 -1 -1 -2 -2 -2 -3 -4 -4 -4 -6 -6 -7 -7 -5 -5 -6 -6 -7 -11 -9 -11 -10 -9 -10 -10 -9 -7 -5 -6 -8 -10 -11 -13 -17 -19 -21 -18 -15 -16 -14 -14 -14 -14 -14 -14 -14 -14 -14 -13 -13
-2 -2 -1 -1 -1 -1 -2 -3 -3 -4 -6 -5 -6 -6 -6 -5 -5 -5 -5 -5 -6 -9 -12 -11 -11 -13 -14 -15 -12 -12 -9 -10 -10 -10 -11 -15 -18 -21 -20 -18 -17 -15 -14 -14 -14 -15 -15 -14 -14 -14 -13 -13 -13 -14
-1 -1 -1 -1 -1 -2 -2 -4 -4 -4 -7 -7 -6 -5 -5 -5 -5 -4 -5 -5 -9 -13 -10 -16 -15 -15 -13 -12 -11 -11 -12 -12 -14 -20 -21 -20 -21 -19 -18 -16 -14 -14 -14 -15 -15 -14 -14 -14 -14 -13 -13 -14 -13 -13
-2 -1 -2 -2 -2 -3 -3 -4 -5 -5 -6 -6 -5 -6 -6 -7 -6 -6 -6 -7 -10 -15 -17 -15 -14 -13 -13 -11 -11 -14 -16 -21 -24 -24 -24 -24 -21 -18 -16 -15 -14 -15 -15 -14 -14 -14 -14 -14 -13 -13 -13 -13 -13 -13
-2 -2 -2 -2 -3 -5 -6 -6 -6 -6 -6 -7 -6 -6 -6 -6 -6 -7 -10 -10 -11 -15 -16 -15 -13 -12 -13 -14 -16 -21 -21 -22 -22 -24 -25 -22 -18 -16 -14 -15 -15 -15 -14 -14 -14 -14 -14 -14 -13 -13 -13 -13 -13 -13
-2 -2 -2 -3 -4 -7 -6 -6 -6 -6 -7 -6 -6 -5 -8 -8 -9 -9 -8 -12 -15 -15 -15 -13 -12 -13 -15 -17 -20 -21 -20 -20 -22 -25 -23 -18 -15 -14 -15 -15 -15 -15 -14 -14 -14 -14 -14 -14 -13 -13 -12 -12 -12 -12
-2 -4 -3 -6 -6 -9 -10 -9 -8 -6 -6 -7 -7 -7 -8 -9 -7 -8 -10 -12 -15 -14 -14 -12 -13 -15 -17 -20 -20 -20 -19 -20 -24 -24 -18 -15 -14 -15 -15 -15 -15 -14 -14 -14 -14 -14 -14 -13 -13 -13 -12 -12 -12 -12
-3 -5 -5 -8 -8 -9 -9 -9 -8 -8 -10 -9 -8 -9 -10 -8 -7 -8 -10 -16 -16 -15 -14 -14 -14 -15 -18 -22 -23 -19 -20 -21 -24 -19 -16 -15 -16 -15 -15 -15 -14 -14 -14 -14 -14 -14 -14 -13 -13 -13 -12 -12 -12 -12
-5 -6 -6 -6 -7 -9 -9 -9 -9 -9 -9 -9 -10 -10 -8 -7 -8 -9 -14 -16 -16 -16 -16 -16 -15 -16 -20 -21 -19 -19 -21 -23 -19 -16 -15 -16 -16 -15 -15 -15 -14 -14 -14 -14 -14 -14 -14 -13 -13 -13 -12 -12 -12 -12
-5 -7 -7 -7 -9 -10 -11 -10 -9 -9 -9 -9 -10 -8 -7 -7 -8 -15 -16 -16 -15 -16 -16 -16 -15 -17 -21 -21 -19 -21 -23 -19 -16 -14 -16 -16 -15 -15 -15 -15 -14 -14 -14 -14 -14 -14 -13 -13 -13 -13 -13 -13 -13 -13
-9 -9 -8 -12 -9 -8 -9 -9 -9 -10 -11 -11 -8 -8 -9 -13 -14 -15 -14 -14 -13 -14 -15 -15 -15 -17 -18 -18 -20 -22 -18 -17 -15 -15 -16 -15 -16 -15 -15 -14 -14 -14 -14 -14 -14 -14 -14 -14 -13 -13 -13 -13 -13 -13
-9 -10 -10 -11 -9 -9 -10 -9 -8 -9 -11 -11 -11 -13 -14 -13 -13 -13 -12 -12 -12 -14 -15 -15 -17 -18 -19 -20 -23 -20 -17 -14 -15 -16 -15 -16 -16 -15 -15 -15 -15 -15 -15 -15 -15 -14 -14 -14 -14 -14 -13 -13 -13 -13
-9 -10 -11 -11 -11 -12 -11 -10 -10 -10 -11 -12 -11 -11 -10 -10 -11 -11 -10 -10 -11 -12 -14 -16 -18 -19 -20 -23 -21 -18 -15 -15 -16 -15 -15 -15 -16 -15 -15 -15 -15 -15 -15 -15 -15 -15 -15 -14 -14 -14 -14 -14 -14 -14
-9 -10 -11 -11 -12 -11 -10 -10 -10 -12 -11 -10 -10 -10 -10 -11 -10 -10 -9 -9 -12 -13 -16 -19 -20 -21 -21 -19 -17 -15 -15 -16 -16 -15 -15 -15 -15 -15 -15 -15 -15 -14 -14 -14 -15 -15 -15 -15 -15 -15 -14 -14 -14 -14
-10 -10 -10 -11 -10 -11 -10 -10 -10 -12 -13 -12 -13 -14 -15 -13 -11 -11 -10 -11 -13 -16 -19 -20 -23 -22 -20 -16 -15 -15 -16 -16 -15 -15 -15 -15 -15 -15 -15 -14 -14 -14 -14 -14 -14 -14 -14 -14 -14 -15 -14 -14 -14 -14

GFSWCAN_850_dewp_084.txt.gz
Dewpoint
1 -1 -27 -21 -8 -3 -2 1 2 0 1 2 2 1 1 -0 -2 -4 -3 -3 -2 -2 -1 -1 -1 -1 -0 -0 0 0 0 0 1 1 0 0 -0 -0 -0 -1 -0 0 0 0 0 1 -0 -3 -2 -1 -3 -3 -3 -3
2 -1 -24 -24 -9 -3 -3 -3 1 1 -0 -0 2 2 2 1 0 -3 -4 -1 -1 -2 -2 -1 -1 -1 -1 -1 -0 -0 -1 0 0 1 0 -1 -1 -1 -1 -1 -2 0 -1 -1 -1 -2 -4 -3 -2 -2 -3 -3 -2 -2
2 -2 -24 -25 -12 -4 -3 -5 1 2 1 -1 -1 1 2 2 2 -3 -4 -3 -2 -1 -2 -2 -2 -2 -1 -1 -0 -0 -1 -0 -0 -1 -1 -0 0 -2 -1 -1 -1 -2 -3 -1 -1 -2 -3 -2 -3 -3 -3 -3 -3 -3
2 -2 -24 -27 -12 -6 -3 -2 -5 0 1 -0 -1 -0 1 2 2 1 -5 -4 -2 -2 -1 -2 -2 -2 -2 -1 -1 -1 -1 -0 -1 -2 -1 -1 -0 -2 -1 -2 -2 -2 -1 -1 -1 -2 -3 -3 -3 -3 -3 -3 -3 -5
2 -2 -24 -27 -13 -7 -3 -2 -4 -4 -0 -0 -0 -1 -0 1 1 1 -2 -6 -7 -6 -2 -3 -3 -3 -2 -2 -1 -1 -1 -1 -1 -1 0 -0 -2 -2 -3 -3 -1 -2 -1 -1 -2 -3 -3 -3 -3 -3 -3 -3 -4 -7
2 -1 -24 -27 -13 -7 -4 -3 -4 -6 -3 -0 -1 -0 -1 -1 -0 -0 -5 -6 -7 -6 -5 -1 -3 -3 -3 -2 -1 -1 -1 -1 -2 -1 -2 -2 -3 -2 -0 -1 -4 -3 -2 -3 -3 -4 -4 -4 -3 -3 -3 -3 -5 -9
1 -1 -24 -26 -13 -6 -4 -4 -5 -5 -7 -1 -0 1 -1 -5 -1 -4 -5 -5 -6 -7 -6 -3 -3 -4 -4 -3 -3 -3 -2 -3 -3 -3 -3 -3 -3 -2 -2 -1 -5 -5 -3 -3 -3 -4 -3 -4 -4 -4 -3 -5 -11 -14
1 -2 -25 -23 -13 -5 -4 -5 -0 -0 -1 0 -0 -0 -1 -4 -4 -4 -5 -5 -6 -8 -7 -3 -3 -4 -4 -4 -4 -4 -4 -4 -4 -4 -4 -5 -5 -4 -2 -4 -6 -5 -4 -4 -4 -4 -7 -10 -8 -8 -11 -14 -16 -16
1 -2 -27 -21 -10 -4 -4 -3 0 0 0 -0 -2 -2 -4 -4 -4 -5 -5 -5 -6 -8 -10 -4 -1 -2 -4 -4 -4 -4 -4 -3 -4 -4 -4 -5 -4 -2 -4 -5 -5 -5 -4 -5 -7 -9 -11 -12 -12 -13 -15 -16 -16 -16
1 -4 -29 -20 -10 -4 -3 -2 -0 -0 -0 -1 -4 -5 -5 -5 -5 -6 -5 -4 -6 -8 -8 -4 -6 -2 -4 -4 -4 -3 -4 -3 -1 -4 -4 -4 -3 -6 -7 -8 -8 -6 -5 -6 -7 -9 -11 -13 -16 -16 -15 -15 -15 -16
0 -9 -29 -17 -8 -4 -3 -3 1 -1 -1 -1 -4 -5 -5 -5 -4 -6 -8 -6 -8 -7 -7 -5 -4 -3 -5 -3 -3 -4 -3 -4 -1 -3 -3 -2 -3 -5 -6 -7 -7 -7 -5 -7 -7 -12 -16 -16 -15 -14 -15 -16 -16 -16
-0 -15 -26 -14 -7 -3 -3 -3 0 0 -1 -2 -5 -5 -5 -5 -7 -7 -6 -8 -7 -7 -6 -4 -4 -4 -4 -5 -4 -4 -3 -4 -1 -4 -3 -2 -4 -6 -5 -6 -6 -5 -5 -6 -12 -15 -15 -14 -14 -15 -16 -17 -17 -17
-2 -22 -22 -12 -6 -3 -2 -3 -1 0 -0 -3 -5 -5 -5 -7 -6 -5 -6 -7 -6 -6 -5 -4 -3 -4 -5 -5 -4 -5 -3 -2 -4 -3 -2 -4 -7 -6 -6 -6 -6 -6 -10 -14 -14 -14 -13 -13 -15 -16 -16 -16 -15 -15
-5 -27 -18 -11 -5 -3 -2 -1 -2 -0 0 -2 -3 -3 -3 -4 -6 -5 -5 -5 -9 -7 -5 -4 -4 -4 -5 -5 -6 -4 -5 -5 -3 -3 -3 -5 -8 -6 -6 -7 -9 -11 -12 -12 -12 -12 -14 -17 -18 -18 -17 -15 -14 -13
-14 -27 -16 -10 -5 -3 -2 -1 -2 -1 -0 -1 -2 -2 -3 -6 -8 -8 -9 -9 -7 -6 -5 -5 -6 -6 -5 -5 -6 -4 -4 -3 -4 -4 -4 -9 -8 -6 -6 -8 -10 -10 -11 -10 -12 -15 -18 -19 -17 -15 -15 -14 -13 -12
-25 -19 -13 -9 -4 -2 -2 -0 -1 -1 -1 -1 -2 -5 -8 -8 -7 -6 -7 -8 -8 -5 -5 -7 -5 -5 -4 -4 -3 -3 -4 -4 -3 -5 -9 -8 -6 -6 -6 -7 -9 -9 -10 -14 -18 -20 -17 -15 -15 -15 -14 -14 -15 -14
-25 -17 -15 -6 -4 -2 -0 -0 -1 -2 -1 -2 -4 -3 -9 -9 -9 -10 -7 -8 -7 -5 -4 -6 -5 -5 -6 -4 -4 -5 -4 -4 -8 -9 -8 -8 -7 -6 -7 -8 -9 -14 -18 -20 -18 -17 -15 -14 -14 -15 -15 -15 -15 -14
-22 -18 -7 -4 -2 -0 -1 -1 -1 -2 -2 -3 -3 -5 -6 -7 -8 -7 -6 -6 -6 -6 -9 -7 -9 -5 -4 -5 -5 -5 -9 -10 -7 -6 -6 -6 -7 -8 -11 -15 -18 -21 -21 -19 -17 -15 -14 -15 -15 -15 -15 -14 -14 -14
-24 -11 -2 -1 -1 -1 -1 -1 -2 -2 -3 -4 -3 -5 -7 -7 -8 -8 -7 -5 -5 -6 -8 -9 -7 -5 -6 -8 -7 -10 -10 -6 -5 -6 -8 -10 -12 -15 -18 -20 -22 -20 -18 -16 -15 -15 -15 -15 -15 -14 -14 -14 -14 -13
-13 -4 -2 -1 -1 -1 -1 -2 -2 -3 -5 -4 -5 -5 -5 -6 -6 -6 -5 -5 -4 -4 -7 -8 -9 -13 -15 -16 -15 -12 -9 -7 -10 -10 -11 -12 -15 -18 -21 -20 -19 -17 -16 -15 -15 -15 -15 -15 -15 -14 -14 -14 -14 -13
-4 -2 -1 -0 -1 -1 -2 -3 -3 -3 -6 -6 -6 -6 -6 -5 -5 -5 -5 -4 -4 -5 -6 -9 -12 -14 -17 -17 -13 -11 -9 -10 -13 -16 -15 -15 -18 -20 -18 -18 -16 -15 -15 -15 -15 -15 -15 -15 -14 -13 -13 -14 -14 -13
-2 -2 -1 -1 -1 -2 -2 -3 -5 -5 -6 -6 -6 -6 -6 -6 -6 -5 -5 -5 -5 -6 -7 -8 -11 -13 -15 -14 -12 -8 -11 -11 -13 -20 -21 -23 -23 -20 -18 -16 -15 -16 -16 -15 -15 -15 -15 -15 -14 -13 -13 -13 -13 -13
-1 -2 -2 -2 -2 -3 -5 -5 -5 -6 -7 -6 -7 -7 -7 -6 -6 -6 -5 -5 -5 -5 -6 -7 -8 -13 -15 -11 -9 -10 -12 -15 -24 -25 -26 -24 -21 -18 -16 -15 -16 -16 -15 -15 -15 -15 -15 -14 -13 -13 -13 -12 -12 -12
-2 -2 -1 -2 -3 -5 -7 -7 -6 -6 -6 -7 -7 -6 -7 -7 -7 -7 -5 -6 -6 -6 -5 -7 -12 -13 -11 -9 -12 -15 -21 -23 -23 -25 -25 -22 -18 -16 -15 -16 -16 -15 -15 -15 -15 -15 -14 -14 -13 -13 -13 -12 -12 -12
-2 -3 -2 -5 -6 -8 -8 -7 -7 -7 -7 -7 -8 -8 -9 -8 -7 -6 -7 -8 -8 -9 -10 -10 -14 -13 -13 -13 -15 -20 -22 -21 -22 -26 -24 -19 -16 -15 -16 -16 -15 -15 -15 -15 -14 -14 -14 -14 -13 -13 -13 -12 -12 -12
-2 -3 -4 -6 -8 -8 -9 -8 -8 -8 -9 -9 -7 -9 -10 -9 -7 -6 -8 -7 -8 -10 -12 -13 -12 -12 -12 -15 -17 -21 -21 -20 -20 -24 -19 -17 -15 -16 -16 -16 -16 -15 -15 -14 -14 -14 -14 -14 -13 -13 -13 -12 -12 -12
-3 -4 -5 -7 -8 -9 -9 -9 -9 -10 -10 -10 -10 -10 -9 -9 -8 -8 -10 -10 -9 -9 -10 -13 -15 -15 -15 -16 -18 -22 -20 -20 -21 -21 -17 -15 -16 -16 -16 -16 -16 -16 -15 -14 -14 -14 -14 -14 -13 -13 -13 -13 -13 -13
-5 -6 -7 -7 -9 -9 -10 -9 -10 -9 -9 -10 -10 -10 -9 -8 -6 -9 -10 -10 -10 -12 -12 -14 -14 -14 -15 -17 -20 -21 -20 -19 -22 -18 -15 -16 -16 -16 -16 -16 -16 -15 -15 -14 -14 -14 -14 -14 -14 -14 -13 -13 -13 -13
-7 -6 -7 -11 -10 -10 -10 -9 -9 -9 -10 -10 -8 -9 -10 -10 -9 -10 -11 -13 -14 -13 -12 -13 -12 -14 -15 -18 -21 -20 -20 -22 -24 -18 -15 -16 -16 -16 -16 -16 -16 -16 -16 -15 -15 -15 -14 -14 -14 -14 -14 -14 -13 -13
-8 -7 -10 -12 -9 -8 -10 -10 -9 -9 -10 -10 -10 -10 -10 -10 -10 -10 -11 -14 -13 -12 -11 -12 -13 -14 -16 -20 -20 -19 -20 -20 -19 -15 -16 -17 -16 -16 -16 -16 -17 -16 -16 -16 -15 -15 -15 -15 -15 -14 -14 -14 -14 -14
-8 -10 -11 -11 -10 -11 -10 -10 -9 -9 -10 -10 -10 -10 -11 -11 -11 -11 -11 -11 -11 -12 -10 -11 -13 -14 -18 -21 -21 -21 -20 -22 -16 -15 -16 -16 -16 -16 -17 -16 -16 -16 -15 -15 -15 -15 -16 -15 -15 -14 -14 -14 -14 -14
-10 -11 -11 -11 -12 -11 -10 -10 -10 -11 -10 -10 -10 -11 -10 -11 -9 -10 -9 -9 -10 -12 -10 -11 -13 -16 -19 -21 -21 -23 -25 -17 -16 -17 -16 -16 -16 -16 -16 -16 -15 -15 -14 -14 -15 -15 -15 -15 -15 -15 -15 -14 -14 -14
-11 -11 -11 -11 -11 -12 -10 -11 -12 -12 -12 -12 -11 -10 -10 -10 -9 -9 -9 -9 -10 -10 -10 -13 -15 -18 -19 -21 -22 -21 -18 -16 -17 -16 -15 -15 -16 -16 -15 -15 -14 -14 -14 -14 -14 -14 -14 -14 -14 -14 -14 -14 -14 -14

GFSWCAN_850_dewp_087.txt.gz
Dewpoint
2 2 0 -19 -23 -12 -7 0 0 -0 -0 1 1 1 -0 -0 -1 -4 -2 -3 -2 -1 -1 -1 -1 0 0 0 0 1 1 1 1 1 -1 -1 -2 -2 -1 -2 -2 -1 -1 -2 -1 0 -1 -3 -2 -1 -2 -3 -2 -2
2 2 1 -11 -30 -13 -7 -6 1 1 0 -1 -1 1 1 1 1 -3 -4 -2 -2 -1 -1 -1 -1 -1 -1 -1 0 0 -0 0 0 1 -1 -2 -2 -2 -2 -4 -2 -1 -2 -1 -2 -2 -3 -3 -2 -2 -2 -3 -2 -2
2 2 1 -7 -31 -15 -8 -5 -4 1 1 -0 -1 -1 0 0 1 1 -5 -4 -2 -1 -2 -2 -2 -2 -1 -1 -0 0 -0 0 1 -1 -0 -1 0 -2 -3 -3 -2 -2 -3 -2 -1 -3 -3 -3 -2 -2 -2 -2 -2 -2
2 2 1 -6 -31 -18 -10 -4 -5 -5 -1 0 -1 -1 -0 0 0 1 -3 -6 -4 -2 0 -1 -2 -2 -2 -1 -1 -1 -1 -1 -1 -1 0 -0 -1 -2 -2 -2 -2 -3 -2 -2 -2 -3 -3 -3 -2 -2 -2 -3 -3 -3
2 2 1 -5 -28 -19 -11 -5 -4 -6 -4 -0 -1 -1 -1 -0 1 1 -1 -4 -6 -6 -1 -2 -2 -2 -2 -2 -1 -1 -1 -0 -0 0 2 0 -1 -1 -2 -2 -2 -3 -3 -1 -5 -3 -3 -2 -3 -2 -2 -3 -4 -4
2 2 2 -4 -27 -21 -11 -5 -4 -6 -7 -1 -0 -1 -0 -2 -0 -0 -1 -5 -6 -6 -4 -0 -3 -3 -3 -2 -1 -1 -1 -1 -0 -0 -0 -1 -2 -1 1 -2 -5 -4 -3 -3 -3 -3 -3 -3 -3 -3 -2 -3 -4 -4
2 2 2 -3 -26 -21 -10 -5 -5 -7 -7 -7 -0 -1 -1 -2 -2 -2 -4 -6 -6 -7 -6 0 -1 -4 -4 -3 -3 -2 -2 -2 -2 -1 -2 -2 -2 -1 0 -1 -5 -4 -3 -3 -3 -3 -3 -3 -3 -4 -4 -4 -5 -11
2 2 2 -2 -26 -20 -10 -4 -5 -1 -0 -2 -0 -0 -1 -2 -3 -4 -5 -6 -6 -7 -8 1 -0 -3 -4 -3 -3 -4 -3 -3 -2 -2 -3 -3 -3 -3 -0 -3 -4 -5 -4 -3 -3 -3 -5 -6 -7 -7 -9 -12 -14 -16
3 2 2 -1 -26 -16 -7 -5 -0 -1 -0 -0 -1 -1 -2 -4 -3 -4 -5 -5 -6 -7 -4 -2 0 0 -4 -3 -3 -3 -4 -2 -3 -2 -4 -4 -3 -0 -3 -5 -4 -5 -4 -4 -3 -4 -7 -10 -10 -12 -14 -15 -15 -14
3 2 2 -1 -25 -14 -5 -3 -0 -0 -1 -2 -4 -4 -2 -5 -5 -5 -4 -5 -5 -7 -8 -3 -3 -2 -3 -3 -3 -2 -3 -2 0 -3 -4 -3 -2 -4 -4 -5 -5 -5 -4 -5 -6 -7 -8 -10 -12 -13 -15 -14 -13 -14
2 2 2 -2 -24 -12 -4 -3 -0 -1 -1 -1 -4 -4 -5 -6 -5 -5 -4 -2 -4 -3 -4 -4 -3 -3 -4 -2 -3 -3 -1 -2 -0 -1 -2 -1 -2 -5 -5 -6 -8 -6 -5 -6 -7 -8 -11 -15 -16 -15 -13 -13 -15 -17
3 2 1 -6 -22 -11 -4 -3 -0 -1 -2 -1 -4 -5 -5 -5 -6 -4 -2 -6 -5 -5 -6 -4 -4 -3 -3 -4 -3 -3 -1 -2 -0 -4 -2 -1 -1 -4 -5 -5 -7 -6 -5 -6 -7 -10 -15 -15 -14 -13 -13 -17 -18 -18
2 2 1 -12 -19 -8 -3 -3 -1 0 -2 -2 -5 -5 -5 -5 -3 -4 -4 -3 -4 -5 -4 -3 -3 -3 -4 -4 -3 -3 -1 -1 -4 -2 -1 -1 -4 -5 -5 -6 -6 -5 -5 -5 -10 -14 -14 -13 -13 -15 -18 -20 -18 -16
3 3 1 -18 -16 -6 -3 -2 -1 0 -1 -1 -4 -2 -2 -2 -3 -2 -3 -2 -5 -4 -3 -3 -3 -4 -4 -4 -4 -2 -4 -5 -2 -2 -2 -1 -5 -5 -6 -6 -6 -6 -7 -12 -13 -13 -12 -12 -17 -20 -18 -17 -15 -14
3 2 -2 -22 -13 -4 -2 -1 -2 -0 -1 -2 -2 -1 -0 -3 -5 -6 -8 -9 -8 -4 -4 -4 -4 -5 -3 -3 -5 -4 -3 -2 -3 -1 0 -4 -6 -6 -6 -6 -7 -10 -11 -11 -11 -11 -14 -19 -20 -18 -16 -15 -15 -15
2 0 -14 -22 -9 -3 -2 -1 -1 -1 -0 -1 -2 -2 -4 -5 -3 -5 -6 -4 -7 -5 -4 -5 -3 -3 -3 -3 -3 -3 -3 -2 -0 -2 -4 -8 -6 -6 -7 -8 -10 -10 -10 -10 -11 -17 -20 -19 -17 -15 -16 -15 -15 -15
1 -1 -9 -18 -6 -2 -2 -1 -1 -1 -1 -1 -2 -2 -3 -5 -3 -4 -6 -6 -8 -4 -3 -3 -3 -3 -5 -3 -3 -3 -2 -0 -3 -6 -8 -7 -6 -6 -7 -8 -8 -9 -10 -15 -21 -20 -19 -16 -15 -16 -15 -15 -15 -15
1 0 -12 -16 -3 -1 -1 -1 -2 -2 -2 -2 -2 -2 -3 -5 -6 -6 -7 -9 -6 -4 -6 -4 -6 -5 -3 -3 -2 -1 -6 -9 -10 -6 -7 -6 -7 -7 -7 -8 -9 -14 -20 -22 -20 -18 -15 -16 -15 -15 -15 -15 -15 -14
1 -1 -10 -8 -2 -1 -1 -1 -1 -2 -2 -3 -3 -3 -4 -5 -5 -5 -8 -8 -6 -5 -8 -8 -4 -3 -4 -5 -5 -11 -13 -12 -7 -6 -6 -7 -7 -8 -10 -15 -19 -22 -22 -20 -17 -15 -15 -15 -15 -15 -14 -14 -14 -14
0 -3 -7 -3 -2 -1 -1 -1 -2 -2 -3 -3 -4 -4 -4 -5 -6 -7 -7 -5 -5 -6 -4 -4 -6 -7 -11 -15 -14 -13 -14 -13 -7 -7 -8 -8 -11 -14 -17 -20 -23 -22 -19 -17 -15 -16 -15 -15 -15 -14 -14 -14 -15 -14
-3 -3 -2 -1 -1 -1 -1 -3 -3 -3 -3 -5 -5 -4 -4 -5 -5 -4 -4 -4 -4 -3 -3 -4 -6 -7 -11 -14 -14 -13 -14 -14 -8 -8 -11 -12 -14 -16 -19 -21 -21 -19 -17 -15 -16 -15 -15 -15 -15 -14 -14 -14 -14 -14
-4 -2 -1 -2 -1 -1 -1 -3 -4 -4 -5 -5 -6 -5 -5 -5 -4 -5 -5 -5 -4 -5 -5 -5 -5 -5 -6 -6 -7 -10 -13 -13 -8 -10 -14 -14 -15 -19 -21 -22 -20 -17 -16 -16 -15 -15 -15 -15 -15 -14 -13 -13 -13 -13
-2 -2 -1 -1 -2 -2 -3 -3 -4 -5 -5 -5 -6 -5 -5 -5 -4 -5 -4 -5 -5 -5 -6 -6 -6 -6 -6 -8 -10 -8 -13 -10 -8 -11 -16 -19 -21 -23 -21 -20 -17 -16 -16 -16 -15 -15 -15 -15 -15 -13 -13 -13 -13 -13
-2 -2 -2 -2 -2 -3 -6 -6 -5 -5 -6 -6 -5 -5 -5 -5 -7 -6 -5 -5 -6 -7 -6 -6 -6 -6 -7 -9 -8 -11 -11 -9 -10 -14 -23 -25 -26 -23 -20 -17 -16 -16 -16 -16 -15 -15 -15 -15 -14 -14 -13 -13 -13 -13
-2 -2 -2 -2 -4 -6 -6 -6 -6 -6 -5 -6 -5 -5 -6 -7 -5 -5 -5 -5 -6 -7 -7 -6 -5 -5 -7 -4 -4 -9 -10 -10 -14 -24 -25 -26 -24 -20 -17 -16 -16 -16 -16 -15 -15 -15 -15 -14 -14 -14 -13 -13 -13 -13
-2 -3 -2 -3 -6 -6 -7 -6 -6 -6 -6 -6 -6 -7 -8 -6 -5 -4 -5 -7 -7 -7 -7 -6 -6 -6 -6 -4 -4 -9 -11 -14 -22 -23 -25 -27 -23 -19 -17 -17 -17 -16 -16 -16 -15 -15 -14 -14 -14 -14 -13 -13 -13 -13
-2 -2 -5 -6 -7 -8 -8 -8 -8 -7 -6 -5 -7 -8 -7 -5 -5 -6 -9 -9 -8 -9 -9 -7 -7 -7 -7 -7 -8 -11 -13 -18 -22 -23 -24 -24 -19 -16 -17 -17 -16 -16 -16 -15 -15 -15 -14 -14 -14 -14 -14 -14 -13 -13
-3 -5 -7 -7 -8 -8 -7 -7 -7 -7 -6 -8 -8 -7 -6 -6 -5 -9 -10 -10 -10 -10 -9 -10 -9 -8 -8 -9 -10 -12 -15 -20 -20 -20 -22 -19 -16 -16 -17 -17 -16 -16 -15 -15 -15 -15 -15 -15 -14 -14 -14 -14 -14 -14
-5 -7 -7 -9 -9 -9 -8 -7 -7 -8 -9 -8 -6 -6 -7 -9 -9 -9 -9 -10 -10 -10 -11 -11 -10 -10 -10 -11 -12 -13 -17 -21 -21 -20 -22 -19 -18 -17 -17 -17 -17 -16 -16 -16 -16 -16 -16 -15 -15 -15 -15 -15 -14 -14
-7 -7 -8 -9 -9 -7 -8 -9 -8 -9 -9 -9 -9 -9 -9 -9 -9 -9 -10 -10 -10 -10 -11 -12 -11 -11 -11 -12 -13 -15 -18 -21 -21 -22 -26 -23 -19 -18 -17 -17 -17 -16 -16 -16 -16 -16 -16 -16 -16 -15 -15 -15 -15 -14
-7 -7 -8 -8 -7 -8 -8 -9 -9 -9 -9 -9 -9 -10 -9 -9 -10 -10 -10 -10 -10 -10 -11 -12 -11 -11 -11 -12 -14 -17 -18 -20 -20 -21 -20 -17 -17 -17 -17 -17 -17 -16 -16 -16 -16 -16 -16 -16 -16 -15 -15 -15 -15 -15
-8 -8 -8 -9 -9 -10 -10 -10 -10 -9 -9 -10 -10 -10 -10 -10 -10 -10 -10 -10 -10 -10 -10 -11 -10 -9 -10 -12 -14 -17 -20 -21 -22 -22 -17 -17 -17 -17 -17 -17 -16 -16 -15 -15 -15 -15 -15 -15 -15 -15 -15 -15 -15 -15
-10 -10 -11 -11 -11 -10 -10 -10 -10 -11 -11 -10 -10 -10 -10 -10 -9 -10 -11 -11 -10 -11 -9 -7 -5 -3 -9 -13 -16 -19 -20 -21 -21 -18 -16 -16 -16 -17 -17 -16 -16 -15 -15 -14 -14 -14 -14 -14 -15 -15 -15 -15 -14 -14

GFSWCAN_850_dewp_090.txt.gz
Dewpoint
-0 2 2 1 -4 -29 -16 -8 -2 -0 -1 -1 -0 0 0 -1 -1 -4 -4 -3 -3 -0 -0 -0 -0 0 0 1 1 1 1 1 2 2 0 -0 -1 -1 -1 -3 -2 -1 -1 0 -1 0 0 -3 -2 -0 -2 -3 -2 -2
0 2 2 2 -1 -22 -20 -11 -7 -2 0 -0 -1 -2 -0 0 -1 -0 -5 -4 -2 -1 -1 -1 -1 -1 -1 -1 0 1 0 0 1 2 0 -2 -1 -2 -3 -2 -3 -1 -2 0 -2 -0 -3 -3 -2 -2 -3 -2 -2 -2
0 2 2 2 -0 -16 -27 -13 -6 -6 -1 -1 -1 -1 -1 -0 1 1 -1 -5 -3 -1 -1 -1 -1 -1 -1 -1 -1 1 0 0 1 -1 1 1 1 -2 -1 -2 -3 -3 -3 -1 -2 -3 -3 -3 -3 -3 -3 -2 -2 -2
1 2 2 2 1 -9 -28 -15 -9 -6 -7 -3 -1 -1 -1 -1 1 1 0 -6 -3 -2 1 -1 -2 -2 -2 -2 -1 -1 -1 -1 -0 -1 2 1 1 -2 -1 -2 -2 -2 -2 -2 -2 -3 -3 -3 -3 -2 -2 -3 -3 -3
1 3 2 2 1 -5 -28 -16 -10 -5 -7 -5 -1 -1 -1 -1 0 1 0 -4 -6 -6 -1 -2 -5 -3 -2 -2 -1 -1 -1 -0 0 1 1 2 -1 -1 -2 -2 -1 -2 -2 -1 -1 -3 -3 -2 -2 -2 -2 -3 -3 -3
2 3 2 2 1 -3 -27 -18 -9 -6 -7 -9 -1 -1 -1 -2 -1 -0 -0 -5 -6 -7 -6 0 -2 -3 -3 -2 -2 -1 -1 -1 -1 0 1 -0 -1 -2 1 0 -4 -5 -4 -4 -3 -3 -3 -3 -3 -3 -3 -2 -3 -4
3 3 2 2 2 -3 -25 -17 -8 -6 -8 -9 -9 -1 -1 -1 -2 -1 -2 -5 -6 -7 -6 -1 -0 -3 -4 -3 -2 -2 -2 -1 -2 -0 -1 -1 -2 -2 -0 1 -4 -5 -4 -3 -3 -3 -3 -3 -3 -4 -4 -4 -5 -6
3 3 2 2 2 -2 -25 -16 -6 -6 -2 -1 -3 -1 -1 -1 -3 -2 -4 -6 -6 -7 -8 -1 -1 -3 -4 -2 -2 -3 -2 -2 -2 -1 -2 -3 -3 -3 -0 -1 -2 -4 -4 -3 -3 -3 -4 -4 -4 -5 -7 -9 -12 -15
3 3 3 2 2 -1 -24 -12 -3 -2 -2 -1 -1 -1 -1 -3 -3 -3 -4 -5 -6 -6 -3 -3 -1 -0 -4 -3 -3 -3 -4 -2 -2 -2 -3 -3 -2 -1 -2 -3 -3 -4 -4 -4 -3 -3 -4 -6 -9 -10 -12 -13 -14 -14
3 3 3 2 2 -0 -22 -9 -1 -0 -1 -2 -3 -5 -3 -5 -5 -5 -5 -5 -5 -5 -7 -2 -2 -2 -2 -3 -2 -2 -3 -1 -2 -2 -3 -3 -2 -4 -5 -4 -4 -5 -5 -5 -3 -5 -7 -9 -10 -11 -13 -14 -13 -13
3 3 3 3 2 -0 -21 -8 -1 -1 -1 -2 -5 -5 -5 -6 -5 -5 -3 -2 -2 -2 -4 -3 -3 -2 -4 -2 -2 -3 -2 -2 -3 -2 -3 -2 -0 -3 -5 -4 -5 -5 -5 -5 -6 -7 -7 -9 -12 -15 -14 -13 -13 -16
3 3 3 3 2 -2 -18 -6 -1 -1 -2 -1 -3 -5 -6 -5 -5 -4 -4 -4 -4 -3 -5 -4 -4 -3 -4 -4 -2 -3 -2 -3 -2 -3 -3 -2 -2 -4 -6 -6 -6 -5 -5 -6 -7 -8 -11 -14 -14 -13 -12 -14 -19 -21
3 3 3 3 2 -5 -16 -5 -1 -1 -2 -3 -4 -5 -5 -4 -5 -4 -6 -4 -4 -6 -5 -4 -4 -4 -5 -4 -3 -2 -2 -2 -4 -3 -2 -2 -4 -5 -5 -6 -5 -5 -6 -7 -8 -10 -13 -13 -12 -12 -16 -21 -20 -18
3 3 3 3 2 -9 -13 -4 -1 -0 -2 -2 -4 -4 -4 -4 -4 -2 -2 -2 -4 -4 -5 -2 -3 -3 -4 -3 -3 -2 -3 -4 -4 -3 -2 -1 -4 -5 -5 -6 -5 -6 -6 -6 -9 -12 -13 -12 -13 -20 -22 -21 -16 -16
3 3 3 2 1 -15 -7 -2 -2 0 -3 -2 -2 -2 -2 -3 -3 -4 -4 -9 -9 -5 -4 -3 -4 -4 -4 -3 -4 -3 -3 -4 -3 -2 -1 -3 -5 -5 -6 -6 -6 -6 -6 -10 -12 -12 -11 -13 -21 -22 -18 -16 -16 -16
3 3 3 2 -3 -12 -3 -1 -1 -0 -2 -2 -2 -2 -2 -4 -2 -4 -7 -5 -7 -6 -4 -4 -4 -4 -3 -3 -4 -4 -3 -3 -2 -2 -4 -7 -7 -6 -6 -6 -6 -8 -11 -11 -11 -10 -16 -23 -23 -17 -17 -16 -16 -16
3 1 2 1 -8 -5 -2 -1 -1 -1 -1 -1 -2 -2 -2 -3 -3 -3 -4 -6 -6 -5 -4 -3 -5 -6 -5 -5 -4 -4 -3 -2 -3 -8 -9 -8 -7 -6 -7 -8 -9 -10 -10 -10 -12 -20 -23 -22 -17 -17 -16 -16 -15 -16
2 2 2 -1 -7 -2 -1 -1 -2 -2 -2 -2 -2 -2 -2 -2 -6 -6 -6 -7 -7 -4 -3 -5 -5 -7 -6 -6 -4 -4 -6 -10 -13 -12 -10 -8 -6 -6 -7 -8 -9 -9 -10 -15 -22 -22 -20 -17 -17 -16 -16 -15 -15 -15
2 2 1 -2 -3 -1 -1 -1 -1 -2 -2 -2 -2 -2 -2 -4 -4 -5 -7 -8 -7 -5 -6 -8 -6 -6 -5 -5 -5 -8 -11 -14 -13 -11 -9 -8 -6 -7 -7 -8 -9 -12 -18 -23 -21 -19 -17 -17 -16 -16 -16 -15 -15 -15
2 2 1 -2 -2 -2 -1 -1 -2 -2 -3 -3 -3 -3 -3 -4 -4 -4 -5 -5 -7 -5 -6 -6 -6 -6 -8 -11 -12 -14 -14 -14 -13 -11 -9 -8 -7 -7 -8 -9 -14 -20 -23 -22 -19 -16 -17 -16 -16 -16 -15 -14 -15 -15
-1 -2 -1 -3 -2 -1 -2 -2 -2 -2 -2 -4 -4 -4 -4 -4 -4 -5 -5 -5 -4 -4 -5 -6 -6 -7 -7 -8 -8 -8 -12 -13 -12 -11 -12 -10 -8 -9 -10 -15 -19 -22 -23 -20 -17 -16 -16 -16 -16 -15 -15 -14 -14 -14
-3 -3 -3 -2 -2 -2 -1 -2 -3 -3 -4 -5 -4 -4 -4 -5 -4 -4 -4 -4 -4 -5 -6 -6 -6 -5 -6 -6 -6 -6 -5 -9 -10 -10 -11 -9 -9 -11 -14 -16 -20 -23 -22 -18 -16 -17 -16 -16 -16 -15 -14 -14 -14 -13
-3 -3 -3 -2 -2 -2 -2 -3 -4 -5 -5 -5 -5 -5 -4 -4 -4 -4 -5 -5 -5 -5 -6 -6 -6 -6 -6 -6 -6 -6 -6 -6 -7 -10 -11 -9 -12 -14 -15 -18 -22 -23 -20 -17 -17 -16 -16 -16 -16 -15 -14 -14 -13 -13
-3 -2 -2 -2 -2 -3 -5 -5 -4 -5 -5 -5 -5 -5 -5 -4 -6 -6 -5 -5 -7 -7 -7 -8 -7 -6 -5 -5 -6 -6 -6 -7 -9 -9 -9 -9 -13 -15 -18 -22 -24 -21 -17 -17 -17 -16 -16 -16 -15 -15 -14 -13 -13 -13
-2 -2 -2 -2 -3 -6 -6 -6 -6 -5 -6 -5 -5 -5 -6 -7 -6 -5 -6 -6 -8 -8 -8 -8 -7 -7 -6 -7 -7 -7 -7 -7 -8 -5 -5 -9 -14 -19 -21 -22 -21 -17 -17 -17 -17 -17 -16 -15 -15 -15 -14 -14 -13 -13
-1 -3 -2 -3 -6 -7 -7 -6 -6 -5 -6 -6 -5 -6 -7 -6 -6 -6 -7 -7 -9 -9 -8 -8 -8 -7 -7 -7 -6 -7 -7 -7 -5 -2 -6 -10 -18 -24 -26 -26 -21 -18 -17 -17 -17 -16 -16 -16 -15 -15 -14 -14 -13 -14
-2 -2 -3 -5 -6 -7 -7 -7 -7 -6 -6 -5 -6 -7 -7 -7 -7 -8 -9 -11 -10 -10 -9 -9 -8 -7 -8 -8 -7 -6 -6 -2 -3 -6 -9 -13 -23 -24 -22 -20 -18 -17 -17 -17 -17 -16 -16 -16 -15 -15 -14 -14 -14 -14
-3 -5 -6 -7 -8 -8 -7 -7 -6 -6 -6 -7 -7 -7 -6 -7 -7 -8 -11 -12 -11 -10 -10 -10 -10 -9 -9 -8 -7 -7 -7 -3 -5 -9 -14 -21 -22 -23 -22 -18 -17 -17 -17 -17 -17 -16 -16 -16 -16 -15 -14 -15 -15 -15
-5 -6 -7 -8 -8 -7 -7 -7 -7 -8 -8 -7 -6 -7 -8 -8 -9 -11 -11 -10 -10 -10 -10 -10 -10 -10 -10 -9 -8 -8 -7 -6 -9 -14 -19 -21 -22 -22 -22 -17 -17 -17 -17 -17 -17 -17 -17 -16 -16 -15 -16 -16 -16 -16
-6 -6 -8 -8 -7 -6 -7 -8 -8 -8 -8 -8 -8 -9 -9 -9 -9 -10 -10 -9 -9 -9 -10 -10 -10 -10 -11 -10 -10 -7 -5 -10 -12 -14 -18 -21 -23 -23 -22 -19 -17 -17 -17 -17 -17 -17 -17 -17 -16 -16 -16 -16 -16 -15
-6 -7 -8 -7 -7 -7 -8 -8 -8 -8 -8 -9 -9 -9 -8 -8 -8 -9 -9 -9 -9 -9 -10 -10 -10 -10 -11 -11 -9 -8 -8 -11 -14 -16 -18 -21 -23 -23 -21 -18 -17 -17 -17 -17 -17 -16 -16 -16 -16 -16 -16 -16 -16 -15
-7 -7 -7 -7 -8 -9 -8 -9 -9 -9 -9 -9 -9 -9 -9 -9 -9 -9 -9 -9 -10 -10 -10 -10 -10 -10 -10 -11 -7 -4 -5 -12 -14 -17 -19 -20 -23 -20 -18 -17 -17 -17 -17 -16 -16 -16 -16 -16 -16 -16 -16 -16 -15 -15
-9 -10 -10 -11 -12 -11 -10 -10 -10 -11 -10 -10 -10 -9 -10 -10 -10 -9 -9 -10 -10 -10 -10 -10 -10 -10 -10 -10 -9 -8 -9 -13 -15 -19 -20 -21 -19 -18 -18 -17 -17 -17 -16 -16 -15 -15 -15 -15 -15 -15 -15 -15 -15 -14

GFSWCAN_850_dewp_093.txt.gz
Dewpoint
-18 -14 -7 1 2 -0 -17 -23 -11 -6 -3 -1 -1 -1 -0 -0 -1 -2 -5 -3 -3 -2 -2 -0 -0 -0 0 0 1 1 0 1 1 2 0 -0 -1 -2 -3 -3 -3 -2 -1 -0 -1 -0 -2 -3 -2 -1 -3 -3 -2 -2
-17 -16 -8 1 2 1 -6 -27 -16 -8 -8 -5 -1 -1 -2 -1 -1 -0 -2 -5 -2 -1 -1 -1 -1 -1 -1 -1 -1 0 0 1 1 1 0 -1 -1 -2 -3 -2 -3 -2 -3 -1 -3 -2 -4 -3 -2 -3 -3 -3 -3 -2
-14 -15 -10 0 2 2 -1 -23 -19 -12 -7 -9 -3 -1 -2 -1 -1 -0 0 -5 -2 -1 -2 -1 -1 -1 -1 -1 -1 0 0 -0 1 0 0 0 0 -2 -1 -2 -3 -3 -3 -2 -2 -5 -3 -4 -3 -2 -3 -3 -2 -2
-11 -14 -9 0 2 2 1 -14 -23 -14 -7 -10 -5 -1 -1 -1 -1 -0 -0 -3 -4 -2 0 -1 -2 -2 -2 -1 -1 -1 -1 -1 -1 -1 1 0 1 -2 -1 -2 -2 -4 -3 -2 -2 -3 -3 -3 -3 -3 -3 -3 -3 -3
-0 -12 -11 1 2 2 1 -7 -25 -14 -6 -9 -8 -1 -1 -1 -1 0 0 -0 -5 -5 -1 -2 -3 -4 -3 -2 -2 -1 -1 -1 0 0 -1 0 -0 -2 -2 -2 -1 -3 -2 -1 -2 -4 -4 -3 -3 -3 -2 -3 -3 -3
2 -8 -10 -0 2 2 2 -2 -25 -14 -7 -8 -10 -1 -1 -1 -3 -0 -0 -3 -5 -6 -6 -3 -2 -2 -3 -2 -2 -1 -1 -1 -0 0 -0 1 -0 -1 -1 -1 -3 -5 -4 -4 -4 -4 -3 -3 -3 -2 -3 -3 -3 -4
0 -6 -5 1 3 3 2 -1 -23 -14 -7 -8 -10 -9 -1 -1 -4 -1 -2 -3 -6 -6 -6 -4 -2 -2 -4 -3 -2 -2 -2 -1 -1 -0 -0 -1 -1 -2 -2 0 -3 -4 -5 -4 -4 -4 -3 -3 -3 -3 -3 -3 -4 -6
2 1 -3 2 3 3 2 0 -21 -10 -6 -4 -3 -5 -1 -1 -2 -3 -2 -5 -6 -6 -7 -6 -5 -4 -5 -3 -3 -3 -2 -2 -2 -2 -1 -3 -2 -2 -1 -2 -3 -3 -3 -3 -3 -3 -3 -3 -3 -3 -5 -7 -10 -14
5 4 -1 3 3 2 2 0 -18 -6 -4 -2 -1 -1 -1 -1 -3 -4 -4 -4 -5 -6 -5 -4 -6 -4 -4 -3 -2 -3 -3 -2 -2 -3 -3 -3 -3 -1 -2 -3 -3 -3 -3 -3 -3 -3 -3 -4 -4 -6 -9 -12 -14 -14
5 4 -1 3 3 3 2 -1 -11 -2 -1 -1 -2 -3 -4 -5 -5 -5 -5 -5 -5 -5 -6 -4 -3 -4 -4 -3 -3 -2 -3 -3 -5 -3 -3 -3 -2 -4 -4 -4 -4 -4 -4 -4 -3 -4 -4 -5 -7 -9 -11 -13 -14 -13
5 4 -0 3 3 3 2 -2 -8 -1 -1 -3 -4 -5 -4 -6 -5 -5 -4 -4 -2 -4 -5 -5 -3 -4 -4 -4 -3 -2 -4 -5 -5 -4 -3 -3 -1 -3 -4 -5 -5 -4 -4 -5 -5 -5 -5 -6 -9 -10 -13 -14 -12 -14
5 4 1 3 3 3 2 -3 -6 -1 -2 -2 -3 -5 -5 -5 -5 -8 -9 -5 -5 -5 -4 -5 -6 -3 -3 -3 -3 -3 -4 -4 -3 -4 -4 -2 -3 -4 -5 -5 -4 -4 -5 -5 -5 -7 -7 -9 -12 -14 -13 -12 -17 -23
5 4 1 3 3 3 2 -4 -7 -2 -1 -2 -4 -5 -5 -5 -6 -7 -7 -8 -7 -6 -5 -4 -6 -4 -5 -4 -3 -5 -4 -3 -5 -6 -4 -3 -3 -3 -5 -5 -4 -4 -5 -6 -8 -9 -11 -12 -13 -12 -14 -22 -23 -18
4 4 1 3 3 3 3 -4 -5 -1 -1 -3 -4 -5 -6 -7 -6 -5 -6 -7 -6 -7 -7 -4 -4 -4 -4 -5 -4 -6 -5 -5 -7 -5 -4 -5 -3 -7 -5 -5 -5 -5 -6 -7 -9 -10 -12 -12 -12 -15 -22 -23 -18 -17
4 3 2 3 3 3 2 -5 -2 -1 -2 -2 -2 -3 -4 -6 -4 -4 -3 -6 -7 -7 -5 -3 -4 -4 -5 -5 -4 -6 -5 -7 -6 -6 -5 -3 -7 -7 -5 -5 -5 -6 -7 -7 -8 -12 -12 -11 -16 -23 -21 -18 -17 -16
4 2 2 3 3 2 1 -3 -1 -0 -2 -2 -2 -2 -2 -3 -4 -4 -5 -8 -8 -6 -5 -4 -6 -6 -5 -6 -5 -6 -7 -7 -8 -5 -9 -8 -10 -6 -5 -5 -6 -6 -6 -8 -12 -11 -11 -17 -23 -21 -17 -17 -16 -16
3 2 2 2 3 2 -1 -1 -1 -1 -1 -1 -2 -2 -2 -3 -4 -3 -5 -7 -7 -6 -6 -5 -6 -6 -7 -7 -6 -6 -6 -7 -5 -10 -13 -12 -10 -8 -6 -6 -6 -7 -8 -11 -11 -11 -17 -23 -22 -17 -17 -16 -16 -16
2 2 2 2 2 -1 -1 -1 -1 -1 -1 -1 -1 -2 -2 -2 -4 -3 -3 -6 -6 -6 -5 -6 -6 -8 -7 -7 -6 -6 -7 -9 -9 -14 -14 -11 -11 -8 -6 -7 -7 -9 -10 -10 -10 -16 -23 -22 -18 -17 -16 -16 -16 -16
2 2 2 2 0 -2 -1 -1 -2 -2 -2 -2 -3 -2 -2 -2 -3 -5 -6 -5 -6 -7 -5 -5 -9 -8 -7 -8 -7 -11 -10 -11 -14 -14 -13 -10 -10 -9 -7 -7 -8 -9 -9 -9 -16 -23 -21 -18 -17 -17 -16 -16 -15 -16
2 2 1 1 -1 -1 -1 -1 -2 -2 -2 -2 -2 -2 -3 -3 -4 -4 -4 -6 -6 -6 -5 -7 -8 -8 -10 -11 -11 -11 -12 -12 -12 -14 -13 -11 -10 -10 -9 -7 -7 -8 -9 -15 -21 -24 -19 -18 -17 -16 -16 -16 -15 -15
1 0 -0 -1 -2 -1 -2 -2 -2 -2 -3 -3 -3 -3 -3 -3 -4 -4 -4 -5 -5 -5 -6 -7 -8 -8 -8 -8 -8 -8 -8 -8 -8 -8 -8 -9 -9 -10 -9 -8 -8 -9 -12 -19 -22 -22 -18 -18 -16 -16 -16 -16 -14 -15
-0 -2 -2 -3 -2 -2 -1 -2 -3 -3 -3 -4 -4 -3 -4 -5 -4 -4 -4 -4 -4 -5 -5 -6 -6 -7 -7 -7 -7 -7 -7 -7 -7 -6 -6 -7 -8 -8 -9 -9 -9 -10 -15 -20 -21 -20 -17 -17 -16 -16 -16 -15 -14 -14
-2 -3 -3 -2 -2 -2 -2 -2 -4 -4 -5 -6 -5 -4 -5 -5 -4 -4 -4 -4 -5 -6 -6 -6 -7 -7 -7 -7 -7 -7 -7 -7 -6 -6 -6 -6 -7 -7 -9 -10 -9 -11 -16 -20 -22 -18 -17 -17 -16 -16 -16 -15 -14 -14
-3 -2 -2 -2 -2 -3 -4 -4 -4 -5 -6 -6 -5 -6 -7 -5 -5 -5 -5 -6 -6 -7 -7 -9 -7 -7 -6 -6 -6 -7 -7 -6 -6 -6 -6 -6 -7 -9 -10 -10 -11 -13 -16 -21 -21 -16 -17 -17 -16 -16 -15 -15 -14 -14
-2 -3 -2 -2 -3 -6 -6 -6 -6 -6 -6 -7 -7 -7 -6 -6 -6 -6 -6 -8 -8 -10 -10 -10 -8 -7 -7 -8 -8 -8 -8 -7 -7 -7 -7 -6 -7 -9 -9 -11 -14 -15 -19 -23 -19 -17 -17 -16 -16 -16 -15 -15 -14 -14
-2 -2 -2 -3 -6 -7 -7 -7 -7 -7 -6 -7 -7 -7 -7 -7 -6 -6 -9 -7 -9 -11 -11 -10 -10 -9 -8 -8 -8 -8 -8 -7 -7 -7 -7 -7 -8 -6 -6 -11 -15 -20 -24 -24 -18 -17 -17 -17 -16 -16 -15 -14 -14 -14
-2 -3 -2 -4 -6 -7 -7 -7 -7 -7 -7 -7 -7 -8 -6 -4 -5 -7 -8 -10 -11 -12 -12 -11 -10 -9 -10 -9 -8 -7 -7 -7 -7 -7 -7 -6 -3 -2 -3 -9 -19 -25 -24 -19 -18 -17 -17 -16 -16 -16 -15 -15 -14 -15
-2 -4 -5 -6 -7 -8 -8 -8 -8 -7 -7 -7 -7 -7 -5 -5 -5 -8 -10 -11 -13 -12 -11 -10 -10 -10 -10 -10 -10 -9 -8 -7 -7 -7 -5 -3 -4 -5 -9 -17 -23 -23 -19 -18 -18 -17 -17 -16 -16 -16 -15 -15 -15 -16
-5 -6 -6 -8 -8 -8 -9 -9 -8 -7 -7 -7 -6 -6 -6 -7 -7 -10 -12 -12 -11 -11 -11 -10 -10 -10 -10 -10 -10 -10 -9 -8 -7 -7 -5 -6 -7 -10 -15 -23 -23 -20 -18 -18 -18 -17 -17 -16 -16 -16 -16 -16 -16 -16
-6 -6 -7 -8 -7 -7 -8 -8 -8 -8 -8 -8 -8 -6 -6 -7 -6 -7 -9 -10 -10 -11 -11 -10 -9 -10 -10 -10 -10 -10 -10 -9 -8 -7 -4 -4 -5 -11 -18 -23 -23 -20 -17 -17 -17 -17 -17 -17 -17 -16 -16 -16 -16 -16
-6 -7 -7 -8 -8 -7 -8 -8 -8 -8 -8 -7 -6 -6 -8 -9 -9 -9 -10 -10 -10 -9 -9 -9 -9 -9 -9 -10 -10 -10 -10 -9 -6 -7 -7 -9 -10 -13 -19 -22 -21 -19 -18 -17 -17 -17 -17 -17 -16 -16 -16 -16 -16 -16
-6 -8 -8 -8 -10 -9 -8 -8 -7 -6 -7 -7 -8 -8 -8 -9 -9 -9 -9 -9 -9 -9 -9 -9 -9 -9 -10 -10 -10 -10 -10 -8 -7 -6 -9 -11 -13 -17 -21 -22 -20 -18 -17 -17 -17 -17 -16 -16 -16 -16 -16 -16 -16 -16
-8 -10 -10 -10 -10 -9 -8 -7 -8 -9 -10 -10 -9 -9 -9 -9 -9 -9 -10 -10 -9 -10 -10 -10 -10 -10 -10 -10 -10 -10 -10 -8 -7 -9 -11 -13 -17 -22 -21 -13 -17 -17 -17 -17 -17 -16 -16 -16 -16 -16 -16 -16 -15 -15

GFSWCAN_850_dewp_096.txt.gz
Dewpoint
7 -1 -16 -16 -11 -1 1 -1 -21 -19 -9 -5 -2 -1 -2 -1 -1 -1 -5 -5 -3 -3 -3 -2 -0 -0 -0 0 1 0 -0 0 1 1 0 -0 -1 -2 -1 -4 -3 -3 -2 -1 -1 0 -1 -3 -2 -2 -6 -2 -2 -2
7 7 -7 -15 -15 -3 1 0 -10 -24 -14 -8 -5 -3 -1 -2 -1 -1 -1 -4 -5 -1 -1 -1 -1 -0 -0 -0 -0 0 0 0 1 0 -0 -1 -1 -2 -3 -1 -5 -1 -3 -3 -3 -3 -6 -3 -4 -4 -4 -4 -3 -3
6 6 1 -14 -13 -6 2 1 -2 -23 -18 -8 -9 -6 -1 -2 -1 0 0 -1 -5 -2 -2 -2 -2 -1 -1 -1 -1 -0 0 0 1 -0 -0 -0 1 -2 -0 -2 -3 -4 -3 -2 -3 -7 -4 -4 -4 -3 -3 -3 -3 -3
6 6 6 -7 -11 -3 2 2 0 -13 -21 -9 -9 -6 -1 -1 -1 -0 0 -0 -5 -3 -1 -1 -2 -1 -1 -1 -1 -1 -0 -0 -0 -0 -0 -0 1 -2 -1 -2 -2 -4 -3 -2 -2 -4 -4 -4 -3 -3 -2 -3 -3 -2
6 6 6 5 -12 -1 3 2 1 -6 -23 -10 -8 -8 -1 -1 -1 -1 0 -0 -2 -6 -3 -5 -4 -4 -2 -2 -2 -2 -1 -1 -0 -0 -2 -0 -0 -1 -2 -3 -2 -3 -2 -2 -2 -5 -5 -5 -5 -3 -3 -3 -3 -3
6 6 6 5 -11 -3 3 3 2 -2 -22 -13 -8 -9 -2 -1 -2 -1 -0 -0 -3 -6 -6 -4 -3 -2 -3 -3 -3 -2 -1 -1 -0 0 -0 0 1 -1 -1 -0 -3 -4 -4 -4 -4 -4 -5 -4 -3 -3 -3 -3 -3 -3
7 6 6 5 -9 -8 2 3 2 0 -20 -13 -8 -10 -8 -1 -1 -2 -1 -2 -5 -6 -6 -5 -6 -2 -4 -4 -3 -2 -2 -1 -1 -1 -1 -1 -1 -1 -3 0 -3 -4 -4 -4 -4 -4 -3 -3 -3 -3 -3 -3 -3 -4
7 6 6 4 -5 -7 2 3 2 1 -18 -9 -7 -6 -7 -1 -1 -1 -3 -3 -6 -6 -7 -7 -7 -4 -5 -3 -3 -2 -2 -2 -2 -2 -1 -3 -2 -2 -1 -2 -2 -3 -3 -3 -3 -3 -4 -4 -3 -3 -3 -3 -5 -9
6 7 6 6 3 -3 1 3 2 0 -15 -4 -2 -2 -1 -1 -2 -3 -3 -3 -3 -5 -6 -5 -7 -6 -4 -3 -3 -3 -3 -3 -2 -2 -3 -3 -3 -1 -2 -3 -3 -3 -3 -3 -3 -3 -3 -3 -3 -3 -4 -6 -11 -14
6 6 6 6 5 0 2 3 3 -3 -7 -2 -1 -1 -2 -3 -3 -4 -5 -5 -4 -5 -5 -4 -6 -4 -4 -3 -3 -3 -3 -3 -5 -3 -3 -3 -2 -3 -4 -4 -5 -5 -5 -3 -3 -3 -3 -3 -3 -5 -8 -11 -13 -13
5 5 5 6 5 1 3 3 3 -5 -3 -2 -2 -4 -3 -4 -6 -5 -4 -4 -3 -3 -5 -6 -4 -4 -4 -5 -3 -3 -5 -5 -5 -5 -3 -4 -3 -3 -4 -5 -6 -4 -4 -4 -4 -4 -4 -4 -5 -8 -10 -12 -13 -13
5 5 5 5 5 1 3 3 3 -4 -3 -3 -3 -4 -5 -5 -4 -7 -8 -6 -5 -4 -4 -4 -4 -4 -3 -3 -3 -3 -5 -4 -3 -5 -4 -4 -5 -7 -4 -6 -5 -4 -3 -4 -4 -6 -6 -6 -8 -10 -12 -13 -12 -20
4 5 4 4 4 1 3 3 2 -2 -2 -1 -2 -5 -5 -5 -5 -6 -6 -7 -8 -7 -4 -4 -5 -4 -4 -4 -3 -5 -5 -4 -5 -7 -4 -5 -7 -7 -7 -5 -4 -4 -4 -4 -6 -7 -8 -9 -12 -13 -12 -15 -24 -24
4 4 4 4 3 2 3 3 1 -1 -1 -2 -3 -5 -5 -5 -4 -4 -5 -6 -9 -7 -5 -6 -4 -4 -4 -4 -5 -6 -5 -6 -6 -4 -6 -7 -9 -7 -9 -5 -5 -5 -6 -7 -8 -10 -11 -12 -12 -12 -16 -24 -22 -18
4 4 4 3 3 2 3 2 0 -1 -1 -2 -2 -3 -4 -5 -6 -5 -6 -5 -6 -7 -6 -5 -5 -5 -6 -5 -5 -6 -5 -4 -6 -6 -7 -10 -8 -10 -10 -6 -5 -6 -6 -7 -8 -9 -11 -12 -11 -16 -24 -21 -18 -17
4 3 3 3 3 2 2 1 -1 -1 -1 -1 -2 -2 -3 -4 -4 -3 -3 -6 -7 -6 -6 -6 -6 -6 -5 -6 -6 -6 -7 -6 -7 -8 -10 -13 -12 -12 -11 -7 -5 -5 -7 -7 -8 -9 -12 -11 -13 -23 -23 -18 -17 -16
3 3 3 3 2 2 2 -1 -1 -1 -0 -1 -2 -2 -2 -3 -3 -4 -4 -7 -7 -7 -5 -6 -7 -7 -6 -8 -5 -7 -7 -7 -10 -11 -14 -13 -10 -10 -11 -9 -6 -6 -6 -7 -7 -11 -11 -12 -20 -23 -19 -17 -16 -16
3 3 3 2 2 1 -2 -1 -1 -0 -1 -1 -1 -2 -2 -3 -3 -3 -4 -6 -6 -6 -6 -7 -8 -7 -6 -6 -6 -7 -7 -8 -9 -10 -14 -14 -10 -8 -9 -10 -7 -6 -7 -7 -10 -11 -11 -15 -23 -21 -18 -16 -17 -16
3 2 2 2 1 -2 -2 -2 -2 -1 -1 -2 -1 -2 -2 -2 -2 -2 -3 -5 -7 -8 -7 -6 -7 -6 -7 -8 -9 -11 -11 -11 -11 -11 -13 -14 -12 -8 -8 -8 -8 -7 -7 -9 -10 -10 -11 -21 -22 -18 -17 -16 -17 -16
2 2 2 2 0 -1 -1 -1 -2 -2 -2 -3 -3 -2 -2 -3 -3 -2 -3 -4 -6 -6 -6 -6 -6 -8 -9 -10 -10 -11 -11 -11 -11 -11 -12 -12 -11 -8 -8 -8 -8 -8 -7 -9 -10 -10 -16 -22 -23 -18 -17 -16 -17 -16
2 2 2 0 -1 -1 -1 -2 -2 -2 -2 -3 -3 -3 -3 -3 -3 -2 -2 -4 -4 -5 -6 -7 -7 -9 -9 -9 -10 -10 -10 -10 -9 -8 -8 -8 -8 -7 -7 -8 -8 -8 -7 -8 -9 -10 -18 -23 -21 -17 -17 -16 -17 -16
1 0 -1 -2 -2 -1 -1 -2 -2 -2 -3 -4 -3 -3 -4 -4 -4 -4 -3 -4 -5 -5 -6 -7 -8 -8 -8 -9 -9 -9 -9 -8 -8 -8 -7 -7 -7 -7 -7 -7 -7 -8 -8 -8 -8 -11 -20 -22 -19 -17 -17 -16 -17 -16
-1 -1 -2 -2 -2 -2 -3 -2 -3 -4 -6 -4 -4 -4 -5 -5 -4 -4 -4 -4 -5 -5 -6 -6 -6 -6 -6 -7 -7 -8 -8 -7 -7 -7 -7 -7 -7 -7 -6 -6 -7 -8 -8 -9 -9 -13 -20 -21 -18 -17 -16 -16 -16 -16
-2 -2 -2 -2 -3 -3 -4 -4 -4 -5 -6 -5 -4 -5 -6 -5 -5 -4 -4 -5 -5 -6 -6 -6 -6 -6 -6 -6 -6 -8 -8 -8 -7 -7 -7 -6 -6 -6 -6 -6 -6 -7 -9 -9 -10 -14 -19 -20 -16 -17 -16 -16 -16 -15
-3 -3 -2 -3 -3 -5 -5 -5 -6 -6 -6 -6 -6 -6 -6 -5 -4 -4 -5 -8 -7 -7 -8 -8 -8 -7 -7 -8 -8 -9 -9 -9 -8 -8 -8 -7 -6 -6 -6 -6 -6 -8 -9 -10 -11 -15 -18 -18 -16 -17 -17 -16 -16 -15
-2 -3 -3 -3 -5 -6 -7 -6 -6 -7 -7 -7 -7 -7 -7 -7 -6 -5 -7 -8 -9 -9 -10 -9 -9 -7 -8 -9 -9 -10 -10 -9 -8 -7 -8 -7 -7 -7 -7 -6 -7 -8 -9 -12 -13 -16 -20 -18 -16 -17 -17 -16 -15 -15
-2 -2 -2 -3 -6 -7 -8 -8 -7 -6 -5 -5 -7 -8 -7 -5 -5 -7 -8 -8 -9 -9 -9 -10 -11 -10 -11 -11 -10 -9 -8 -8 -7 -8 -7 -7 -7 -7 -7 -7 -7 -6 -7 -12 -17 -21 -20 -17 -17 -17 -16 -16 -15 -15
-2 -3 -3 -6 -7 -8 -8 -7 -7 -6 -6 -8 -7 -6 -5 -6 -6 -8 -8 -9 -8 -9 -12 -11 -11 -11 -10 -10 -9 -9 -9 -9 -9 -8 -7 -7 -7 -6 -6 -6 -5 -5 -9 -18 -23 -20 -18 -17 -17 -17 -16 -16 -16 -15
-5 -5 -6 -8 -8 -8 -7 -7 -7 -6 -7 -7 -6 -6 -7 -7 -8 -8 -8 -9 -10 -11 -13 -13 -11 -11 -10 -10 -10 -10 -10 -10 -10 -9 -8 -7 -7 -4 -2 -2 -3 -8 -19 -22 -19 -17 -17 -17 -17 -16 -16 -16 -16 -16
-6 -6 -9 -8 -8 -7 -8 -8 -8 -7 -7 -7 -7 -7 -7 -7 -8 -8 -9 -9 -8 -10 -13 -12 -12 -11 -10 -10 -10 -10 -10 -10 -10 -9 -9 -8 -7 -6 -5 -5 -9 -18 -21 -14 -17 -18 -17 -16 -16 -16 -16 -16 -16 -16
-6 -6 -9 -10 -9 -8 -8 -8 -8 -7 -7 -7 -7 -6 -7 -8 -8 -7 -7 -6 -7 -7 -10 -10 -10 -10 -10 -10 -10 -10 -9 -10 -10 -10 -10 -8 -7 -6 -4 -6 -13 -21 -20 -19 -17 -17 -17 -17 -16 -16 -17 -16 -16 -16
-6 -7 -7 -7 -10 -8 -7 -7 -7 -7 -6 -6 -6 -6 -7 -8 -8 -9 -8 -8 -8 -9 -9 -9 -9 -10 -10 -10 -9 -9 -9 -10 -10 -10 -9 -7 -6 -6 -7 -9 -15 -21 -21 -18 -17 -17 -16 -16 -17 -17 -16 -16 -16 -16
-9 -9 -10 -10 -10 -9 -8 -7 -7 -9 -9 -10 -8 -8 -8 -8 -8 -8 -7 -7 -7 -7 -8 -9 -10 -10 -10 -9 -9 -9 -10 -10 -10 -8 -5 -6 -7 -9 -11 -13 -17 -20 -18 -16 -17 -17 -16 -16 -16 -16 -16 -16 -16 -16

GFSWCAN_850_dewp_099.txt.gz
Dewpoint
7 6 7 6 -3 -12 -15 -1 1 -6 -23 -15 -8 -9 -3 -2 -1 -1 -2 -5 -4 -3 -4 -4 -2 -0 -0 0 0 -0 -0 -1 0 1 1 -0 -1 -2 -1 -3 -3 -3 -2 -1 -1 0 -0 -3 -2 -3 -5 -3 -2 -2
7 6 6 7 3 -7 -12 -8 2 0 -16 -22 -9 -9 -4 -2 -2 -1 -1 -2 -4 -4 -2 -2 -3 -2 -0 -0 -0 0 -0 -0 1 0 -0 -1 -0 -2 -3 -1 -5 -1 -4 -5 -2 -2 -6 -4 -4 -4 -4 -4 -3 -3
6 6 6 6 6 -2 -11 -6 1 1 -5 -22 -13 -8 -10 -2 -2 -1 0 0 -1 -3 -3 -2 -3 -3 -1 -1 -1 -1 0 0 0 0 -1 -1 1 -2 -0 -1 -3 -5 -4 -2 -3 -5 -5 -5 -4 -4 -4 -4 -4 -4
6 6 6 6 6 6 -2 -6 0 2 0 -19 -18 -8 -8 -2 -1 -1 -0 -0 -1 -4 -2 -3 -2 -2 -2 -1 -1 -1 -1 -0 -0 -0 -1 -1 0 -2 -1 -2 -3 -4 -3 -3 -3 -4 -5 -5 -5 -5 -4 -3 -3 -3
5 6 6 7 6 6 4 -3 1 3 1 -11 -18 -10 -9 -2 -2 -2 -1 0 -0 -4 -4 -5 -5 -4 -2 -2 -2 -2 -1 -1 -1 -0 -2 -0 -1 -1 -2 -3 -1 -3 -3 -2 -2 -5 -5 -6 -6 -5 -4 -3 -3 -3
5 6 6 7 6 6 5 -2 1 2 2 -5 -18 -9 -9 -6 -2 -2 -0 -0 -0 -3 -6 -5 -5 -3 -4 -4 -3 -3 -2 -1 -1 -0 -1 -0 -0 -1 -1 -1 -3 -4 -4 -3 -3 -4 -4 -5 -4 -4 -4 -3 -3 -3
3 5 6 7 6 6 4 0 1 3 2 -2 -18 -9 -8 -10 -5 -1 -1 -1 -4 -5 -6 -6 -6 -3 -4 -4 -3 -3 -2 -1 -1 -1 -1 -1 -1 -0 -2 1 -2 -3 -3 -3 -3 -3 -3 -4 -4 -3 -3 -2 -3 -3
1 3 5 6 6 6 5 1 1 3 2 -1 -14 -7 -7 -7 -4 -2 -1 -3 -4 -6 -6 -8 -7 -5 -4 -4 -3 -2 -2 -2 -2 -2 -2 -2 -2 -2 -0 -2 -2 -2 -3 -4 -3 -3 -3 -3 -4 -3 -2 -3 -3 -4
-1 0 4 6 6 5 5 0 2 3 2 -3 -10 -3 -2 -2 -1 -2 -2 -3 -2 -4 -6 -6 -8 -7 -4 -3 -3 -2 -3 -3 -3 -3 -3 -3 -3 -1 -2 -2 -3 -3 -4 -5 -4 -3 -3 -3 -3 -3 -3 -3 -3 -5
-4 -2 2 5 5 5 4 2 2 3 2 -6 -4 -2 -2 -2 -2 -3 -4 -4 -4 -4 -4 -5 -6 -4 -4 -3 -3 -3 -3 -3 -5 -3 -3 -3 -2 -3 -3 -3 -4 -5 -6 -4 -4 -3 -3 -3 -3 -3 -3 -4 -6 -11
-1 -1 -0 4 5 5 4 2 2 3 -1 -2 -2 -3 -4 -4 -5 -5 -4 -4 -3 -3 -4 -5 -6 -4 -5 -4 -3 -3 -5 -6 -4 -4 -3 -4 -3 -4 -6 -5 -8 -7 -4 -4 -4 -4 -3 -3 -3 -3 -4 -8 -11 -13
-2 -2 0 4 5 4 4 2 2 2 0 -3 -4 -4 -4 -5 -5 -5 -6 -6 -4 -3 -5 -5 -4 -4 -5 -4 -3 -3 -4 -4 -2 -5 -4 -3 -6 -8 -7 -8 -8 -5 -4 -4 -3 -4 -5 -4 -4 -4 -8 -10 -12 -13
-1 1 1 2 4 4 4 3 2 1 -1 -1 -1 -4 -5 -5 -4 -6 -5 -4 -5 -6 -4 -5 -4 -4 -4 -4 -4 -6 -5 -3 -5 -7 -4 -5 -7 -8 -8 -10 -6 -5 -4 -4 -4 -6 -6 -6 -6 -8 -10 -13 -13 -17
1 1 2 2 4 4 3 3 2 -0 -0 -1 -1 -3 -4 -5 -5 -5 -4 -4 -7 -7 -5 -5 -4 -5 -5 -5 -5 -6 -5 -6 -5 -4 -5 -7 -10 -10 -11 -10 -6 -6 -5 -5 -6 -7 -8 -9 -10 -12 -12 -13 -21 -25
1 1 2 2 4 4 3 3 2 -1 -1 -1 -2 -2 -4 -6 -6 -6 -6 -7 -7 -6 -6 -6 -5 -5 -6 -6 -5 -6 -5 -3 -5 -5 -6 -11 -12 -12 -13 -12 -8 -7 -6 -6 -8 -10 -10 -11 -12 -12 -13 -22 -24 -20
2 1 1 2 3 4 3 2 0 -1 -1 -1 -2 -3 -4 -5 -5 -4 -5 -4 -5 -5 -8 -7 -5 -6 -6 -6 -5 -5 -6 -5 -6 -7 -10 -13 -11 -11 -11 -12 -10 -7 -7 -6 -7 -9 -10 -11 -12 -11 -17 -24 -21 -18
2 2 2 1 3 3 2 -0 -1 -2 -1 -1 -2 -2 -4 -3 -4 -5 -4 -3 -6 -7 -4 -5 -6 -6 -6 -6 -4 -6 -6 -6 -9 -11 -13 -14 -11 -9 -8 -10 -11 -9 -7 -7 -7 -8 -8 -11 -12 -11 -18 -24 -19 -17
2 1 2 2 3 2 -1 -1 -1 -1 -2 -1 -2 -2 -2 -3 -3 -3 -2 -4 -5 -6 -7 -5 -8 -7 -5 -4 -4 -6 -7 -9 -10 -13 -15 -15 -13 -10 -8 -8 -8 -9 -9 -7 -7 -7 -8 -11 -11 -12 -21 -23 -18 -17
1 2 2 2 3 -0 -1 -2 -1 -2 -1 -1 -1 -3 -3 -3 -3 -3 -2 -3 -7 -7 -9 -7 -8 -7 -5 -6 -5 -9 -10 -10 -11 -11 -11 -11 -14 -13 -9 -7 -8 -8 -9 -9 -7 -7 -8 -11 -11 -14 -22 -21 -18 -17
1 2 2 2 2 0 -1 -2 -2 -2 -2 -2 -1 -2 -2 -3 -4 -3 -2 -2 -4 -5 -6 -7 -7 -7 -8 -9 -7 -7 -10 -11 -12 -11 -12 -11 -12 -13 -11 -9 -8 -8 -8 -8 -8 -7 -8 -10 -10 -14 -22 -22 -18 -17
1 2 2 2 0 -0 -1 -2 -2 -1 -2 -3 -2 -2 -2 -3 -2 -2 -2 -2 -3 -4 -6 -7 -8 -9 -9 -9 -7 -6 -9 -10 -10 -10 -10 -10 -10 -9 -8 -8 -8 -8 -8 -8 -8 -8 -9 -9 -10 -13 -21 -21 -18 -16
1 2 0 -0 -1 -1 -1 -2 -2 -2 -2 -4 -3 -3 -4 -4 -4 -3 -3 -3 -3 -3 -4 -5 -6 -6 -7 -8 -8 -7 -7 -8 -9 -10 -10 -9 -8 -8 -8 -8 -8 -8 -7 -7 -7 -8 -8 -9 -9 -14 -21 -19 -17 -17
1 0 -1 -2 -2 -3 -3 -2 -3 -3 -4 -4 -3 -4 -5 -5 -4 -3 -4 -4 -3 -3 -3 -3 -5 -5 -6 -6 -6 -7 -7 -8 -8 -8 -9 -8 -8 -8 -7 -7 -7 -7 -7 -7 -7 -7 -8 -8 -9 -15 -19 -17 -16 -16
-0 -1 -1 -2 -3 -3 -3 -4 -4 -5 -4 -4 -3 -4 -6 -5 -5 -5 -4 -5 -5 -5 -4 -4 -4 -4 -4 -4 -4 -5 -6 -7 -7 -7 -7 -7 -7 -8 -8 -8 -7 -7 -6 -6 -6 -7 -8 -9 -10 -16 -19 -17 -17 -16
-2 -3 -2 -3 -3 -5 -5 -6 -7 -6 -6 -7 -6 -7 -7 -5 -5 -5 -5 -7 -6 -6 -6 -5 -5 -5 -4 -4 -4 -4 -5 -5 -7 -7 -8 -8 -8 -7 -8 -7 -7 -6 -6 -6 -6 -7 -9 -9 -11 -16 -19 -17 -17 -17
-2 -3 -3 -3 -5 -6 -7 -7 -7 -8 -8 -7 -7 -8 -6 -6 -5 -6 -8 -6 -6 -6 -7 -7 -6 -6 -5 -5 -5 -5 -6 -7 -8 -8 -8 -8 -9 -9 -8 -8 -7 -7 -7 -6 -6 -8 -9 -10 -12 -17 -18 -17 -17 -16
-2 -3 -3 -3 -5 -7 -8 -8 -8 -8 -8 -6 -8 -8 -7 -5 -6 -7 -7 -7 -7 -8 -8 -8 -7 -7 -7 -7 -8 -8 -8 -8 -9 -9 -9 -9 -8 -8 -7 -7 -8 -8 -7 -7 -7 -8 -10 -11 -14 -19 -18 -17 -17 -17
-2 -3 -3 -5 -8 -8 -9 -9 -9 -7 -7 -8 -7 -8 -6 -6 -6 -8 -8 -8 -8 -8 -7 -7 -8 -9 -10 -11 -10 -10 -9 -9 -9 -9 -9 -9 -9 -9 -8 -8 -7 -7 -7 -7 -7 -8 -11 -13 -18 -19 -17 -17 -17 -16
-4 -4 -5 -6 -10 -9 -9 -8 -7 -7 -7 -7 -6 -6 -7 -7 -8 -8 -8 -6 -7 -7 -8 -9 -9 -10 -11 -11 -10 -9 -9 -9 -10 -10 -10 -10 -10 -10 -9 -7 -7 -7 -8 -6 -8 -14 -15 -19 -19 -17 -17 -17 -16 -16
-5 -5 -7 -9 -8 -7 -8 -7 -7 -7 -7 -7 -7 -7 -7 -7 -7 -8 -8 -7 -6 -6 -9 -11 -12 -12 -11 -10 -10 -9 -10 -10 -10 -10 -10 -10 -10 -9 -9 -8 -5 -4 -4 -5 -15 -21 -19 -17 -16 -17 -16 -16 -16 -16
-5 -6 -9 -10 -9 -8 -7 -7 -7 -7 -7 -7 -7 -7 -7 -7 -7 -8 -8 -5 -3 -3 -9 -11 -12 -12 -12 -11 -11 -11 -10 -11 -10 -10 -10 -10 -10 -9 -8 -7 -6 -4 -3 -12 -21 -19 -17 -15 -13 -16 -17 -16 -16 -16
-6 -6 -8 -8 -10 -8 -7 -7 -7 -7 -7 -7 -6 -7 -7 -7 -7 -7 -6 -5 -5 -7 -9 -9 -10 -11 -11 -11 -11 -10 -10 -10 -9 -9 -9 -10 -9 -9 -7 -6 -5 -5 -8 -19 -17 -16 -10 -13 -16 -17 -16 -16 -16 -16
-8 -8 -9 -9 -9 -9 -8 -7 -8 -10 -8 -9 -8 -7 -7 -7 -6 -5 -5 -5 -6 -8 -8 -7 -7 -7 -8 -9 -9 -10 -9 -9 -9 -9 -10 -10 -10 -9 -7 -6 -5 -6 -16 -19 -18 -8 -9 -16 -17 -17 -16 -16 -16 -16

GFSWCAN_850_dewp_102.txt.gz
Dewpoint
6 6 6 6 6 6 4 -3 -9 -0 0 -14 -20 -10 -10 -6 -2 -2 -2 -2 -5 -3 -5 -4 -3 -2 -0 0 -0 -1 -0 -1 -0 -0 1 -0 -1 -2 -1 -3 -3 -3 -2 -1 -1 1 0 -3 -2 -3 -6 -4 -3 -2
6 6 6 6 6 6 6 3 -3 -2 1 -2 -20 -13 -8 -6 -3 -2 -1 -1 -2 -3 -4 -4 -4 -3 -2 -1 -0 0 -0 -1 0 -0 -0 -1 0 -3 -3 -1 -5 -3 -5 -5 -3 -3 -6 -4 -3 -5 -4 -4 -4 -4
4 6 6 6 6 6 6 6 3 -1 2 1 -9 -20 -8 -7 -2 -2 -2 -0 0 -1 -3 -3 -3 -3 -3 -2 -1 -1 -0 -0 0 0 -1 -1 1 -1 0 -2 -3 -5 -5 -3 -3 -5 -5 -6 -6 -5 -4 -4 -4 -4
2 5 6 6 6 6 6 6 5 1 1 2 -1 -18 -11 -8 -2 -2 -2 -1 -0 -2 -3 -4 -3 -2 -3 -2 -1 -1 -1 -0 -0 0 -0 -1 0 -2 -1 -2 -3 -4 -4 -3 -3 -4 -5 -6 -6 -6 -5 -5 -4 -3
1 4 5 6 6 6 6 6 5 2 2 2 2 -12 -13 -9 -4 -1 -1 -2 -0 -1 -4 -5 -3 -3 -4 -2 -2 -1 -1 -1 -1 -1 -2 -0 -1 -2 -2 -3 -2 -3 -3 -2 -2 -5 -5 -5 -5 -5 -5 -5 -4 -3
2 3 3 4 6 6 6 6 5 3 1 2 2 -5 -11 -7 -6 -1 -2 -0 -0 -0 -3 -4 -6 -5 -4 -3 -2 -2 -2 -2 -1 -0 -1 -1 -1 -1 -1 -1 -3 -3 -3 -3 -3 -4 -3 -3 -3 -4 -4 -4 -4 -3
1 1 2 2 3 6 5 6 5 3 0 3 2 0 -12 -6 -8 -2 -2 -1 -3 -5 -6 -5 -6 -4 -3 -3 -3 -3 -2 -1 -1 -1 -1 -1 -1 -0 -1 1 -3 -3 -3 -3 -3 -3 -3 -3 -3 -3 -4 -4 -3 -3
-6 -3 -1 1 1 4 5 6 5 4 1 3 2 0 -11 -6 -5 -6 -4 -1 -2 -5 -6 -8 -6 -7 -4 -4 -3 -3 -2 -2 -1 -1 -2 -2 -2 -2 0 -2 -2 -2 -2 -2 -3 -4 -4 -4 -3 -3 -3 -3 -3 -3
-9 -9 -6 -2 -0 2 5 5 5 4 1 2 2 -3 -6 -2 -2 -2 -2 -2 -2 -3 -6 -6 -7 -6 -4 -3 -3 -2 -3 -3 -3 -3 -3 -2 -2 -1 -2 -2 -2 -3 -2 -3 -4 -6 -6 -4 -3 -3 -3 -3 -3 -3
-10 -11 -11 -8 -4 -1 3 4 4 3 2 2 1 -3 -0 -1 -2 -2 -2 -3 -3 -3 -3 -5 -6 -6 -4 -3 -3 -3 -3 -3 -5 -3 -3 -2 -2 -3 -4 -4 -4 -4 -4 -7 -5 -5 -4 -3 -3 -3 -3 -3 -3 -3
-11 -11 -12 -11 -5 -2 1 4 3 2 2 1 -0 -2 -3 -3 -3 -4 -4 -3 -3 -3 -4 -4 -6 -5 -5 -4 -4 -3 -5 -5 -4 -4 -4 -4 -3 -4 -6 -7 -6 -7 -8 -5 -4 -4 -4 -4 -3 -3 -3 -3 -3 -5
-10 -11 -11 -9 -7 -2 0 3 3 2 1 1 -2 -3 -3 -4 -4 -3 -3 -6 -4 -3 -4 -5 -6 -5 -5 -4 -3 -3 -4 -5 -2 -5 -4 -2 -5 -7 -8 -9 -10 -9 -6 -4 -4 -4 -4 -4 -4 -3 -3 -4 -5 -10
-8 -10 -11 -10 -5 -2 1 3 3 2 1 0 -0 -1 -2 -3 -4 -3 -5 -5 -3 -4 -5 -4 -4 -5 -4 -4 -4 -5 -5 -3 -5 -5 -3 -4 -7 -9 -11 -12 -12 -9 -6 -4 -4 -4 -5 -5 -5 -4 -4 -6 -10 -11
-8 -6 -3 -1 -1 -0 2 2 2 2 1 0 -1 -2 -3 -5 -5 -5 -5 -5 -7 -6 -5 -4 -4 -5 -5 -4 -5 -5 -4 -6 -4 -2 -4 -5 -8 -10 -13 -13 -12 -10 -8 -6 -5 -5 -6 -7 -6 -6 -8 -10 -12 -13
-8 -5 -2 -1 -1 -0 2 2 2 2 -0 -1 -1 -1 -2 -5 -6 -6 -6 -8 -8 -6 -5 -5 -5 -5 -5 -5 -5 -5 -4 -3 -4 -5 -5 -9 -12 -14 -14 -14 -13 -12 -10 -8 -6 -6 -8 -9 -9 -9 -11 -12 -13 -21
-7 -8 -7 -1 -1 -0 0 2 1 1 -0 -1 -2 -2 -4 -5 -6 -5 -5 -6 -6 -5 -7 -7 -4 -4 -4 -5 -5 -5 -4 -3 -4 -6 -9 -12 -14 -13 -14 -13 -12 -12 -10 -8 -6 -6 -8 -10 -10 -11 -12 -12 -17 -26
-5 -3 -3 -3 -0 0 0 2 -1 -1 -1 -2 -2 -1 -3 -5 -5 -6 -6 -5 -5 -6 -3 -4 -5 -5 -6 -6 -5 -5 -4 -3 -8 -11 -11 -13 -14 -14 -13 -11 -10 -10 -11 -10 -9 -8 -7 -8 -10 -11 -12 -11 -14 -25
-4 -2 -1 -0 -0 1 2 1 -1 -1 -3 -2 -2 -2 -2 -4 -4 -4 -5 -6 -5 -5 -6 -4 -8 -6 -6 -6 -5 -4 -6 -7 -9 -11 -11 -12 -15 -13 -12 -10 -9 -9 -9 -9 -9 -8 -7 -8 -8 -8 -10 -11 -14 -23
-4 -4 -2 0 1 2 1 -1 -1 -2 -2 -1 -2 -2 -2 -2 -3 -4 -6 -5 -5 -5 -8 -7 -6 -7 -7 -6 -4 -8 -7 -8 -10 -12 -12 -14 -15 -15 -14 -12 -9 -8 -8 -8 -9 -9 -8 -8 -8 -7 -9 -11 -12 -21
-3 -3 -3 -0 1 1 -1 -2 -2 -2 -2 -1 -1 -2 -2 -3 -3 -3 -4 -3 -3 -4 -4 -6 -7 -8 -9 -10 -11 -10 -7 -7 -8 -11 -12 -11 -12 -12 -12 -13 -13 -9 -8 -8 -8 -8 -8 -8 -7 -7 -10 -11 -12 -20
-2 -2 -2 -0 1 -0 -0 -2 -2 -2 -2 -2 -2 -2 -2 -3 -3 -3 -3 -3 -3 -3 -4 -5 -8 -9 -9 -10 -10 -10 -8 -7 -6 -7 -8 -10 -11 -11 -10 -10 -12 -11 -9 -8 -8 -8 -8 -8 -8 -8 -8 -10 -10 -19
-1 -1 -0 0 1 -1 -1 -2 -2 -2 -2 -3 -2 -2 -4 -4 -3 -3 -3 -3 -3 -3 -3 -3 -3 -3 -4 -6 -8 -9 -8 -8 -7 -7 -7 -8 -8 -8 -9 -10 -11 -10 -8 -8 -8 -8 -8 -7 -8 -8 -8 -9 -10 -17
-2 -1 -0 -1 -1 -3 -3 -2 -2 -3 -4 -3 -3 -3 -6 -6 -4 -3 -3 -3 -3 -3 -3 -3 -3 -3 -3 -3 -3 -4 -4 -5 -6 -6 -6 -7 -7 -7 -8 -9 -10 -9 -8 -8 -8 -8 -8 -7 -7 -8 -8 -9 -10 -17
-1 -0 -1 -2 -2 -3 -3 -3 -4 -5 -4 -3 -3 -5 -7 -8 -4 -4 -4 -5 -4 -4 -3 -3 -3 -3 -3 -3 -3 -3 -3 -4 -4 -5 -4 -4 -5 -5 -6 -8 -8 -8 -7 -7 -7 -7 -7 -7 -7 -8 -8 -9 -10 -18
-2 -2 -3 -3 -3 -4 -4 -7 -8 -6 -6 -5 -4 -8 -7 -6 -5 -5 -7 -8 -6 -5 -5 -4 -4 -4 -3 -3 -4 -4 -4 -3 -3 -3 -3 -4 -4 -5 -6 -6 -6 -7 -7 -7 -7 -7 -7 -6 -7 -8 -8 -9 -10 -18
-2 -2 -3 -4 -6 -6 -6 -6 -8 -9 -9 -7 -5 -7 -6 -5 -5 -6 -8 -6 -6 -6 -6 -6 -5 -4 -3 -3 -4 -4 -4 -4 -4 -4 -5 -4 -5 -6 -7 -8 -9 -9 -8 -8 -7 -7 -6 -6 -7 -8 -9 -9 -13 -18
-2 -3 -3 -3 -5 -6 -8 -9 -8 -8 -8 -6 -7 -7 -6 -4 -6 -8 -7 -7 -7 -7 -7 -7 -6 -6 -6 -5 -5 -5 -5 -5 -5 -5 -5 -6 -7 -8 -9 -9 -9 -9 -7 -7 -7 -7 -7 -6 -6 -8 -9 -10 -15 -19
-4 -4 -3 -5 -7 -7 -10 -10 -9 -8 -8 -8 -8 -6 -5 -6 -6 -7 -8 -8 -8 -8 -7 -7 -7 -7 -6 -6 -6 -6 -6 -6 -5 -5 -7 -8 -9 -9 -9 -9 -9 -8 -7 -7 -7 -7 -7 -7 -7 -9 -10 -12 -17 -18
-4 -3 -5 -6 -10 -10 -9 -8 -8 -8 -7 -8 -7 -7 -8 -7 -7 -7 -8 -8 -7 -8 -7 -8 -8 -8 -8 -8 -8 -8 -9 -9 -9 -8 -8 -10 -10 -11 -10 -10 -9 -8 -7 -7 -7 -7 -8 -8 -9 -11 -12 -17 -18 -16
-5 -4 -6 -7 -5 -7 -7 -7 -8 -7 -7 -7 -7 -7 -7 -7 -7 -7 -7 -8 -8 -8 -7 -5 -6 -7 -7 -8 -9 -9 -10 -10 -9 -9 -10 -11 -11 -10 -10 -10 -9 -8 -7 -7 -7 -7 -8 -11 -12 -15 -17 -17 -16 -16
-4 -4 -8 -9 -8 -7 -6 -7 -7 -7 -7 -7 -7 -7 -7 -7 -7 -7 -7 -7 -8 -7 -7 -6 -4 -4 -4 -9 -10 -10 -10 -10 -10 -10 -10 -10 -10 -10 -10 -10 -8 -8 -6 -5 -5 -7 -13 -16 -19 -18 -17 -16 -16 -16
-5 -6 -9 -10 -11 -8 -7 -7 -7 -7 -7 -7 -7 -7 -7 -7 -7 -7 -7 -7 -7 -7 -7 -7 -5 -5 -5 -5 -10 -11 -11 -12 -11 -11 -11 -10 -10 -9 -9 -9 -7 -6 -5 -4 -5 -11 -20 -20 -18 -16 -11 -13 -16 -16
-7 -7 -8 -9 -9 -10 -8 -7 -8 -10 -9 -9 -7 -7 -7 -7 -7 -7 -7 -7 -7 -7 -7 -7 -7 -7 -5 -6 -11 -11 -11 -11 -10 -10 -10 -9 -9 -9 -9 -9 -6 -5 -5 -5 -6 -19 -18 -15 -11 -11 -15 -16 -16 -16

GFSWCAN_850_dewp_105.txt.gz
Dewpoint
5 5 6 6 6 6 6 6 6 4 -7 -0 -1 -16 -14 -9 -6 -4 -2 -1 -3 -4 -5 -5 -4 -3 -1 -0 -0 -1 -1 -1 -1 0 0 -0 -1 -2 -2 -4 -4 -2 -2 -0 -0 1 1 -4 -3 -3 -6 -7 -5 -3
4 4 4 6 6 6 6 6 6 5 5 -3 1 -6 -18 -10 -8 -4 -3 -1 -1 -2 -3 -4 -4 -4 -4 -3 -2 -0 -1 -1 -0 -1 -1 -1 0 -3 -3 -1 -6 -2 -5 -5 -3 -2 -6 -5 -4 -5 -4 -4 -4 -4
3 3 2 3 5 6 6 6 6 5 5 -1 1 1 -14 -14 -10 -3 -2 -2 -0 -0 -2 -2 -2 -3 -3 -3 -2 -1 -0 -0 0 0 -1 -1 0 -2 0 -2 -3 -5 -6 -4 -4 -5 -6 -6 -6 -6 -6 -6 -6 -4
3 3 2 2 4 5 6 5 6 6 5 4 -2 2 -3 -14 -9 -9 -3 -2 -1 -1 -2 -3 -3 -3 -3 -3 -2 -1 -1 -0 -0 0 -0 -1 -0 -2 -1 -2 -3 -4 -5 -4 -4 -5 -5 -5 -6 -5 -5 -5 -5 -5
2 2 1 1 2 4 5 5 5 6 5 4 -0 2 2 -12 -8 -8 -7 -3 -2 -1 -3 -3 -3 -3 -3 -3 -2 -1 -1 -1 -1 -1 -2 -0 -1 -2 -2 -3 -2 -3 -3 -2 -2 -5 -5 -5 -4 -3 -3 -3 -4 -4
1 -0 0 1 2 3 4 5 5 5 6 4 1 1 2 -6 -9 -7 -3 -1 -1 -0 -2 -3 -5 -5 -4 -3 -2 -2 -2 -1 -1 -1 -1 -1 -1 -1 -1 -1 -3 -4 -4 -3 -4 -4 -3 -3 -3 -3 -3 -3 -3 -3
-3 -2 -3 -2 0 1 2 2 5 5 5 4 2 2 2 -1 -9 -6 -3 -2 -2 -2 -5 -5 -5 -4 -3 -3 -3 -3 -2 -2 -1 -1 -1 -1 -1 -0 -2 -0 -4 -4 -4 -4 -3 -3 -3 -3 -4 -4 -5 -3 -3 -3
-7 -5 -6 -6 -5 -3 -1 1 3 5 4 4 2 2 2 -1 -5 -6 -7 -5 -1 -3 -5 -6 -5 -8 -3 -3 -3 -3 -2 -2 -1 -1 -2 -2 -2 -2 -1 -2 -3 -4 -3 -2 -3 -2 -3 -4 -4 -7 -7 -3 -3 -3
-8 -8 -8 -7 -7 -8 -4 -0 2 4 3 3 2 2 1 -1 -2 -3 -3 -2 -2 -2 -5 -5 -4 -5 -4 -4 -3 -3 -2 -3 -3 -3 -2 -2 -2 -1 -2 -2 -3 -4 -3 -3 -3 -3 -5 -8 -8 -6 -4 -3 -3 -3
-8 -9 -10 -11 -11 -10 -8 -1 1 3 3 2 1 1 -0 -1 -1 -2 -1 -2 -2 -2 -3 -4 -6 -5 -5 -3 -3 -3 -3 -3 -5 -3 -3 -2 -1 -3 -3 -4 -4 -4 -4 -4 -4 -7 -7 -4 -5 -4 -3 -3 -3 -3
-8 -9 -9 -10 -11 -11 -10 1 2 3 3 2 1 0 -0 -2 -2 -3 -3 -3 -3 -3 -3 -3 -5 -4 -5 -4 -3 -4 -4 -4 -4 -3 -3 -3 -2 -4 -5 -6 -6 -7 -7 -9 -9 -5 -5 -5 -4 -4 -3 -3 -3 -3
-9 -9 -9 -9 -10 -11 -9 -0 1 2 3 2 1 -0 -1 -1 -2 -3 -3 -4 -3 -3 -4 -4 -5 -5 -5 -4 -3 -3 -4 -4 -2 -5 -3 -2 -3 -7 -7 -9 -10 -10 -11 -10 -6 -5 -6 -5 -4 -4 -4 -3 -3 -3
-8 -8 -9 -9 -9 -9 -8 -1 1 2 2 0 0 -1 -1 -2 -2 -3 -4 -6 -5 -4 -4 -5 -5 -5 -4 -4 -4 -4 -3 -2 -6 -4 -3 -4 -6 -8 -9 -10 -12 -13 -12 -10 -6 -4 -4 -5 -6 -5 -5 -4 -4 -5
-8 -6 -8 -9 -9 -6 -3 -1 0 1 1 0 -2 -2 -2 -2 -4 -5 -5 -5 -7 -5 -5 -5 -4 -4 -4 -3 -4 -4 -4 -6 -4 -2 -3 -4 -8 -10 -12 -13 -13 -13 -12 -11 -8 -5 -5 -5 -6 -6 -5 -4 -5 -9
-13 -7 -7 -8 -8 -6 -3 -1 -0 1 1 -0 -1 -1 -3 -4 -5 -6 -6 -6 -6 -5 -5 -5 -5 -5 -5 -5 -5 -5 -4 -4 -4 -3 -3 -9 -10 -10 -12 -14 -14 -14 -13 -12 -10 -7 -5 -5 -7 -7 -7 -8 -9 -11
-16 -9 -7 -8 -7 -8 -5 -2 -0 0 0 -0 -2 -1 -2 -5 -6 -5 -6 -6 -7 -5 -5 -6 -5 -5 -5 -5 -5 -5 -6 -5 -4 -3 -9 -10 -11 -11 -15 -15 -14 -13 -12 -11 -11 -9 -8 -7 -7 -9 -9 -10 -11 -12
-13 -7 -11 -9 -8 -8 -7 -3 -0 -0 -0 -2 -2 -1 -2 -4 -3 -3 -4 -6 -6 -4 -3 -4 -3 -5 -6 -7 -6 -6 -6 -3 -6 -10 -11 -11 -11 -15 -15 -14 -14 -12 -11 -11 -11 -11 -10 -8 -8 -9 -9 -10 -11 -11
-8 -13 -11 -8 -7 -4 -1 -0 -0 -1 -3 -2 -2 -2 -1 -1 -3 -5 -5 -5 -5 -4 -4 -4 -6 -5 -6 -6 -6 -6 -7 -10 -10 -8 -10 -12 -12 -15 -15 -14 -13 -11 -10 -10 -10 -9 -9 -9 -8 -9 -8 -9 -10 -11
-9 -12 -12 -8 -5 -2 -0 -0 -0 -2 -3 -2 -2 -2 -2 -2 -2 -2 -4 -6 -6 -4 -5 -4 -4 -5 -6 -7 -7 -9 -10 -11 -9 -6 -6 -9 -13 -13 -14 -14 -13 -12 -10 -9 -9 -9 -9 -9 -9 -8 -8 -8 -8 -9
-8 -10 -11 -7 -4 -2 -1 -2 -2 -2 -3 -2 -2 -2 -2 -2 -2 -2 -3 -4 -4 -3 -3 -4 -5 -6 -9 -10 -10 -10 -9 -10 -7 -6 -7 -8 -10 -12 -10 -7 -9 -12 -13 -11 -9 -8 -8 -8 -8 -8 -8 -8 -8 -8
-8 -10 -10 -6 -3 -2 -1 -2 -3 -2 -1 -2 -2 -2 -2 -2 -3 -3 -3 -4 -3 -3 -3 -3 -4 -4 -6 -7 -9 -10 -10 -10 -8 -9 -9 -8 -8 -9 -7 -7 -5 -10 -12 -11 -11 -9 -8 -8 -8 -8 -8 -8 -8 -8
-8 -10 -6 -6 -2 -1 -2 -1 -2 -2 -2 -3 -2 -2 -3 -4 -3 -3 -3 -3 -3 -3 -3 -3 -3 -3 -3 -4 -6 -7 -8 -8 -7 -8 -8 -8 -7 -7 -6 -5 -7 -4 -5 -7 -7 -10 -11 -10 -8 -8 -8 -8 -7 -8
-7 -5 -2 -2 -2 -3 -3 -2 -2 -3 -4 -3 -2 -2 -4 -6 -3 -3 -3 -3 -3 -4 -4 -3 -3 -3 -3 -3 -3 -3 -4 -4 -5 -6 -6 -7 -7 -6 -6 -6 -5 -2 -1 -1 -4 -9 -11 -10 -8 -8 -8 -8 -8 -8
-4 -2 -2 -2 -3 -3 -4 -3 -3 -4 -4 -3 -3 -3 -7 -8 -4 -3 -3 -4 -4 -4 -4 -4 -3 -3 -3 -3 -3 -3 -3 -3 -3 -3 -4 -4 -5 -5 -4 -4 -4 -3 -2 -1 -6 -8 -9 -9 -8 -7 -8 -8 -7 -8
-3 -3 -3 -3 -3 -3 -4 -6 -8 -7 -7 -4 -3 -5 -8 -5 -4 -4 -7 -7 -6 -5 -5 -4 -4 -4 -3 -3 -3 -3 -3 -3 -3 -3 -3 -4 -4 -3 -4 -4 -4 -4 -4 -5 -6 -6 -7 -7 -7 -7 -7 -7 -7 -7
-2 -3 -4 -5 -5 -5 -7 -8 -7 -9 -9 -8 -6 -9 -6 -6 -5 -5 -7 -6 -6 -6 -6 -6 -5 -4 -4 -3 -3 -3 -3 -3 -3 -3 -4 -4 -4 -4 -4 -4 -4 -4 -5 -7 -7 -7 -7 -7 -7 -7 -7 -7 -7 -8
-3 -3 -3 -3 -4 -6 -8 -9 -8 -10 -10 -8 -8 -7 -5 -4 -5 -7 -6 -7 -7 -7 -7 -7 -7 -7 -7 -6 -5 -5 -5 -4 -4 -4 -4 -4 -4 -4 -5 -5 -5 -6 -8 -8 -8 -8 -8 -8 -7 -7 -7 -7 -7 -8
-4 -4 -3 -4 -6 -8 -10 -10 -10 -9 -9 -9 -8 -9 -6 -5 -5 -7 -8 -8 -8 -8 -8 -8 -7 -7 -7 -6 -6 -5 -5 -5 -4 -4 -4 -5 -5 -5 -6 -8 -9 -9 -8 -8 -8 -7 -7 -7 -7 -7 -6 -7 -8 -9
-5 -4 -4 -6 -8 -8 -10 -9 -9 -8 -7 -8 -7 -8 -8 -6 -7 -7 -7 -7 -8 -8 -8 -8 -8 -7 -7 -7 -7 -6 -6 -5 -6 -6 -6 -7 -7 -9 -9 -9 -9 -9 -9 -8 -7 -7 -7 -7 -7 -7 -7 -8 -9 -10
-5 -4 -5 -7 -5 -5 -7 -6 -7 -7 -7 -7 -7 -7 -7 -7 -7 -7 -7 -7 -7 -8 -8 -8 -8 -7 -6 -6 -6 -6 -7 -7 -8 -9 -10 -10 -11 -10 -10 -11 -11 -10 -9 -8 -7 -7 -7 -7 -7 -8 -9 -10 -11 -15
-5 -4 -9 -8 -8 -6 -6 -6 -6 -7 -7 -7 -7 -7 -7 -7 -7 -7 -7 -7 -7 -7 -7 -7 -7 -8 -8 -7 -7 -5 -6 -6 -8 -10 -10 -9 -9 -10 -10 -10 -10 -9 -8 -8 -7 -7 -7 -7 -8 -10 -11 -14 -16 -17
-5 -5 -9 -9 -10 -8 -7 -7 -7 -7 -7 -7 -7 -7 -7 -7 -7 -7 -7 -7 -7 -7 -8 -8 -8 -8 -8 -7 -7 -5 -2 -2 -8 -11 -10 -10 -10 -10 -10 -10 -9 -9 -7 -7 -6 -4 -5 -7 -11 -14 -17 -17 -16 -16
-7 -7 -8 -10 -11 -10 -8 -8 -8 -12 -10 -11 -8 -7 -7 -7 -6 -7 -8 -8 -8 -8 -8 -8 -8 -8 -8 -8 -7 -5 -4 -4 -9 -10 -10 -10 -9 -9 -9 -9 -9 -9 -7 -6 -5 -4 -6 -12 -16 -17 -17 -15 -13 -15

GFSWCAN_850_dewp_108.txt.gz
Dewpoint
4 4 4 4 4 4 5 6 6 5 5 5 -3 -1 -4 -15 -12 -9 -5 -3 -1 -4 -4 -4 -4 -3 -1 -0 -2 -1 -1 -0 0 1 0 -1 -1 -2 -2 -4 -3 -1 1 1 1 3 3 -4 -2 -4 -6 -7 -6 -4
4 4 4 4 3 3 4 5 5 5 5 5 4 -4 1 -9 -14 -8 -5 -3 -2 -1 -2 -2 -2 -4 -4 -3 -3 -2 -1 -1 -0 0 -1 -1 0 -1 -2 -2 -5 -2 -5 -5 -3 -3 -5 -4 -4 -5 -5 -4 -4 -4
4 4 4 4 3 2 3 4 5 5 5 5 5 2 -0 0 -11 -10 -5 -3 -2 -1 -2 -3 -3 -2 -2 -2 -2 -2 -1 -1 -0 -0 -0 -0 1 -1 -1 -1 -2 -4 -6 -5 -4 -7 -6 -7 -6 -6 -6 -5 -5 -5
5 5 5 4 3 2 2 3 5 4 5 5 5 4 1 2 -2 -11 -8 -4 -2 -1 -1 -2 -3 -4 -3 -3 -3 -2 -1 -1 -0 0 0 0 1 -1 -1 -2 -2 -4 -5 -4 -4 -5 -5 -5 -5 -5 -4 -4 -3 -3
2 2 2 2 2 1 1 2 4 5 4 5 5 4 1 2 2 -7 -10 -8 -3 -2 -1 -2 -3 -3 -3 -3 -2 -2 -1 -1 -0 -0 1 1 -0 -1 -1 -2 -0 -3 -3 -2 -3 -5 -5 -6 -6 -5 -3 -3 -4 -3
2 2 2 1 1 1 -0 2 3 4 5 4 4 4 2 2 2 -5 -7 -2 -1 -1 -1 -0 -4 -5 -5 -4 -3 -2 -1 -1 -1 -0 -0 -1 -1 -1 1 1 -3 -3 -3 -4 -5 -5 -5 -5 -4 -3 -3 -4 -5 -4
-2 -2 -0 0 0 -0 -2 -1 1 2 3 4 4 3 2 2 2 -3 -6 -3 -2 -1 -3 -3 -4 -5 -3 -3 -2 -2 -2 -2 -1 -1 -1 -1 -1 -0 0 -0 -6 -5 -5 -4 -4 -4 -3 -3 -3 -3 -3 -5 -6 -8
-4 -6 -6 -5 -5 -5 -5 -6 -1 2 2 4 4 3 2 2 2 1 -1 -5 -3 -3 -4 -2 -2 -7 -4 -3 -2 -3 -2 -2 -1 -1 -2 -1 -2 -1 1 -2 -3 -4 -4 -4 -4 -4 -4 -3 -3 -3 -4 -8 -8 -5
-3 -5 -6 -7 -7 -8 -8 -8 -7 -0 2 3 3 2 2 1 1 -0 -1 -3 -3 -3 -4 -4 -2 -0 -4 -4 -3 -3 -2 -2 -3 -1 -2 -2 -1 0 -2 -4 -4 -5 -4 -4 -4 -4 -3 -3 -4 -7 -6 -6 -4 -3
-7 -7 -7 -8 -9 -9 -9 -10 -10 -5 1 2 3 2 1 1 1 -1 -2 -2 -2 -1 -1 -3 -5 -4 -4 -3 -3 -2 -3 -2 -0 -3 -3 -1 -1 -3 -3 -4 -5 -5 -5 -4 -3 -4 -6 -8 -5 -5 -4 -4 -3 -3
-8 -9 -7 -6 -8 -9 -9 -9 -5 -1 1 2 2 1 0 -0 -1 -2 -2 -2 -2 -2 -2 -3 -4 -4 -5 -2 -3 -3 -2 -3 -1 -2 -1 -1 -1 -3 -5 -5 -4 -5 -5 -5 -5 -6 -9 -6 -6 -4 -4 -4 -3 -3
-15 -11 -8 -7 -9 -9 -9 -9 -4 -1 1 2 1 -0 -1 -1 -1 -2 -2 -3 -2 -2 -3 -3 -4 -5 -5 -5 -3 -3 -2 -3 -1 -4 -2 -1 -3 -6 -7 -7 -7 -8 -9 -10 -11 -11 -6 -6 -5 -4 -4 -4 -3 -3
-17 -16 -12 -8 -7 -9 -9 -7 -5 -1 1 1 0 -0 -1 -2 -2 -2 -2 -2 -3 -4 -4 -4 -4 -5 -4 -4 -3 -3 -1 -2 -5 -3 -2 -2 -4 -8 -8 -8 -10 -12 -13 -13 -12 -10 -6 -5 -5 -6 -6 -5 -4 -3
-18 -18 -15 -10 -6 -7 -8 -7 -4 -2 0 0 -1 -2 -1 -1 -2 -2 -3 -3 -6 -5 -4 -5 -4 -4 -4 -3 -4 -2 -4 -5 -2 -2 -2 -2 -7 -9 -9 -9 -11 -13 -14 -13 -12 -11 -8 -6 -5 -5 -6 -6 -4 -4
-14 -16 -17 -16 -9 -5 -8 -8 -3 -1 -1 -1 -2 -1 -1 -3 -4 -5 -5 -6 -6 -5 -5 -4 -5 -5 -4 -3 -4 -4 -3 -2 -3 -2 -1 -7 -10 -10 -10 -10 -14 -14 -14 -14 -13 -12 -11 -8 -6 -6 -6 -6 -5 -5
-9 -11 -14 -16 -16 -8 -7 -8 -4 -1 -1 -1 -1 -1 -2 -2 -4 -5 -5 -5 -6 -4 -5 -5 -4 -3 -3 -3 -3 -3 -3 -3 -2 -2 -9 -10 -11 -11 -10 -14 -15 -15 -14 -13 -12 -12 -11 -11 -9 -7 -7 -8 -8 -9
-7 -7 -9 -13 -16 -14 -7 -5 -4 -3 -1 -2 -2 -3 -2 -3 -2 -3 -3 -5 -6 -4 -2 -2 -2 -1 -5 -3 -4 -5 -3 -2 -7 -11 -10 -11 -12 -12 -11 -12 -15 -15 -14 -13 -11 -11 -12 -10 -9 -9 -9 -9 -9 -9
-5 -7 -9 -9 -12 -11 -9 -5 -3 -5 -2 -2 -2 -3 -4 -3 -3 -4 -3 -3 -5 -3 -3 -2 -3 -3 -2 -3 -4 -5 -7 -10 -11 -11 -10 -9 -10 -12 -12 -14 -15 -14 -13 -12 -11 -11 -10 -10 -10 -10 -9 -9 -9 -9
-6 -6 -8 -9 -8 -7 -5 -3 -3 -2 -3 -5 -4 -3 -4 -3 -3 -2 -3 -3 -4 -4 -4 -3 -1 -2 -2 -4 -4 -6 -10 -10 -10 -11 -10 -9 -8 -11 -11 -13 -14 -14 -14 -13 -12 -12 -10 -10 -8 -8 -8 -9 -9 -9
-6 -6 -7 -8 -7 -4 -4 -3 -2 -2 -2 -3 -3 -3 -3 -3 -3 -3 -2 -3 -4 -4 -3 -3 -2 -3 -3 -5 -5 -5 -6 -6 -6 -6 -7 -9 -8 -7 -7 -8 -11 -13 -14 -14 -12 -9 -7 -9 -8 -8 -6 -8 -8 -8
-6 -6 -6 -6 -4 -4 -5 -3 -3 -3 -2 -2 -2 -3 -3 -3 -3 -3 -3 -3 -3 -3 -2 -3 -4 -4 -5 -5 -4 -4 -5 -6 -8 -10 -9 -7 -6 -6 -7 -8 -7 -8 -12 -10 -7 -4 -3 -4 -11 -8 -5 -6 -8 -8
-5 -6 -6 -7 -4 -4 -5 -6 -3 -4 -3 -3 -3 -2 -2 -2 -3 -3 -3 -3 -3 -3 -3 -4 -4 -4 -4 -4 -4 -4 -4 -4 -4 -5 -6 -7 -8 -7 -6 -5 -7 -6 -5 -5 -5 -3 -2 -0 -4 -9 -2 -4 -8 -8
-5 -4 -4 -4 -4 -5 -5 -5 -3 -4 -3 -4 -3 -2 -2 -4 -3 -2 -3 -3 -3 -4 -4 -3 -3 -4 -4 -4 -3 -3 -3 -3 -3 -4 -4 -5 -5 -6 -6 -6 -6 -6 -7 -7 -6 -3 -0 -0 -0 -0 -0 -3 -8 -8
-5 -4 -4 -4 -4 -4 -4 -3 -3 -4 -4 -3 -3 -3 -4 -4 -3 -3 -2 -4 -4 -5 -4 -4 -3 -3 -3 -3 -3 -3 -4 -3 -3 -3 -3 -3 -4 -4 -5 -4 -4 -4 -4 -4 -5 -5 -4 -3 -1 -1 -1 -4 -9 -8
-4 -4 -4 -4 -3 -4 -4 -6 -5 -5 -4 -4 -3 -3 -6 -5 -4 -3 -4 -5 -5 -5 -4 -4 -4 -3 -3 -3 -4 -4 -4 -3 -3 -3 -3 -3 -3 -3 -3 -3 -3 -3 -4 -4 -4 -4 -5 -3 -2 -5 -8 -9 -9 -8
-4 -5 -4 -4 -4 -5 -6 -6 -7 -7 -8 -5 -4 -6 -6 -5 -4 -4 -5 -6 -6 -6 -6 -6 -6 -4 -4 -4 -4 -4 -4 -4 -4 -3 -3 -3 -3 -3 -3 -3 -3 -4 -4 -4 -4 -4 -5 -4 -4 -5 -7 -7 -7 -7
-4 -6 -4 -4 -5 -6 -7 -8 -8 -8 -7 -5 -7 -7 -6 -4 -4 -5 -6 -6 -7 -8 -8 -7 -7 -6 -7 -6 -5 -5 -4 -4 -3 -4 -5 -4 -3 -3 -3 -3 -4 -4 -4 -5 -5 -6 -8 -8 -7 -6 -6 -6 -7 -7
-4 -5 -5 -6 -6 -6 -8 -9 -8 -8 -8 -8 -7 -6 -5 -4 -4 -6 -8 -8 -8 -8 -8 -8 -8 -8 -8 -8 -7 -7 -6 -5 -5 -5 -5 -5 -4 -4 -4 -4 -4 -5 -5 -6 -7 -7 -8 -8 -8 -7 -7 -7 -7 -7
-5 -6 -4 -6 -9 -9 -9 -9 -8 -7 -7 -8 -6 -7 -7 -6 -7 -7 -8 -8 -8 -8 -8 -8 -8 -8 -8 -8 -7 -8 -7 -6 -6 -5 -6 -5 -6 -7 -6 -6 -6 -7 -7 -8 -8 -7 -7 -7 -7 -7 -7 -7 -7 -7
-6 -5 -7 -10 -7 -6 -6 -6 -7 -7 -7 -7 -7 -7 -8 -8 -8 -8 -8 -8 -8 -8 -8 -8 -8 -8 -8 -8 -8 -8 -7 -6 -6 -5 -6 -5 -7 -9 -8 -9 -9 -9 -9 -9 -8 -8 -7 -7 -7 -7 -7 -7 -7 -8
-8 -5 -8 -8 -7 -7 -6 -6 -6 -6 -6 -6 -7 -7 -7 -7 -7 -7 -7 -7 -7 -7 -7 -7 -8 -9 -9 -9 -8 -8 -7 -7 -7 -5 -3 -4 -8 -9 -10 -10 -10 -10 -10 -9 -8 -7 -7 -7 -7 -7 -7 -8 -9 -9
-7 -6 -7 -8 -8 -8 -7 -7 -7 -7 -7 -7 -7 -7 -7 -7 -7 -8 -9 -8 -8 -8 -9 -10 -11 -14 -13 -12 -10 -8 -7 -7 -7 -4 -3 -2 -5 -9 -9 -7 -5 -9 -9 -8 -8 -7 -7 -7 -7 -8 -9 -10 -10 -13
-7 -6 -8 -9 -10 -9 -9 -8 -10 -11 -10 -12 -8 -7 -7 -7 -6 -7 -8 -8 -8 -9 -11 -13 -11 -10 -9 -8 -8 -7 -7 -7 -7 -4 -3 -5 -9 -8 -6 -2 -5 -9 -9 -8 -7 -7 -5 -6 -8 -10 -11 -13 -16 -16

GFSWCAN_850_dewp_111.txt.gz
Dewpoint
4 4 4 4 4 4 4 4 4 4 5 5 5 5 -0 -1 -4 -11 -8 -5 -3 -1 -2 -4 -4 -2 -1 -1 -4 -1 -0 0 1 1 -2 -2 -2 -4 -3 -7 -4 -1 1 2 1 1 2 -5 -3 -4 -7 -6 -6 -4
4 4 4 4 3 3 4 3 3 4 4 4 4 4 5 0 -0 -6 -8 -6 -4 -3 -3 -5 -4 -4 -4 -2 -2 -1 -2 -2 -2 0 -1 -2 -1 -2 -4 -4 -6 -4 -6 -5 -3 -1 -5 -4 -7 -5 -4 -4 -5 -5
5 5 5 4 4 5 4 3 2 3 4 4 4 4 4 3 1 -0 -7 -8 -4 -2 -3 -2 -3 -4 -2 -3 -4 -3 -2 -2 0 0 -0 -1 1 -3 -1 -2 -3 -5 -6 -4 -6 -7 -7 -7 -6 -6 -6 -6 -5 -4
4 4 4 4 4 4 4 3 2 2 4 4 4 4 4 4 2 2 -0 -7 -7 -3 -1 -3 -4 -4 -4 -3 -2 -2 -1 -1 -1 -0 -0 -1 -1 -3 -2 -4 -3 -4 -5 -4 -4 -6 -6 -6 -6 -6 -6 -5 -4 -4
3 3 3 3 3 2 2 2 1 1 3 4 4 4 4 4 2 2 1 -3 -6 -4 -1 -2 -4 -3 -3 -3 -3 -2 -2 -0 -0 0 1 1 -1 -1 -2 -1 -0 -3 -3 -2 -3 -6 -6 -6 -6 -6 -4 -4 -3 -3
1 1 2 2 2 2 2 2 1 0 2 3 4 4 4 4 2 2 -5 -3 -1 -2 -1 1 -3 -4 -4 -4 -3 -2 -2 -0 -0 -0 -1 -1 -0 -1 1 -0 -4 -5 -4 -4 -5 -5 -5 -5 -4 -4 -4 -3 -3 -4
-2 -2 -2 -2 -1 0 1 1 -1 -3 0 2 3 4 3 3 3 2 -2 -3 -3 -2 -2 -1 -1 -5 -5 -4 -3 -2 -2 -1 -1 -0 -0 -1 -1 -0 0 -0 -6 -7 -5 -4 -4 -4 -4 -4 -3 -3 -3 -3 -3 -3
-4 -5 -4 -5 -5 -5 -4 -3 -4 -5 -5 -1 2 3 3 2 2 2 2 2 -1 -3 -4 -0 1 -4 -5 -2 -2 -2 -1 -1 -1 -1 -1 -1 -1 -1 1 -2 -4 -5 -5 -5 -4 -3 -4 -4 -4 -3 -3 -3 -4 -7
-4 -5 -3 -4 -6 -6 -7 -7 -6 -5 -4 1 0 3 2 1 1 1 1 0 -1 -2 -2 -2 0 3 -5 -2 -2 -2 -2 -2 -2 -2 -2 -2 -2 0 -1 -3 -4 -4 -3 -4 -4 -4 -4 -4 -3 -3 -5 -6 -6 -6
-6 -7 -7 -7 -6 -7 -8 -8 -9 -6 -3 0 1 2 1 1 1 1 -0 -2 -2 -1 -2 -2 -2 -1 -4 -3 -3 -2 -2 -2 -1 -2 -2 -1 -2 -4 -4 -4 -3 -4 -5 -3 -4 -4 -4 -5 -7 -8 -6 -5 -4 -4
-12 -10 -9 -8 -8 -6 -7 -8 -8 -5 -4 -0 1 1 0 1 0 -1 -1 -1 -1 -2 -2 -2 -2 -2 -4 -2 -2 -3 -1 -2 -0 -1 -1 -1 -0 -3 -5 -5 -5 -4 -5 -5 -5 -5 -5 -6 -9 -7 -6 -4 -4 -3
-16 -17 -16 -12 -9 -7 -8 -9 -7 -4 -2 0 1 0 -0 -0 -1 -1 -0 -2 -2 -1 -2 -2 -3 -3 -3 -4 -3 -3 -1 -2 -0 -3 -2 -1 -1 -5 -6 -7 -7 -6 -4 -4 -5 -5 -6 -10 -7 -6 -6 -4 -5 -4
-14 -16 -17 -17 -14 -9 -7 -9 -8 -4 -1 -1 -0 0 -1 -1 -1 -0 0 -1 -1 -3 -2 -3 -3 -3 -4 -4 -2 -2 -1 -1 -4 -2 -1 -2 -3 -6 -8 -8 -8 -9 -6 -6 -8 -10 -12 -10 -6 -5 -5 -6 -6 -4
-11 -12 -14 -16 -15 -11 -7 -7 -7 -3 -2 -1 -1 -1 -1 0 -1 -0 -1 -1 -2 -3 -3 -3 -3 -3 -3 -3 -3 -1 -3 -4 -1 -1 -1 -0 -4 -8 -9 -8 -9 -12 -12 -13 -13 -12 -12 -10 -8 -6 -5 -5 -6 -5
-10 -11 -14 -16 -16 -15 -10 -5 -7 -3 -1 -2 -2 -0 -0 -1 -1 -2 -2 -5 -6 -4 -4 -2 -2 -2 -2 -1 -2 -1 -2 -2 -2 -1 1 -4 -8 -9 -10 -9 -9 -12 -13 -14 -13 -13 -13 -11 -10 -8 -7 -6 -6 -6
-8 -8 -9 -11 -13 -17 -16 -7 -5 -4 -2 -2 -1 -1 -1 -1 -1 -2 -4 -2 -4 -3 -3 -2 -1 -1 -1 -1 -1 -2 -1 -1 0 -1 -9 -12 -11 -11 -12 -11 -11 -12 -14 -14 -14 -13 -12 -11 -12 -11 -9 -8 -8 -7
-6 -6 -6 -8 -8 -11 -17 -8 -4 -3 -4 -2 -2 -4 -3 -3 -2 -1 -2 -3 -4 -3 -1 -1 -1 -1 -3 -2 -2 -3 -2 -1 -3 -9 -11 -11 -12 -10 -10 -11 -12 -12 -14 -14 -14 -13 -12 -11 -11 -11 -11 -10 -10 -9
-4 -5 -6 -7 -7 -8 -9 -6 -4 -3 -3 -5 -2 -3 -2 -4 -5 -5 -5 -4 -4 -3 -2 -1 -1 -1 -1 -0 -0 -1 -4 -5 -6 -7 -8 -11 -11 -9 -9 -9 -6 -6 -12 -13 -14 -14 -13 -11 -11 -11 -10 -10 -9 -9
-4 -5 -6 -7 -7 -6 -5 -5 -6 -4 -3 -6 -7 -7 -6 -4 -3 -3 -4 -4 -4 -3 -3 -2 -0 -0 -2 -4 -4 -5 -4 -4 -3 -5 -6 -8 -7 -6 -6 -7 -8 -8 -12 -12 -12 -13 -14 -12 -11 -10 -9 -8 -7 -3
-4 -5 -7 -7 -5 -4 -4 -6 -4 -5 -6 -7 -5 -4 -6 -6 -6 -6 -4 -3 -3 -3 -2 -1 -2 -4 -4 -5 -5 -5 -5 -5 -4 -4 -5 -6 -5 -6 -6 -7 -9 -8 -7 -8 -9 -11 -13 -12 -11 -10 -7 -2 -1 -1
-4 -5 -6 -5 -4 -4 -5 -5 -4 -3 -5 -5 -6 -4 -4 -5 -4 -3 -3 -3 -3 -3 -2 -4 -4 -4 -5 -6 -6 -5 -5 -5 -5 -5 -5 -5 -5 -5 -6 -6 -6 -6 -6 -6 -6 -7 -8 -7 -6 -9 -6 -2 -0 0
-4 -5 -6 -5 -3 -3 -4 -4 -4 -5 -5 -4 -3 -3 -3 -3 -3 -2 -3 -2 -3 -3 -3 -4 -4 -4 -4 -4 -4 -4 -4 -4 -4 -4 -4 -4 -4 -4 -4 -4 -5 -5 -6 -6 -6 -6 -6 -5 -5 -5 -2 -1 -1 0
-5 -5 -4 -4 -4 -4 -4 -6 -5 -6 -5 -6 -4 -3 -4 -4 -4 -3 -3 -3 -4 -5 -5 -4 -4 -4 -3 -4 -4 -4 -4 -3 -3 -3 -3 -3 -3 -4 -4 -4 -4 -4 -5 -5 -5 -5 -5 -4 -0 -0 -3 -3 -0 -1
-5 -4 -4 -4 -4 -4 -5 -4 -4 -6 -7 -6 -5 -5 -6 -6 -5 -2 -2 -4 -5 -6 -6 -5 -4 -4 -3 -3 -3 -3 -3 -3 -3 -3 -3 -3 -3 -3 -3 -3 -3 -4 -4 -4 -5 -5 -5 -4 -3 -4 -5 -4 -2 -2
-4 -4 -4 -3 -4 -4 -4 -4 -4 -5 -5 -6 -5 -4 -4 -5 -3 -3 -4 -6 -7 -6 -5 -5 -4 -4 -4 -4 -4 -4 -4 -3 -3 -3 -3 -3 -3 -3 -2 -2 -3 -3 -3 -3 -3 -3 -2 -2 -4 -4 -4 -4 -3 -3
-4 -5 -4 -4 -4 -4 -5 -6 -5 -5 -6 -4 -4 -4 -5 -4 -3 -3 -5 -6 -5 -5 -5 -5 -4 -4 -4 -4 -5 -5 -6 -5 -4 -3 -4 -4 -3 -3 -3 -3 -2 -3 -3 -3 -2 -2 -3 -4 -4 -4 -4 -3 -2 -3
-4 -4 -4 -7 -7 -6 -6 -7 -8 -6 -5 -4 -4 -5 -5 -4 -3 -6 -10 -9 -8 -7 -7 -6 -6 -5 -6 -7 -7 -7 -7 -7 -5 -5 -5 -5 -3 -2 -3 -3 -3 -3 -3 -4 -4 -4 -4 -4 -4 -3 -3 -3 -3 -4
-5 -6 -6 -7 -5 -7 -7 -7 -6 -6 -6 -7 -6 -5 -5 -4 -4 -7 -8 -8 -7 -7 -7 -7 -8 -8 -8 -8 -8 -8 -7 -7 -7 -7 -6 -6 -6 -5 -5 -5 -5 -4 -4 -4 -4 -4 -5 -5 -6 -6 -6 -6 -5 -6
-5 -6 -6 -6 -7 -7 -6 -6 -6 -7 -8 -7 -6 -6 -6 -8 -9 -7 -7 -8 -9 -8 -7 -7 -8 -8 -8 -8 -8 -8 -7 -7 -7 -7 -7 -6 -6 -5 -4 -6 -9 -7 -5 -5 -5 -7 -6 -7 -7 -6 -5 -6 -7 -7
-6 -6 -6 -6 -7 -6 -7 -7 -7 -7 -7 -7 -7 -7 -7 -8 -8 -8 -7 -7 -7 -7 -8 -9 -8 -8 -8 -8 -8 -9 -9 -9 -8 -7 -7 -6 -5 -5 -4 -7 -9 -8 -7 -7 -8 -8 -8 -7 -6 -5 -6 -7 -7 -7
-8 -6 -6 -7 -7 -8 -8 -9 -9 -8 -7 -7 -7 -7 -7 -7 -6 -6 -6 -8 -10 -10 -10 -10 -10 -10 -11 -14 -14 -12 -11 -12 -11 -9 -8 -7 -7 -5 -4 -7 -9 -9 -9 -9 -9 -9 -8 -6 -5 -6 -7 -7 -7 -7
-7 -6 -7 -7 -7 -8 -9 -9 -8 -7 -7 -7 -7 -7 -7 -7 -7 -7 -9 -9 -9 -10 -12 -11 -10 -10 -11 -13 -12 -11 -10 -9 -9 -8 -7 -7 -7 -5 -1 -5 -10 -9 -9 -10 -9 -8 -7 -6 -7 -7 -7 -7 -7 -8
-6 -7 -7 -8 -8 -8 -9 -9 -8 -8 -8 -8 -8 -7 -7 -7 -7 -8 -9 -9 -10 -10 -10 -10 -11 -11 -11 -9 -9 -9 -8 -8 -8 -7 -7 -6 -3 -2 -1 -3 -6 -4 -3 -5 -8 -7 -7 -7 -7 -7 -8 -8 -9 -9

GFSWCAN_850_dewp_114.txt.gz
Dewpoint
3 3 4 4 4 4 4 4 3 3 3 4 4 4 4 4 2 -2 -5 -7 -6 -1 -6 -5 -5 -4 -3 -2 -2 -1 -0 1 1 2 0 -1 -1 -4 -3 -5 -0 1 2 2 1 2 2 -3 -3 -4 -6 -7 -7 -5
3 3 3 3 3 3 3 4 4 3 2 3 4 3 3 4 4 2 -2 -5 -7 -5 -5 -6 -6 -6 -3 -3 -2 -2 -2 -1 -1 1 0 -1 -1 -2 -3 -2 -7 -4 -3 -2 -0 -0 -4 -4 -5 -6 -5 -5 -5 -5
4 4 3 3 3 2 2 4 4 4 3 2 4 4 3 3 4 3 2 -2 -5 -3 -2 -1 -3 -5 -6 -6 -4 -3 -3 -2 -1 0 1 1 1 -1 0 -1 -3 -5 -7 -4 -5 -6 -7 -7 -5 -6 -5 -5 -6 -5
1 2 3 4 4 4 4 4 4 3 2 2 3 4 4 3 3 3 2 2 -1 -4 -1 -3 -4 -4 -5 -5 -3 -3 -3 -1 -1 -1 1 1 0 -3 -1 -2 -1 -3 -4 -4 -4 -5 -6 -6 -7 -7 -7 -6 -6 -5
1 1 2 3 3 3 3 3 2 2 2 1 2 4 4 4 3 3 2 1 -3 -3 -0 -3 -2 -2 -2 -3 -3 -2 -2 -2 -1 0 1 1 -0 -1 -2 -1 -1 -3 -4 -3 -3 -6 -6 -6 -6 -6 -6 -7 -5 -5
-0 0 1 1 2 1 2 2 2 2 2 1 1 3 3 3 3 3 2 -3 -2 -2 -2 0 -1 -2 -4 -4 -4 -3 -2 -1 -1 -0 -0 -1 -0 -1 1 1 -3 -5 -4 -4 -5 -5 -5 -5 -5 -5 -5 -5 -5 -4
-2 -2 -2 -2 -2 -2 -0 -0 0 0 -2 -3 -2 1 2 3 3 3 2 -1 -0 -1 -2 -1 -1 -2 -5 -4 -3 -2 -1 -1 -0 -0 -0 -0 -0 -1 0 -0 -5 -6 -6 -5 -4 -4 -4 -4 -4 -4 -4 -4 -3 -4
-5 -3 -4 -3 -3 -3 -4 -5 -5 -3 -3 -4 -4 -3 -0 3 2 2 2 2 2 -1 -2 -1 -1 -3 -5 -2 -2 -2 -1 -1 -1 -1 -1 -1 -1 -0 1 -2 -3 -3 -4 -4 -5 -5 -5 -4 -4 -4 -4 -4 -4 -3
-4 -3 -4 -5 -3 -4 -5 -6 -7 -7 -5 -6 -4 -2 1 1 2 2 1 1 1 -0 -1 -2 -0 1 -4 -2 -2 -3 -2 -3 -2 -1 -1 -1 -1 -0 -2 -3 -3 -4 -4 -4 -4 -5 -4 -4 -4 -4 -4 -4 -5 -7
-10 -7 -5 -6 -7 -7 -7 -7 -8 -9 -8 -5 -2 1 1 1 1 1 0 -1 -2 -1 -2 -2 -3 -1 -4 -3 -2 -2 -3 -3 -1 -2 -3 -1 -2 -4 -4 -4 -4 -4 -4 -4 -3 -4 -5 -4 -5 -6 -8 -9 -7 -5
-16 -13 -11 -10 -9 -9 -8 -6 -7 -8 -6 -3 -0 0 0 1 1 0 -1 -1 -2 -2 -2 -2 -2 -1 -3 -1 -1 -2 -1 -2 -1 -1 -1 -1 -1 -4 -4 -5 -6 -6 -6 -5 -4 -4 -5 -6 -6 -6 -9 -8 -6 -4
-14 -17 -17 -16 -14 -11 -9 -8 -8 -7 -2 -0 0 -0 0 -0 -0 -1 -1 -1 -1 -1 -2 -2 -2 -2 -2 -4 -2 -2 -2 -2 -1 -3 -2 -2 -3 -4 -6 -8 -9 -9 -7 -6 -4 -4 -4 -5 -5 -9 -8 -7 -6 -5
-12 -13 -14 -15 -16 -15 -12 -7 -8 -6 -3 -1 -2 -1 -1 -1 -1 -0 -0 -1 -1 -3 -2 -3 -3 -3 -4 -4 -2 -1 -1 -1 -4 -3 -3 -3 -4 -7 -9 -10 -9 -8 -9 -5 -4 -4 -4 -5 -6 -11 -8 -6 -5 -6
-10 -12 -12 -12 -12 -12 -13 -9 -6 -5 -3 -3 -1 -1 -2 -2 -1 -2 -2 -2 -2 -2 -2 -3 -3 -3 -3 -2 -2 -1 -2 -3 -2 -2 -3 -3 -8 -10 -10 -11 -9 -8 -10 -12 -11 -9 -9 -11 -12 -11 -9 -7 -6 -6
-7 -9 -11 -10 -10 -11 -14 -12 -5 -5 -4 -2 -1 -2 -2 -2 -1 -1 -1 -2 -5 -4 -3 -2 -2 -2 -3 -1 -1 -1 -1 -2 -2 -3 -2 -7 -7 -10 -11 -10 -9 -10 -10 -12 -13 -13 -13 -12 -12 -12 -10 -9 -7 -7
-4 -6 -8 -9 -10 -12 -15 -15 -5 -3 -2 -2 -3 -2 -2 -1 -1 -2 -2 -2 -3 -4 -2 -2 -2 -2 -1 -2 -1 -4 -2 -3 -4 -3 -7 -9 -8 -6 -7 -9 -9 -9 -8 -9 -10 -11 -13 -14 -12 -11 -11 -11 -10 -8
-4 -3 -5 -7 -8 -10 -11 -10 -7 -3 -3 -3 -2 -3 -4 -4 -3 -3 -2 -3 -3 -3 -4 -1 -1 -3 -2 -2 -2 -2 -3 -3 -3 -5 -6 -5 -5 -7 -7 -7 -8 -7 -7 -7 -7 -7 -7 -13 -14 -11 -11 -12 -11 -10
-4 -4 -4 -5 -7 -6 -5 -5 -6 -5 -3 -3 -3 -6 -5 -3 -4 -4 -5 -4 -3 -3 -2 -2 -1 -2 -3 -4 -4 -4 -5 -6 -7 -7 -5 -7 -7 -5 -5 -6 -7 -6 -7 -6 -7 -8 -8 -10 -12 -14 -13 -11 -10 -9
-7 -5 -3 -4 -4 -4 -4 -4 -5 -4 -6 -8 -7 -6 -6 -7 -6 -4 -3 -3 -4 -4 -3 -1 -1 -2 -4 -6 -5 -6 -6 -5 -5 -5 -5 -5 -5 -5 -6 -5 -6 -6 -6 -6 -6 -7 -8 -8 -12 -12 -13 -11 -11 -10
-8 -5 -4 -3 -3 -4 -4 -4 -4 -5 -8 -9 -8 -6 -5 -5 -6 -6 -7 -7 -7 -4 -2 -3 -3 -4 -5 -6 -6 -7 -7 -7 -6 -6 -5 -5 -6 -6 -6 -5 -6 -5 -5 -5 -5 -6 -6 -6 -6 -7 -9 -12 -11 -10
-7 -5 -4 -3 -3 -4 -4 -4 -4 -4 -5 -6 -9 -8 -8 -8 -7 -6 -6 -6 -4 -4 -4 -4 -5 -5 -6 -6 -6 -6 -6 -6 -5 -5 -5 -5 -5 -5 -5 -5 -4 -4 -4 -4 -4 -5 -5 -5 -5 -5 -6 -7 -6 -4
-5 -5 -3 -3 -3 -3 -4 -4 -4 -6 -4 -4 -4 -5 -6 -5 -5 -5 -5 -4 -4 -4 -4 -4 -5 -5 -5 -5 -5 -5 -5 -4 -4 -4 -4 -4 -4 -4 -4 -4 -3 -3 -3 -4 -4 -4 -4 -4 -4 -5 -5 -6 -4 -3
-4 -3 -3 -3 -4 -4 -4 -4 -4 -4 -4 -4 -6 -6 -6 -6 -7 -7 -4 -5 -5 -4 -4 -4 -4 -4 -4 -4 -5 -4 -4 -4 -4 -4 -4 -4 -3 -3 -3 -3 -3 -3 -3 -3 -3 -3 -3 -4 -4 -4 -4 -5 -3 -2
-4 -4 -4 -4 -5 -4 -4 -4 -4 -5 -6 -8 -9 -9 -9 -9 -9 -5 -6 -8 -8 -7 -6 -5 -5 -5 -4 -4 -4 -4 -5 -4 -4 -4 -3 -3 -3 -3 -3 -3 -3 -3 -3 -3 -3 -3 -3 -3 -4 -4 -4 -4 -3 -2
-4 -4 -4 -4 -4 -4 -4 -6 -8 -7 -8 -8 -8 -8 -9 -7 -8 -8 -7 -8 -9 -8 -8 -8 -8 -7 -7 -6 -6 -6 -5 -4 -4 -4 -4 -4 -4 -3 -3 -3 -3 -3 -3 -2 -2 -3 -3 -3 -3 -3 -4 -3 -3 -3
-4 -5 -4 -5 -6 -6 -7 -7 -7 -8 -8 -9 -8 -8 -8 -7 -6 -5 -8 -9 -9 -9 -10 -8 -7 -6 -5 -4 -3 -3 -4 -5 -4 -4 -6 -5 -4 -4 -4 -3 -3 -2 -3 -2 -1 -1 -2 -3 -2 -2 -3 -3 -3 -4
-4 -5 -5 -6 -5 -5 -6 -8 -9 -9 -9 -8 -9 -8 -7 -5 -6 -8 -9 -9 -8 -11 -10 -9 -6 -3 -2 -2 -3 -4 -5 -6 -7 -7 -7 -7 -7 -6 -5 -4 -4 -4 -4 -4 -3 -3 -3 -3 -3 -3 -3 -4 -4 -4
-5 -7 -7 -6 -5 -7 -8 -9 -10 -10 -9 -8 -7 -8 -7 -7 -8 -11 -11 -12 -12 -10 -8 -8 -7 -7 -5 -7 -7 -7 -8 -8 -8 -7 -7 -7 -7 -8 -7 -7 -4 -4 -5 -5 -5 -3 -3 -3 -3 -3 -4 -4 -5 -5
-5 -7 -7 -9 -8 -7 -7 -8 -8 -9 -10 -9 -8 -8 -9 -10 -10 -9 -10 -9 -9 -8 -8 -9 -9 -9 -9 -7 -7 -8 -9 -11 -8 -8 -9 -9 -10 -11 -11 -9 -5 -4 -4 -7 -7 -5 -4 -4 -5 -5 -5 -5 -6 -6
-6 -8 -8 -8 -9 -8 -7 -7 -8 -9 -9 -9 -9 -9 -9 -9 -10 -11 -9 -8 -8 -8 -8 -8 -9 -8 -7 -6 -7 -9 -12 -13 -12 -11 -10 -11 -11 -10 -9 -7 -5 -4 -4 -8 -7 -5 -5 -6 -6 -6 -6 -6 -6 -7
-10 -9 -6 -7 -7 -8 -8 -9 -9 -8 -8 -8 -8 -7 -7 -7 -7 -8 -8 -8 -7 -7 -7 -7 -7 -8 -7 -8 -9 -10 -13 -16 -13 -11 -10 -9 -9 -8 -8 -7 -6 -4 -4 -8 -8 -7 -7 -8 -7 -6 -6 -7 -7 -7
-9 -8 -8 -8 -8 -9 -8 -8 -7 -7 -7 -8 -8 -8 -8 -7 -7 -8 -8 -8 -8 -8 -9 -9 -8 -10 -11 -10 -11 -11 -10 -9 -9 -9 -8 -8 -8 -8 -7 -7 -6 -4 -4 -7 -8 -8 -8 -8 -6 -6 -7 -7 -7 -7
-7 -7 -7 -7 -7 -9 -8 -8 -9 -10 -8 -8 -8 -8 -8 -8 -8 -9 -9 -9 -9 -11 -12 -13 -12 -12 -11 -10 -9 -9 -8 -8 -9 -8 -8 -8 -7 -7 -7 -6 -6 -3 -5 -7 -4 -3 -6 -6 -6 -7 -7 -7 -7 -7

GFSWCAN_850_dewp_117.txt.gz
Dewpoint
3 3 3 3 3 2 2 2 2 2 3 3 2 3 3 3 3 3 2 1 -1 -5 -4 -5 -4 -4 -2 -2 -3 -2 -2 0 1 1 1 -0 -2 -3 -3 -4 -0 1 1 1 1 1 2 -4 -3 -4 -5 -7 -7 -8
4 4 3 3 3 2 2 2 1 2 3 4 3 3 4 3 3 4 3 2 2 -0 -1 -1 -3 -4 -4 -4 -3 -3 -2 -0 0 1 0 -1 -1 -2 -2 -1 -5 -1 -2 0 -0 -0 -4 -4 -5 -6 -6 -8 -7 -7
5 5 5 4 4 3 3 3 2 2 3 3 3 3 3 4 4 3 3 2 2 -0 -1 -1 -2 -4 -5 -5 -4 -2 -2 -2 -1 0 1 1 1 -1 1 -0 -2 -4 -5 -3 -4 -4 -4 -4 -5 -5 -5 -5 -6 -5
4 4 3 3 3 3 3 3 3 3 3 3 2 2 3 3 4 4 3 3 2 -0 -2 -2 -4 -3 -3 -4 -4 -3 -2 -2 -1 -0 -0 0 1 -2 -1 -2 -2 -3 -3 -4 -4 -6 -6 -6 -7 -7 -6 -6 -7 -7
3 2 2 1 2 2 2 2 2 2 2 2 2 2 2 3 3 3 3 2 -1 -2 -2 -3 -1 -1 -1 -2 -2 -3 -2 -2 -2 -1 -1 1 0 -1 -1 -1 -2 -3 -3 -1 -2 -5 -6 -6 -6 -6 -6 -6 -6 -6
1 0 0 0 0 1 1 1 1 1 2 2 2 -1 1 3 3 3 2 -2 -2 -1 0 -1 -0 -1 -2 -3 -4 -3 -3 -2 -1 -1 -1 -1 -0 -1 -0 0 -2 -5 -5 -5 -4 -5 -5 -6 -6 -5 -5 -5 -5 -6
-4 -3 -3 -2 -2 -2 -2 -1 -1 -0 -0 -1 -2 -2 0 1 3 3 2 -0 1 2 -1 -1 -2 -2 -5 -4 -3 -2 -2 -1 -1 -1 -0 -1 -0 -1 -0 0 -5 -5 -5 -5 -4 -4 -3 -4 -4 -4 -4 -4 -4 -4
-6 -7 -6 -4 -4 -4 -4 -4 -5 -5 -5 -4 -3 -3 -3 -2 -0 2 2 2 2 1 0 -1 -1 -2 -4 -3 -2 -2 -2 -1 -1 -0 -1 -1 -1 -1 0 -2 -3 -3 -3 -4 -5 -5 -4 -4 -5 -5 -4 -4 -4 -4
-9 -7 -4 -4 -5 -4 -4 -5 -6 -6 -7 -7 -6 -7 -7 -3 0 1 1 1 1 1 -1 -2 -1 1 -3 -2 -2 -2 -2 -2 -2 -1 -1 -1 -1 -0 -2 -3 -3 -4 -4 -4 -5 -4 -4 -4 -5 -4 -3 -3 -4 -5
-14 -10 -7 -4 -5 -6 -7 -7 -7 -7 -8 -8 -6 -5 -1 0 1 1 0 -1 -1 -1 -2 -2 -2 -2 -3 -3 -3 -2 -3 -2 -2 -2 -3 -1 -1 -4 -4 -5 -5 -5 -6 -5 -4 -4 -4 -3 -4 -5 -4 -5 -7 -9
-13 -15 -14 -11 -10 -9 -8 -8 -7 -6 -7 -5 -2 -1 0 0 -0 0 -1 -1 -2 -2 -2 -2 -2 -2 -3 -2 -1 -2 -2 -3 -2 -2 -2 -1 -1 -4 -5 -5 -7 -8 -7 -7 -7 -5 -5 -4 -4 -5 -6 -6 -9 -8
-11 -12 -14 -16 -15 -13 -11 -9 -7 -7 -3 -1 -0 -1 -1 -0 -1 -1 -1 -1 -2 -2 -2 -2 -2 -2 -2 -2 -1 -1 -2 -2 -1 -2 -2 -2 -4 -6 -6 -8 -9 -9 -9 -11 -7 -5 -4 -4 -4 -4 -5 -5 -9 -7
-8 -10 -12 -14 -15 -15 -15 -12 -8 -7 -4 -1 -3 -3 -1 -1 -1 -1 -3 -2 -2 -3 -2 -2 -3 -2 -3 -3 -2 -1 -1 -1 -4 -3 -3 -4 -5 -8 -7 -7 -9 -9 -9 -10 -12 -10 -5 -5 -4 -4 -4 -5 -9 -6
-6 -7 -10 -12 -13 -13 -15 -14 -9 -6 -4 -4 -2 -3 -2 -3 -2 -3 -3 -4 -3 -2 -3 -3 -3 -3 -4 -3 -3 -1 -2 -2 -2 -3 -4 -5 -7 -7 -7 -6 -9 -11 -8 -8 -6 -7 -8 -10 -12 -13 -12 -11 -10 -8
-5 -5 -7 -10 -11 -10 -11 -12 -9 -6 -3 -3 -3 -2 -3 -3 -3 -2 -2 -2 -3 -3 -3 -2 -2 -2 -4 -4 -2 -3 -2 -4 -5 -5 -5 -7 -4 -5 -7 -8 -7 -9 -8 -8 -8 -6 -6 -7 -8 -7 -9 -12 -11 -10
-6 -5 -3 -5 -8 -10 -9 -10 -8 -4 -3 -3 -2 -4 -4 -2 -3 -2 -1 -2 -2 -4 -3 -2 -3 -2 -2 -2 -2 -3 -4 -5 -5 -6 -6 -5 -6 -7 -7 -8 -7 -8 -7 -6 -8 -8 -6 -8 -7 -7 -7 -9 -13 -11
-8 -5 -5 -4 -4 -7 -8 -8 -6 -4 -4 -2 -3 -3 -4 -3 -3 -3 -3 -3 -2 -3 -3 -2 -1 -3 -4 -2 -2 -5 -5 -5 -6 -7 -6 -7 -8 -10 -10 -8 -8 -7 -6 -5 -6 -6 -7 -7 -6 -7 -7 -8 -9 -11
-7 -8 -7 -6 -4 -3 -4 -4 -6 -6 -4 -3 -4 -6 -4 -4 -4 -4 -5 -5 -4 -3 -3 -3 -5 -4 -3 -4 -4 -6 -6 -7 -6 -7 -7 -9 -8 -8 -7 -6 -6 -6 -5 -6 -6 -6 -6 -6 -6 -6 -5 -6 -9 -10
-10 -9 -8 -7 -5 -3 -4 -3 -4 -5 -6 -8 -8 -8 -6 -6 -7 -7 -7 -6 -5 -5 -5 -2 -2 -2 -4 -6 -6 -6 -6 -6 -6 -6 -6 -7 -7 -8 -7 -7 -6 -5 -5 -5 -5 -5 -5 -5 -5 -5 -5 -5 -6 -7
-10 -9 -9 -8 -5 -3 -4 -4 -4 -5 -5 -8 -10 -10 -9 -9 -10 -9 -9 -8 -7 -6 -5 -5 -6 -8 -8 -8 -8 -7 -6 -6 -7 -9 -9 -8 -7 -6 -6 -6 -5 -5 -5 -4 -4 -4 -4 -4 -4 -4 -4 -4 -4 -5
-9 -10 -9 -7 -5 -3 -3 -4 -4 -5 -7 -8 -9 -9 -9 -9 -8 -7 -6 -6 -5 -6 -6 -7 -8 -8 -8 -8 -8 -8 -7 -7 -7 -7 -7 -6 -6 -6 -5 -5 -4 -4 -4 -3 -3 -3 -3 -3 -3 -3 -3 -3 -4 -4
-8 -9 -9 -7 -4 -4 -3 -4 -4 -5 -5 -5 -5 -8 -8 -8 -8 -8 -9 -7 -7 -7 -7 -7 -7 -6 -6 -6 -6 -6 -6 -6 -5 -5 -5 -5 -4 -4 -5 -4 -4 -4 -3 -3 -3 -3 -3 -3 -3 -3 -3 -3 -3 -4
-7 -6 -6 -5 -4 -4 -4 -4 -4 -5 -6 -5 -6 -7 -7 -6 -8 -8 -7 -8 -8 -8 -8 -7 -7 -7 -6 -6 -5 -5 -5 -4 -4 -4 -5 -5 -4 -4 -4 -4 -3 -3 -3 -3 -3 -3 -3 -3 -3 -3 -3 -3 -3 -4
-6 -4 -4 -4 -4 -4 -4 -4 -4 -4 -4 -7 -9 -10 -12 -8 -9 -7 -8 -9 -10 -9 -9 -8 -8 -7 -6 -5 -4 -5 -6 -5 -5 -5 -4 -4 -4 -4 -4 -4 -4 -3 -3 -1 -1 -1 -1 -1 -2 -2 -2 -2 -2 -3
-5 -5 -4 -4 -4 -4 -5 -5 -6 -8 -9 -10 -10 -13 -11 -9 -11 -13 -10 -11 -11 -10 -11 -11 -9 -8 -8 -8 -8 -8 -7 -7 -6 -4 -4 -2 -2 -3 -4 -4 -5 -6 -5 -4 -3 -2 -3 -3 -2 -1 -1 -2 -2 -2
-4 -5 -5 -5 -5 -5 -6 -7 -8 -9 -10 -12 -12 -10 -9 -11 -10 -9 -10 -12 -11 -12 -12 -12 -10 -9 -8 -8 -6 -6 -4 -3 -3 -2 -3 -3 -3 -3 -4 -4 -5 -7 -7 -7 -6 -4 -3 -3 -3 -2 -2 -2 -2 -3
-5 -5 -5 -5 -5 -5 -7 -8 -9 -10 -11 -10 -12 -11 -8 -6 -7 -9 -11 -12 -12 -13 -13 -13 -11 -9 -8 -7 -7 -5 -6 -6 -6 -4 -5 -5 -5 -5 -5 -5 -7 -10 -8 -7 -6 -5 -4 -2 -2 -3 -2 -3 -3 -4
-6 -6 -6 -6 -5 -5 -9 -11 -13 -11 -11 -10 -9 -11 -9 -9 -10 -12 -13 -14 -13 -13 -12 -12 -13 -12 -10 -9 -8 -8 -8 -8 -8 -8 -7 -7 -8 -10 -13 -14 -13 -12 -9 -8 -6 -5 -4 -2 -5 -4 -3 -3 -3 -3
-5 -5 -7 -11 -8 -7 -8 -10 -10 -10 -12 -11 -9 -9 -10 -11 -12 -12 -12 -13 -12 -11 -11 -10 -10 -9 -8 -8 -9 -9 -8 -8 -7 -6 -6 -7 -11 -16 -16 -11 -10 -10 -8 -7 -5 -5 -5 -6 -6 -4 -4 -5 -6 -5
-6 -7 -7 -10 -9 -9 -9 -9 -11 -12 -11 -11 -11 -10 -10 -10 -11 -12 -11 -11 -10 -10 -10 -10 -9 -7 -8 -7 -7 -8 -9 -9 -8 -7 -6 -7 -12 -12 -10 -9 -8 -8 -8 -6 -5 -5 -5 -7 -7 -6 -7 -7 -6 -4
-10 -8 -8 -9 -10 -10 -10 -11 -10 -9 -9 -9 -9 -8 -9 -9 -10 -9 -9 -9 -9 -9 -8 -8 -9 -10 -8 -8 -7 -6 -7 -10 -9 -8 -9 -9 -9 -9 -8 -8 -7 -7 -7 -6 -5 -6 -7 -8 -8 -7 -6 -4 -4 -6
-9 -9 -9 -10 -9 -9 -9 -9 -9 -8 -8 -8 -8 -8 -8 -7 -7 -8 -8 -8 -8 -8 -9 -10 -10 -13 -16 -13 -12 -11 -10 -9 -9 -9 -9 -8 -8 -8 -7 -7 -7 -7 -6 -6 -5 -6 -7 -8 -6 -5 -5 -6 -7 -7
-8 -8 -9 -9 -10 -10 -10 -9 -9 -10 -9 -9 -8 -8 -8 -8 -8 -9 -10 -10 -10 -10 -10 -11 -11 -11 -13 -14 -13 -12 -11 -10 -10 -10 -10 -9 -9 -8 -7 -7 -7 -7 -6 -6 -5 -6 -6 -3 -3 -4 -4 -6 -7 -7